<?xml version="1.0" encoding="UTF-8" standalone="no" ?>
<gpx xmlns="http://www.topografix.com/GPX/1/1" xmlns:xsi="http://www.w3.org/2001/XMLSchema-instance" xsi:schemaLocation="http://www.topografix.com/GPX/1/1 http://www.topografix.com/GPX/1/1/gpx.xsd" version="1.1" creator="VisuGPX - https://www.visugpx.com">
  <metadata>
    <name>Reco transV 2/4</name>
    <desc><![CDATA[Sortie ASCVTT entre Pont du cros et St Andre pour reconnaitre la deuxieme moitie de la TV 2012
CR : [url]http://www.ascvtt.com/2012/04/23/isnt-it-nice/[/url]]]></desc>
  </metadata>
  <trk>
    <name><![CDATA[Reco transV 2/4_1]]></name>
    <trkseg>
      <trkpt lat="43.86047" lon="7.199">
        <ele>148</ele>
        <time>2012-04-22T07:44:34Z</time>
      </trkpt>
      <trkpt lat="43.86074" lon="7.19921">
        <ele>144</ele>
        <time>2012-04-22T07:46:35Z</time>
      </trkpt>
      <trkpt lat="43.86083" lon="7.19941">
        <ele>144</ele>
        <time>2012-04-22T07:46:40Z</time>
      </trkpt>
      <trkpt lat="43.8609" lon="7.19965">
        <ele>144</ele>
        <time>2012-04-22T07:46:46Z</time>
      </trkpt>
      <trkpt lat="43.86096" lon="7.19985">
        <ele>145</ele>
        <time>2012-04-22T07:46:51Z</time>
      </trkpt>
      <trkpt lat="43.86105" lon="7.20005">
        <ele>148</ele>
        <time>2012-04-22T07:46:56Z</time>
      </trkpt>
      <trkpt lat="43.86115" lon="7.20026">
        <ele>152</ele>
        <time>2012-04-22T07:47:05Z</time>
      </trkpt>
      <trkpt lat="43.86127" lon="7.20044">
        <ele>152</ele>
        <time>2012-04-22T07:47:10Z</time>
      </trkpt>
      <trkpt lat="43.86143" lon="7.20062">
        <ele>152</ele>
        <time>2012-04-22T07:47:15Z</time>
      </trkpt>
      <trkpt lat="43.86158" lon="7.20082">
        <ele>152</ele>
        <time>2012-04-22T07:47:20Z</time>
      </trkpt>
      <trkpt lat="43.86176" lon="7.20111">
        <ele>150</ele>
        <time>2012-04-22T07:47:25Z</time>
      </trkpt>
      <trkpt lat="43.86184" lon="7.20128">
        <ele>148</ele>
        <time>2012-04-22T07:47:31Z</time>
      </trkpt>
      <trkpt lat="43.8619" lon="7.20162">
        <ele>145</ele>
        <time>2012-04-22T07:47:36Z</time>
      </trkpt>
      <trkpt lat="43.86179" lon="7.20201">
        <ele>145</ele>
        <time>2012-04-22T07:47:42Z</time>
      </trkpt>
      <trkpt lat="43.86179" lon="7.20216">
        <ele>145</ele>
        <time>2012-04-22T07:47:48Z</time>
      </trkpt>
      <trkpt lat="43.86175" lon="7.20246">
        <ele>145</ele>
        <time>2012-04-22T07:47:54Z</time>
      </trkpt>
      <trkpt lat="43.86169" lon="7.20285">
        <ele>145</ele>
        <time>2012-04-22T07:47:59Z</time>
      </trkpt>
      <trkpt lat="43.86166" lon="7.20299">
        <ele>145</ele>
        <time>2012-04-22T07:48:05Z</time>
      </trkpt>
      <trkpt lat="43.86161" lon="7.20329">
        <ele>145</ele>
        <time>2012-04-22T07:48:11Z</time>
      </trkpt>
      <trkpt lat="43.86159" lon="7.2036">
        <ele>145</ele>
        <time>2012-04-22T07:48:17Z</time>
      </trkpt>
      <trkpt lat="43.86156" lon="7.20391">
        <ele>145</ele>
        <time>2012-04-22T07:48:23Z</time>
      </trkpt>
      <trkpt lat="43.86153" lon="7.20421">
        <ele>145</ele>
        <time>2012-04-22T07:48:29Z</time>
      </trkpt>
      <trkpt lat="43.86147" lon="7.20449">
        <ele>145</ele>
        <time>2012-04-22T07:48:35Z</time>
      </trkpt>
      <trkpt lat="43.86133" lon="7.20492">
        <ele>145</ele>
        <time>2012-04-22T07:48:41Z</time>
      </trkpt>
      <trkpt lat="43.8613" lon="7.20506">
        <ele>145</ele>
        <time>2012-04-22T07:48:47Z</time>
      </trkpt>
      <trkpt lat="43.86122" lon="7.20543">
        <ele>145</ele>
        <time>2012-04-22T07:48:54Z</time>
      </trkpt>
      <trkpt lat="43.86107" lon="7.20591">
        <ele>146</ele>
        <time>2012-04-22T07:49:00Z</time>
      </trkpt>
      <trkpt lat="43.86092" lon="7.20626">
        <ele>160</ele>
        <time>2012-04-22T07:49:06Z</time>
      </trkpt>
      <trkpt lat="43.86087" lon="7.20651">
        <ele>165</ele>
        <time>2012-04-22T07:49:11Z</time>
      </trkpt>
      <trkpt lat="43.86087" lon="7.20666">
        <ele>169</ele>
        <time>2012-04-22T07:49:18Z</time>
      </trkpt>
      <trkpt lat="43.86074" lon="7.20714">
        <ele>174</ele>
        <time>2012-04-22T07:49:25Z</time>
      </trkpt>
      <trkpt lat="43.86066" lon="7.20775">
        <ele>178</ele>
        <time>2012-04-22T07:49:31Z</time>
      </trkpt>
      <trkpt lat="43.86062" lon="7.20802">
        <ele>181</ele>
        <time>2012-04-22T07:49:38Z</time>
      </trkpt>
      <trkpt lat="43.86045" lon="7.20858">
        <ele>185</ele>
        <time>2012-04-22T07:49:46Z</time>
      </trkpt>
      <trkpt lat="43.86028" lon="7.20913">
        <ele>193</ele>
        <time>2012-04-22T07:49:53Z</time>
      </trkpt>
      <trkpt lat="43.86036" lon="7.20947">
        <ele>203</ele>
        <time>2012-04-22T07:50:00Z</time>
      </trkpt>
      <trkpt lat="43.8605" lon="7.20985">
        <ele>207</ele>
        <time>2012-04-22T07:50:07Z</time>
      </trkpt>
      <trkpt lat="43.86059" lon="7.21034">
        <ele>209</ele>
        <time>2012-04-22T07:50:13Z</time>
      </trkpt>
      <trkpt lat="43.86071" lon="7.21051">
        <ele>212</ele>
        <time>2012-04-22T07:50:20Z</time>
      </trkpt>
      <trkpt lat="43.86094" lon="7.21071">
        <ele>214</ele>
        <time>2012-04-22T07:50:26Z</time>
      </trkpt>
      <trkpt lat="43.86112" lon="7.21092">
        <ele>214</ele>
        <time>2012-04-22T07:50:32Z</time>
      </trkpt>
      <trkpt lat="43.86136" lon="7.21126">
        <ele>214</ele>
        <time>2012-04-22T07:50:38Z</time>
      </trkpt>
      <trkpt lat="43.86147" lon="7.2114">
        <ele>214</ele>
        <time>2012-04-22T07:50:45Z</time>
      </trkpt>
      <trkpt lat="43.86166" lon="7.21176">
        <ele>214</ele>
        <time>2012-04-22T07:50:51Z</time>
      </trkpt>
      <trkpt lat="43.8617" lon="7.21187">
        <ele>216</ele>
        <time>2012-04-22T07:50:58Z</time>
      </trkpt>
      <trkpt lat="43.86603" lon="7.21348">
        <ele>218</ele>
        <time>2012-04-22T07:52:47Z</time>
      </trkpt>
      <trkpt lat="43.86773" lon="7.21435">
        <ele>221</ele>
        <time>2012-04-22T07:53:31Z</time>
      </trkpt>
      <trkpt lat="43.86868" lon="7.21518">
        <ele>224</ele>
        <time>2012-04-22T07:53:57Z</time>
      </trkpt>
      <trkpt lat="43.86873" lon="7.21525">
        <ele>228</ele>
        <time>2012-04-22T07:54:03Z</time>
      </trkpt>
      <trkpt lat="43.86904" lon="7.21536">
        <ele>236</ele>
        <time>2012-04-22T07:54:08Z</time>
      </trkpt>
      <trkpt lat="43.86943" lon="7.21545">
        <ele>242</ele>
        <time>2012-04-22T07:54:15Z</time>
      </trkpt>
      <trkpt lat="43.86971" lon="7.21549">
        <ele>240</ele>
        <time>2012-04-22T07:54:22Z</time>
      </trkpt>
      <trkpt lat="43.87003" lon="7.21551">
        <ele>234</ele>
        <time>2012-04-22T07:54:28Z</time>
      </trkpt>
      <trkpt lat="43.87048" lon="7.21558">
        <ele>226</ele>
        <time>2012-04-22T07:54:35Z</time>
      </trkpt>
      <trkpt lat="43.87066" lon="7.21563">
        <ele>218</ele>
        <time>2012-04-22T07:54:42Z</time>
      </trkpt>
      <trkpt lat="43.87096" lon="7.21573">
        <ele>212</ele>
        <time>2012-04-22T07:54:49Z</time>
      </trkpt>
      <trkpt lat="43.87124" lon="7.21591">
        <ele>206</ele>
        <time>2012-04-22T07:54:56Z</time>
      </trkpt>
      <trkpt lat="43.87148" lon="7.21609">
        <ele>202</ele>
        <time>2012-04-22T07:55:04Z</time>
      </trkpt>
      <trkpt lat="43.87172" lon="7.21625">
        <ele>199</ele>
        <time>2012-04-22T07:55:11Z</time>
      </trkpt>
      <trkpt lat="43.87202" lon="7.21645">
        <ele>196</ele>
        <time>2012-04-22T07:55:18Z</time>
      </trkpt>
      <trkpt lat="43.87239" lon="7.21677">
        <ele>193</ele>
        <time>2012-04-22T07:55:25Z</time>
      </trkpt>
      <trkpt lat="43.87274" lon="7.21707">
        <ele>191</ele>
        <time>2012-04-22T07:55:31Z</time>
      </trkpt>
      <trkpt lat="43.87303" lon="7.21732">
        <ele>191</ele>
        <time>2012-04-22T07:55:37Z</time>
      </trkpt>
      <trkpt lat="43.87342" lon="7.21779">
        <ele>191</ele>
        <time>2012-04-22T07:55:43Z</time>
      </trkpt>
      <trkpt lat="43.87354" lon="7.21797">
        <ele>191</ele>
        <time>2012-04-22T07:55:49Z</time>
      </trkpt>
      <trkpt lat="43.87379" lon="7.2184">
        <ele>191</ele>
        <time>2012-04-22T07:55:56Z</time>
      </trkpt>
      <trkpt lat="43.87397" lon="7.21878">
        <ele>191</ele>
        <time>2012-04-22T07:56:02Z</time>
      </trkpt>
      <trkpt lat="43.87418" lon="7.21936">
        <ele>191</ele>
        <time>2012-04-22T07:56:08Z</time>
      </trkpt>
      <trkpt lat="43.87429" lon="7.2196">
        <ele>191</ele>
        <time>2012-04-22T07:56:15Z</time>
      </trkpt>
      <trkpt lat="43.87448" lon="7.22019">
        <ele>191</ele>
        <time>2012-04-22T07:56:21Z</time>
      </trkpt>
      <trkpt lat="43.87463" lon="7.22033">
        <ele>191</ele>
        <time>2012-04-22T07:56:28Z</time>
      </trkpt>
      <trkpt lat="43.87485" lon="7.221">
        <ele>189</ele>
        <time>2012-04-22T07:56:34Z</time>
      </trkpt>
      <trkpt lat="43.87488" lon="7.22121">
        <ele>188</ele>
        <time>2012-04-22T07:56:41Z</time>
      </trkpt>
      <trkpt lat="43.87499" lon="7.22193">
        <ele>187</ele>
        <time>2012-04-22T07:56:47Z</time>
      </trkpt>
      <trkpt lat="43.87508" lon="7.2222">
        <ele>187</ele>
        <time>2012-04-22T07:56:54Z</time>
      </trkpt>
      <trkpt lat="43.87514" lon="7.22277">
        <ele>186</ele>
        <time>2012-04-22T07:57:02Z</time>
      </trkpt>
      <trkpt lat="43.8753" lon="7.2234">
        <ele>186</ele>
        <time>2012-04-22T07:57:09Z</time>
      </trkpt>
      <trkpt lat="43.87549" lon="7.22353">
        <ele>186</ele>
        <time>2012-04-22T07:57:16Z</time>
      </trkpt>
      <trkpt lat="43.87597" lon="7.22388">
        <ele>186</ele>
        <time>2012-04-22T07:57:23Z</time>
      </trkpt>
      <trkpt lat="43.87609" lon="7.22413">
        <ele>186</ele>
        <time>2012-04-22T07:57:31Z</time>
      </trkpt>
      <trkpt lat="43.87624" lon="7.22458">
        <ele>187</ele>
        <time>2012-04-22T07:57:38Z</time>
      </trkpt>
      <trkpt lat="43.87636" lon="7.22504">
        <ele>188</ele>
        <time>2012-04-22T07:57:45Z</time>
      </trkpt>
      <trkpt lat="43.87664" lon="7.22547">
        <ele>188</ele>
        <time>2012-04-22T07:57:53Z</time>
      </trkpt>
      <trkpt lat="43.87688" lon="7.22586">
        <ele>188</ele>
        <time>2012-04-22T07:58:00Z</time>
      </trkpt>
      <trkpt lat="43.87692" lon="7.22644">
        <ele>188</ele>
        <time>2012-04-22T07:58:08Z</time>
      </trkpt>
      <trkpt lat="43.87701" lon="7.22701">
        <ele>188</ele>
        <time>2012-04-22T07:58:14Z</time>
      </trkpt>
      <trkpt lat="43.87732" lon="7.2273">
        <ele>189</ele>
        <time>2012-04-22T07:58:23Z</time>
      </trkpt>
      <trkpt lat="43.87762" lon="7.22769">
        <ele>193</ele>
        <time>2012-04-22T07:58:30Z</time>
      </trkpt>
      <trkpt lat="43.87787" lon="7.22801">
        <ele>196</ele>
        <time>2012-04-22T07:58:36Z</time>
      </trkpt>
      <trkpt lat="43.87816" lon="7.22825">
        <ele>198</ele>
        <time>2012-04-22T07:58:42Z</time>
      </trkpt>
      <trkpt lat="43.87853" lon="7.22866">
        <ele>198</ele>
        <time>2012-04-22T07:58:48Z</time>
      </trkpt>
      <trkpt lat="43.87859" lon="7.22894">
        <ele>198</ele>
        <time>2012-04-22T07:58:55Z</time>
      </trkpt>
      <trkpt lat="43.87874" lon="7.2294">
        <ele>199</ele>
        <time>2012-04-22T07:59:02Z</time>
      </trkpt>
      <trkpt lat="43.87897" lon="7.22971">
        <ele>199</ele>
        <time>2012-04-22T07:59:08Z</time>
      </trkpt>
      <trkpt lat="43.87897" lon="7.23033">
        <ele>199</ele>
        <time>2012-04-22T07:59:17Z</time>
      </trkpt>
      <trkpt lat="43.87921" lon="7.23093">
        <ele>199</ele>
        <time>2012-04-22T07:59:24Z</time>
      </trkpt>
      <trkpt lat="43.8793" lon="7.23112">
        <ele>199</ele>
        <time>2012-04-22T07:59:31Z</time>
      </trkpt>
      <trkpt lat="43.87934" lon="7.23164">
        <ele>199</ele>
        <time>2012-04-22T07:59:38Z</time>
      </trkpt>
      <trkpt lat="43.87936" lon="7.23197">
        <ele>199</ele>
        <time>2012-04-22T07:59:45Z</time>
      </trkpt>
      <trkpt lat="43.87937" lon="7.23229">
        <ele>199</ele>
        <time>2012-04-22T07:59:51Z</time>
      </trkpt>
      <trkpt lat="43.87939" lon="7.23247">
        <ele>199</ele>
        <time>2012-04-22T07:59:58Z</time>
      </trkpt>
      <trkpt lat="43.87932" lon="7.23221">
        <ele>199</ele>
        <time>2012-04-22T08:00:07Z</time>
      </trkpt>
      <trkpt lat="43.87921" lon="7.2318">
        <ele>198</ele>
        <time>2012-04-22T08:00:14Z</time>
      </trkpt>
      <trkpt lat="43.87909" lon="7.23139">
        <ele>194</ele>
        <time>2012-04-22T08:00:22Z</time>
      </trkpt>
      <trkpt lat="43.87892" lon="7.23127">
        <ele>191</ele>
        <time>2012-04-22T08:00:29Z</time>
      </trkpt>
      <trkpt lat="43.87882" lon="7.23128">
        <ele>187</ele>
        <time>2012-04-22T08:00:38Z</time>
      </trkpt>
      <trkpt lat="43.8788" lon="7.23113">
        <ele>186</ele>
        <time>2012-04-22T08:00:46Z</time>
      </trkpt>
      <trkpt lat="43.87878" lon="7.23111">
        <ele>186</ele>
        <time>2012-04-22T08:00:55Z</time>
      </trkpt>
      <trkpt lat="43.87873" lon="7.23112">
        <ele>187</ele>
        <time>2012-04-22T08:01:03Z</time>
      </trkpt>
      <trkpt lat="43.87872" lon="7.23111">
        <ele>187</ele>
        <time>2012-04-22T08:01:53Z</time>
      </trkpt>
      <trkpt lat="43.87871" lon="7.23113">
        <ele>187</ele>
        <time>2012-04-22T08:02:27Z</time>
      </trkpt>
      <trkpt lat="43.87872" lon="7.23113">
        <ele>187</ele>
        <time>2012-04-22T08:02:35Z</time>
      </trkpt>
      <trkpt lat="43.87873" lon="7.23115">
        <ele>187</ele>
        <time>2012-04-22T08:02:44Z</time>
      </trkpt>
      <trkpt lat="43.87879" lon="7.23119">
        <ele>187</ele>
        <time>2012-04-22T08:02:52Z</time>
      </trkpt>
      <trkpt lat="43.87885" lon="7.23124">
        <ele>186</ele>
        <time>2012-04-22T08:03:00Z</time>
      </trkpt>
      <trkpt lat="43.87873" lon="7.23135">
        <ele>186</ele>
        <time>2012-04-22T08:03:08Z</time>
      </trkpt>
      <trkpt lat="43.87865" lon="7.23136">
        <ele>186</ele>
        <time>2012-04-22T08:03:16Z</time>
      </trkpt>
      <trkpt lat="43.8785" lon="7.23139">
        <ele>186</ele>
        <time>2012-04-22T08:03:23Z</time>
      </trkpt>
      <trkpt lat="43.87848" lon="7.23139">
        <ele>186</ele>
        <time>2012-04-22T08:03:34Z</time>
      </trkpt>
      <trkpt lat="43.87846" lon="7.23139">
        <ele>186</ele>
        <time>2012-04-22T08:03:42Z</time>
      </trkpt>
      <trkpt lat="43.87846" lon="7.23142">
        <ele>186</ele>
        <time>2012-04-22T08:04:23Z</time>
      </trkpt>
      <trkpt lat="43.87846" lon="7.23152">
        <ele>186</ele>
        <time>2012-04-22T08:04:31Z</time>
      </trkpt>
      <trkpt lat="43.87844" lon="7.23166">
        <ele>186</ele>
        <time>2012-04-22T08:04:38Z</time>
      </trkpt>
      <trkpt lat="43.87841" lon="7.23169">
        <ele>186</ele>
        <time>2012-04-22T08:04:46Z</time>
      </trkpt>
      <trkpt lat="43.87839" lon="7.23176">
        <ele>191</ele>
        <time>2012-04-22T08:04:55Z</time>
      </trkpt>
      <trkpt lat="43.87838" lon="7.23185">
        <ele>194</ele>
        <time>2012-04-22T08:05:03Z</time>
      </trkpt>
      <trkpt lat="43.87838" lon="7.23189">
        <ele>196</ele>
        <time>2012-04-22T08:05:09Z</time>
      </trkpt>
      <trkpt lat="43.87835" lon="7.23194">
        <ele>199</ele>
        <time>2012-04-22T08:05:18Z</time>
      </trkpt>
      <trkpt lat="43.87835" lon="7.23182">
        <ele>201</ele>
        <time>2012-04-22T08:05:26Z</time>
      </trkpt>
      <trkpt lat="43.87832" lon="7.23172">
        <ele>201</ele>
        <time>2012-04-22T08:05:34Z</time>
      </trkpt>
      <trkpt lat="43.8783" lon="7.23165">
        <ele>201</ele>
        <time>2012-04-22T08:05:43Z</time>
      </trkpt>
      <trkpt lat="43.87827" lon="7.23157">
        <ele>202</ele>
        <time>2012-04-22T08:05:50Z</time>
      </trkpt>
      <trkpt lat="43.87825" lon="7.23148">
        <ele>206</ele>
        <time>2012-04-22T08:05:57Z</time>
      </trkpt>
      <trkpt lat="43.87825" lon="7.2314">
        <ele>206</ele>
        <time>2012-04-22T08:06:06Z</time>
      </trkpt>
      <trkpt lat="43.87822" lon="7.23124">
        <ele>208</ele>
        <time>2012-04-22T08:06:15Z</time>
      </trkpt>
      <trkpt lat="43.8782" lon="7.23119">
        <ele>210</ele>
        <time>2012-04-22T08:06:22Z</time>
      </trkpt>
      <trkpt lat="43.8782" lon="7.2311">
        <ele>211</ele>
        <time>2012-04-22T08:06:30Z</time>
      </trkpt>
      <trkpt lat="43.87817" lon="7.23099">
        <ele>213</ele>
        <time>2012-04-22T08:06:39Z</time>
      </trkpt>
      <trkpt lat="43.87812" lon="7.2309">
        <ele>215</ele>
        <time>2012-04-22T08:06:46Z</time>
      </trkpt>
      <trkpt lat="43.87804" lon="7.23082">
        <ele>216</ele>
        <time>2012-04-22T08:06:55Z</time>
      </trkpt>
      <trkpt lat="43.87802" lon="7.2308">
        <ele>220</ele>
        <time>2012-04-22T08:07:04Z</time>
      </trkpt>
      <trkpt lat="43.87798" lon="7.23086">
        <ele>222</ele>
        <time>2012-04-22T08:07:13Z</time>
      </trkpt>
      <trkpt lat="43.87794" lon="7.23087">
        <ele>222</ele>
        <time>2012-04-22T08:07:22Z</time>
      </trkpt>
      <trkpt lat="43.87791" lon="7.23081">
        <ele>222</ele>
        <time>2012-04-22T08:07:29Z</time>
      </trkpt>
      <trkpt lat="43.87785" lon="7.23077">
        <ele>222</ele>
        <time>2012-04-22T08:07:36Z</time>
      </trkpt>
      <trkpt lat="43.87779" lon="7.23068">
        <ele>223</ele>
        <time>2012-04-22T08:07:45Z</time>
      </trkpt>
      <trkpt lat="43.87772" lon="7.23063">
        <ele>223</ele>
        <time>2012-04-22T08:07:52Z</time>
      </trkpt>
      <trkpt lat="43.87765" lon="7.23054">
        <ele>224</ele>
        <time>2012-04-22T08:08:00Z</time>
      </trkpt>
      <trkpt lat="43.87759" lon="7.23047">
        <ele>225</ele>
        <time>2012-04-22T08:08:07Z</time>
      </trkpt>
      <trkpt lat="43.8775" lon="7.23046">
        <ele>228</ele>
        <time>2012-04-22T08:08:15Z</time>
      </trkpt>
      <trkpt lat="43.87743" lon="7.23042">
        <ele>230</ele>
        <time>2012-04-22T08:08:22Z</time>
      </trkpt>
      <trkpt lat="43.87736" lon="7.23042">
        <ele>232</ele>
        <time>2012-04-22T08:08:32Z</time>
      </trkpt>
      <trkpt lat="43.87732" lon="7.23032">
        <ele>234</ele>
        <time>2012-04-22T08:08:43Z</time>
      </trkpt>
      <trkpt lat="43.87731" lon="7.23028">
        <ele>237</ele>
        <time>2012-04-22T08:08:52Z</time>
      </trkpt>
      <trkpt lat="43.87732" lon="7.2303">
        <ele>241</ele>
        <time>2012-04-22T08:09:01Z</time>
      </trkpt>
      <trkpt lat="43.87734" lon="7.23035">
        <ele>242</ele>
        <time>2012-04-22T08:09:11Z</time>
      </trkpt>
      <trkpt lat="43.87734" lon="7.23033">
        <ele>242</ele>
        <time>2012-04-22T08:09:35Z</time>
      </trkpt>
      <trkpt lat="43.87721" lon="7.23015">
        <ele>242</ele>
        <time>2012-04-22T08:09:44Z</time>
      </trkpt>
      <trkpt lat="43.87709" lon="7.23011">
        <ele>242</ele>
        <time>2012-04-22T08:09:51Z</time>
      </trkpt>
      <trkpt lat="43.87703" lon="7.23007">
        <ele>242</ele>
        <time>2012-04-22T08:09:59Z</time>
      </trkpt>
      <trkpt lat="43.87699" lon="7.23007">
        <ele>244</ele>
        <time>2012-04-22T08:10:08Z</time>
      </trkpt>
      <trkpt lat="43.87691" lon="7.23004">
        <ele>246</ele>
        <time>2012-04-22T08:10:15Z</time>
      </trkpt>
      <trkpt lat="43.87681" lon="7.23002">
        <ele>249</ele>
        <time>2012-04-22T08:10:23Z</time>
      </trkpt>
      <trkpt lat="43.87673" lon="7.22997">
        <ele>252</ele>
        <time>2012-04-22T08:10:31Z</time>
      </trkpt>
      <trkpt lat="43.87669" lon="7.22991">
        <ele>252</ele>
        <time>2012-04-22T08:10:39Z</time>
      </trkpt>
      <trkpt lat="43.87665" lon="7.22987">
        <ele>252</ele>
        <time>2012-04-22T08:10:46Z</time>
      </trkpt>
      <trkpt lat="43.87659" lon="7.22982">
        <ele>252</ele>
        <time>2012-04-22T08:10:53Z</time>
      </trkpt>
      <trkpt lat="43.87655" lon="7.22975">
        <ele>252</ele>
        <time>2012-04-22T08:11:02Z</time>
      </trkpt>
      <trkpt lat="43.87652" lon="7.22966">
        <ele>256</ele>
        <time>2012-04-22T08:11:11Z</time>
      </trkpt>
      <trkpt lat="43.87648" lon="7.22954">
        <ele>260</ele>
        <time>2012-04-22T08:11:19Z</time>
      </trkpt>
      <trkpt lat="43.87647" lon="7.22936">
        <ele>264</ele>
        <time>2012-04-22T08:11:26Z</time>
      </trkpt>
      <trkpt lat="43.87642" lon="7.2292">
        <ele>268</ele>
        <time>2012-04-22T08:11:33Z</time>
      </trkpt>
      <trkpt lat="43.87632" lon="7.22905">
        <ele>272</ele>
        <time>2012-04-22T08:11:39Z</time>
      </trkpt>
      <trkpt lat="43.87624" lon="7.22894">
        <ele>274</ele>
        <time>2012-04-22T08:11:45Z</time>
      </trkpt>
      <trkpt lat="43.87618" lon="7.22883">
        <ele>274</ele>
        <time>2012-04-22T08:11:51Z</time>
      </trkpt>
      <trkpt lat="43.8761" lon="7.22867">
        <ele>274</ele>
        <time>2012-04-22T08:11:58Z</time>
      </trkpt>
      <trkpt lat="43.87596" lon="7.22858">
        <ele>274</ele>
        <time>2012-04-22T08:12:06Z</time>
      </trkpt>
      <trkpt lat="43.8758" lon="7.22858">
        <ele>274</ele>
        <time>2012-04-22T08:12:13Z</time>
      </trkpt>
      <trkpt lat="43.87565" lon="7.22856">
        <ele>274</ele>
        <time>2012-04-22T08:12:19Z</time>
      </trkpt>
      <trkpt lat="43.87549" lon="7.22839">
        <ele>274</ele>
        <time>2012-04-22T08:12:27Z</time>
      </trkpt>
      <trkpt lat="43.87554" lon="7.2282">
        <ele>274</ele>
        <time>2012-04-22T08:12:35Z</time>
      </trkpt>
      <trkpt lat="43.87557" lon="7.22816">
        <ele>274</ele>
        <time>2012-04-22T08:12:44Z</time>
      </trkpt>
      <trkpt lat="43.8756" lon="7.22808">
        <ele>274</ele>
        <time>2012-04-22T08:12:51Z</time>
      </trkpt>
      <trkpt lat="43.87562" lon="7.228">
        <ele>274</ele>
        <time>2012-04-22T08:12:57Z</time>
      </trkpt>
      <trkpt lat="43.87564" lon="7.22793">
        <ele>274</ele>
        <time>2012-04-22T08:13:05Z</time>
      </trkpt>
      <trkpt lat="43.87565" lon="7.22784">
        <ele>274</ele>
        <time>2012-04-22T08:13:11Z</time>
      </trkpt>
      <trkpt lat="43.87569" lon="7.22772">
        <ele>274</ele>
        <time>2012-04-22T08:13:17Z</time>
      </trkpt>
      <trkpt lat="43.87569" lon="7.22764">
        <ele>278</ele>
        <time>2012-04-22T08:13:25Z</time>
      </trkpt>
      <trkpt lat="43.87567" lon="7.22766">
        <ele>280</ele>
        <time>2012-04-22T08:13:49Z</time>
      </trkpt>
      <trkpt lat="43.87565" lon="7.2277">
        <ele>284</ele>
        <time>2012-04-22T08:13:57Z</time>
      </trkpt>
      <trkpt lat="43.87562" lon="7.2277">
        <ele>291</ele>
        <time>2012-04-22T08:14:05Z</time>
      </trkpt>
      <trkpt lat="43.87561" lon="7.22771">
        <ele>291</ele>
        <time>2012-04-22T08:14:15Z</time>
      </trkpt>
      <trkpt lat="43.87563" lon="7.22769">
        <ele>290</ele>
        <time>2012-04-22T08:14:21Z</time>
      </trkpt>
      <trkpt lat="43.87563" lon="7.22763">
        <ele>286</ele>
        <time>2012-04-22T08:14:29Z</time>
      </trkpt>
      <trkpt lat="43.87558" lon="7.22743">
        <ele>282</ele>
        <time>2012-04-22T08:14:36Z</time>
      </trkpt>
      <trkpt lat="43.87557" lon="7.22739">
        <ele>281</ele>
        <time>2012-04-22T08:14:42Z</time>
      </trkpt>
      <trkpt lat="43.87556" lon="7.2273">
        <ele>281</ele>
        <time>2012-04-22T08:14:49Z</time>
      </trkpt>
      <trkpt lat="43.87552" lon="7.22722">
        <ele>282</ele>
        <time>2012-04-22T08:14:55Z</time>
      </trkpt>
      <trkpt lat="43.87545" lon="7.22713">
        <ele>285</ele>
        <time>2012-04-22T08:15:01Z</time>
      </trkpt>
      <trkpt lat="43.87542" lon="7.22707">
        <ele>287</ele>
        <time>2012-04-22T08:15:07Z</time>
      </trkpt>
      <trkpt lat="43.87542" lon="7.22708">
        <ele>292</ele>
        <time>2012-04-22T08:15:17Z</time>
      </trkpt>
      <trkpt lat="43.87543" lon="7.22712">
        <ele>295</ele>
        <time>2012-04-22T08:15:24Z</time>
      </trkpt>
      <trkpt lat="43.87544" lon="7.22719">
        <ele>296</ele>
        <time>2012-04-22T08:15:29Z</time>
      </trkpt>
      <trkpt lat="43.87544" lon="7.22729">
        <ele>296</ele>
        <time>2012-04-22T08:15:36Z</time>
      </trkpt>
      <trkpt lat="43.87542" lon="7.22742">
        <ele>296</ele>
        <time>2012-04-22T08:15:42Z</time>
      </trkpt>
      <trkpt lat="43.8754" lon="7.22748">
        <ele>297</ele>
        <time>2012-04-22T08:15:49Z</time>
      </trkpt>
      <trkpt lat="43.87538" lon="7.22759">
        <ele>299</ele>
        <time>2012-04-22T08:15:59Z</time>
      </trkpt>
      <trkpt lat="43.87533" lon="7.22762">
        <ele>302</ele>
        <time>2012-04-22T08:16:07Z</time>
      </trkpt>
      <trkpt lat="43.87533" lon="7.22754">
        <ele>302</ele>
        <time>2012-04-22T08:16:14Z</time>
      </trkpt>
      <trkpt lat="43.87529" lon="7.22743">
        <ele>302</ele>
        <time>2012-04-22T08:16:23Z</time>
      </trkpt>
      <trkpt lat="43.87526" lon="7.22736">
        <ele>304</ele>
        <time>2012-04-22T08:16:28Z</time>
      </trkpt>
      <trkpt lat="43.87521" lon="7.22722">
        <ele>309</ele>
        <time>2012-04-22T08:16:37Z</time>
      </trkpt>
      <trkpt lat="43.8752" lon="7.22731">
        <ele>310</ele>
        <time>2012-04-22T08:16:46Z</time>
      </trkpt>
      <trkpt lat="43.8752" lon="7.22739">
        <ele>310</ele>
        <time>2012-04-22T08:16:52Z</time>
      </trkpt>
      <trkpt lat="43.87511" lon="7.22746">
        <ele>310</ele>
        <time>2012-04-22T08:17:02Z</time>
      </trkpt>
      <trkpt lat="43.87509" lon="7.22737">
        <ele>310</ele>
        <time>2012-04-22T08:17:09Z</time>
      </trkpt>
      <trkpt lat="43.87507" lon="7.2273">
        <ele>310</ele>
        <time>2012-04-22T08:17:15Z</time>
      </trkpt>
      <trkpt lat="43.87505" lon="7.22723">
        <ele>314</ele>
        <time>2012-04-22T08:17:23Z</time>
      </trkpt>
      <trkpt lat="43.87502" lon="7.22715">
        <ele>319</ele>
        <time>2012-04-22T08:17:31Z</time>
      </trkpt>
      <trkpt lat="43.87504" lon="7.22714">
        <ele>323</ele>
        <time>2012-04-22T08:17:40Z</time>
      </trkpt>
      <trkpt lat="43.87502" lon="7.2272">
        <ele>324</ele>
        <time>2012-04-22T08:17:46Z</time>
      </trkpt>
      <trkpt lat="43.87498" lon="7.22733">
        <ele>325</ele>
        <time>2012-04-22T08:17:54Z</time>
      </trkpt>
      <trkpt lat="43.87495" lon="7.22738">
        <ele>325</ele>
        <time>2012-04-22T08:18:02Z</time>
      </trkpt>
      <trkpt lat="43.87491" lon="7.22745">
        <ele>325</ele>
        <time>2012-04-22T08:18:09Z</time>
      </trkpt>
      <trkpt lat="43.87488" lon="7.22739">
        <ele>326</ele>
        <time>2012-04-22T08:18:17Z</time>
      </trkpt>
      <trkpt lat="43.87495" lon="7.22729">
        <ele>326</ele>
        <time>2012-04-22T08:18:25Z</time>
      </trkpt>
      <trkpt lat="43.87487" lon="7.22718">
        <ele>326</ele>
        <time>2012-04-22T08:18:32Z</time>
      </trkpt>
      <trkpt lat="43.87483" lon="7.22712">
        <ele>326</ele>
        <time>2012-04-22T08:18:39Z</time>
      </trkpt>
      <trkpt lat="43.87483" lon="7.22703">
        <ele>327</ele>
        <time>2012-04-22T08:18:45Z</time>
      </trkpt>
      <trkpt lat="43.87484" lon="7.22693">
        <ele>331</ele>
        <time>2012-04-22T08:18:53Z</time>
      </trkpt>
      <trkpt lat="43.87482" lon="7.22692">
        <ele>335</ele>
        <time>2012-04-22T08:19:02Z</time>
      </trkpt>
      <trkpt lat="43.87477" lon="7.22699">
        <ele>338</ele>
        <time>2012-04-22T08:19:10Z</time>
      </trkpt>
      <trkpt lat="43.87475" lon="7.22704">
        <ele>340</ele>
        <time>2012-04-22T08:19:16Z</time>
      </trkpt>
      <trkpt lat="43.87474" lon="7.22716">
        <ele>341</ele>
        <time>2012-04-22T08:19:22Z</time>
      </trkpt>
      <trkpt lat="43.87475" lon="7.22724">
        <ele>341</ele>
        <time>2012-04-22T08:19:30Z</time>
      </trkpt>
      <trkpt lat="43.87467" lon="7.22723">
        <ele>340</ele>
        <time>2012-04-22T08:19:40Z</time>
      </trkpt>
      <trkpt lat="43.87463" lon="7.22714">
        <ele>340</ele>
        <time>2012-04-22T08:19:48Z</time>
      </trkpt>
      <trkpt lat="43.87458" lon="7.22709">
        <ele>341</ele>
        <time>2012-04-22T08:19:55Z</time>
      </trkpt>
      <trkpt lat="43.87458" lon="7.22717">
        <ele>344</ele>
        <time>2012-04-22T08:20:05Z</time>
      </trkpt>
      <trkpt lat="43.87458" lon="7.22721">
        <ele>347</ele>
        <time>2012-04-22T08:20:12Z</time>
      </trkpt>
      <trkpt lat="43.87455" lon="7.22716">
        <ele>350</ele>
        <time>2012-04-22T08:20:22Z</time>
      </trkpt>
      <trkpt lat="43.87453" lon="7.22707">
        <ele>350</ele>
        <time>2012-04-22T08:20:29Z</time>
      </trkpt>
      <trkpt lat="43.87448" lon="7.22702">
        <ele>350</ele>
        <time>2012-04-22T08:20:38Z</time>
      </trkpt>
      <trkpt lat="43.87452" lon="7.2269">
        <ele>350</ele>
        <time>2012-04-22T08:20:45Z</time>
      </trkpt>
      <trkpt lat="43.87453" lon="7.2268">
        <ele>353</ele>
        <time>2012-04-22T08:20:51Z</time>
      </trkpt>
      <trkpt lat="43.87454" lon="7.22672">
        <ele>356</ele>
        <time>2012-04-22T08:20:58Z</time>
      </trkpt>
      <trkpt lat="43.8745" lon="7.22663">
        <ele>360</ele>
        <time>2012-04-22T08:21:06Z</time>
      </trkpt>
      <trkpt lat="43.87449" lon="7.22654">
        <ele>361</ele>
        <time>2012-04-22T08:21:14Z</time>
      </trkpt>
      <trkpt lat="43.87449" lon="7.22641">
        <ele>361</ele>
        <time>2012-04-22T08:21:20Z</time>
      </trkpt>
      <trkpt lat="43.87447" lon="7.22637">
        <ele>361</ele>
        <time>2012-04-22T08:21:27Z</time>
      </trkpt>
      <trkpt lat="43.87442" lon="7.22635">
        <ele>361</ele>
        <time>2012-04-22T08:21:37Z</time>
      </trkpt>
      <trkpt lat="43.87443" lon="7.22645">
        <ele>361</ele>
        <time>2012-04-22T08:21:45Z</time>
      </trkpt>
      <trkpt lat="43.87435" lon="7.22643">
        <ele>361</ele>
        <time>2012-04-22T08:21:54Z</time>
      </trkpt>
      <trkpt lat="43.87429" lon="7.22637">
        <ele>361</ele>
        <time>2012-04-22T08:22:01Z</time>
      </trkpt>
      <trkpt lat="43.87421" lon="7.22635">
        <ele>363</ele>
        <time>2012-04-22T08:22:10Z</time>
      </trkpt>
      <trkpt lat="43.87413" lon="7.2263">
        <ele>367</ele>
        <time>2012-04-22T08:22:17Z</time>
      </trkpt>
      <trkpt lat="43.87408" lon="7.22631">
        <ele>371</ele>
        <time>2012-04-22T08:22:27Z</time>
      </trkpt>
      <trkpt lat="43.87401" lon="7.22641">
        <ele>371</ele>
        <time>2012-04-22T08:22:34Z</time>
      </trkpt>
      <trkpt lat="43.87392" lon="7.22648">
        <ele>371</ele>
        <time>2012-04-22T08:22:41Z</time>
      </trkpt>
      <trkpt lat="43.87383" lon="7.2266">
        <ele>371</ele>
        <time>2012-04-22T08:22:50Z</time>
      </trkpt>
      <trkpt lat="43.87374" lon="7.22669">
        <ele>371</ele>
        <time>2012-04-22T08:22:57Z</time>
      </trkpt>
      <trkpt lat="43.87365" lon="7.22674">
        <ele>373</ele>
        <time>2012-04-22T08:23:05Z</time>
      </trkpt>
      <trkpt lat="43.87358" lon="7.2268">
        <ele>375</ele>
        <time>2012-04-22T08:23:13Z</time>
      </trkpt>
      <trkpt lat="43.87349" lon="7.22683">
        <ele>375</ele>
        <time>2012-04-22T08:23:20Z</time>
      </trkpt>
      <trkpt lat="43.87344" lon="7.22686">
        <ele>376</ele>
        <time>2012-04-22T08:23:27Z</time>
      </trkpt>
      <trkpt lat="43.87334" lon="7.22687">
        <ele>381</ele>
        <time>2012-04-22T08:23:37Z</time>
      </trkpt>
      <trkpt lat="43.87333" lon="7.22687">
        <ele>383</ele>
        <time>2012-04-22T08:23:44Z</time>
      </trkpt>
      <trkpt lat="43.87331" lon="7.22691">
        <ele>386</ele>
        <time>2012-04-22T08:23:53Z</time>
      </trkpt>
      <trkpt lat="43.8733" lon="7.2269">
        <ele>389</ele>
        <time>2012-04-22T08:24:11Z</time>
      </trkpt>
      <trkpt lat="43.87329" lon="7.2269">
        <ele>389</ele>
        <time>2012-04-22T08:24:28Z</time>
      </trkpt>
      <trkpt lat="43.87331" lon="7.22689">
        <ele>389</ele>
        <time>2012-04-22T08:24:35Z</time>
      </trkpt>
      <trkpt lat="43.87334" lon="7.22688">
        <ele>389</ele>
        <time>2012-04-22T08:24:42Z</time>
      </trkpt>
      <trkpt lat="43.87341" lon="7.22684">
        <ele>394</ele>
        <time>2012-04-22T08:24:52Z</time>
      </trkpt>
      <trkpt lat="43.87339" lon="7.22685">
        <ele>399</ele>
        <time>2012-04-22T08:24:59Z</time>
      </trkpt>
      <trkpt lat="43.87337" lon="7.2268">
        <ele>403</ele>
        <time>2012-04-22T08:25:15Z</time>
      </trkpt>
      <trkpt lat="43.87333" lon="7.22679">
        <ele>403</ele>
        <time>2012-04-22T08:25:24Z</time>
      </trkpt>
      <trkpt lat="43.87337" lon="7.22682">
        <ele>403</ele>
        <time>2012-04-22T08:25:33Z</time>
      </trkpt>
      <trkpt lat="43.87334" lon="7.22687">
        <ele>401</ele>
        <time>2012-04-22T08:25:41Z</time>
      </trkpt>
      <trkpt lat="43.87329" lon="7.22683">
        <ele>400</ele>
        <time>2012-04-22T08:25:50Z</time>
      </trkpt>
      <trkpt lat="43.87321" lon="7.22681">
        <ele>400</ele>
        <time>2012-04-22T08:25:56Z</time>
      </trkpt>
      <trkpt lat="43.87313" lon="7.22673">
        <ele>400</ele>
        <time>2012-04-22T08:26:05Z</time>
      </trkpt>
      <trkpt lat="43.8731" lon="7.22667">
        <ele>401</ele>
        <time>2012-04-22T08:26:12Z</time>
      </trkpt>
      <trkpt lat="43.87305" lon="7.22657">
        <ele>401</ele>
        <time>2012-04-22T08:26:19Z</time>
      </trkpt>
      <trkpt lat="43.873" lon="7.22649">
        <ele>401</ele>
        <time>2012-04-22T08:26:25Z</time>
      </trkpt>
      <trkpt lat="43.87294" lon="7.22642">
        <ele>401</ele>
        <time>2012-04-22T08:26:32Z</time>
      </trkpt>
      <trkpt lat="43.87286" lon="7.22632">
        <ele>401</ele>
        <time>2012-04-22T08:26:39Z</time>
      </trkpt>
      <trkpt lat="43.87281" lon="7.22622">
        <ele>401</ele>
        <time>2012-04-22T08:26:48Z</time>
      </trkpt>
      <trkpt lat="43.87275" lon="7.22614">
        <ele>401</ele>
        <time>2012-04-22T08:26:55Z</time>
      </trkpt>
      <trkpt lat="43.87273" lon="7.22611">
        <ele>401</ele>
        <time>2012-04-22T08:27:02Z</time>
      </trkpt>
      <trkpt lat="43.87268" lon="7.22601">
        <ele>401</ele>
        <time>2012-04-22T08:27:11Z</time>
      </trkpt>
      <trkpt lat="43.87263" lon="7.2259">
        <ele>401</ele>
        <time>2012-04-22T08:27:19Z</time>
      </trkpt>
      <trkpt lat="43.87259" lon="7.2258">
        <ele>402</ele>
        <time>2012-04-22T08:27:28Z</time>
      </trkpt>
      <trkpt lat="43.87251" lon="7.22569">
        <ele>403</ele>
        <time>2012-04-22T08:27:37Z</time>
      </trkpt>
      <trkpt lat="43.87246" lon="7.22567">
        <ele>403</ele>
        <time>2012-04-22T08:27:44Z</time>
      </trkpt>
      <trkpt lat="43.8724" lon="7.22561">
        <ele>403</ele>
        <time>2012-04-22T08:27:51Z</time>
      </trkpt>
      <trkpt lat="43.87233" lon="7.22549">
        <ele>405</ele>
        <time>2012-04-22T08:28:00Z</time>
      </trkpt>
      <trkpt lat="43.87225" lon="7.2254">
        <ele>407</ele>
        <time>2012-04-22T08:28:06Z</time>
      </trkpt>
      <trkpt lat="43.87221" lon="7.22537">
        <ele>410</ele>
        <time>2012-04-22T08:28:13Z</time>
      </trkpt>
      <trkpt lat="43.87217" lon="7.2253">
        <ele>413</ele>
        <time>2012-04-22T08:28:20Z</time>
      </trkpt>
      <trkpt lat="43.87207" lon="7.22518">
        <ele>414</ele>
        <time>2012-04-22T08:28:29Z</time>
      </trkpt>
      <trkpt lat="43.87204" lon="7.22515">
        <ele>415</ele>
        <time>2012-04-22T08:28:37Z</time>
      </trkpt>
      <trkpt lat="43.87195" lon="7.22505">
        <ele>415</ele>
        <time>2012-04-22T08:28:44Z</time>
      </trkpt>
      <trkpt lat="43.87193" lon="7.22506">
        <ele>415</ele>
        <time>2012-04-22T08:28:54Z</time>
      </trkpt>
      <trkpt lat="43.87189" lon="7.22515">
        <ele>415</ele>
        <time>2012-04-22T08:29:02Z</time>
      </trkpt>
      <trkpt lat="43.87185" lon="7.22523">
        <ele>415</ele>
        <time>2012-04-22T08:29:08Z</time>
      </trkpt>
      <trkpt lat="43.87173" lon="7.2253">
        <ele>415</ele>
        <time>2012-04-22T08:29:18Z</time>
      </trkpt>
      <trkpt lat="43.87167" lon="7.22533">
        <ele>415</ele>
        <time>2012-04-22T08:29:24Z</time>
      </trkpt>
      <trkpt lat="43.87161" lon="7.22537">
        <ele>415</ele>
        <time>2012-04-22T08:29:33Z</time>
      </trkpt>
      <trkpt lat="43.87158" lon="7.22541">
        <ele>415</ele>
        <time>2012-04-22T08:29:39Z</time>
      </trkpt>
      <trkpt lat="43.87153" lon="7.22546">
        <ele>417</ele>
        <time>2012-04-22T08:29:46Z</time>
      </trkpt>
      <trkpt lat="43.87146" lon="7.22552">
        <ele>419</ele>
        <time>2012-04-22T08:29:52Z</time>
      </trkpt>
      <trkpt lat="43.87137" lon="7.22561">
        <ele>420</ele>
        <time>2012-04-22T08:29:59Z</time>
      </trkpt>
      <trkpt lat="43.87134" lon="7.22568">
        <ele>421</ele>
        <time>2012-04-22T08:30:07Z</time>
      </trkpt>
      <trkpt lat="43.87129" lon="7.22579">
        <ele>421</ele>
        <time>2012-04-22T08:30:16Z</time>
      </trkpt>
      <trkpt lat="43.87115" lon="7.22599">
        <ele>421</ele>
        <time>2012-04-22T08:30:25Z</time>
      </trkpt>
      <trkpt lat="43.87101" lon="7.22623">
        <ele>421</ele>
        <time>2012-04-22T08:30:31Z</time>
      </trkpt>
      <trkpt lat="43.87088" lon="7.2266">
        <ele>421</ele>
        <time>2012-04-22T08:30:38Z</time>
      </trkpt>
      <trkpt lat="43.8708" lon="7.22647">
        <ele>421</ele>
        <time>2012-04-22T08:30:47Z</time>
      </trkpt>
      <trkpt lat="43.87068" lon="7.22626">
        <ele>424</ele>
        <time>2012-04-22T08:30:55Z</time>
      </trkpt>
      <trkpt lat="43.87056" lon="7.226">
        <ele>424</ele>
        <time>2012-04-22T08:31:04Z</time>
      </trkpt>
      <trkpt lat="43.87051" lon="7.22595">
        <ele>426</ele>
        <time>2012-04-22T08:31:12Z</time>
      </trkpt>
      <trkpt lat="43.87039" lon="7.22588">
        <ele>427</ele>
        <time>2012-04-22T08:31:19Z</time>
      </trkpt>
      <trkpt lat="43.87035" lon="7.22584">
        <ele>428</ele>
        <time>2012-04-22T08:31:28Z</time>
      </trkpt>
      <trkpt lat="43.87027" lon="7.22579">
        <ele>429</ele>
        <time>2012-04-22T08:31:34Z</time>
      </trkpt>
      <trkpt lat="43.87014" lon="7.22577">
        <ele>430</ele>
        <time>2012-04-22T08:31:45Z</time>
      </trkpt>
      <trkpt lat="43.87005" lon="7.2258">
        <ele>430</ele>
        <time>2012-04-22T08:31:51Z</time>
      </trkpt>
      <trkpt lat="43.86994" lon="7.22583">
        <ele>431</ele>
        <time>2012-04-22T08:32:01Z</time>
      </trkpt>
      <trkpt lat="43.86992" lon="7.22586">
        <ele>435</ele>
        <time>2012-04-22T08:32:10Z</time>
      </trkpt>
      <trkpt lat="43.87001" lon="7.22589">
        <ele>440</ele>
        <time>2012-04-22T08:32:18Z</time>
      </trkpt>
      <trkpt lat="43.87007" lon="7.22598">
        <ele>443</ele>
        <time>2012-04-22T08:32:28Z</time>
      </trkpt>
      <trkpt lat="43.87012" lon="7.22604">
        <ele>445</ele>
        <time>2012-04-22T08:32:37Z</time>
      </trkpt>
      <trkpt lat="43.87018" lon="7.22617">
        <ele>445</ele>
        <time>2012-04-22T08:32:44Z</time>
      </trkpt>
      <trkpt lat="43.87018" lon="7.22618">
        <ele>450</ele>
        <time>2012-04-22T08:32:53Z</time>
      </trkpt>
      <trkpt lat="43.87009" lon="7.22614">
        <ele>450</ele>
        <time>2012-04-22T08:33:01Z</time>
      </trkpt>
      <trkpt lat="43.87" lon="7.22612">
        <ele>450</ele>
        <time>2012-04-22T08:33:10Z</time>
      </trkpt>
      <trkpt lat="43.86992" lon="7.22612">
        <ele>450</ele>
        <time>2012-04-22T08:33:18Z</time>
      </trkpt>
      <trkpt lat="43.86982" lon="7.22613">
        <ele>451</ele>
        <time>2012-04-22T08:33:28Z</time>
      </trkpt>
      <trkpt lat="43.86974" lon="7.22613">
        <ele>453</ele>
        <time>2012-04-22T08:33:35Z</time>
      </trkpt>
      <trkpt lat="43.86969" lon="7.22616">
        <ele>454</ele>
        <time>2012-04-22T08:33:42Z</time>
      </trkpt>
      <trkpt lat="43.86961" lon="7.22618">
        <ele>456</ele>
        <time>2012-04-22T08:33:49Z</time>
      </trkpt>
      <trkpt lat="43.86955" lon="7.22621">
        <ele>457</ele>
        <time>2012-04-22T08:33:56Z</time>
      </trkpt>
      <trkpt lat="43.86947" lon="7.22623">
        <ele>459</ele>
        <time>2012-04-22T08:34:04Z</time>
      </trkpt>
      <trkpt lat="43.86938" lon="7.22625">
        <ele>460</ele>
        <time>2012-04-22T08:34:11Z</time>
      </trkpt>
      <trkpt lat="43.86931" lon="7.22629">
        <ele>463</ele>
        <time>2012-04-22T08:34:18Z</time>
      </trkpt>
      <trkpt lat="43.86924" lon="7.22636">
        <ele>465</ele>
        <time>2012-04-22T08:34:25Z</time>
      </trkpt>
      <trkpt lat="43.86916" lon="7.22642">
        <ele>465</ele>
        <time>2012-04-22T08:34:32Z</time>
      </trkpt>
      <trkpt lat="43.8691" lon="7.22649">
        <ele>466</ele>
        <time>2012-04-22T08:34:39Z</time>
      </trkpt>
      <trkpt lat="43.86907" lon="7.22658">
        <ele>468</ele>
        <time>2012-04-22T08:34:48Z</time>
      </trkpt>
      <trkpt lat="43.86905" lon="7.22669">
        <ele>470</ele>
        <time>2012-04-22T08:34:55Z</time>
      </trkpt>
      <trkpt lat="43.86897" lon="7.22674">
        <ele>471</ele>
        <time>2012-04-22T08:35:04Z</time>
      </trkpt>
      <trkpt lat="43.86888" lon="7.22679">
        <ele>471</ele>
        <time>2012-04-22T08:35:11Z</time>
      </trkpt>
      <trkpt lat="43.8688" lon="7.22685">
        <ele>471</ele>
        <time>2012-04-22T08:35:21Z</time>
      </trkpt>
      <trkpt lat="43.86871" lon="7.22692">
        <ele>471</ele>
        <time>2012-04-22T08:35:30Z</time>
      </trkpt>
      <trkpt lat="43.86863" lon="7.22699">
        <ele>471</ele>
        <time>2012-04-22T08:35:37Z</time>
      </trkpt>
      <trkpt lat="43.86856" lon="7.22708">
        <ele>471</ele>
        <time>2012-04-22T08:35:44Z</time>
      </trkpt>
      <trkpt lat="43.86853" lon="7.22721">
        <ele>472</ele>
        <time>2012-04-22T08:35:54Z</time>
      </trkpt>
      <trkpt lat="43.86857" lon="7.22736">
        <ele>474</ele>
        <time>2012-04-22T08:36:01Z</time>
      </trkpt>
      <trkpt lat="43.86853" lon="7.22748">
        <ele>475</ele>
        <time>2012-04-22T08:36:10Z</time>
      </trkpt>
      <trkpt lat="43.86845" lon="7.22753">
        <ele>475</ele>
        <time>2012-04-22T08:36:17Z</time>
      </trkpt>
      <trkpt lat="43.86836" lon="7.22757">
        <ele>477</ele>
        <time>2012-04-22T08:36:25Z</time>
      </trkpt>
      <trkpt lat="43.86828" lon="7.22765">
        <ele>480</ele>
        <time>2012-04-22T08:36:33Z</time>
      </trkpt>
      <trkpt lat="43.86823" lon="7.22774">
        <ele>483</ele>
        <time>2012-04-22T08:36:43Z</time>
      </trkpt>
      <trkpt lat="43.86819" lon="7.22783">
        <ele>483</ele>
        <time>2012-04-22T08:36:49Z</time>
      </trkpt>
      <trkpt lat="43.86813" lon="7.22801">
        <ele>486</ele>
        <time>2012-04-22T08:36:58Z</time>
      </trkpt>
      <trkpt lat="43.8681" lon="7.22806">
        <ele>488</ele>
        <time>2012-04-22T08:37:05Z</time>
      </trkpt>
      <trkpt lat="43.86803" lon="7.22812">
        <ele>490</ele>
        <time>2012-04-22T08:37:14Z</time>
      </trkpt>
      <trkpt lat="43.86794" lon="7.22818">
        <ele>490</ele>
        <time>2012-04-22T08:37:21Z</time>
      </trkpt>
      <trkpt lat="43.86786" lon="7.22821">
        <ele>491</ele>
        <time>2012-04-22T08:37:29Z</time>
      </trkpt>
      <trkpt lat="43.86778" lon="7.22823">
        <ele>492</ele>
        <time>2012-04-22T08:37:36Z</time>
      </trkpt>
      <trkpt lat="43.86768" lon="7.22821">
        <ele>493</ele>
        <time>2012-04-22T08:37:44Z</time>
      </trkpt>
      <trkpt lat="43.86764" lon="7.22822">
        <ele>495</ele>
        <time>2012-04-22T08:37:55Z</time>
      </trkpt>
      <trkpt lat="43.86752" lon="7.22826">
        <ele>497</ele>
        <time>2012-04-22T08:38:03Z</time>
      </trkpt>
      <trkpt lat="43.8674" lon="7.22829">
        <ele>497</ele>
        <time>2012-04-22T08:38:10Z</time>
      </trkpt>
      <trkpt lat="43.86731" lon="7.22838">
        <ele>498</ele>
        <time>2012-04-22T08:38:20Z</time>
      </trkpt>
      <trkpt lat="43.86722" lon="7.22845">
        <ele>499</ele>
        <time>2012-04-22T08:38:27Z</time>
      </trkpt>
      <trkpt lat="43.86715" lon="7.22847">
        <ele>501</ele>
        <time>2012-04-22T08:38:35Z</time>
      </trkpt>
      <trkpt lat="43.86707" lon="7.2284">
        <ele>505</ele>
        <time>2012-04-22T08:38:44Z</time>
      </trkpt>
      <trkpt lat="43.86695" lon="7.22826">
        <ele>505</ele>
        <time>2012-04-22T08:38:53Z</time>
      </trkpt>
      <trkpt lat="43.86689" lon="7.22819">
        <ele>505</ele>
        <time>2012-04-22T08:39:02Z</time>
      </trkpt>
      <trkpt lat="43.8668" lon="7.2282">
        <ele>505</ele>
        <time>2012-04-22T08:39:11Z</time>
      </trkpt>
      <trkpt lat="43.86651" lon="7.22836">
        <ele>505</ele>
        <time>2012-04-22T08:39:19Z</time>
      </trkpt>
      <trkpt lat="43.86645" lon="7.22842">
        <ele>505</ele>
        <time>2012-04-22T08:39:26Z</time>
      </trkpt>
      <trkpt lat="43.86633" lon="7.22854">
        <ele>506</ele>
        <time>2012-04-22T08:39:36Z</time>
      </trkpt>
      <trkpt lat="43.86623" lon="7.22864">
        <ele>507</ele>
        <time>2012-04-22T08:39:42Z</time>
      </trkpt>
      <trkpt lat="43.86618" lon="7.2288">
        <ele>510</ele>
        <time>2012-04-22T08:39:53Z</time>
      </trkpt>
      <trkpt lat="43.86612" lon="7.22885">
        <ele>510</ele>
        <time>2012-04-22T08:40:04Z</time>
      </trkpt>
      <trkpt lat="43.86612" lon="7.22883">
        <ele>510</ele>
        <time>2012-04-22T08:40:13Z</time>
      </trkpt>
      <trkpt lat="43.86612" lon="7.22881">
        <ele>512</ele>
        <time>2012-04-22T08:40:24Z</time>
      </trkpt>
      <trkpt lat="43.86615" lon="7.22884">
        <ele>513</ele>
        <time>2012-04-22T08:40:31Z</time>
      </trkpt>
      <trkpt lat="43.86616" lon="7.22885">
        <ele>513</ele>
        <time>2012-04-22T08:40:41Z</time>
      </trkpt>
      <trkpt lat="43.86614" lon="7.22887">
        <ele>513</ele>
        <time>2012-04-22T08:40:50Z</time>
      </trkpt>
      <trkpt lat="43.86616" lon="7.22883">
        <ele>513</ele>
        <time>2012-04-22T08:41:01Z</time>
      </trkpt>
      <trkpt lat="43.86615" lon="7.22881">
        <ele>513</ele>
        <time>2012-04-22T08:41:20Z</time>
      </trkpt>
      <trkpt lat="43.86613" lon="7.22881">
        <ele>513</ele>
        <time>2012-04-22T08:41:31Z</time>
      </trkpt>
      <trkpt lat="43.86616" lon="7.22879">
        <ele>513</ele>
        <time>2012-04-22T08:41:38Z</time>
      </trkpt>
      <trkpt lat="43.86618" lon="7.22872">
        <ele>513</ele>
        <time>2012-04-22T08:41:46Z</time>
      </trkpt>
      <trkpt lat="43.86619" lon="7.22872">
        <ele>513</ele>
        <time>2012-04-22T08:42:08Z</time>
      </trkpt>
      <trkpt lat="43.86619" lon="7.22877">
        <ele>513</ele>
        <time>2012-04-22T08:42:15Z</time>
      </trkpt>
      <trkpt lat="43.86619" lon="7.22881">
        <ele>513</ele>
        <time>2012-04-22T08:42:24Z</time>
      </trkpt>
      <trkpt lat="43.86615" lon="7.22883">
        <ele>512</ele>
        <time>2012-04-22T08:42:32Z</time>
      </trkpt>
      <trkpt lat="43.86612" lon="7.22886">
        <ele>511</ele>
        <time>2012-04-22T08:42:42Z</time>
      </trkpt>
      <trkpt lat="43.86612" lon="7.22887">
        <ele>511</ele>
        <time>2012-04-22T08:42:49Z</time>
      </trkpt>
      <trkpt lat="43.8661" lon="7.22887">
        <ele>511</ele>
        <time>2012-04-22T08:42:56Z</time>
      </trkpt>
      <trkpt lat="43.8661" lon="7.22885">
        <ele>511</ele>
        <time>2012-04-22T08:43:06Z</time>
      </trkpt>
      <trkpt lat="43.8661" lon="7.22884">
        <ele>511</ele>
        <time>2012-04-22T08:43:14Z</time>
      </trkpt>
      <trkpt lat="43.86608" lon="7.22882">
        <ele>511</ele>
        <time>2012-04-22T08:43:20Z</time>
      </trkpt>
      <trkpt lat="43.86609" lon="7.22882">
        <ele>512</ele>
        <time>2012-04-22T08:43:27Z</time>
      </trkpt>
      <trkpt lat="43.8661" lon="7.22883">
        <ele>512</ele>
        <time>2012-04-22T08:43:36Z</time>
      </trkpt>
      <trkpt lat="43.86611" lon="7.22885">
        <ele>512</ele>
        <time>2012-04-22T08:43:48Z</time>
      </trkpt>
      <trkpt lat="43.86612" lon="7.22885">
        <ele>512</ele>
        <time>2012-04-22T08:43:59Z</time>
      </trkpt>
      <trkpt lat="43.86614" lon="7.22885">
        <ele>512</ele>
        <time>2012-04-22T08:44:07Z</time>
      </trkpt>
      <trkpt lat="43.86614" lon="7.22886">
        <ele>512</ele>
        <time>2012-04-22T08:44:20Z</time>
      </trkpt>
      <trkpt lat="43.86615" lon="7.22882">
        <ele>511</ele>
        <time>2012-04-22T08:45:00Z</time>
      </trkpt>
      <trkpt lat="43.86614" lon="7.22886">
        <ele>511</ele>
        <time>2012-04-22T08:45:05Z</time>
      </trkpt>
      <trkpt lat="43.86612" lon="7.22891">
        <ele>511</ele>
        <time>2012-04-22T08:45:13Z</time>
      </trkpt>
      <trkpt lat="43.86612" lon="7.22893">
        <ele>512</ele>
        <time>2012-04-22T08:45:19Z</time>
      </trkpt>
      <trkpt lat="43.86615" lon="7.2289">
        <ele>516</ele>
        <time>2012-04-22T08:45:27Z</time>
      </trkpt>
      <trkpt lat="43.86619" lon="7.22887">
        <ele>519</ele>
        <time>2012-04-22T08:45:33Z</time>
      </trkpt>
      <trkpt lat="43.86626" lon="7.22888">
        <ele>522</ele>
        <time>2012-04-22T08:45:41Z</time>
      </trkpt>
      <trkpt lat="43.86632" lon="7.22886">
        <ele>524</ele>
        <time>2012-04-22T08:45:47Z</time>
      </trkpt>
      <trkpt lat="43.86637" lon="7.22882">
        <ele>525</ele>
        <time>2012-04-22T08:45:53Z</time>
      </trkpt>
      <trkpt lat="43.86642" lon="7.22878">
        <ele>526</ele>
        <time>2012-04-22T08:45:59Z</time>
      </trkpt>
      <trkpt lat="43.86649" lon="7.22878">
        <ele>529</ele>
        <time>2012-04-22T08:46:05Z</time>
      </trkpt>
      <trkpt lat="43.86655" lon="7.22881">
        <ele>533</ele>
        <time>2012-04-22T08:46:13Z</time>
      </trkpt>
      <trkpt lat="43.8666" lon="7.22884">
        <ele>537</ele>
        <time>2012-04-22T08:46:21Z</time>
      </trkpt>
      <trkpt lat="43.86671" lon="7.22889">
        <ele>538</ele>
        <time>2012-04-22T08:46:28Z</time>
      </trkpt>
      <trkpt lat="43.86676" lon="7.22895">
        <ele>538</ele>
        <time>2012-04-22T08:46:35Z</time>
      </trkpt>
      <trkpt lat="43.86682" lon="7.22911">
        <ele>537</ele>
        <time>2012-04-22T08:46:41Z</time>
      </trkpt>
      <trkpt lat="43.8669" lon="7.22928">
        <ele>534</ele>
        <time>2012-04-22T08:46:49Z</time>
      </trkpt>
      <trkpt lat="43.86704" lon="7.22937">
        <ele>533</ele>
        <time>2012-04-22T08:46:56Z</time>
      </trkpt>
      <trkpt lat="43.86717" lon="7.2292">
        <ele>533</ele>
        <time>2012-04-22T08:47:04Z</time>
      </trkpt>
      <trkpt lat="43.86723" lon="7.22914">
        <ele>533</ele>
        <time>2012-04-22T08:47:11Z</time>
      </trkpt>
      <trkpt lat="43.86723" lon="7.22919">
        <ele>533</ele>
        <time>2012-04-22T08:47:19Z</time>
      </trkpt>
      <trkpt lat="43.86722" lon="7.22923">
        <ele>533</ele>
        <time>2012-04-22T08:47:50Z</time>
      </trkpt>
      <trkpt lat="43.86722" lon="7.22921">
        <ele>533</ele>
        <time>2012-04-22T08:48:00Z</time>
      </trkpt>
      <trkpt lat="43.86723" lon="7.22914">
        <ele>533</ele>
        <time>2012-04-22T08:48:05Z</time>
      </trkpt>
      <trkpt lat="43.8673" lon="7.22911">
        <ele>533</ele>
        <time>2012-04-22T08:48:12Z</time>
      </trkpt>
      <trkpt lat="43.86734" lon="7.22909">
        <ele>533</ele>
        <time>2012-04-22T08:48:18Z</time>
      </trkpt>
      <trkpt lat="43.8674" lon="7.22908">
        <ele>533</ele>
        <time>2012-04-22T08:48:24Z</time>
      </trkpt>
      <trkpt lat="43.86747" lon="7.22913">
        <ele>533</ele>
        <time>2012-04-22T08:48:32Z</time>
      </trkpt>
      <trkpt lat="43.86758" lon="7.22914">
        <ele>536</ele>
        <time>2012-04-22T08:48:40Z</time>
      </trkpt>
      <trkpt lat="43.86767" lon="7.22914">
        <ele>538</ele>
        <time>2012-04-22T08:48:45Z</time>
      </trkpt>
      <trkpt lat="43.86772" lon="7.22916">
        <ele>541</ele>
        <time>2012-04-22T08:48:52Z</time>
      </trkpt>
      <trkpt lat="43.86779" lon="7.22913">
        <ele>542</ele>
        <time>2012-04-22T08:48:59Z</time>
      </trkpt>
      <trkpt lat="43.86788" lon="7.22913">
        <ele>542</ele>
        <time>2012-04-22T08:49:06Z</time>
      </trkpt>
      <trkpt lat="43.86794" lon="7.22917">
        <ele>542</ele>
        <time>2012-04-22T08:49:14Z</time>
      </trkpt>
      <trkpt lat="43.86792" lon="7.22918">
        <ele>542</ele>
        <time>2012-04-22T08:49:30Z</time>
      </trkpt>
      <trkpt lat="43.86795" lon="7.22919">
        <ele>542</ele>
        <time>2012-04-22T08:49:38Z</time>
      </trkpt>
      <trkpt lat="43.86804" lon="7.22921">
        <ele>542</ele>
        <time>2012-04-22T08:49:54Z</time>
      </trkpt>
      <trkpt lat="43.86808" lon="7.22923">
        <ele>542</ele>
        <time>2012-04-22T08:50:02Z</time>
      </trkpt>
      <trkpt lat="43.86812" lon="7.22923">
        <ele>542</ele>
        <time>2012-04-22T08:50:09Z</time>
      </trkpt>
      <trkpt lat="43.86821" lon="7.22925">
        <ele>547</ele>
        <time>2012-04-22T08:50:18Z</time>
      </trkpt>
      <trkpt lat="43.86829" lon="7.22926">
        <ele>551</ele>
        <time>2012-04-22T08:50:24Z</time>
      </trkpt>
      <trkpt lat="43.86838" lon="7.22922">
        <ele>556</ele>
        <time>2012-04-22T08:50:33Z</time>
      </trkpt>
      <trkpt lat="43.86851" lon="7.22913">
        <ele>557</ele>
        <time>2012-04-22T08:50:41Z</time>
      </trkpt>
      <trkpt lat="43.86861" lon="7.22911">
        <ele>557</ele>
        <time>2012-04-22T08:50:49Z</time>
      </trkpt>
      <trkpt lat="43.86868" lon="7.22911">
        <ele>557</ele>
        <time>2012-04-22T08:50:55Z</time>
      </trkpt>
      <trkpt lat="43.86873" lon="7.22912">
        <ele>557</ele>
        <time>2012-04-22T08:51:04Z</time>
      </trkpt>
      <trkpt lat="43.86879" lon="7.22916">
        <ele>557</ele>
        <time>2012-04-22T08:51:09Z</time>
      </trkpt>
      <trkpt lat="43.86883" lon="7.22916">
        <ele>557</ele>
        <time>2012-04-22T08:51:15Z</time>
      </trkpt>
      <trkpt lat="43.86889" lon="7.2292">
        <ele>560</ele>
        <time>2012-04-22T08:51:21Z</time>
      </trkpt>
      <trkpt lat="43.86901" lon="7.2292">
        <ele>564</ele>
        <time>2012-04-22T08:51:29Z</time>
      </trkpt>
      <trkpt lat="43.86908" lon="7.22921">
        <ele>564</ele>
        <time>2012-04-22T08:51:38Z</time>
      </trkpt>
      <trkpt lat="43.86915" lon="7.22918">
        <ele>564</ele>
        <time>2012-04-22T08:51:44Z</time>
      </trkpt>
      <trkpt lat="43.86923" lon="7.22921">
        <ele>564</ele>
        <time>2012-04-22T08:51:52Z</time>
      </trkpt>
      <trkpt lat="43.86931" lon="7.22919">
        <ele>564</ele>
        <time>2012-04-22T08:52:00Z</time>
      </trkpt>
      <trkpt lat="43.86936" lon="7.22917">
        <ele>564</ele>
        <time>2012-04-22T08:52:05Z</time>
      </trkpt>
      <trkpt lat="43.86943" lon="7.2291">
        <ele>564</ele>
        <time>2012-04-22T08:52:11Z</time>
      </trkpt>
      <trkpt lat="43.86945" lon="7.22907">
        <ele>564</ele>
        <time>2012-04-22T08:52:17Z</time>
      </trkpt>
      <trkpt lat="43.86949" lon="7.22902">
        <ele>564</ele>
        <time>2012-04-22T08:52:23Z</time>
      </trkpt>
      <trkpt lat="43.86956" lon="7.22899">
        <ele>564</ele>
        <time>2012-04-22T08:52:33Z</time>
      </trkpt>
      <trkpt lat="43.86959" lon="7.22906">
        <ele>564</ele>
        <time>2012-04-22T08:52:40Z</time>
      </trkpt>
      <trkpt lat="43.86957" lon="7.22918">
        <ele>564</ele>
        <time>2012-04-22T08:52:48Z</time>
      </trkpt>
      <trkpt lat="43.86956" lon="7.22922">
        <ele>566</ele>
        <time>2012-04-22T08:52:54Z</time>
      </trkpt>
      <trkpt lat="43.86955" lon="7.22933">
        <ele>569</ele>
        <time>2012-04-22T08:53:00Z</time>
      </trkpt>
      <trkpt lat="43.86954" lon="7.22936">
        <ele>570</ele>
        <time>2012-04-22T08:53:06Z</time>
      </trkpt>
      <trkpt lat="43.86953" lon="7.22944">
        <ele>572</ele>
        <time>2012-04-22T08:53:12Z</time>
      </trkpt>
      <trkpt lat="43.8695" lon="7.22954">
        <ele>575</ele>
        <time>2012-04-22T08:53:21Z</time>
      </trkpt>
      <trkpt lat="43.8694" lon="7.22958">
        <ele>577</ele>
        <time>2012-04-22T08:53:30Z</time>
      </trkpt>
      <trkpt lat="43.86933" lon="7.22958">
        <ele>577</ele>
        <time>2012-04-22T08:53:35Z</time>
      </trkpt>
      <trkpt lat="43.86924" lon="7.22959">
        <ele>579</ele>
        <time>2012-04-22T08:53:42Z</time>
      </trkpt>
      <trkpt lat="43.86917" lon="7.22961">
        <ele>579</ele>
        <time>2012-04-22T08:53:51Z</time>
      </trkpt>
      <trkpt lat="43.86909" lon="7.22963">
        <ele>579</ele>
        <time>2012-04-22T08:53:57Z</time>
      </trkpt>
      <trkpt lat="43.86898" lon="7.22962">
        <ele>579</ele>
        <time>2012-04-22T08:54:03Z</time>
      </trkpt>
      <trkpt lat="43.86894" lon="7.22962">
        <ele>579</ele>
        <time>2012-04-22T08:54:09Z</time>
      </trkpt>
      <trkpt lat="43.86884" lon="7.22964">
        <ele>578</ele>
        <time>2012-04-22T08:54:15Z</time>
      </trkpt>
      <trkpt lat="43.86878" lon="7.22967">
        <ele>574</ele>
        <time>2012-04-22T08:54:22Z</time>
      </trkpt>
      <trkpt lat="43.8687" lon="7.22967">
        <ele>574</ele>
        <time>2012-04-22T08:54:30Z</time>
      </trkpt>
      <trkpt lat="43.86863" lon="7.22972">
        <ele>574</ele>
        <time>2012-04-22T08:54:36Z</time>
      </trkpt>
      <trkpt lat="43.86856" lon="7.22976">
        <ele>574</ele>
        <time>2012-04-22T08:54:46Z</time>
      </trkpt>
      <trkpt lat="43.86848" lon="7.22979">
        <ele>574</ele>
        <time>2012-04-22T08:54:51Z</time>
      </trkpt>
      <trkpt lat="43.8684" lon="7.22983">
        <ele>574</ele>
        <time>2012-04-22T08:54:59Z</time>
      </trkpt>
      <trkpt lat="43.86831" lon="7.22991">
        <ele>578</ele>
        <time>2012-04-22T08:55:08Z</time>
      </trkpt>
      <trkpt lat="43.86823" lon="7.22993">
        <ele>579</ele>
        <time>2012-04-22T08:55:14Z</time>
      </trkpt>
      <trkpt lat="43.86815" lon="7.22995">
        <ele>580</ele>
        <time>2012-04-22T08:55:21Z</time>
      </trkpt>
      <trkpt lat="43.86805" lon="7.22995">
        <ele>580</ele>
        <time>2012-04-22T08:55:29Z</time>
      </trkpt>
      <trkpt lat="43.86792" lon="7.23001">
        <ele>580</ele>
        <time>2012-04-22T08:55:35Z</time>
      </trkpt>
      <trkpt lat="43.86789" lon="7.23002">
        <ele>580</ele>
        <time>2012-04-22T08:55:41Z</time>
      </trkpt>
      <trkpt lat="43.86781" lon="7.23006">
        <ele>580</ele>
        <time>2012-04-22T08:55:47Z</time>
      </trkpt>
      <trkpt lat="43.86777" lon="7.2301">
        <ele>583</ele>
        <time>2012-04-22T08:55:56Z</time>
      </trkpt>
      <trkpt lat="43.86774" lon="7.23021">
        <ele>585</ele>
        <time>2012-04-22T08:56:04Z</time>
      </trkpt>
      <trkpt lat="43.86766" lon="7.23028">
        <ele>585</ele>
        <time>2012-04-22T08:56:12Z</time>
      </trkpt>
      <trkpt lat="43.86761" lon="7.23035">
        <ele>585</ele>
        <time>2012-04-22T08:56:19Z</time>
      </trkpt>
      <trkpt lat="43.86755" lon="7.23042">
        <ele>588</ele>
        <time>2012-04-22T08:56:26Z</time>
      </trkpt>
      <trkpt lat="43.86751" lon="7.2305">
        <ele>590</ele>
        <time>2012-04-22T08:56:34Z</time>
      </trkpt>
      <trkpt lat="43.86743" lon="7.23059">
        <ele>592</ele>
        <time>2012-04-22T08:56:40Z</time>
      </trkpt>
      <trkpt lat="43.8674" lon="7.23063">
        <ele>592</ele>
        <time>2012-04-22T08:56:47Z</time>
      </trkpt>
      <trkpt lat="43.86735" lon="7.2307">
        <ele>592</ele>
        <time>2012-04-22T08:56:53Z</time>
      </trkpt>
      <trkpt lat="43.86726" lon="7.23074">
        <ele>593</ele>
        <time>2012-04-22T08:57:02Z</time>
      </trkpt>
      <trkpt lat="43.86717" lon="7.23079">
        <ele>593</ele>
        <time>2012-04-22T08:57:08Z</time>
      </trkpt>
      <trkpt lat="43.8671" lon="7.23082">
        <ele>593</ele>
        <time>2012-04-22T08:57:15Z</time>
      </trkpt>
      <trkpt lat="43.86699" lon="7.23089">
        <ele>593</ele>
        <time>2012-04-22T08:57:21Z</time>
      </trkpt>
      <trkpt lat="43.86694" lon="7.23093">
        <ele>593</ele>
        <time>2012-04-22T08:57:27Z</time>
      </trkpt>
      <trkpt lat="43.86687" lon="7.23098">
        <ele>594</ele>
        <time>2012-04-22T08:57:35Z</time>
      </trkpt>
      <trkpt lat="43.86681" lon="7.23106">
        <ele>596</ele>
        <time>2012-04-22T08:57:43Z</time>
      </trkpt>
      <trkpt lat="43.86677" lon="7.23113">
        <ele>596</ele>
        <time>2012-04-22T08:57:49Z</time>
      </trkpt>
      <trkpt lat="43.86673" lon="7.23129">
        <ele>596</ele>
        <time>2012-04-22T08:57:57Z</time>
      </trkpt>
      <trkpt lat="43.86669" lon="7.2314">
        <ele>596</ele>
        <time>2012-04-22T08:58:04Z</time>
      </trkpt>
      <trkpt lat="43.86663" lon="7.23154">
        <ele>596</ele>
        <time>2012-04-22T08:58:10Z</time>
      </trkpt>
      <trkpt lat="43.86659" lon="7.23159">
        <ele>596</ele>
        <time>2012-04-22T08:58:17Z</time>
      </trkpt>
      <trkpt lat="43.86654" lon="7.23168">
        <ele>596</ele>
        <time>2012-04-22T08:58:24Z</time>
      </trkpt>
      <trkpt lat="43.86647" lon="7.23181">
        <ele>596</ele>
        <time>2012-04-22T08:58:32Z</time>
      </trkpt>
      <trkpt lat="43.86642" lon="7.2319">
        <ele>596</ele>
        <time>2012-04-22T08:58:39Z</time>
      </trkpt>
      <trkpt lat="43.86633" lon="7.23201">
        <ele>596</ele>
        <time>2012-04-22T08:58:45Z</time>
      </trkpt>
      <trkpt lat="43.86631" lon="7.23205">
        <ele>596</ele>
        <time>2012-04-22T08:58:52Z</time>
      </trkpt>
      <trkpt lat="43.86629" lon="7.23212">
        <ele>596</ele>
        <time>2012-04-22T08:58:59Z</time>
      </trkpt>
      <trkpt lat="43.86621" lon="7.23214">
        <ele>598</ele>
        <time>2012-04-22T08:59:08Z</time>
      </trkpt>
      <trkpt lat="43.86612" lon="7.23211">
        <ele>599</ele>
        <time>2012-04-22T08:59:16Z</time>
      </trkpt>
      <trkpt lat="43.86601" lon="7.23209">
        <ele>599</ele>
        <time>2012-04-22T08:59:24Z</time>
      </trkpt>
      <trkpt lat="43.8659" lon="7.2321">
        <ele>599</ele>
        <time>2012-04-22T08:59:33Z</time>
      </trkpt>
      <trkpt lat="43.86585" lon="7.23212">
        <ele>599</ele>
        <time>2012-04-22T08:59:40Z</time>
      </trkpt>
      <trkpt lat="43.86577" lon="7.23214">
        <ele>599</ele>
        <time>2012-04-22T08:59:47Z</time>
      </trkpt>
      <trkpt lat="43.86572" lon="7.23217">
        <ele>603</ele>
        <time>2012-04-22T08:59:56Z</time>
      </trkpt>
      <trkpt lat="43.86566" lon="7.23218">
        <ele>606</ele>
        <time>2012-04-22T09:00:02Z</time>
      </trkpt>
      <trkpt lat="43.86557" lon="7.23223">
        <ele>606</ele>
        <time>2012-04-22T09:00:08Z</time>
      </trkpt>
      <trkpt lat="43.86552" lon="7.23224">
        <ele>606</ele>
        <time>2012-04-22T09:00:16Z</time>
      </trkpt>
      <trkpt lat="43.86551" lon="7.23233">
        <ele>607</ele>
        <time>2012-04-22T09:00:27Z</time>
      </trkpt>
      <trkpt lat="43.86549" lon="7.23232">
        <ele>608</ele>
        <time>2012-04-22T09:00:34Z</time>
      </trkpt>
      <trkpt lat="43.86548" lon="7.2323">
        <ele>609</ele>
        <time>2012-04-22T09:00:43Z</time>
      </trkpt>
      <trkpt lat="43.8655" lon="7.23232">
        <ele>610</ele>
        <time>2012-04-22T09:01:02Z</time>
      </trkpt>
      <trkpt lat="43.86551" lon="7.23234">
        <ele>610</ele>
        <time>2012-04-22T09:01:07Z</time>
      </trkpt>
      <trkpt lat="43.8655" lon="7.23234">
        <ele>614</ele>
        <time>2012-04-22T09:01:24Z</time>
      </trkpt>
      <trkpt lat="43.86549" lon="7.23235">
        <ele>614</ele>
        <time>2012-04-22T09:01:33Z</time>
      </trkpt>
      <trkpt lat="43.86548" lon="7.23233">
        <ele>611</ele>
        <time>2012-04-22T09:02:13Z</time>
      </trkpt>
      <trkpt lat="43.86549" lon="7.23234">
        <ele>611</ele>
        <time>2012-04-22T09:02:32Z</time>
      </trkpt>
      <trkpt lat="43.8655" lon="7.23234">
        <ele>611</ele>
        <time>2012-04-22T09:02:56Z</time>
      </trkpt>
      <trkpt lat="43.86549" lon="7.23233">
        <ele>611</ele>
        <time>2012-04-22T09:03:21Z</time>
      </trkpt>
      <trkpt lat="43.86548" lon="7.23235">
        <ele>610</ele>
        <time>2012-04-22T09:04:02Z</time>
      </trkpt>
      <trkpt lat="43.86549" lon="7.23232">
        <ele>609</ele>
        <time>2012-04-22T09:04:16Z</time>
      </trkpt>
      <trkpt lat="43.86551" lon="7.23232">
        <ele>609</ele>
        <time>2012-04-22T09:04:47Z</time>
      </trkpt>
      <trkpt lat="43.86551" lon="7.23231">
        <ele>607</ele>
        <time>2012-04-22T09:04:55Z</time>
      </trkpt>
      <trkpt lat="43.86552" lon="7.23232">
        <ele>606</ele>
        <time>2012-04-22T09:05:03Z</time>
      </trkpt>
      <trkpt lat="43.86556" lon="7.23236">
        <ele>605</ele>
        <time>2012-04-22T09:05:11Z</time>
      </trkpt>
      <trkpt lat="43.8656" lon="7.2324">
        <ele>605</ele>
        <time>2012-04-22T09:05:17Z</time>
      </trkpt>
      <trkpt lat="43.86565" lon="7.23244">
        <ele>606</ele>
        <time>2012-04-22T09:05:24Z</time>
      </trkpt>
      <trkpt lat="43.86569" lon="7.2325">
        <ele>610</ele>
        <time>2012-04-22T09:05:32Z</time>
      </trkpt>
      <trkpt lat="43.86573" lon="7.23258">
        <ele>611</ele>
        <time>2012-04-22T09:05:39Z</time>
      </trkpt>
      <trkpt lat="43.86577" lon="7.23266">
        <ele>615</ele>
        <time>2012-04-22T09:05:49Z</time>
      </trkpt>
      <trkpt lat="43.86579" lon="7.23266">
        <ele>616</ele>
        <time>2012-04-22T09:05:55Z</time>
      </trkpt>
      <trkpt lat="43.86586" lon="7.23273">
        <ele>620</ele>
        <time>2012-04-22T09:06:03Z</time>
      </trkpt>
      <trkpt lat="43.86588" lon="7.23276">
        <ele>623</ele>
        <time>2012-04-22T09:06:10Z</time>
      </trkpt>
      <trkpt lat="43.86592" lon="7.23278">
        <ele>626</ele>
        <time>2012-04-22T09:06:17Z</time>
      </trkpt>
      <trkpt lat="43.86598" lon="7.23281">
        <ele>626</ele>
        <time>2012-04-22T09:06:24Z</time>
      </trkpt>
      <trkpt lat="43.86604" lon="7.2329">
        <ele>629</ele>
        <time>2012-04-22T09:06:32Z</time>
      </trkpt>
      <trkpt lat="43.86606" lon="7.23292">
        <ele>630</ele>
        <time>2012-04-22T09:06:38Z</time>
      </trkpt>
      <trkpt lat="43.86614" lon="7.23298">
        <ele>631</ele>
        <time>2012-04-22T09:06:46Z</time>
      </trkpt>
      <trkpt lat="43.86618" lon="7.23298">
        <ele>632</ele>
        <time>2012-04-22T09:06:53Z</time>
      </trkpt>
      <trkpt lat="43.86614" lon="7.23304">
        <ele>633</ele>
        <time>2012-04-22T09:07:01Z</time>
      </trkpt>
      <trkpt lat="43.86615" lon="7.23308">
        <ele>634</ele>
        <time>2012-04-22T09:07:09Z</time>
      </trkpt>
      <trkpt lat="43.86624" lon="7.23309">
        <ele>637</ele>
        <time>2012-04-22T09:07:16Z</time>
      </trkpt>
      <trkpt lat="43.86626" lon="7.23309">
        <ele>638</ele>
        <time>2012-04-22T09:07:22Z</time>
      </trkpt>
      <trkpt lat="43.86634" lon="7.2331">
        <ele>640</ele>
        <time>2012-04-22T09:07:29Z</time>
      </trkpt>
      <trkpt lat="43.86644" lon="7.23308">
        <ele>641</ele>
        <time>2012-04-22T09:07:37Z</time>
      </trkpt>
      <trkpt lat="43.86651" lon="7.23307">
        <ele>641</ele>
        <time>2012-04-22T09:07:43Z</time>
      </trkpt>
      <trkpt lat="43.86658" lon="7.23306">
        <ele>641</ele>
        <time>2012-04-22T09:07:50Z</time>
      </trkpt>
      <trkpt lat="43.86667" lon="7.23303">
        <ele>641</ele>
        <time>2012-04-22T09:07:58Z</time>
      </trkpt>
      <trkpt lat="43.86675" lon="7.23298">
        <ele>641</ele>
        <time>2012-04-22T09:08:06Z</time>
      </trkpt>
      <trkpt lat="43.86682" lon="7.23295">
        <ele>642</ele>
        <time>2012-04-22T09:08:14Z</time>
      </trkpt>
      <trkpt lat="43.86684" lon="7.23293">
        <ele>644</ele>
        <time>2012-04-22T09:08:20Z</time>
      </trkpt>
      <trkpt lat="43.86689" lon="7.23295">
        <ele>647</ele>
        <time>2012-04-22T09:08:27Z</time>
      </trkpt>
      <trkpt lat="43.86695" lon="7.23292">
        <ele>652</ele>
        <time>2012-04-22T09:08:36Z</time>
      </trkpt>
      <trkpt lat="43.86701" lon="7.23287">
        <ele>654</ele>
        <time>2012-04-22T09:08:44Z</time>
      </trkpt>
      <trkpt lat="43.86708" lon="7.23285">
        <ele>655</ele>
        <time>2012-04-22T09:08:52Z</time>
      </trkpt>
      <trkpt lat="43.86715" lon="7.23284">
        <ele>656</ele>
        <time>2012-04-22T09:08:59Z</time>
      </trkpt>
      <trkpt lat="43.86723" lon="7.23279">
        <ele>656</ele>
        <time>2012-04-22T09:09:08Z</time>
      </trkpt>
      <trkpt lat="43.8673" lon="7.23277">
        <ele>656</ele>
        <time>2012-04-22T09:09:14Z</time>
      </trkpt>
      <trkpt lat="43.86732" lon="7.23276">
        <ele>657</ele>
        <time>2012-04-22T09:09:20Z</time>
      </trkpt>
      <trkpt lat="43.86739" lon="7.23271">
        <ele>659</ele>
        <time>2012-04-22T09:09:29Z</time>
      </trkpt>
      <trkpt lat="43.86745" lon="7.23269">
        <ele>660</ele>
        <time>2012-04-22T09:09:35Z</time>
      </trkpt>
      <trkpt lat="43.86749" lon="7.23271">
        <ele>663</ele>
        <time>2012-04-22T09:09:45Z</time>
      </trkpt>
      <trkpt lat="43.86754" lon="7.23272">
        <ele>665</ele>
        <time>2012-04-22T09:09:52Z</time>
      </trkpt>
      <trkpt lat="43.86759" lon="7.23285">
        <ele>668</ele>
        <time>2012-04-22T09:10:00Z</time>
      </trkpt>
      <trkpt lat="43.86757" lon="7.23296">
        <ele>669</ele>
        <time>2012-04-22T09:10:08Z</time>
      </trkpt>
      <trkpt lat="43.86758" lon="7.233">
        <ele>671</ele>
        <time>2012-04-22T09:10:15Z</time>
      </trkpt>
      <trkpt lat="43.86762" lon="7.2331">
        <ele>673</ele>
        <time>2012-04-22T09:10:26Z</time>
      </trkpt>
      <trkpt lat="43.86759" lon="7.23317">
        <ele>674</ele>
        <time>2012-04-22T09:10:32Z</time>
      </trkpt>
      <trkpt lat="43.86754" lon="7.23324">
        <ele>676</ele>
        <time>2012-04-22T09:10:40Z</time>
      </trkpt>
      <trkpt lat="43.86747" lon="7.23329">
        <ele>677</ele>
        <time>2012-04-22T09:10:46Z</time>
      </trkpt>
      <trkpt lat="43.86745" lon="7.23335">
        <ele>677</ele>
        <time>2012-04-22T09:11:20Z</time>
      </trkpt>
      <trkpt lat="43.86746" lon="7.23335">
        <ele>679</ele>
        <time>2012-04-22T09:12:16Z</time>
      </trkpt>
      <trkpt lat="43.86745" lon="7.23337">
        <ele>680</ele>
        <time>2012-04-22T09:12:31Z</time>
      </trkpt>
      <trkpt lat="43.86742" lon="7.23348">
        <ele>682</ele>
        <time>2012-04-22T09:12:40Z</time>
      </trkpt>
      <trkpt lat="43.86737" lon="7.23357">
        <ele>683</ele>
        <time>2012-04-22T09:12:47Z</time>
      </trkpt>
      <trkpt lat="43.86732" lon="7.23366">
        <ele>684</ele>
        <time>2012-04-22T09:12:53Z</time>
      </trkpt>
      <trkpt lat="43.86726" lon="7.23374">
        <ele>685</ele>
        <time>2012-04-22T09:13:01Z</time>
      </trkpt>
      <trkpt lat="43.86718" lon="7.2338">
        <ele>685</ele>
        <time>2012-04-22T09:13:09Z</time>
      </trkpt>
      <trkpt lat="43.86714" lon="7.23386">
        <ele>685</ele>
        <time>2012-04-22T09:13:16Z</time>
      </trkpt>
      <trkpt lat="43.86711" lon="7.23401">
        <ele>685</ele>
        <time>2012-04-22T09:13:24Z</time>
      </trkpt>
      <trkpt lat="43.86705" lon="7.23417">
        <ele>685</ele>
        <time>2012-04-22T09:13:32Z</time>
      </trkpt>
      <trkpt lat="43.86704" lon="7.2342">
        <ele>686</ele>
        <time>2012-04-22T09:13:38Z</time>
      </trkpt>
      <trkpt lat="43.86695" lon="7.23435">
        <ele>687</ele>
        <time>2012-04-22T09:13:47Z</time>
      </trkpt>
      <trkpt lat="43.86685" lon="7.23451">
        <ele>688</ele>
        <time>2012-04-22T09:13:55Z</time>
      </trkpt>
      <trkpt lat="43.86668" lon="7.2346">
        <ele>691</ele>
        <time>2012-04-22T09:14:03Z</time>
      </trkpt>
      <trkpt lat="43.86659" lon="7.23468">
        <ele>692</ele>
        <time>2012-04-22T09:14:10Z</time>
      </trkpt>
      <trkpt lat="43.86657" lon="7.23474">
        <ele>694</ele>
        <time>2012-04-22T09:14:20Z</time>
      </trkpt>
      <trkpt lat="43.86654" lon="7.23477">
        <ele>694</ele>
        <time>2012-04-22T09:14:28Z</time>
      </trkpt>
      <trkpt lat="43.86646" lon="7.23476">
        <ele>694</ele>
        <time>2012-04-22T09:14:35Z</time>
      </trkpt>
      <trkpt lat="43.86637" lon="7.23475">
        <ele>694</ele>
        <time>2012-04-22T09:14:45Z</time>
      </trkpt>
      <trkpt lat="43.86631" lon="7.23479">
        <ele>695</ele>
        <time>2012-04-22T09:14:50Z</time>
      </trkpt>
      <trkpt lat="43.86624" lon="7.2349">
        <ele>698</ele>
        <time>2012-04-22T09:15:00Z</time>
      </trkpt>
      <trkpt lat="43.86622" lon="7.235">
        <ele>698</ele>
        <time>2012-04-22T09:15:09Z</time>
      </trkpt>
      <trkpt lat="43.86623" lon="7.23498">
        <ele>699</ele>
        <time>2012-04-22T09:15:30Z</time>
      </trkpt>
      <trkpt lat="43.8662" lon="7.2351">
        <ele>701</ele>
        <time>2012-04-22T09:15:45Z</time>
      </trkpt>
      <trkpt lat="43.86611" lon="7.23531">
        <ele>701</ele>
        <time>2012-04-22T09:15:52Z</time>
      </trkpt>
      <trkpt lat="43.86603" lon="7.23547">
        <ele>701</ele>
        <time>2012-04-22T09:15:58Z</time>
      </trkpt>
      <trkpt lat="43.86597" lon="7.23571">
        <ele>701</ele>
        <time>2012-04-22T09:16:05Z</time>
      </trkpt>
      <trkpt lat="43.86591" lon="7.23588">
        <ele>701</ele>
        <time>2012-04-22T09:16:11Z</time>
      </trkpt>
      <trkpt lat="43.86592" lon="7.23629">
        <ele>701</ele>
        <time>2012-04-22T09:16:20Z</time>
      </trkpt>
      <trkpt lat="43.86597" lon="7.23666">
        <ele>701</ele>
        <time>2012-04-22T09:16:28Z</time>
      </trkpt>
      <trkpt lat="43.86593" lon="7.237">
        <ele>697</ele>
        <time>2012-04-22T09:16:36Z</time>
      </trkpt>
      <trkpt lat="43.86595" lon="7.23725">
        <ele>694</ele>
        <time>2012-04-22T09:16:43Z</time>
      </trkpt>
      <trkpt lat="43.86594" lon="7.23727">
        <ele>694</ele>
        <time>2012-04-22T09:16:52Z</time>
      </trkpt>
      <trkpt lat="43.86591" lon="7.23731">
        <ele>694</ele>
        <time>2012-04-22T09:17:00Z</time>
      </trkpt>
      <trkpt lat="43.86589" lon="7.23736">
        <ele>694</ele>
        <time>2012-04-22T09:17:08Z</time>
      </trkpt>
      <trkpt lat="43.86593" lon="7.23747">
        <ele>694</ele>
        <time>2012-04-22T09:17:16Z</time>
      </trkpt>
      <trkpt lat="43.86602" lon="7.2376">
        <ele>695</ele>
        <time>2012-04-22T09:17:24Z</time>
      </trkpt>
      <trkpt lat="43.86606" lon="7.23775">
        <ele>696</ele>
        <time>2012-04-22T09:17:31Z</time>
      </trkpt>
      <trkpt lat="43.86615" lon="7.23786">
        <ele>698</ele>
        <time>2012-04-22T09:17:40Z</time>
      </trkpt>
      <trkpt lat="43.86623" lon="7.23792">
        <ele>699</ele>
        <time>2012-04-22T09:17:48Z</time>
      </trkpt>
      <trkpt lat="43.86626" lon="7.23799">
        <ele>700</ele>
        <time>2012-04-22T09:17:56Z</time>
      </trkpt>
      <trkpt lat="43.86626" lon="7.23803">
        <ele>704</ele>
        <time>2012-04-22T09:18:13Z</time>
      </trkpt>
      <trkpt lat="43.86625" lon="7.23804">
        <ele>705</ele>
        <time>2012-04-22T09:18:21Z</time>
      </trkpt>
      <trkpt lat="43.86625" lon="7.23803">
        <ele>705</ele>
        <time>2012-04-22T09:18:31Z</time>
      </trkpt>
      <trkpt lat="43.86626" lon="7.23802">
        <ele>705</ele>
        <time>2012-04-22T09:18:47Z</time>
      </trkpt>
      <trkpt lat="43.86626" lon="7.238">
        <ele>705</ele>
        <time>2012-04-22T09:18:55Z</time>
      </trkpt>
      <trkpt lat="43.86625" lon="7.23798">
        <ele>705</ele>
        <time>2012-04-22T09:19:29Z</time>
      </trkpt>
      <trkpt lat="43.86624" lon="7.23797">
        <ele>705</ele>
        <time>2012-04-22T09:19:36Z</time>
      </trkpt>
      <trkpt lat="43.86623" lon="7.23798">
        <ele>705</ele>
        <time>2012-04-22T09:19:54Z</time>
      </trkpt>
      <trkpt lat="43.86624" lon="7.238">
        <ele>705</ele>
        <time>2012-04-22T09:20:02Z</time>
      </trkpt>
      <trkpt lat="43.86628" lon="7.23813">
        <ele>705</ele>
        <time>2012-04-22T09:20:11Z</time>
      </trkpt>
      <trkpt lat="43.86637" lon="7.23823">
        <ele>705</ele>
        <time>2012-04-22T09:20:18Z</time>
      </trkpt>
      <trkpt lat="43.86643" lon="7.23831">
        <ele>705</ele>
        <time>2012-04-22T09:20:25Z</time>
      </trkpt>
      <trkpt lat="43.86649" lon="7.23842">
        <ele>706</ele>
        <time>2012-04-22T09:20:32Z</time>
      </trkpt>
      <trkpt lat="43.86653" lon="7.2385">
        <ele>707</ele>
        <time>2012-04-22T09:20:39Z</time>
      </trkpt>
      <trkpt lat="43.86654" lon="7.23856">
        <ele>708</ele>
        <time>2012-04-22T09:20:46Z</time>
      </trkpt>
      <trkpt lat="43.86655" lon="7.23865">
        <ele>709</ele>
        <time>2012-04-22T09:20:54Z</time>
      </trkpt>
      <trkpt lat="43.86655" lon="7.23878">
        <ele>711</ele>
        <time>2012-04-22T09:21:05Z</time>
      </trkpt>
      <trkpt lat="43.86652" lon="7.23886">
        <ele>712</ele>
        <time>2012-04-22T09:21:13Z</time>
      </trkpt>
      <trkpt lat="43.86652" lon="7.23895">
        <ele>712</ele>
        <time>2012-04-22T09:21:22Z</time>
      </trkpt>
      <trkpt lat="43.86651" lon="7.239">
        <ele>712</ele>
        <time>2012-04-22T09:21:28Z</time>
      </trkpt>
      <trkpt lat="43.86657" lon="7.23913">
        <ele>713</ele>
        <time>2012-04-22T09:21:35Z</time>
      </trkpt>
      <trkpt lat="43.86655" lon="7.23918">
        <ele>714</ele>
        <time>2012-04-22T09:21:43Z</time>
      </trkpt>
      <trkpt lat="43.86652" lon="7.23929">
        <ele>715</ele>
        <time>2012-04-22T09:21:50Z</time>
      </trkpt>
      <trkpt lat="43.86651" lon="7.23933">
        <ele>716</ele>
        <time>2012-04-22T09:21:57Z</time>
      </trkpt>
      <trkpt lat="43.8665" lon="7.23942">
        <ele>720</ele>
        <time>2012-04-22T09:22:06Z</time>
      </trkpt>
      <trkpt lat="43.86645" lon="7.23953">
        <ele>720</ele>
        <time>2012-04-22T09:22:13Z</time>
      </trkpt>
      <trkpt lat="43.86642" lon="7.23956">
        <ele>722</ele>
        <time>2012-04-22T09:22:22Z</time>
      </trkpt>
      <trkpt lat="43.86641" lon="7.23955">
        <ele>725</ele>
        <time>2012-04-22T09:22:32Z</time>
      </trkpt>
      <trkpt lat="43.8664" lon="7.23957">
        <ele>725</ele>
        <time>2012-04-22T09:22:43Z</time>
      </trkpt>
      <trkpt lat="43.86639" lon="7.2396">
        <ele>726</ele>
        <time>2012-04-22T09:23:12Z</time>
      </trkpt>
      <trkpt lat="43.86639" lon="7.23962">
        <ele>726</ele>
        <time>2012-04-22T09:23:21Z</time>
      </trkpt>
      <trkpt lat="43.8664" lon="7.23966">
        <ele>728</ele>
        <time>2012-04-22T09:24:32Z</time>
      </trkpt>
      <trkpt lat="43.86643" lon="7.23973">
        <ele>728</ele>
        <time>2012-04-22T09:24:41Z</time>
      </trkpt>
      <trkpt lat="43.86647" lon="7.2398">
        <ele>728</ele>
        <time>2012-04-22T09:24:47Z</time>
      </trkpt>
      <trkpt lat="43.86662" lon="7.23995">
        <ele>728</ele>
        <time>2012-04-22T09:24:54Z</time>
      </trkpt>
      <trkpt lat="43.86671" lon="7.24002">
        <ele>729</ele>
        <time>2012-04-22T09:25:01Z</time>
      </trkpt>
      <trkpt lat="43.86686" lon="7.24024">
        <ele>731</ele>
        <time>2012-04-22T09:25:08Z</time>
      </trkpt>
      <trkpt lat="43.86689" lon="7.24029">
        <ele>732</ele>
        <time>2012-04-22T09:25:36Z</time>
      </trkpt>
      <trkpt lat="43.86687" lon="7.24029">
        <ele>732</ele>
        <time>2012-04-22T09:26:10Z</time>
      </trkpt>
      <trkpt lat="43.86688" lon="7.24031">
        <ele>732</ele>
        <time>2012-04-22T09:26:37Z</time>
      </trkpt>
      <trkpt lat="43.8669" lon="7.24037">
        <ele>732</ele>
        <time>2012-04-22T09:26:44Z</time>
      </trkpt>
      <trkpt lat="43.86689" lon="7.24058">
        <ele>732</ele>
        <time>2012-04-22T09:26:52Z</time>
      </trkpt>
      <trkpt lat="43.86675" lon="7.24086">
        <ele>732</ele>
        <time>2012-04-22T09:27:00Z</time>
      </trkpt>
      <trkpt lat="43.86671" lon="7.24096">
        <ele>733</ele>
        <time>2012-04-22T09:27:07Z</time>
      </trkpt>
      <trkpt lat="43.86662" lon="7.24111">
        <ele>734</ele>
        <time>2012-04-22T09:27:13Z</time>
      </trkpt>
      <trkpt lat="43.86646" lon="7.24125">
        <ele>735</ele>
        <time>2012-04-22T09:27:21Z</time>
      </trkpt>
      <trkpt lat="43.86626" lon="7.24146">
        <ele>735</ele>
        <time>2012-04-22T09:27:29Z</time>
      </trkpt>
      <trkpt lat="43.86604" lon="7.24158">
        <ele>736</ele>
        <time>2012-04-22T09:27:37Z</time>
      </trkpt>
      <trkpt lat="43.86598" lon="7.24161">
        <ele>737</ele>
        <time>2012-04-22T09:27:43Z</time>
      </trkpt>
      <trkpt lat="43.86585" lon="7.24173">
        <ele>739</ele>
        <time>2012-04-22T09:27:51Z</time>
      </trkpt>
      <trkpt lat="43.86565" lon="7.24181">
        <ele>741</ele>
        <time>2012-04-22T09:27:58Z</time>
      </trkpt>
      <trkpt lat="43.86559" lon="7.24183">
        <ele>743</ele>
        <time>2012-04-22T09:28:05Z</time>
      </trkpt>
      <trkpt lat="43.86547" lon="7.24189">
        <ele>744</ele>
        <time>2012-04-22T09:28:11Z</time>
      </trkpt>
      <trkpt lat="43.86531" lon="7.24196">
        <ele>746</ele>
        <time>2012-04-22T09:28:18Z</time>
      </trkpt>
      <trkpt lat="43.86517" lon="7.24198">
        <ele>747</ele>
        <time>2012-04-22T09:28:25Z</time>
      </trkpt>
      <trkpt lat="43.86512" lon="7.24199">
        <ele>748</ele>
        <time>2012-04-22T09:28:32Z</time>
      </trkpt>
      <trkpt lat="43.86499" lon="7.24203">
        <ele>750</ele>
        <time>2012-04-22T09:28:38Z</time>
      </trkpt>
      <trkpt lat="43.86486" lon="7.24209">
        <ele>751</ele>
        <time>2012-04-22T09:28:45Z</time>
      </trkpt>
      <trkpt lat="43.86474" lon="7.24224">
        <ele>753</ele>
        <time>2012-04-22T09:28:53Z</time>
      </trkpt>
      <trkpt lat="43.86461" lon="7.24247">
        <ele>754</ele>
        <time>2012-04-22T09:29:00Z</time>
      </trkpt>
      <trkpt lat="43.86452" lon="7.24262">
        <ele>755</ele>
        <time>2012-04-22T09:29:07Z</time>
      </trkpt>
      <trkpt lat="43.86448" lon="7.24268">
        <ele>756</ele>
        <time>2012-04-22T09:29:14Z</time>
      </trkpt>
      <trkpt lat="43.86442" lon="7.24286">
        <ele>757</ele>
        <time>2012-04-22T09:29:20Z</time>
      </trkpt>
      <trkpt lat="43.86439" lon="7.24304">
        <ele>759</ele>
        <time>2012-04-22T09:29:27Z</time>
      </trkpt>
      <trkpt lat="43.86433" lon="7.24328">
        <ele>761</ele>
        <time>2012-04-22T09:29:34Z</time>
      </trkpt>
      <trkpt lat="43.86429" lon="7.24336">
        <ele>763</ele>
        <time>2012-04-22T09:29:41Z</time>
      </trkpt>
      <trkpt lat="43.8642" lon="7.2435">
        <ele>765</ele>
        <time>2012-04-22T09:29:48Z</time>
      </trkpt>
      <trkpt lat="43.86409" lon="7.24366">
        <ele>766</ele>
        <time>2012-04-22T09:29:55Z</time>
      </trkpt>
      <trkpt lat="43.86401" lon="7.24382">
        <ele>767</ele>
        <time>2012-04-22T09:30:02Z</time>
      </trkpt>
      <trkpt lat="43.86391" lon="7.24407">
        <ele>768</ele>
        <time>2012-04-22T09:30:09Z</time>
      </trkpt>
      <trkpt lat="43.86389" lon="7.24415">
        <ele>769</ele>
        <time>2012-04-22T09:30:16Z</time>
      </trkpt>
      <trkpt lat="43.86388" lon="7.24437">
        <ele>771</ele>
        <time>2012-04-22T09:30:24Z</time>
      </trkpt>
      <trkpt lat="43.86392" lon="7.24453">
        <ele>772</ele>
        <time>2012-04-22T09:30:30Z</time>
      </trkpt>
      <trkpt lat="43.86397" lon="7.24468">
        <ele>774</ele>
        <time>2012-04-22T09:30:37Z</time>
      </trkpt>
      <trkpt lat="43.86401" lon="7.24483">
        <ele>776</ele>
        <time>2012-04-22T09:30:44Z</time>
      </trkpt>
      <trkpt lat="43.86409" lon="7.24505">
        <ele>778</ele>
        <time>2012-04-22T09:30:51Z</time>
      </trkpt>
      <trkpt lat="43.86415" lon="7.24519">
        <ele>779</ele>
        <time>2012-04-22T09:30:58Z</time>
      </trkpt>
      <trkpt lat="43.86421" lon="7.24533">
        <ele>780</ele>
        <time>2012-04-22T09:31:05Z</time>
      </trkpt>
      <trkpt lat="43.86425" lon="7.2454">
        <ele>781</ele>
        <time>2012-04-22T09:31:12Z</time>
      </trkpt>
      <trkpt lat="43.86436" lon="7.24557">
        <ele>781</ele>
        <time>2012-04-22T09:31:19Z</time>
      </trkpt>
      <trkpt lat="43.8644" lon="7.24566">
        <ele>782</ele>
        <time>2012-04-22T09:31:26Z</time>
      </trkpt>
      <trkpt lat="43.86443" lon="7.24584">
        <ele>783</ele>
        <time>2012-04-22T09:31:34Z</time>
      </trkpt>
      <trkpt lat="43.86442" lon="7.24611">
        <ele>784</ele>
        <time>2012-04-22T09:31:42Z</time>
      </trkpt>
      <trkpt lat="43.86441" lon="7.2462">
        <ele>785</ele>
        <time>2012-04-22T09:31:49Z</time>
      </trkpt>
      <trkpt lat="43.86439" lon="7.24639">
        <ele>787</ele>
        <time>2012-04-22T09:31:55Z</time>
      </trkpt>
      <trkpt lat="43.86436" lon="7.24656">
        <ele>788</ele>
        <time>2012-04-22T09:32:02Z</time>
      </trkpt>
      <trkpt lat="43.86431" lon="7.24671">
        <ele>789</ele>
        <time>2012-04-22T09:32:09Z</time>
      </trkpt>
      <trkpt lat="43.86426" lon="7.24687">
        <ele>790</ele>
        <time>2012-04-22T09:32:16Z</time>
      </trkpt>
      <trkpt lat="43.86418" lon="7.24707">
        <ele>791</ele>
        <time>2012-04-22T09:32:23Z</time>
      </trkpt>
      <trkpt lat="43.86415" lon="7.24716">
        <ele>793</ele>
        <time>2012-04-22T09:32:30Z</time>
      </trkpt>
      <trkpt lat="43.8641" lon="7.24731">
        <ele>794</ele>
        <time>2012-04-22T09:32:37Z</time>
      </trkpt>
      <trkpt lat="43.86404" lon="7.24747">
        <ele>795</ele>
        <time>2012-04-22T09:32:44Z</time>
      </trkpt>
      <trkpt lat="43.864" lon="7.24762">
        <ele>796</ele>
        <time>2012-04-22T09:32:51Z</time>
      </trkpt>
      <trkpt lat="43.86395" lon="7.24777">
        <ele>797</ele>
        <time>2012-04-22T09:32:58Z</time>
      </trkpt>
      <trkpt lat="43.86391" lon="7.24792">
        <ele>798</ele>
        <time>2012-04-22T09:33:05Z</time>
      </trkpt>
      <trkpt lat="43.86388" lon="7.24807">
        <ele>800</ele>
        <time>2012-04-22T09:33:12Z</time>
      </trkpt>
      <trkpt lat="43.86385" lon="7.24823">
        <ele>800</ele>
        <time>2012-04-22T09:33:19Z</time>
      </trkpt>
      <trkpt lat="43.86381" lon="7.2484">
        <ele>801</ele>
        <time>2012-04-22T09:33:26Z</time>
      </trkpt>
      <trkpt lat="43.86377" lon="7.24856">
        <ele>802</ele>
        <time>2012-04-22T09:33:33Z</time>
      </trkpt>
      <trkpt lat="43.86372" lon="7.24873">
        <ele>802</ele>
        <time>2012-04-22T09:33:40Z</time>
      </trkpt>
      <trkpt lat="43.8637" lon="7.2489">
        <ele>803</ele>
        <time>2012-04-22T09:33:47Z</time>
      </trkpt>
      <trkpt lat="43.86368" lon="7.24906">
        <ele>804</ele>
        <time>2012-04-22T09:33:54Z</time>
      </trkpt>
      <trkpt lat="43.86366" lon="7.24922">
        <ele>805</ele>
        <time>2012-04-22T09:34:01Z</time>
      </trkpt>
      <trkpt lat="43.86365" lon="7.24938">
        <ele>807</ele>
        <time>2012-04-22T09:34:08Z</time>
      </trkpt>
      <trkpt lat="43.86365" lon="7.24955">
        <ele>808</ele>
        <time>2012-04-22T09:34:15Z</time>
      </trkpt>
      <trkpt lat="43.86365" lon="7.2497">
        <ele>810</ele>
        <time>2012-04-22T09:34:22Z</time>
      </trkpt>
      <trkpt lat="43.86366" lon="7.24987">
        <ele>811</ele>
        <time>2012-04-22T09:34:29Z</time>
      </trkpt>
      <trkpt lat="43.86367" lon="7.25004">
        <ele>813</ele>
        <time>2012-04-22T09:34:36Z</time>
      </trkpt>
      <trkpt lat="43.86369" lon="7.25022">
        <ele>814</ele>
        <time>2012-04-22T09:34:43Z</time>
      </trkpt>
      <trkpt lat="43.86372" lon="7.25039">
        <ele>816</ele>
        <time>2012-04-22T09:34:50Z</time>
      </trkpt>
      <trkpt lat="43.86375" lon="7.25056">
        <ele>818</ele>
        <time>2012-04-22T09:34:57Z</time>
      </trkpt>
      <trkpt lat="43.86379" lon="7.25073">
        <ele>819</ele>
        <time>2012-04-22T09:35:04Z</time>
      </trkpt>
      <trkpt lat="43.86384" lon="7.25089">
        <ele>820</ele>
        <time>2012-04-22T09:35:11Z</time>
      </trkpt>
      <trkpt lat="43.86388" lon="7.25105">
        <ele>822</ele>
        <time>2012-04-22T09:35:18Z</time>
      </trkpt>
      <trkpt lat="43.86393" lon="7.2512">
        <ele>823</ele>
        <time>2012-04-22T09:35:25Z</time>
      </trkpt>
      <trkpt lat="43.86398" lon="7.25136">
        <ele>824</ele>
        <time>2012-04-22T09:35:32Z</time>
      </trkpt>
      <trkpt lat="43.86402" lon="7.25151">
        <ele>825</ele>
        <time>2012-04-22T09:35:39Z</time>
      </trkpt>
      <trkpt lat="43.86406" lon="7.25167">
        <ele>826</ele>
        <time>2012-04-22T09:35:46Z</time>
      </trkpt>
      <trkpt lat="43.86411" lon="7.25182">
        <ele>827</ele>
        <time>2012-04-22T09:35:53Z</time>
      </trkpt>
      <trkpt lat="43.86415" lon="7.25198">
        <ele>829</ele>
        <time>2012-04-22T09:36:00Z</time>
      </trkpt>
      <trkpt lat="43.8642" lon="7.25213">
        <ele>830</ele>
        <time>2012-04-22T09:36:07Z</time>
      </trkpt>
      <trkpt lat="43.86424" lon="7.25229">
        <ele>831</ele>
        <time>2012-04-22T09:36:14Z</time>
      </trkpt>
      <trkpt lat="43.86428" lon="7.25246">
        <ele>832</ele>
        <time>2012-04-22T09:36:21Z</time>
      </trkpt>
      <trkpt lat="43.86432" lon="7.25263">
        <ele>833</ele>
        <time>2012-04-22T09:36:28Z</time>
      </trkpt>
      <trkpt lat="43.86435" lon="7.2528">
        <ele>834</ele>
        <time>2012-04-22T09:36:35Z</time>
      </trkpt>
      <trkpt lat="43.86438" lon="7.25295">
        <ele>835</ele>
        <time>2012-04-22T09:36:42Z</time>
      </trkpt>
      <trkpt lat="43.86441" lon="7.25312">
        <ele>836</ele>
        <time>2012-04-22T09:36:49Z</time>
      </trkpt>
      <trkpt lat="43.86444" lon="7.25327">
        <ele>838</ele>
        <time>2012-04-22T09:36:56Z</time>
      </trkpt>
      <trkpt lat="43.86447" lon="7.25343">
        <ele>839</ele>
        <time>2012-04-22T09:37:03Z</time>
      </trkpt>
      <trkpt lat="43.8645" lon="7.25357">
        <ele>840</ele>
        <time>2012-04-22T09:37:10Z</time>
      </trkpt>
      <trkpt lat="43.86454" lon="7.25372">
        <ele>842</ele>
        <time>2012-04-22T09:37:17Z</time>
      </trkpt>
      <trkpt lat="43.86457" lon="7.25389">
        <ele>843</ele>
        <time>2012-04-22T09:37:24Z</time>
      </trkpt>
      <trkpt lat="43.86457" lon="7.25406">
        <ele>844</ele>
        <time>2012-04-22T09:37:31Z</time>
      </trkpt>
      <trkpt lat="43.86459" lon="7.25422">
        <ele>845</ele>
        <time>2012-04-22T09:37:38Z</time>
      </trkpt>
      <trkpt lat="43.86463" lon="7.25438">
        <ele>846</ele>
        <time>2012-04-22T09:37:46Z</time>
      </trkpt>
      <trkpt lat="43.86467" lon="7.25454">
        <ele>847</ele>
        <time>2012-04-22T09:37:53Z</time>
      </trkpt>
      <trkpt lat="43.86471" lon="7.25469">
        <ele>849</ele>
        <time>2012-04-22T09:38:00Z</time>
      </trkpt>
      <trkpt lat="43.86474" lon="7.25486">
        <ele>850</ele>
        <time>2012-04-22T09:38:07Z</time>
      </trkpt>
      <trkpt lat="43.86478" lon="7.25511">
        <ele>852</ele>
        <time>2012-04-22T09:38:14Z</time>
      </trkpt>
      <trkpt lat="43.86479" lon="7.2552">
        <ele>854</ele>
        <time>2012-04-22T09:38:21Z</time>
      </trkpt>
      <trkpt lat="43.86481" lon="7.25536">
        <ele>855</ele>
        <time>2012-04-22T09:38:28Z</time>
      </trkpt>
      <trkpt lat="43.86484" lon="7.25552">
        <ele>857</ele>
        <time>2012-04-22T09:38:35Z</time>
      </trkpt>
      <trkpt lat="43.86489" lon="7.25568">
        <ele>857</ele>
        <time>2012-04-22T09:38:42Z</time>
      </trkpt>
      <trkpt lat="43.86494" lon="7.25585">
        <ele>858</ele>
        <time>2012-04-22T09:38:49Z</time>
      </trkpt>
      <trkpt lat="43.86501" lon="7.25598">
        <ele>859</ele>
        <time>2012-04-22T09:38:57Z</time>
      </trkpt>
      <trkpt lat="43.86509" lon="7.25611">
        <ele>861</ele>
        <time>2012-04-22T09:39:04Z</time>
      </trkpt>
      <trkpt lat="43.86523" lon="7.25628">
        <ele>862</ele>
        <time>2012-04-22T09:39:11Z</time>
      </trkpt>
      <trkpt lat="43.86533" lon="7.25639">
        <ele>863</ele>
        <time>2012-04-22T09:39:18Z</time>
      </trkpt>
      <trkpt lat="43.86539" lon="7.25645">
        <ele>864</ele>
        <time>2012-04-22T09:39:25Z</time>
      </trkpt>
      <trkpt lat="43.86548" lon="7.25657">
        <ele>865</ele>
        <time>2012-04-22T09:39:32Z</time>
      </trkpt>
      <trkpt lat="43.86556" lon="7.25687">
        <ele>867</ele>
        <time>2012-04-22T09:39:41Z</time>
      </trkpt>
      <trkpt lat="43.8656" lon="7.25705">
        <ele>868</ele>
        <time>2012-04-22T09:39:48Z</time>
      </trkpt>
      <trkpt lat="43.86562" lon="7.25715">
        <ele>869</ele>
        <time>2012-04-22T09:39:55Z</time>
      </trkpt>
      <trkpt lat="43.86568" lon="7.25722">
        <ele>870</ele>
        <time>2012-04-22T09:40:14Z</time>
      </trkpt>
      <trkpt lat="43.86566" lon="7.25722">
        <ele>870</ele>
        <time>2012-04-22T09:40:40Z</time>
      </trkpt>
      <trkpt lat="43.86567" lon="7.25721">
        <ele>870</ele>
        <time>2012-04-22T09:41:10Z</time>
      </trkpt>
      <trkpt lat="43.86568" lon="7.25721">
        <ele>870</ele>
        <time>2012-04-22T09:41:33Z</time>
      </trkpt>
      <trkpt lat="43.8657" lon="7.25723">
        <ele>871</ele>
        <time>2012-04-22T09:41:42Z</time>
      </trkpt>
      <trkpt lat="43.8657" lon="7.25727">
        <ele>871</ele>
        <time>2012-04-22T09:41:51Z</time>
      </trkpt>
      <trkpt lat="43.86571" lon="7.25723">
        <ele>871</ele>
        <time>2012-04-22T09:42:00Z</time>
      </trkpt>
      <trkpt lat="43.86568" lon="7.25723">
        <ele>871</ele>
        <time>2012-04-22T09:42:09Z</time>
      </trkpt>
      <trkpt lat="43.86568" lon="7.2572">
        <ele>871</ele>
        <time>2012-04-22T09:42:27Z</time>
      </trkpt>
      <trkpt lat="43.86567" lon="7.25722">
        <ele>871</ele>
        <time>2012-04-22T09:42:35Z</time>
      </trkpt>
      <trkpt lat="43.86568" lon="7.25719">
        <ele>871</ele>
        <time>2012-04-22T09:43:36Z</time>
      </trkpt>
      <trkpt lat="43.8657" lon="7.2572">
        <ele>871</ele>
        <time>2012-04-22T09:43:45Z</time>
      </trkpt>
      <trkpt lat="43.86569" lon="7.25719">
        <ele>871</ele>
        <time>2012-04-22T09:44:19Z</time>
      </trkpt>
      <trkpt lat="43.86571" lon="7.25711">
        <ele>871</ele>
        <time>2012-04-22T09:44:37Z</time>
      </trkpt>
      <trkpt lat="43.86571" lon="7.25698">
        <ele>871</ele>
        <time>2012-04-22T09:44:45Z</time>
      </trkpt>
      <trkpt lat="43.86569" lon="7.25678">
        <ele>873</ele>
        <time>2012-04-22T09:44:54Z</time>
      </trkpt>
      <trkpt lat="43.86564" lon="7.2565">
        <ele>874</ele>
        <time>2012-04-22T09:45:01Z</time>
      </trkpt>
      <trkpt lat="43.86561" lon="7.2564">
        <ele>876</ele>
        <time>2012-04-22T09:45:08Z</time>
      </trkpt>
      <trkpt lat="43.86554" lon="7.25626">
        <ele>877</ele>
        <time>2012-04-22T09:45:16Z</time>
      </trkpt>
      <trkpt lat="43.86546" lon="7.25601">
        <ele>878</ele>
        <time>2012-04-22T09:45:23Z</time>
      </trkpt>
      <trkpt lat="43.86546" lon="7.25594">
        <ele>879</ele>
        <time>2012-04-22T09:45:30Z</time>
      </trkpt>
      <trkpt lat="43.86545" lon="7.25576">
        <ele>880</ele>
        <time>2012-04-22T09:45:37Z</time>
      </trkpt>
      <trkpt lat="43.86546" lon="7.25559">
        <ele>881</ele>
        <time>2012-04-22T09:45:44Z</time>
      </trkpt>
      <trkpt lat="43.86546" lon="7.25542">
        <ele>882</ele>
        <time>2012-04-22T09:45:52Z</time>
      </trkpt>
      <trkpt lat="43.86548" lon="7.25531">
        <ele>885</ele>
        <time>2012-04-22T09:46:11Z</time>
      </trkpt>
      <trkpt lat="43.86549" lon="7.25521">
        <ele>885</ele>
        <time>2012-04-22T09:46:19Z</time>
      </trkpt>
      <trkpt lat="43.86551" lon="7.25495">
        <ele>886</ele>
        <time>2012-04-22T09:46:26Z</time>
      </trkpt>
      <trkpt lat="43.86551" lon="7.2549">
        <ele>887</ele>
        <time>2012-04-22T09:46:33Z</time>
      </trkpt>
      <trkpt lat="43.86549" lon="7.25471">
        <ele>890</ele>
        <time>2012-04-22T09:46:42Z</time>
      </trkpt>
      <trkpt lat="43.86547" lon="7.25453">
        <ele>893</ele>
        <time>2012-04-22T09:46:50Z</time>
      </trkpt>
      <trkpt lat="43.86546" lon="7.25442">
        <ele>894</ele>
        <time>2012-04-22T09:46:58Z</time>
      </trkpt>
      <trkpt lat="43.86542" lon="7.25428">
        <ele>894</ele>
        <time>2012-04-22T09:47:07Z</time>
      </trkpt>
      <trkpt lat="43.86537" lon="7.25398">
        <ele>894</ele>
        <time>2012-04-22T09:47:15Z</time>
      </trkpt>
      <trkpt lat="43.86534" lon="7.25384">
        <ele>895</ele>
        <time>2012-04-22T09:47:22Z</time>
      </trkpt>
      <trkpt lat="43.8653" lon="7.25366">
        <ele>897</ele>
        <time>2012-04-22T09:47:30Z</time>
      </trkpt>
      <trkpt lat="43.86527" lon="7.25344">
        <ele>898</ele>
        <time>2012-04-22T09:47:37Z</time>
      </trkpt>
      <trkpt lat="43.86527" lon="7.25337">
        <ele>899</ele>
        <time>2012-04-22T09:47:45Z</time>
      </trkpt>
      <trkpt lat="43.8653" lon="7.25351">
        <ele>899</ele>
        <time>2012-04-22T09:47:52Z</time>
      </trkpt>
      <trkpt lat="43.86531" lon="7.25364">
        <ele>900</ele>
        <time>2012-04-22T09:48:09Z</time>
      </trkpt>
      <trkpt lat="43.86531" lon="7.25371">
        <ele>900</ele>
        <time>2012-04-22T09:48:14Z</time>
      </trkpt>
      <trkpt lat="43.86538" lon="7.25391">
        <ele>900</ele>
        <time>2012-04-22T09:48:21Z</time>
      </trkpt>
      <trkpt lat="43.86546" lon="7.2543">
        <ele>900</ele>
        <time>2012-04-22T09:48:27Z</time>
      </trkpt>
      <trkpt lat="43.86552" lon="7.25473">
        <ele>899</ele>
        <time>2012-04-22T09:48:33Z</time>
      </trkpt>
      <trkpt lat="43.86551" lon="7.25516">
        <ele>896</ele>
        <time>2012-04-22T09:48:39Z</time>
      </trkpt>
      <trkpt lat="43.86553" lon="7.25556">
        <ele>893</ele>
        <time>2012-04-22T09:48:45Z</time>
      </trkpt>
      <trkpt lat="43.86557" lon="7.25573">
        <ele>891</ele>
        <time>2012-04-22T09:48:51Z</time>
      </trkpt>
      <trkpt lat="43.8656" lon="7.25593">
        <ele>891</ele>
        <time>2012-04-22T09:48:59Z</time>
      </trkpt>
      <trkpt lat="43.86571" lon="7.25613">
        <ele>891</ele>
        <time>2012-04-22T09:49:06Z</time>
      </trkpt>
      <trkpt lat="43.86575" lon="7.25617">
        <ele>891</ele>
        <time>2012-04-22T09:49:13Z</time>
      </trkpt>
      <trkpt lat="43.86582" lon="7.25626">
        <ele>891</ele>
        <time>2012-04-22T09:49:19Z</time>
      </trkpt>
      <trkpt lat="43.8659" lon="7.25635">
        <ele>891</ele>
        <time>2012-04-22T09:49:29Z</time>
      </trkpt>
      <trkpt lat="43.86592" lon="7.25638">
        <ele>893</ele>
        <time>2012-04-22T09:49:34Z</time>
      </trkpt>
      <trkpt lat="43.86597" lon="7.25644">
        <ele>894</ele>
        <time>2012-04-22T09:49:40Z</time>
      </trkpt>
      <trkpt lat="43.86601" lon="7.25648">
        <ele>897</ele>
        <time>2012-04-22T09:49:46Z</time>
      </trkpt>
      <trkpt lat="43.86607" lon="7.25652">
        <ele>900</ele>
        <time>2012-04-22T09:49:53Z</time>
      </trkpt>
      <trkpt lat="43.8661" lon="7.25656">
        <ele>902</ele>
        <time>2012-04-22T09:50:01Z</time>
      </trkpt>
      <trkpt lat="43.86615" lon="7.25662">
        <ele>903</ele>
        <time>2012-04-22T09:50:07Z</time>
      </trkpt>
      <trkpt lat="43.8662" lon="7.25666">
        <ele>904</ele>
        <time>2012-04-22T09:50:14Z</time>
      </trkpt>
      <trkpt lat="43.86625" lon="7.25672">
        <ele>905</ele>
        <time>2012-04-22T09:50:21Z</time>
      </trkpt>
      <trkpt lat="43.86629" lon="7.25678">
        <ele>907</ele>
        <time>2012-04-22T09:50:29Z</time>
      </trkpt>
      <trkpt lat="43.86635" lon="7.25682">
        <ele>908</ele>
        <time>2012-04-22T09:50:35Z</time>
      </trkpt>
      <trkpt lat="43.86638" lon="7.25689">
        <ele>909</ele>
        <time>2012-04-22T09:50:44Z</time>
      </trkpt>
      <trkpt lat="43.86642" lon="7.25694">
        <ele>909</ele>
        <time>2012-04-22T09:50:49Z</time>
      </trkpt>
      <trkpt lat="43.86646" lon="7.25698">
        <ele>910</ele>
        <time>2012-04-22T09:50:57Z</time>
      </trkpt>
      <trkpt lat="43.86649" lon="7.25703">
        <ele>911</ele>
        <time>2012-04-22T09:51:03Z</time>
      </trkpt>
      <trkpt lat="43.86654" lon="7.25709">
        <ele>911</ele>
        <time>2012-04-22T09:51:10Z</time>
      </trkpt>
      <trkpt lat="43.86658" lon="7.25715">
        <ele>912</ele>
        <time>2012-04-22T09:51:16Z</time>
      </trkpt>
      <trkpt lat="43.86661" lon="7.25721">
        <ele>912</ele>
        <time>2012-04-22T09:51:22Z</time>
      </trkpt>
      <trkpt lat="43.86665" lon="7.25728">
        <ele>914</ele>
        <time>2012-04-22T09:51:30Z</time>
      </trkpt>
      <trkpt lat="43.86669" lon="7.25733">
        <ele>915</ele>
        <time>2012-04-22T09:51:36Z</time>
      </trkpt>
      <trkpt lat="43.86672" lon="7.25741">
        <ele>916</ele>
        <time>2012-04-22T09:51:44Z</time>
      </trkpt>
      <trkpt lat="43.86676" lon="7.2575">
        <ele>918</ele>
        <time>2012-04-22T09:52:15Z</time>
      </trkpt>
      <trkpt lat="43.8668" lon="7.25756">
        <ele>918</ele>
        <time>2012-04-22T09:52:23Z</time>
      </trkpt>
      <trkpt lat="43.86681" lon="7.25763">
        <ele>918</ele>
        <time>2012-04-22T09:52:46Z</time>
      </trkpt>
      <trkpt lat="43.86682" lon="7.25773">
        <ele>918</ele>
        <time>2012-04-22T09:52:53Z</time>
      </trkpt>
      <trkpt lat="43.86678" lon="7.25795">
        <ele>918</ele>
        <time>2012-04-22T09:53:01Z</time>
      </trkpt>
      <trkpt lat="43.86664" lon="7.25815">
        <ele>917</ele>
        <time>2012-04-22T09:53:09Z</time>
      </trkpt>
      <trkpt lat="43.8667" lon="7.25853">
        <ele>913</ele>
        <time>2012-04-22T09:53:16Z</time>
      </trkpt>
      <trkpt lat="43.8668" lon="7.25867">
        <ele>910</ele>
        <time>2012-04-22T09:53:23Z</time>
      </trkpt>
      <trkpt lat="43.86692" lon="7.259">
        <ele>908</ele>
        <time>2012-04-22T09:53:30Z</time>
      </trkpt>
      <trkpt lat="43.86703" lon="7.25915">
        <ele>904</ele>
        <time>2012-04-22T09:53:38Z</time>
      </trkpt>
      <trkpt lat="43.86713" lon="7.25937">
        <ele>898</ele>
        <time>2012-04-22T09:53:48Z</time>
      </trkpt>
      <trkpt lat="43.86712" lon="7.25935">
        <ele>897</ele>
        <time>2012-04-22T09:54:11Z</time>
      </trkpt>
      <trkpt lat="43.86711" lon="7.25935">
        <ele>897</ele>
        <time>2012-04-22T09:54:26Z</time>
      </trkpt>
      <trkpt lat="43.86711" lon="7.25934">
        <ele>899</ele>
        <time>2012-04-22T09:54:57Z</time>
      </trkpt>
      <trkpt lat="43.8671" lon="7.25936">
        <ele>900</ele>
        <time>2012-04-22T09:55:04Z</time>
      </trkpt>
      <trkpt lat="43.86705" lon="7.25938">
        <ele>900</ele>
        <time>2012-04-22T09:55:12Z</time>
      </trkpt>
      <trkpt lat="43.86689" lon="7.25945">
        <ele>900</ele>
        <time>2012-04-22T09:55:19Z</time>
      </trkpt>
      <trkpt lat="43.86681" lon="7.25976">
        <ele>898</ele>
        <time>2012-04-22T09:55:26Z</time>
      </trkpt>
      <trkpt lat="43.86671" lon="7.25996">
        <ele>896</ele>
        <time>2012-04-22T09:55:32Z</time>
      </trkpt>
      <trkpt lat="43.8667" lon="7.26002">
        <ele>891</ele>
        <time>2012-04-22T09:55:39Z</time>
      </trkpt>
      <trkpt lat="43.86664" lon="7.26018">
        <ele>886</ele>
        <time>2012-04-22T09:55:48Z</time>
      </trkpt>
      <trkpt lat="43.86656" lon="7.2603">
        <ele>882</ele>
        <time>2012-04-22T09:55:56Z</time>
      </trkpt>
      <trkpt lat="43.86652" lon="7.26025">
        <ele>879</ele>
        <time>2012-04-22T09:56:04Z</time>
      </trkpt>
      <trkpt lat="43.86648" lon="7.26019">
        <ele>878</ele>
        <time>2012-04-22T09:56:10Z</time>
      </trkpt>
      <trkpt lat="43.86633" lon="7.26042">
        <ele>873</ele>
        <time>2012-04-22T09:56:19Z</time>
      </trkpt>
      <trkpt lat="43.86624" lon="7.26039">
        <ele>869</ele>
        <time>2012-04-22T09:56:26Z</time>
      </trkpt>
      <trkpt lat="43.8662" lon="7.26052">
        <ele>861</ele>
        <time>2012-04-22T09:56:33Z</time>
      </trkpt>
      <trkpt lat="43.86617" lon="7.26073">
        <ele>854</ele>
        <time>2012-04-22T09:56:41Z</time>
      </trkpt>
      <trkpt lat="43.866" lon="7.26075">
        <ele>848</ele>
        <time>2012-04-22T09:56:49Z</time>
      </trkpt>
      <trkpt lat="43.86593" lon="7.26075">
        <ele>845</ele>
        <time>2012-04-22T09:56:56Z</time>
      </trkpt>
      <trkpt lat="43.86588" lon="7.26073">
        <ele>841</ele>
        <time>2012-04-22T09:57:28Z</time>
      </trkpt>
      <trkpt lat="43.86583" lon="7.26071">
        <ele>841</ele>
        <time>2012-04-22T09:57:36Z</time>
      </trkpt>
      <trkpt lat="43.86578" lon="7.26069">
        <ele>841</ele>
        <time>2012-04-22T09:57:42Z</time>
      </trkpt>
      <trkpt lat="43.86571" lon="7.26072">
        <ele>841</ele>
        <time>2012-04-22T09:57:58Z</time>
      </trkpt>
      <trkpt lat="43.86568" lon="7.26073">
        <ele>842</ele>
        <time>2012-04-22T09:58:05Z</time>
      </trkpt>
      <trkpt lat="43.86563" lon="7.26073">
        <ele>843</ele>
        <time>2012-04-22T09:58:12Z</time>
      </trkpt>
      <trkpt lat="43.86557" lon="7.26075">
        <ele>845</ele>
        <time>2012-04-22T09:58:18Z</time>
      </trkpt>
      <trkpt lat="43.86549" lon="7.26076">
        <ele>847</ele>
        <time>2012-04-22T09:58:25Z</time>
      </trkpt>
      <trkpt lat="43.86542" lon="7.26078">
        <ele>848</ele>
        <time>2012-04-22T09:58:31Z</time>
      </trkpt>
      <trkpt lat="43.86534" lon="7.26073">
        <ele>848</ele>
        <time>2012-04-22T09:58:38Z</time>
      </trkpt>
      <trkpt lat="43.86528" lon="7.26072">
        <ele>848</ele>
        <time>2012-04-22T09:58:44Z</time>
      </trkpt>
      <trkpt lat="43.8652" lon="7.26066">
        <ele>849</ele>
        <time>2012-04-22T09:58:50Z</time>
      </trkpt>
      <trkpt lat="43.86515" lon="7.26061">
        <ele>849</ele>
        <time>2012-04-22T09:58:59Z</time>
      </trkpt>
      <trkpt lat="43.86495" lon="7.26055">
        <ele>850</ele>
        <time>2012-04-22T09:59:07Z</time>
      </trkpt>
      <trkpt lat="43.86479" lon="7.26049">
        <ele>850</ele>
        <time>2012-04-22T09:59:13Z</time>
      </trkpt>
      <trkpt lat="43.86458" lon="7.26057">
        <ele>852</ele>
        <time>2012-04-22T09:59:21Z</time>
      </trkpt>
      <trkpt lat="43.86448" lon="7.26042">
        <ele>852</ele>
        <time>2012-04-22T09:59:29Z</time>
      </trkpt>
      <trkpt lat="43.86439" lon="7.26034">
        <ele>852</ele>
        <time>2012-04-22T09:59:35Z</time>
      </trkpt>
      <trkpt lat="43.8642" lon="7.26018">
        <ele>852</ele>
        <time>2012-04-22T09:59:43Z</time>
      </trkpt>
      <trkpt lat="43.86404" lon="7.26004">
        <ele>852</ele>
        <time>2012-04-22T09:59:49Z</time>
      </trkpt>
      <trkpt lat="43.8639" lon="7.25991">
        <ele>852</ele>
        <time>2012-04-22T09:59:56Z</time>
      </trkpt>
      <trkpt lat="43.86378" lon="7.25981">
        <ele>852</ele>
        <time>2012-04-22T10:00:02Z</time>
      </trkpt>
      <trkpt lat="43.86354" lon="7.2597">
        <ele>852</ele>
        <time>2012-04-22T10:00:09Z</time>
      </trkpt>
      <trkpt lat="43.86346" lon="7.25967">
        <ele>852</ele>
        <time>2012-04-22T10:00:15Z</time>
      </trkpt>
      <trkpt lat="43.86322" lon="7.25957">
        <ele>852</ele>
        <time>2012-04-22T10:00:21Z</time>
      </trkpt>
      <trkpt lat="43.86305" lon="7.25945">
        <ele>853</ele>
        <time>2012-04-22T10:00:29Z</time>
      </trkpt>
      <trkpt lat="43.86288" lon="7.25924">
        <ele>853</ele>
        <time>2012-04-22T10:00:35Z</time>
      </trkpt>
      <trkpt lat="43.86262" lon="7.25901">
        <ele>853</ele>
        <time>2012-04-22T10:00:43Z</time>
      </trkpt>
      <trkpt lat="43.86237" lon="7.25866">
        <ele>853</ele>
        <time>2012-04-22T10:00:49Z</time>
      </trkpt>
      <trkpt lat="43.8623" lon="7.25848">
        <ele>853</ele>
        <time>2012-04-22T10:00:56Z</time>
      </trkpt>
      <trkpt lat="43.86209" lon="7.2581">
        <ele>853</ele>
        <time>2012-04-22T10:01:02Z</time>
      </trkpt>
      <trkpt lat="43.86191" lon="7.25785">
        <ele>850</ele>
        <time>2012-04-22T10:01:10Z</time>
      </trkpt>
      <trkpt lat="43.86163" lon="7.25746">
        <ele>847</ele>
        <time>2012-04-22T10:01:17Z</time>
      </trkpt>
      <trkpt lat="43.8615" lon="7.25725">
        <ele>842</ele>
        <time>2012-04-22T10:01:24Z</time>
      </trkpt>
      <trkpt lat="43.86143" lon="7.25712">
        <ele>838</ele>
        <time>2012-04-22T10:01:31Z</time>
      </trkpt>
      <trkpt lat="43.86141" lon="7.25713">
        <ele>830</ele>
        <time>2012-04-22T10:01:47Z</time>
      </trkpt>
      <trkpt lat="43.86141" lon="7.25712">
        <ele>827</ele>
        <time>2012-04-22T10:02:02Z</time>
      </trkpt>
      <trkpt lat="43.86143" lon="7.25705">
        <ele>827</ele>
        <time>2012-04-22T10:02:10Z</time>
      </trkpt>
      <trkpt lat="43.86142" lon="7.25707">
        <ele>824</ele>
        <time>2012-04-22T10:02:25Z</time>
      </trkpt>
      <trkpt lat="43.86141" lon="7.25712">
        <ele>821</ele>
        <time>2012-04-22T10:02:33Z</time>
      </trkpt>
      <trkpt lat="43.86139" lon="7.25711">
        <ele>817</ele>
        <time>2012-04-22T10:02:42Z</time>
      </trkpt>
      <trkpt lat="43.86141" lon="7.25711">
        <ele>816</ele>
        <time>2012-04-22T10:02:56Z</time>
      </trkpt>
      <trkpt lat="43.86142" lon="7.25708">
        <ele>817</ele>
        <time>2012-04-22T10:03:06Z</time>
      </trkpt>
      <trkpt lat="43.86142" lon="7.25704">
        <ele>818</ele>
        <time>2012-04-22T10:03:12Z</time>
      </trkpt>
      <trkpt lat="43.86143" lon="7.25706">
        <ele>822</ele>
        <time>2012-04-22T10:03:21Z</time>
      </trkpt>
      <trkpt lat="43.86142" lon="7.25706">
        <ele>824</ele>
        <time>2012-04-22T10:03:28Z</time>
      </trkpt>
      <trkpt lat="43.8614" lon="7.25707">
        <ele>828</ele>
        <time>2012-04-22T10:03:36Z</time>
      </trkpt>
      <trkpt lat="43.86139" lon="7.25703">
        <ele>829</ele>
        <time>2012-04-22T10:03:51Z</time>
      </trkpt>
      <trkpt lat="43.86138" lon="7.25699">
        <ele>829</ele>
        <time>2012-04-22T10:03:59Z</time>
      </trkpt>
      <trkpt lat="43.86141" lon="7.25698">
        <ele>832</ele>
        <time>2012-04-22T10:04:07Z</time>
      </trkpt>
      <trkpt lat="43.86135" lon="7.25699">
        <ele>832</ele>
        <time>2012-04-22T10:04:16Z</time>
      </trkpt>
      <trkpt lat="43.86126" lon="7.25696">
        <ele>831</ele>
        <time>2012-04-22T10:04:22Z</time>
      </trkpt>
      <trkpt lat="43.86082" lon="7.25662">
        <ele>827</ele>
        <time>2012-04-22T10:04:30Z</time>
      </trkpt>
      <trkpt lat="43.86063" lon="7.25641">
        <ele>823</ele>
        <time>2012-04-22T10:04:38Z</time>
      </trkpt>
      <trkpt lat="43.86034" lon="7.25634">
        <ele>819</ele>
        <time>2012-04-22T10:04:44Z</time>
      </trkpt>
      <trkpt lat="43.86007" lon="7.25629">
        <ele>815</ele>
        <time>2012-04-22T10:04:50Z</time>
      </trkpt>
      <trkpt lat="43.85984" lon="7.25611">
        <ele>808</ele>
        <time>2012-04-22T10:04:58Z</time>
      </trkpt>
      <trkpt lat="43.85973" lon="7.25587">
        <ele>803</ele>
        <time>2012-04-22T10:05:07Z</time>
      </trkpt>
      <trkpt lat="43.85947" lon="7.25568">
        <ele>800</ele>
        <time>2012-04-22T10:05:14Z</time>
      </trkpt>
      <trkpt lat="43.85933" lon="7.25523">
        <ele>794</ele>
        <time>2012-04-22T10:05:21Z</time>
      </trkpt>
      <trkpt lat="43.85908" lon="7.25501">
        <ele>789</ele>
        <time>2012-04-22T10:05:28Z</time>
      </trkpt>
      <trkpt lat="43.85897" lon="7.25489">
        <ele>786</ele>
        <time>2012-04-22T10:05:34Z</time>
      </trkpt>
      <trkpt lat="43.85856" lon="7.25438">
        <ele>782</ele>
        <time>2012-04-22T10:05:42Z</time>
      </trkpt>
      <trkpt lat="43.8584" lon="7.2542">
        <ele>782</ele>
        <time>2012-04-22T10:05:48Z</time>
      </trkpt>
      <trkpt lat="43.85802" lon="7.25392">
        <ele>782</ele>
        <time>2012-04-22T10:05:57Z</time>
      </trkpt>
      <trkpt lat="43.8579" lon="7.25394">
        <ele>782</ele>
        <time>2012-04-22T10:06:03Z</time>
      </trkpt>
      <trkpt lat="43.85787" lon="7.25394">
        <ele>783</ele>
        <time>2012-04-22T10:06:13Z</time>
      </trkpt>
      <trkpt lat="43.85787" lon="7.25393">
        <ele>783</ele>
        <time>2012-04-22T10:06:23Z</time>
      </trkpt>
      <trkpt lat="43.85787" lon="7.25391">
        <ele>784</ele>
        <time>2012-04-22T10:06:37Z</time>
      </trkpt>
      <trkpt lat="43.85786" lon="7.25394">
        <ele>787</ele>
        <time>2012-04-22T10:07:57Z</time>
      </trkpt>
      <trkpt lat="43.85783" lon="7.25398">
        <ele>787</ele>
        <time>2012-04-22T10:08:03Z</time>
      </trkpt>
      <trkpt lat="43.85777" lon="7.25405">
        <ele>787</ele>
        <time>2012-04-22T10:08:11Z</time>
      </trkpt>
      <trkpt lat="43.85763" lon="7.2542">
        <ele>787</ele>
        <time>2012-04-22T10:08:18Z</time>
      </trkpt>
      <trkpt lat="43.85724" lon="7.25411">
        <ele>786</ele>
        <time>2012-04-22T10:08:26Z</time>
      </trkpt>
      <trkpt lat="43.85687" lon="7.25399">
        <ele>784</ele>
        <time>2012-04-22T10:08:33Z</time>
      </trkpt>
      <trkpt lat="43.8565" lon="7.25398">
        <ele>781</ele>
        <time>2012-04-22T10:08:41Z</time>
      </trkpt>
      <trkpt lat="43.85598" lon="7.25377">
        <ele>778</ele>
        <time>2012-04-22T10:08:48Z</time>
      </trkpt>
      <trkpt lat="43.85557" lon="7.25363">
        <ele>775</ele>
        <time>2012-04-22T10:08:56Z</time>
      </trkpt>
      <trkpt lat="43.85542" lon="7.25358">
        <ele>775</ele>
        <time>2012-04-22T10:09:02Z</time>
      </trkpt>
      <trkpt lat="43.85501" lon="7.25343">
        <ele>775</ele>
        <time>2012-04-22T10:09:11Z</time>
      </trkpt>
      <trkpt lat="43.85466" lon="7.25342">
        <ele>775</ele>
        <time>2012-04-22T10:09:19Z</time>
      </trkpt>
      <trkpt lat="43.8544" lon="7.25331">
        <ele>773</ele>
        <time>2012-04-22T10:09:26Z</time>
      </trkpt>
      <trkpt lat="43.85405" lon="7.25323">
        <ele>772</ele>
        <time>2012-04-22T10:09:33Z</time>
      </trkpt>
      <trkpt lat="43.85353" lon="7.25307">
        <ele>770</ele>
        <time>2012-04-22T10:09:39Z</time>
      </trkpt>
      <trkpt lat="43.85307" lon="7.25308">
        <ele>767</ele>
        <time>2012-04-22T10:09:46Z</time>
      </trkpt>
      <trkpt lat="43.85254" lon="7.25325">
        <ele>764</ele>
        <time>2012-04-22T10:09:52Z</time>
      </trkpt>
      <trkpt lat="43.85203" lon="7.2534">
        <ele>760</ele>
        <time>2012-04-22T10:09:59Z</time>
      </trkpt>
      <trkpt lat="43.85188" lon="7.2533">
        <ele>754</ele>
        <time>2012-04-22T10:10:06Z</time>
      </trkpt>
      <trkpt lat="43.85187" lon="7.25332">
        <ele>747</ele>
        <time>2012-04-22T10:10:15Z</time>
      </trkpt>
      <trkpt lat="43.85187" lon="7.2533">
        <ele>744</ele>
        <time>2012-04-22T10:10:24Z</time>
      </trkpt>
      <trkpt lat="43.85187" lon="7.25328">
        <ele>744</ele>
        <time>2012-04-22T10:10:41Z</time>
      </trkpt>
      <trkpt lat="43.85181" lon="7.25312">
        <ele>744</ele>
        <time>2012-04-22T10:10:47Z</time>
      </trkpt>
      <trkpt lat="43.85167" lon="7.25299">
        <ele>744</ele>
        <time>2012-04-22T10:10:54Z</time>
      </trkpt>
      <trkpt lat="43.85146" lon="7.25285">
        <ele>743</ele>
        <time>2012-04-22T10:11:00Z</time>
      </trkpt>
      <trkpt lat="43.85125" lon="7.25261">
        <ele>740</ele>
        <time>2012-04-22T10:11:06Z</time>
      </trkpt>
      <trkpt lat="43.85108" lon="7.2525">
        <ele>737</ele>
        <time>2012-04-22T10:11:13Z</time>
      </trkpt>
      <trkpt lat="43.85083" lon="7.2524">
        <ele>734</ele>
        <time>2012-04-22T10:11:19Z</time>
      </trkpt>
      <trkpt lat="43.85061" lon="7.25224">
        <ele>726</ele>
        <time>2012-04-22T10:11:28Z</time>
      </trkpt>
      <trkpt lat="43.85039" lon="7.25217">
        <ele>718</ele>
        <time>2012-04-22T10:11:36Z</time>
      </trkpt>
      <trkpt lat="43.85012" lon="7.25206">
        <ele>712</ele>
        <time>2012-04-22T10:11:43Z</time>
      </trkpt>
      <trkpt lat="43.84969" lon="7.25194">
        <ele>709</ele>
        <time>2012-04-22T10:11:49Z</time>
      </trkpt>
      <trkpt lat="43.84935" lon="7.25177">
        <ele>708</ele>
        <time>2012-04-22T10:11:57Z</time>
      </trkpt>
      <trkpt lat="43.84907" lon="7.25169">
        <ele>708</ele>
        <time>2012-04-22T10:12:04Z</time>
      </trkpt>
      <trkpt lat="43.84898" lon="7.25163">
        <ele>708</ele>
        <time>2012-04-22T10:12:10Z</time>
      </trkpt>
      <trkpt lat="43.8488" lon="7.25133">
        <ele>707</ele>
        <time>2012-04-22T10:12:18Z</time>
      </trkpt>
      <trkpt lat="43.84864" lon="7.25108">
        <ele>702</ele>
        <time>2012-04-22T10:12:27Z</time>
      </trkpt>
      <trkpt lat="43.84854" lon="7.25085">
        <ele>694</ele>
        <time>2012-04-22T10:12:34Z</time>
      </trkpt>
      <trkpt lat="43.84817" lon="7.25079">
        <ele>686</ele>
        <time>2012-04-22T10:12:43Z</time>
      </trkpt>
      <trkpt lat="43.84789" lon="7.25064">
        <ele>682</ele>
        <time>2012-04-22T10:12:49Z</time>
      </trkpt>
      <trkpt lat="43.84775" lon="7.25038">
        <ele>670</ele>
        <time>2012-04-22T10:12:59Z</time>
      </trkpt>
      <trkpt lat="43.84776" lon="7.25038">
        <ele>669</ele>
        <time>2012-04-22T10:13:05Z</time>
      </trkpt>
      <trkpt lat="43.84779" lon="7.25039">
        <ele>668</ele>
        <time>2012-04-22T10:13:13Z</time>
      </trkpt>
      <trkpt lat="43.84777" lon="7.25042">
        <ele>668</ele>
        <time>2012-04-22T10:13:21Z</time>
      </trkpt>
      <trkpt lat="43.84775" lon="7.25043">
        <ele>668</ele>
        <time>2012-04-22T10:13:29Z</time>
      </trkpt>
      <trkpt lat="43.84777" lon="7.25043">
        <ele>668</ele>
        <time>2012-04-22T10:13:36Z</time>
      </trkpt>
      <trkpt lat="43.84778" lon="7.25041">
        <ele>668</ele>
        <time>2012-04-22T10:13:45Z</time>
      </trkpt>
      <trkpt lat="43.84781" lon="7.25041">
        <ele>668</ele>
        <time>2012-04-22T10:13:53Z</time>
      </trkpt>
      <trkpt lat="43.84779" lon="7.2504">
        <ele>670</ele>
        <time>2012-04-22T10:14:17Z</time>
      </trkpt>
      <trkpt lat="43.84778" lon="7.2504">
        <ele>670</ele>
        <time>2012-04-22T10:14:32Z</time>
      </trkpt>
      <trkpt lat="43.84777" lon="7.2504">
        <ele>670</ele>
        <time>2012-04-22T10:14:45Z</time>
      </trkpt>
      <trkpt lat="43.84778" lon="7.25039">
        <ele>670</ele>
        <time>2012-04-22T10:15:09Z</time>
      </trkpt>
      <trkpt lat="43.84777" lon="7.25039">
        <ele>670</ele>
        <time>2012-04-22T10:15:23Z</time>
      </trkpt>
      <trkpt lat="43.84776" lon="7.2504">
        <ele>670</ele>
        <time>2012-04-22T10:15:33Z</time>
      </trkpt>
      <trkpt lat="43.84782" lon="7.25046">
        <ele>670</ele>
        <time>2012-04-22T10:15:49Z</time>
      </trkpt>
      <trkpt lat="43.84785" lon="7.25051">
        <ele>670</ele>
        <time>2012-04-22T10:15:56Z</time>
      </trkpt>
      <trkpt lat="43.84785" lon="7.25077">
        <ele>670</ele>
        <time>2012-04-22T10:16:03Z</time>
      </trkpt>
      <trkpt lat="43.84784" lon="7.25089">
        <ele>670</ele>
        <time>2012-04-22T10:16:11Z</time>
      </trkpt>
      <trkpt lat="43.84775" lon="7.25106">
        <ele>670</ele>
        <time>2012-04-22T10:16:19Z</time>
      </trkpt>
      <trkpt lat="43.84764" lon="7.25113">
        <ele>670</ele>
        <time>2012-04-22T10:16:27Z</time>
      </trkpt>
      <trkpt lat="43.84754" lon="7.25131">
        <ele>670</ele>
        <time>2012-04-22T10:16:35Z</time>
      </trkpt>
      <trkpt lat="43.8475" lon="7.25144">
        <ele>670</ele>
        <time>2012-04-22T10:16:42Z</time>
      </trkpt>
      <trkpt lat="43.84749" lon="7.25159">
        <ele>671</ele>
        <time>2012-04-22T10:16:49Z</time>
      </trkpt>
      <trkpt lat="43.84749" lon="7.25165">
        <ele>672</ele>
        <time>2012-04-22T10:16:55Z</time>
      </trkpt>
      <trkpt lat="43.84747" lon="7.2518">
        <ele>674</ele>
        <time>2012-04-22T10:17:03Z</time>
      </trkpt>
      <trkpt lat="43.84741" lon="7.25189">
        <ele>675</ele>
        <time>2012-04-22T10:17:10Z</time>
      </trkpt>
      <trkpt lat="43.84733" lon="7.25204">
        <ele>677</ele>
        <time>2012-04-22T10:17:18Z</time>
      </trkpt>
      <trkpt lat="43.8473" lon="7.25209">
        <ele>680</ele>
        <time>2012-04-22T10:17:25Z</time>
      </trkpt>
      <trkpt lat="43.84722" lon="7.25214">
        <ele>683</ele>
        <time>2012-04-22T10:17:32Z</time>
      </trkpt>
      <trkpt lat="43.84714" lon="7.25216">
        <ele>684</ele>
        <time>2012-04-22T10:17:39Z</time>
      </trkpt>
      <trkpt lat="43.84702" lon="7.25223">
        <ele>686</ele>
        <time>2012-04-22T10:17:47Z</time>
      </trkpt>
      <trkpt lat="43.84697" lon="7.25225">
        <ele>688</ele>
        <time>2012-04-22T10:17:55Z</time>
      </trkpt>
      <trkpt lat="43.84692" lon="7.25229">
        <ele>690</ele>
        <time>2012-04-22T10:18:03Z</time>
      </trkpt>
      <trkpt lat="43.84692" lon="7.25237">
        <ele>692</ele>
        <time>2012-04-22T10:18:12Z</time>
      </trkpt>
      <trkpt lat="43.84692" lon="7.25241">
        <ele>692</ele>
        <time>2012-04-22T10:18:19Z</time>
      </trkpt>
      <trkpt lat="43.84693" lon="7.25249">
        <ele>693</ele>
        <time>2012-04-22T10:18:27Z</time>
      </trkpt>
      <trkpt lat="43.84694" lon="7.25259">
        <ele>693</ele>
        <time>2012-04-22T10:18:34Z</time>
      </trkpt>
      <trkpt lat="43.84694" lon="7.25262">
        <ele>693</ele>
        <time>2012-04-22T10:18:40Z</time>
      </trkpt>
      <trkpt lat="43.84699" lon="7.2527">
        <ele>695</ele>
        <time>2012-04-22T10:18:48Z</time>
      </trkpt>
      <trkpt lat="43.84707" lon="7.25276">
        <ele>697</ele>
        <time>2012-04-22T10:18:57Z</time>
      </trkpt>
      <trkpt lat="43.84713" lon="7.25279">
        <ele>698</ele>
        <time>2012-04-22T10:19:04Z</time>
      </trkpt>
      <trkpt lat="43.84725" lon="7.25286">
        <ele>699</ele>
        <time>2012-04-22T10:19:11Z</time>
      </trkpt>
      <trkpt lat="43.84732" lon="7.2529">
        <ele>699</ele>
        <time>2012-04-22T10:19:17Z</time>
      </trkpt>
      <trkpt lat="43.84768" lon="7.25312">
        <ele>699</ele>
        <time>2012-04-22T10:19:24Z</time>
      </trkpt>
      <trkpt lat="43.84779" lon="7.25323">
        <ele>699</ele>
        <time>2012-04-22T10:19:30Z</time>
      </trkpt>
      <trkpt lat="43.84824" lon="7.25364">
        <ele>699</ele>
        <time>2012-04-22T10:19:38Z</time>
      </trkpt>
      <trkpt lat="43.84871" lon="7.25406">
        <ele>698</ele>
        <time>2012-04-22T10:19:44Z</time>
      </trkpt>
      <trkpt lat="43.84908" lon="7.25438">
        <ele>696</ele>
        <time>2012-04-22T10:19:51Z</time>
      </trkpt>
      <trkpt lat="43.8497" lon="7.25461">
        <ele>693</ele>
        <time>2012-04-22T10:19:58Z</time>
      </trkpt>
      <trkpt lat="43.84987" lon="7.25474">
        <ele>691</ele>
        <time>2012-04-22T10:20:04Z</time>
      </trkpt>
      <trkpt lat="43.85045" lon="7.25531">
        <ele>687</ele>
        <time>2012-04-22T10:20:11Z</time>
      </trkpt>
      <trkpt lat="43.85062" lon="7.25546">
        <ele>683</ele>
        <time>2012-04-22T10:20:17Z</time>
      </trkpt>
      <trkpt lat="43.85076" lon="7.25564">
        <ele>680</ele>
        <time>2012-04-22T10:20:24Z</time>
      </trkpt>
      <trkpt lat="43.85056" lon="7.25603">
        <ele>676</ele>
        <time>2012-04-22T10:20:32Z</time>
      </trkpt>
      <trkpt lat="43.85051" lon="7.25619">
        <ele>674</ele>
        <time>2012-04-22T10:20:38Z</time>
      </trkpt>
      <trkpt lat="43.85057" lon="7.25694">
        <ele>671</ele>
        <time>2012-04-22T10:20:46Z</time>
      </trkpt>
      <trkpt lat="43.85063" lon="7.25731">
        <ele>668</ele>
        <time>2012-04-22T10:20:53Z</time>
      </trkpt>
      <trkpt lat="43.85072" lon="7.25806">
        <ele>667</ele>
        <time>2012-04-22T10:21:01Z</time>
      </trkpt>
      <trkpt lat="43.85089" lon="7.25845">
        <ele>666</ele>
        <time>2012-04-22T10:21:08Z</time>
      </trkpt>
      <trkpt lat="43.85085" lon="7.25854">
        <ele>664</ele>
        <time>2012-04-22T10:21:16Z</time>
      </trkpt>
      <trkpt lat="43.85076" lon="7.25855">
        <ele>664</ele>
        <time>2012-04-22T10:21:25Z</time>
      </trkpt>
      <trkpt lat="43.85069" lon="7.25858">
        <ele>664</ele>
        <time>2012-04-22T10:21:32Z</time>
      </trkpt>
      <trkpt lat="43.85064" lon="7.25861">
        <ele>664</ele>
        <time>2012-04-22T10:21:39Z</time>
      </trkpt>
      <trkpt lat="43.85056" lon="7.25864">
        <ele>664</ele>
        <time>2012-04-22T10:21:47Z</time>
      </trkpt>
      <trkpt lat="43.85049" lon="7.25863">
        <ele>664</ele>
        <time>2012-04-22T10:21:56Z</time>
      </trkpt>
      <trkpt lat="43.85041" lon="7.25859">
        <ele>664</ele>
        <time>2012-04-22T10:22:02Z</time>
      </trkpt>
      <trkpt lat="43.85034" lon="7.25855">
        <ele>665</ele>
        <time>2012-04-22T10:22:11Z</time>
      </trkpt>
      <trkpt lat="43.85029" lon="7.25851">
        <ele>666</ele>
        <time>2012-04-22T10:22:18Z</time>
      </trkpt>
      <trkpt lat="43.85025" lon="7.25848">
        <ele>666</ele>
        <time>2012-04-22T10:22:26Z</time>
      </trkpt>
      <trkpt lat="43.8502" lon="7.25844">
        <ele>667</ele>
        <time>2012-04-22T10:22:33Z</time>
      </trkpt>
      <trkpt lat="43.85015" lon="7.25845">
        <ele>671</ele>
        <time>2012-04-22T10:22:42Z</time>
      </trkpt>
      <trkpt lat="43.85011" lon="7.25854">
        <ele>674</ele>
        <time>2012-04-22T10:22:51Z</time>
      </trkpt>
      <trkpt lat="43.85007" lon="7.25862">
        <ele>676</ele>
        <time>2012-04-22T10:22:59Z</time>
      </trkpt>
      <trkpt lat="43.85003" lon="7.25867">
        <ele>677</ele>
        <time>2012-04-22T10:23:06Z</time>
      </trkpt>
      <trkpt lat="43.84997" lon="7.25876">
        <ele>679</ele>
        <time>2012-04-22T10:23:13Z</time>
      </trkpt>
      <trkpt lat="43.84996" lon="7.2588">
        <ele>682</ele>
        <time>2012-04-22T10:23:21Z</time>
      </trkpt>
      <trkpt lat="43.8499" lon="7.25878">
        <ele>686</ele>
        <time>2012-04-22T10:23:31Z</time>
      </trkpt>
      <trkpt lat="43.84991" lon="7.25887">
        <ele>689</ele>
        <time>2012-04-22T10:23:39Z</time>
      </trkpt>
      <trkpt lat="43.84988" lon="7.25891">
        <ele>689</ele>
        <time>2012-04-22T10:23:47Z</time>
      </trkpt>
      <trkpt lat="43.84983" lon="7.25892">
        <ele>689</ele>
        <time>2012-04-22T10:23:54Z</time>
      </trkpt>
      <trkpt lat="43.84978" lon="7.25886">
        <ele>689</ele>
        <time>2012-04-22T10:24:01Z</time>
      </trkpt>
      <trkpt lat="43.8497" lon="7.25882">
        <ele>689</ele>
        <time>2012-04-22T10:24:10Z</time>
      </trkpt>
      <trkpt lat="43.84966" lon="7.25877">
        <ele>692</ele>
        <time>2012-04-22T10:24:18Z</time>
      </trkpt>
      <trkpt lat="43.84964" lon="7.25873">
        <ele>693</ele>
        <time>2012-04-22T10:24:24Z</time>
      </trkpt>
      <trkpt lat="43.84959" lon="7.25868">
        <ele>696</ele>
        <time>2012-04-22T10:24:33Z</time>
      </trkpt>
      <trkpt lat="43.84959" lon="7.25875">
        <ele>696</ele>
        <time>2012-04-22T10:24:41Z</time>
      </trkpt>
      <trkpt lat="43.84952" lon="7.25875">
        <ele>696</ele>
        <time>2012-04-22T10:24:50Z</time>
      </trkpt>
      <trkpt lat="43.8495" lon="7.25878">
        <ele>697</ele>
        <time>2012-04-22T10:24:58Z</time>
      </trkpt>
      <trkpt lat="43.84948" lon="7.25887">
        <ele>698</ele>
        <time>2012-04-22T10:25:06Z</time>
      </trkpt>
      <trkpt lat="43.84943" lon="7.25891">
        <ele>698</ele>
        <time>2012-04-22T10:25:14Z</time>
      </trkpt>
      <trkpt lat="43.84937" lon="7.2589">
        <ele>701</ele>
        <time>2012-04-22T10:25:21Z</time>
      </trkpt>
      <trkpt lat="43.84932" lon="7.25888">
        <ele>704</ele>
        <time>2012-04-22T10:25:28Z</time>
      </trkpt>
      <trkpt lat="43.84928" lon="7.25888">
        <ele>708</ele>
        <time>2012-04-22T10:25:37Z</time>
      </trkpt>
      <trkpt lat="43.84922" lon="7.25891">
        <ele>710</ele>
        <time>2012-04-22T10:25:43Z</time>
      </trkpt>
      <trkpt lat="43.84916" lon="7.25894">
        <ele>712</ele>
        <time>2012-04-22T10:25:50Z</time>
      </trkpt>
      <trkpt lat="43.84905" lon="7.25901">
        <ele>714</ele>
        <time>2012-04-22T10:25:58Z</time>
      </trkpt>
      <trkpt lat="43.84901" lon="7.25906">
        <ele>715</ele>
        <time>2012-04-22T10:26:05Z</time>
      </trkpt>
      <trkpt lat="43.84894" lon="7.25916">
        <ele>715</ele>
        <time>2012-04-22T10:26:12Z</time>
      </trkpt>
      <trkpt lat="43.84884" lon="7.25927">
        <ele>715</ele>
        <time>2012-04-22T10:26:19Z</time>
      </trkpt>
      <trkpt lat="43.84882" lon="7.25932">
        <ele>715</ele>
        <time>2012-04-22T10:26:25Z</time>
      </trkpt>
      <trkpt lat="43.84877" lon="7.25941">
        <ele>715</ele>
        <time>2012-04-22T10:26:32Z</time>
      </trkpt>
      <trkpt lat="43.84873" lon="7.25956">
        <ele>715</ele>
        <time>2012-04-22T10:26:39Z</time>
      </trkpt>
      <trkpt lat="43.84872" lon="7.25964">
        <ele>715</ele>
        <time>2012-04-22T10:26:46Z</time>
      </trkpt>
      <trkpt lat="43.84869" lon="7.25977">
        <ele>715</ele>
        <time>2012-04-22T10:26:53Z</time>
      </trkpt>
      <trkpt lat="43.84865" lon="7.25986">
        <ele>717</ele>
        <time>2012-04-22T10:27:00Z</time>
      </trkpt>
      <trkpt lat="43.84858" lon="7.26">
        <ele>717</ele>
        <time>2012-04-22T10:27:08Z</time>
      </trkpt>
      <trkpt lat="43.84851" lon="7.2601">
        <ele>717</ele>
        <time>2012-04-22T10:27:15Z</time>
      </trkpt>
      <trkpt lat="43.84847" lon="7.2602">
        <ele>717</ele>
        <time>2012-04-22T10:27:23Z</time>
      </trkpt>
      <trkpt lat="43.84837" lon="7.26025">
        <ele>717</ele>
        <time>2012-04-22T10:27:31Z</time>
      </trkpt>
      <trkpt lat="43.84832" lon="7.26024">
        <ele>719</ele>
        <time>2012-04-22T10:27:38Z</time>
      </trkpt>
      <trkpt lat="43.84825" lon="7.26024">
        <ele>720</ele>
        <time>2012-04-22T10:27:46Z</time>
      </trkpt>
      <trkpt lat="43.84816" lon="7.26025">
        <ele>723</ele>
        <time>2012-04-22T10:27:54Z</time>
      </trkpt>
      <trkpt lat="43.84805" lon="7.26028">
        <ele>724</ele>
        <time>2012-04-22T10:28:02Z</time>
      </trkpt>
      <trkpt lat="43.848" lon="7.26032">
        <ele>724</ele>
        <time>2012-04-22T10:28:11Z</time>
      </trkpt>
      <trkpt lat="43.84794" lon="7.26037">
        <ele>724</ele>
        <time>2012-04-22T10:28:18Z</time>
      </trkpt>
      <trkpt lat="43.84787" lon="7.26042">
        <ele>725</ele>
        <time>2012-04-22T10:28:25Z</time>
      </trkpt>
      <trkpt lat="43.84777" lon="7.2605">
        <ele>726</ele>
        <time>2012-04-22T10:28:32Z</time>
      </trkpt>
      <trkpt lat="43.84773" lon="7.26053">
        <ele>726</ele>
        <time>2012-04-22T10:28:38Z</time>
      </trkpt>
      <trkpt lat="43.84763" lon="7.26059">
        <ele>727</ele>
        <time>2012-04-22T10:28:45Z</time>
      </trkpt>
      <trkpt lat="43.84755" lon="7.26068">
        <ele>729</ele>
        <time>2012-04-22T10:28:54Z</time>
      </trkpt>
      <trkpt lat="43.84744" lon="7.26074">
        <ele>729</ele>
        <time>2012-04-22T10:29:01Z</time>
      </trkpt>
      <trkpt lat="43.84741" lon="7.26074">
        <ele>729</ele>
        <time>2012-04-22T10:29:07Z</time>
      </trkpt>
      <trkpt lat="43.84728" lon="7.26084">
        <ele>732</ele>
        <time>2012-04-22T10:29:15Z</time>
      </trkpt>
      <trkpt lat="43.84721" lon="7.26089">
        <ele>733</ele>
        <time>2012-04-22T10:29:22Z</time>
      </trkpt>
      <trkpt lat="43.84716" lon="7.26093">
        <ele>733</ele>
        <time>2012-04-22T10:29:30Z</time>
      </trkpt>
      <trkpt lat="43.84707" lon="7.261">
        <ele>733</ele>
        <time>2012-04-22T10:29:38Z</time>
      </trkpt>
      <trkpt lat="43.84699" lon="7.26106">
        <ele>734</ele>
        <time>2012-04-22T10:29:45Z</time>
      </trkpt>
      <trkpt lat="43.84693" lon="7.26112">
        <ele>736</ele>
        <time>2012-04-22T10:29:52Z</time>
      </trkpt>
      <trkpt lat="43.84685" lon="7.26121">
        <ele>738</ele>
        <time>2012-04-22T10:30:00Z</time>
      </trkpt>
      <trkpt lat="43.8468" lon="7.26128">
        <ele>739</ele>
        <time>2012-04-22T10:30:07Z</time>
      </trkpt>
      <trkpt lat="43.84675" lon="7.26136">
        <ele>741</ele>
        <time>2012-04-22T10:30:14Z</time>
      </trkpt>
      <trkpt lat="43.84674" lon="7.26138">
        <ele>743</ele>
        <time>2012-04-22T10:30:20Z</time>
      </trkpt>
      <trkpt lat="43.8467" lon="7.26141">
        <ele>745</ele>
        <time>2012-04-22T10:30:27Z</time>
      </trkpt>
      <trkpt lat="43.84661" lon="7.2615">
        <ele>747</ele>
        <time>2012-04-22T10:30:35Z</time>
      </trkpt>
      <trkpt lat="43.84658" lon="7.26154">
        <ele>747</ele>
        <time>2012-04-22T10:30:42Z</time>
      </trkpt>
      <trkpt lat="43.84649" lon="7.26153">
        <ele>748</ele>
        <time>2012-04-22T10:30:50Z</time>
      </trkpt>
      <trkpt lat="43.84643" lon="7.26155">
        <ele>749</ele>
        <time>2012-04-22T10:30:57Z</time>
      </trkpt>
      <trkpt lat="43.84634" lon="7.26155">
        <ele>751</ele>
        <time>2012-04-22T10:31:05Z</time>
      </trkpt>
      <trkpt lat="43.84623" lon="7.26155">
        <ele>752</ele>
        <time>2012-04-22T10:31:12Z</time>
      </trkpt>
      <trkpt lat="43.8462" lon="7.26156">
        <ele>754</ele>
        <time>2012-04-22T10:31:18Z</time>
      </trkpt>
      <trkpt lat="43.84614" lon="7.26157">
        <ele>757</ele>
        <time>2012-04-22T10:31:25Z</time>
      </trkpt>
      <trkpt lat="43.84607" lon="7.26161">
        <ele>758</ele>
        <time>2012-04-22T10:31:33Z</time>
      </trkpt>
      <trkpt lat="43.84607" lon="7.26159">
        <ele>758</ele>
        <time>2012-04-22T10:31:50Z</time>
      </trkpt>
      <trkpt lat="43.84611" lon="7.26154">
        <ele>758</ele>
        <time>2012-04-22T10:32:01Z</time>
      </trkpt>
      <trkpt lat="43.84613" lon="7.26154">
        <ele>758</ele>
        <time>2012-04-22T10:32:08Z</time>
      </trkpt>
      <trkpt lat="43.84611" lon="7.2616">
        <ele>758</ele>
        <time>2012-04-22T10:32:25Z</time>
      </trkpt>
      <trkpt lat="43.84611" lon="7.26161">
        <ele>758</ele>
        <time>2012-04-22T10:32:42Z</time>
      </trkpt>
      <trkpt lat="43.84611" lon="7.2616">
        <ele>758</ele>
        <time>2012-04-22T10:32:48Z</time>
      </trkpt>
      <trkpt lat="43.8461" lon="7.26158">
        <ele>758</ele>
        <time>2012-04-22T10:33:07Z</time>
      </trkpt>
      <trkpt lat="43.84609" lon="7.26159">
        <ele>758</ele>
        <time>2012-04-22T10:33:21Z</time>
      </trkpt>
      <trkpt lat="43.84609" lon="7.26159">
        <ele>758</ele>
        <time>2012-04-22T10:33:35Z</time>
      </trkpt>
      <trkpt lat="43.8461" lon="7.26158">
        <ele>758</ele>
        <time>2012-04-22T10:33:43Z</time>
      </trkpt>
      <trkpt lat="43.8461" lon="7.2616">
        <ele>758</ele>
        <time>2012-04-22T10:34:06Z</time>
      </trkpt>
      <trkpt lat="43.84609" lon="7.2616">
        <ele>758</ele>
        <time>2012-04-22T10:34:16Z</time>
      </trkpt>
      <trkpt lat="43.84609" lon="7.26159">
        <ele>758</ele>
        <time>2012-04-22T10:34:26Z</time>
      </trkpt>
      <trkpt lat="43.84608" lon="7.26161">
        <ele>758</ele>
        <time>2012-04-22T10:34:33Z</time>
      </trkpt>
      <trkpt lat="43.84607" lon="7.26163">
        <ele>758</ele>
        <time>2012-04-22T10:34:56Z</time>
      </trkpt>
      <trkpt lat="43.84605" lon="7.26167">
        <ele>757</ele>
        <time>2012-04-22T10:35:20Z</time>
      </trkpt>
      <trkpt lat="43.84602" lon="7.26173">
        <ele>757</ele>
        <time>2012-04-22T10:35:25Z</time>
      </trkpt>
      <trkpt lat="43.84594" lon="7.26185">
        <ele>757</ele>
        <time>2012-04-22T10:35:31Z</time>
      </trkpt>
      <trkpt lat="43.84592" lon="7.26192">
        <ele>756</ele>
        <time>2012-04-22T10:35:36Z</time>
      </trkpt>
      <trkpt lat="43.84591" lon="7.26198">
        <ele>756</ele>
        <time>2012-04-22T10:35:42Z</time>
      </trkpt>
      <trkpt lat="43.8459" lon="7.26201">
        <ele>756</ele>
        <time>2012-04-22T10:35:47Z</time>
      </trkpt>
      <trkpt lat="43.84588" lon="7.26211">
        <ele>756</ele>
        <time>2012-04-22T10:35:52Z</time>
      </trkpt>
      <trkpt lat="43.84585" lon="7.26222">
        <ele>756</ele>
        <time>2012-04-22T10:35:57Z</time>
      </trkpt>
      <trkpt lat="43.84581" lon="7.26232">
        <ele>756</ele>
        <time>2012-04-22T10:36:02Z</time>
      </trkpt>
      <trkpt lat="43.84578" lon="7.26243">
        <ele>756</ele>
        <time>2012-04-22T10:36:07Z</time>
      </trkpt>
      <trkpt lat="43.84573" lon="7.26253">
        <ele>756</ele>
        <time>2012-04-22T10:36:12Z</time>
      </trkpt>
      <trkpt lat="43.8457" lon="7.26262">
        <ele>756</ele>
        <time>2012-04-22T10:36:17Z</time>
      </trkpt>
      <trkpt lat="43.84566" lon="7.26272">
        <ele>756</ele>
        <time>2012-04-22T10:36:22Z</time>
      </trkpt>
      <trkpt lat="43.84565" lon="7.26283">
        <ele>756</ele>
        <time>2012-04-22T10:36:27Z</time>
      </trkpt>
      <trkpt lat="43.84565" lon="7.2629">
        <ele>756</ele>
        <time>2012-04-22T10:36:38Z</time>
      </trkpt>
      <trkpt lat="43.8456" lon="7.26295">
        <ele>757</ele>
        <time>2012-04-22T10:36:44Z</time>
      </trkpt>
      <trkpt lat="43.84555" lon="7.26302">
        <ele>758</ele>
        <time>2012-04-22T10:36:50Z</time>
      </trkpt>
      <trkpt lat="43.84551" lon="7.26307">
        <ele>758</ele>
        <time>2012-04-22T10:36:56Z</time>
      </trkpt>
      <trkpt lat="43.84549" lon="7.26311">
        <ele>760</ele>
        <time>2012-04-22T10:37:01Z</time>
      </trkpt>
      <trkpt lat="43.84545" lon="7.26314">
        <ele>761</ele>
        <time>2012-04-22T10:37:07Z</time>
      </trkpt>
      <trkpt lat="43.84541" lon="7.2632">
        <ele>762</ele>
        <time>2012-04-22T10:37:13Z</time>
      </trkpt>
      <trkpt lat="43.84539" lon="7.26325">
        <ele>763</ele>
        <time>2012-04-22T10:37:19Z</time>
      </trkpt>
      <trkpt lat="43.84536" lon="7.26331">
        <ele>763</ele>
        <time>2012-04-22T10:37:24Z</time>
      </trkpt>
      <trkpt lat="43.84532" lon="7.26335">
        <ele>763</ele>
        <time>2012-04-22T10:37:30Z</time>
      </trkpt>
      <trkpt lat="43.84528" lon="7.26339">
        <ele>765</ele>
        <time>2012-04-22T10:37:35Z</time>
      </trkpt>
      <trkpt lat="43.84522" lon="7.26344">
        <ele>766</ele>
        <time>2012-04-22T10:37:40Z</time>
      </trkpt>
      <trkpt lat="43.84517" lon="7.26352">
        <ele>766</ele>
        <time>2012-04-22T10:37:45Z</time>
      </trkpt>
      <trkpt lat="43.84512" lon="7.26358">
        <ele>766</ele>
        <time>2012-04-22T10:37:50Z</time>
      </trkpt>
      <trkpt lat="43.84507" lon="7.26365">
        <ele>766</ele>
        <time>2012-04-22T10:37:55Z</time>
      </trkpt>
      <trkpt lat="43.84502" lon="7.26369">
        <ele>767</ele>
        <time>2012-04-22T10:38:00Z</time>
      </trkpt>
      <trkpt lat="43.84495" lon="7.26371">
        <ele>768</ele>
        <time>2012-04-22T10:38:05Z</time>
      </trkpt>
      <trkpt lat="43.84488" lon="7.26372">
        <ele>769</ele>
        <time>2012-04-22T10:38:10Z</time>
      </trkpt>
      <trkpt lat="43.84481" lon="7.26378">
        <ele>770</ele>
        <time>2012-04-22T10:38:16Z</time>
      </trkpt>
      <trkpt lat="43.84476" lon="7.26385">
        <ele>770</ele>
        <time>2012-04-22T10:38:21Z</time>
      </trkpt>
      <trkpt lat="43.84471" lon="7.26393">
        <ele>770</ele>
        <time>2012-04-22T10:38:26Z</time>
      </trkpt>
      <trkpt lat="43.84466" lon="7.26402">
        <ele>770</ele>
        <time>2012-04-22T10:38:32Z</time>
      </trkpt>
      <trkpt lat="43.84462" lon="7.26407">
        <ele>770</ele>
        <time>2012-04-22T10:38:37Z</time>
      </trkpt>
      <trkpt lat="43.84457" lon="7.26413">
        <ele>770</ele>
        <time>2012-04-22T10:38:43Z</time>
      </trkpt>
      <trkpt lat="43.84451" lon="7.2642">
        <ele>770</ele>
        <time>2012-04-22T10:38:49Z</time>
      </trkpt>
      <trkpt lat="43.84447" lon="7.26427">
        <ele>772</ele>
        <time>2012-04-22T10:38:55Z</time>
      </trkpt>
      <trkpt lat="43.84443" lon="7.26433">
        <ele>773</ele>
        <time>2012-04-22T10:39:01Z</time>
      </trkpt>
      <trkpt lat="43.84438" lon="7.2644">
        <ele>773</ele>
        <time>2012-04-22T10:39:07Z</time>
      </trkpt>
      <trkpt lat="43.84433" lon="7.26446">
        <ele>774</ele>
        <time>2012-04-22T10:39:13Z</time>
      </trkpt>
      <trkpt lat="43.84426" lon="7.2645">
        <ele>775</ele>
        <time>2012-04-22T10:39:18Z</time>
      </trkpt>
      <trkpt lat="43.84419" lon="7.26453">
        <ele>775</ele>
        <time>2012-04-22T10:39:23Z</time>
      </trkpt>
      <trkpt lat="43.84413" lon="7.26456">
        <ele>775</ele>
        <time>2012-04-22T10:39:28Z</time>
      </trkpt>
      <trkpt lat="43.84407" lon="7.26462">
        <ele>775</ele>
        <time>2012-04-22T10:39:33Z</time>
      </trkpt>
      <trkpt lat="43.84403" lon="7.2647">
        <ele>775</ele>
        <time>2012-04-22T10:39:38Z</time>
      </trkpt>
      <trkpt lat="43.84398" lon="7.26479">
        <ele>775</ele>
        <time>2012-04-22T10:39:44Z</time>
      </trkpt>
      <trkpt lat="43.84393" lon="7.26485">
        <ele>777</ele>
        <time>2012-04-22T10:39:50Z</time>
      </trkpt>
      <trkpt lat="43.84387" lon="7.26493">
        <ele>778</ele>
        <time>2012-04-22T10:39:56Z</time>
      </trkpt>
      <trkpt lat="43.84383" lon="7.26497">
        <ele>778</ele>
        <time>2012-04-22T10:40:01Z</time>
      </trkpt>
      <trkpt lat="43.84377" lon="7.26502">
        <ele>779</ele>
        <time>2012-04-22T10:40:06Z</time>
      </trkpt>
      <trkpt lat="43.84373" lon="7.26508">
        <ele>780</ele>
        <time>2012-04-22T10:40:11Z</time>
      </trkpt>
      <trkpt lat="43.84367" lon="7.26514">
        <ele>780</ele>
        <time>2012-04-22T10:40:16Z</time>
      </trkpt>
      <trkpt lat="43.84362" lon="7.2652">
        <ele>780</ele>
        <time>2012-04-22T10:40:21Z</time>
      </trkpt>
      <trkpt lat="43.84357" lon="7.26528">
        <ele>780</ele>
        <time>2012-04-22T10:40:27Z</time>
      </trkpt>
      <trkpt lat="43.84357" lon="7.26537">
        <ele>780</ele>
        <time>2012-04-22T10:40:32Z</time>
      </trkpt>
      <trkpt lat="43.8436" lon="7.26545">
        <ele>780</ele>
        <time>2012-04-22T10:40:37Z</time>
      </trkpt>
      <trkpt lat="43.84364" lon="7.26551">
        <ele>780</ele>
        <time>2012-04-22T10:40:43Z</time>
      </trkpt>
      <trkpt lat="43.84366" lon="7.26559">
        <ele>781</ele>
        <time>2012-04-22T10:40:48Z</time>
      </trkpt>
      <trkpt lat="43.84368" lon="7.26568">
        <ele>781</ele>
        <time>2012-04-22T10:40:53Z</time>
      </trkpt>
      <trkpt lat="43.84371" lon="7.26576">
        <ele>781</ele>
        <time>2012-04-22T10:40:58Z</time>
      </trkpt>
      <trkpt lat="43.84374" lon="7.26582">
        <ele>781</ele>
        <time>2012-04-22T10:41:03Z</time>
      </trkpt>
      <trkpt lat="43.84378" lon="7.26589">
        <ele>783</ele>
        <time>2012-04-22T10:41:09Z</time>
      </trkpt>
      <trkpt lat="43.84382" lon="7.26596">
        <ele>783</ele>
        <time>2012-04-22T10:41:14Z</time>
      </trkpt>
      <trkpt lat="43.84386" lon="7.26605">
        <ele>783</ele>
        <time>2012-04-22T10:41:20Z</time>
      </trkpt>
      <trkpt lat="43.84391" lon="7.26612">
        <ele>784</ele>
        <time>2012-04-22T10:41:26Z</time>
      </trkpt>
      <trkpt lat="43.84395" lon="7.26618">
        <ele>785</ele>
        <time>2012-04-22T10:41:31Z</time>
      </trkpt>
      <trkpt lat="43.84397" lon="7.26624">
        <ele>788</ele>
        <time>2012-04-22T10:41:36Z</time>
      </trkpt>
      <trkpt lat="43.84398" lon="7.26631">
        <ele>789</ele>
        <time>2012-04-22T10:41:41Z</time>
      </trkpt>
      <trkpt lat="43.84395" lon="7.26641">
        <ele>789</ele>
        <time>2012-04-22T10:41:46Z</time>
      </trkpt>
      <trkpt lat="43.8439" lon="7.26645">
        <ele>791</ele>
        <time>2012-04-22T10:41:51Z</time>
      </trkpt>
      <trkpt lat="43.84385" lon="7.2665">
        <ele>793</ele>
        <time>2012-04-22T10:41:57Z</time>
      </trkpt>
      <trkpt lat="43.8438" lon="7.26652">
        <ele>798</ele>
        <time>2012-04-22T10:42:03Z</time>
      </trkpt>
      <trkpt lat="43.84374" lon="7.26658">
        <ele>800</ele>
        <time>2012-04-22T10:42:09Z</time>
      </trkpt>
      <trkpt lat="43.84368" lon="7.26662">
        <ele>801</ele>
        <time>2012-04-22T10:42:14Z</time>
      </trkpt>
      <trkpt lat="43.84361" lon="7.26662">
        <ele>801</ele>
        <time>2012-04-22T10:42:20Z</time>
      </trkpt>
      <trkpt lat="43.84355" lon="7.26665">
        <ele>801</ele>
        <time>2012-04-22T10:42:26Z</time>
      </trkpt>
      <trkpt lat="43.84349" lon="7.26666">
        <ele>801</ele>
        <time>2012-04-22T10:42:31Z</time>
      </trkpt>
      <trkpt lat="43.84342" lon="7.2667">
        <ele>801</ele>
        <time>2012-04-22T10:42:36Z</time>
      </trkpt>
      <trkpt lat="43.84336" lon="7.26674">
        <ele>798</ele>
        <time>2012-04-22T10:42:41Z</time>
      </trkpt>
      <trkpt lat="43.84331" lon="7.26679">
        <ele>798</ele>
        <time>2012-04-22T10:42:46Z</time>
      </trkpt>
      <trkpt lat="43.84325" lon="7.26682">
        <ele>798</ele>
        <time>2012-04-22T10:42:51Z</time>
      </trkpt>
      <trkpt lat="43.8432" lon="7.26684">
        <ele>798</ele>
        <time>2012-04-22T10:42:56Z</time>
      </trkpt>
      <trkpt lat="43.84314" lon="7.26685">
        <ele>798</ele>
        <time>2012-04-22T10:43:01Z</time>
      </trkpt>
      <trkpt lat="43.84308" lon="7.26688">
        <ele>798</ele>
        <time>2012-04-22T10:43:06Z</time>
      </trkpt>
      <trkpt lat="43.84302" lon="7.26692">
        <ele>798</ele>
        <time>2012-04-22T10:43:12Z</time>
      </trkpt>
      <trkpt lat="43.84296" lon="7.26695">
        <ele>799</ele>
        <time>2012-04-22T10:43:18Z</time>
      </trkpt>
      <trkpt lat="43.84291" lon="7.26699">
        <ele>800</ele>
        <time>2012-04-22T10:43:23Z</time>
      </trkpt>
      <trkpt lat="43.84284" lon="7.26704">
        <ele>801</ele>
        <time>2012-04-22T10:43:28Z</time>
      </trkpt>
      <trkpt lat="43.84277" lon="7.26708">
        <ele>803</ele>
        <time>2012-04-22T10:43:33Z</time>
      </trkpt>
      <trkpt lat="43.84272" lon="7.26711">
        <ele>804</ele>
        <time>2012-04-22T10:43:38Z</time>
      </trkpt>
      <trkpt lat="43.84268" lon="7.26714">
        <ele>806</ele>
        <time>2012-04-22T10:43:43Z</time>
      </trkpt>
      <trkpt lat="43.84263" lon="7.26716">
        <ele>807</ele>
        <time>2012-04-22T10:43:49Z</time>
      </trkpt>
      <trkpt lat="43.84257" lon="7.26719">
        <ele>807</ele>
        <time>2012-04-22T10:43:54Z</time>
      </trkpt>
      <trkpt lat="43.84251" lon="7.26723">
        <ele>808</ele>
        <time>2012-04-22T10:44:00Z</time>
      </trkpt>
      <trkpt lat="43.84247" lon="7.2673">
        <ele>809</ele>
        <time>2012-04-22T10:44:06Z</time>
      </trkpt>
      <trkpt lat="43.84243" lon="7.26733">
        <ele>810</ele>
        <time>2012-04-22T10:44:12Z</time>
      </trkpt>
      <trkpt lat="43.84238" lon="7.26739">
        <ele>812</ele>
        <time>2012-04-22T10:44:18Z</time>
      </trkpt>
      <trkpt lat="43.84232" lon="7.26743">
        <ele>813</ele>
        <time>2012-04-22T10:44:23Z</time>
      </trkpt>
      <trkpt lat="43.84227" lon="7.26748">
        <ele>813</ele>
        <time>2012-04-22T10:44:28Z</time>
      </trkpt>
      <trkpt lat="43.84222" lon="7.26751">
        <ele>813</ele>
        <time>2012-04-22T10:44:33Z</time>
      </trkpt>
      <trkpt lat="43.84217" lon="7.26756">
        <ele>814</ele>
        <time>2012-04-22T10:44:39Z</time>
      </trkpt>
      <trkpt lat="43.84212" lon="7.26764">
        <ele>814</ele>
        <time>2012-04-22T10:44:45Z</time>
      </trkpt>
      <trkpt lat="43.84209" lon="7.2677">
        <ele>814</ele>
        <time>2012-04-22T10:44:51Z</time>
      </trkpt>
      <trkpt lat="43.84204" lon="7.26775">
        <ele>814</ele>
        <time>2012-04-22T10:44:57Z</time>
      </trkpt>
      <trkpt lat="43.84201" lon="7.26779">
        <ele>816</ele>
        <time>2012-04-22T10:45:03Z</time>
      </trkpt>
      <trkpt lat="43.84196" lon="7.26785">
        <ele>817</ele>
        <time>2012-04-22T10:45:08Z</time>
      </trkpt>
      <trkpt lat="43.84192" lon="7.26791">
        <ele>817</ele>
        <time>2012-04-22T10:45:15Z</time>
      </trkpt>
      <trkpt lat="43.84187" lon="7.26797">
        <ele>820</ele>
        <time>2012-04-22T10:45:21Z</time>
      </trkpt>
      <trkpt lat="43.84182" lon="7.26802">
        <ele>820</ele>
        <time>2012-04-22T10:45:26Z</time>
      </trkpt>
      <trkpt lat="43.84177" lon="7.26808">
        <ele>820</ele>
        <time>2012-04-22T10:45:31Z</time>
      </trkpt>
      <trkpt lat="43.84172" lon="7.26812">
        <ele>823</ele>
        <time>2012-04-22T10:45:37Z</time>
      </trkpt>
      <trkpt lat="43.84167" lon="7.26814">
        <ele>825</ele>
        <time>2012-04-22T10:45:42Z</time>
      </trkpt>
      <trkpt lat="43.84162" lon="7.26819">
        <ele>827</ele>
        <time>2012-04-22T10:45:47Z</time>
      </trkpt>
      <trkpt lat="43.84156" lon="7.26824">
        <ele>829</ele>
        <time>2012-04-22T10:45:53Z</time>
      </trkpt>
      <trkpt lat="43.84152" lon="7.26831">
        <ele>831</ele>
        <time>2012-04-22T10:45:58Z</time>
      </trkpt>
      <trkpt lat="43.84148" lon="7.26837">
        <ele>832</ele>
        <time>2012-04-22T10:46:03Z</time>
      </trkpt>
      <trkpt lat="43.84143" lon="7.26841">
        <ele>832</ele>
        <time>2012-04-22T10:46:08Z</time>
      </trkpt>
      <trkpt lat="43.84138" lon="7.26848">
        <ele>832</ele>
        <time>2012-04-22T10:46:14Z</time>
      </trkpt>
      <trkpt lat="43.84135" lon="7.26854">
        <ele>832</ele>
        <time>2012-04-22T10:46:20Z</time>
      </trkpt>
      <trkpt lat="43.84132" lon="7.2686">
        <ele>832</ele>
        <time>2012-04-22T10:46:26Z</time>
      </trkpt>
      <trkpt lat="43.84127" lon="7.26864">
        <ele>832</ele>
        <time>2012-04-22T10:46:32Z</time>
      </trkpt>
      <trkpt lat="43.84124" lon="7.26869">
        <ele>832</ele>
        <time>2012-04-22T10:46:37Z</time>
      </trkpt>
      <trkpt lat="43.84118" lon="7.26874">
        <ele>834</ele>
        <time>2012-04-22T10:46:43Z</time>
      </trkpt>
      <trkpt lat="43.84113" lon="7.2688">
        <ele>836</ele>
        <time>2012-04-22T10:46:49Z</time>
      </trkpt>
      <trkpt lat="43.84109" lon="7.26883">
        <ele>838</ele>
        <time>2012-04-22T10:46:54Z</time>
      </trkpt>
      <trkpt lat="43.84105" lon="7.26887">
        <ele>838</ele>
        <time>2012-04-22T10:47:01Z</time>
      </trkpt>
      <trkpt lat="43.84101" lon="7.26892">
        <ele>838</ele>
        <time>2012-04-22T10:47:07Z</time>
      </trkpt>
      <trkpt lat="43.84097" lon="7.26896">
        <ele>838</ele>
        <time>2012-04-22T10:47:12Z</time>
      </trkpt>
      <trkpt lat="43.84094" lon="7.26902">
        <ele>839</ele>
        <time>2012-04-22T10:47:17Z</time>
      </trkpt>
      <trkpt lat="43.8409" lon="7.26903">
        <ele>839</ele>
        <time>2012-04-22T10:47:22Z</time>
      </trkpt>
      <trkpt lat="43.84085" lon="7.26906">
        <ele>839</ele>
        <time>2012-04-22T10:47:27Z</time>
      </trkpt>
      <trkpt lat="43.84077" lon="7.26915">
        <ele>839</ele>
        <time>2012-04-22T10:47:32Z</time>
      </trkpt>
      <trkpt lat="43.84072" lon="7.2692">
        <ele>839</ele>
        <time>2012-04-22T10:47:40Z</time>
      </trkpt>
      <trkpt lat="43.84069" lon="7.26925">
        <ele>839</ele>
        <time>2012-04-22T10:47:45Z</time>
      </trkpt>
      <trkpt lat="43.84065" lon="7.26931">
        <ele>840</ele>
        <time>2012-04-22T10:47:51Z</time>
      </trkpt>
      <trkpt lat="43.84061" lon="7.26934">
        <ele>842</ele>
        <time>2012-04-22T10:47:56Z</time>
      </trkpt>
      <trkpt lat="43.84056" lon="7.2694">
        <ele>843</ele>
        <time>2012-04-22T10:48:01Z</time>
      </trkpt>
      <trkpt lat="43.84051" lon="7.26944">
        <ele>844</ele>
        <time>2012-04-22T10:48:07Z</time>
      </trkpt>
      <trkpt lat="43.84048" lon="7.2695">
        <ele>846</ele>
        <time>2012-04-22T10:48:12Z</time>
      </trkpt>
      <trkpt lat="43.84044" lon="7.26958">
        <ele>847</ele>
        <time>2012-04-22T10:48:18Z</time>
      </trkpt>
      <trkpt lat="43.8404" lon="7.26963">
        <ele>849</ele>
        <time>2012-04-22T10:48:24Z</time>
      </trkpt>
      <trkpt lat="43.84036" lon="7.2697">
        <ele>849</ele>
        <time>2012-04-22T10:48:29Z</time>
      </trkpt>
      <trkpt lat="43.84031" lon="7.26976">
        <ele>849</ele>
        <time>2012-04-22T10:48:34Z</time>
      </trkpt>
      <trkpt lat="43.84028" lon="7.26984">
        <ele>849</ele>
        <time>2012-04-22T10:48:39Z</time>
      </trkpt>
      <trkpt lat="43.84025" lon="7.2699">
        <ele>850</ele>
        <time>2012-04-22T10:48:45Z</time>
      </trkpt>
      <trkpt lat="43.84022" lon="7.26995">
        <ele>852</ele>
        <time>2012-04-22T10:48:52Z</time>
      </trkpt>
      <trkpt lat="43.84017" lon="7.27001">
        <ele>853</ele>
        <time>2012-04-22T10:48:57Z</time>
      </trkpt>
      <trkpt lat="43.84012" lon="7.2701">
        <ele>853</ele>
        <time>2012-04-22T10:49:02Z</time>
      </trkpt>
      <trkpt lat="43.84007" lon="7.27022">
        <ele>853</ele>
        <time>2012-04-22T10:49:07Z</time>
      </trkpt>
      <trkpt lat="43.83998" lon="7.27031">
        <ele>853</ele>
        <time>2012-04-22T10:49:12Z</time>
      </trkpt>
      <trkpt lat="43.8399" lon="7.27043">
        <ele>853</ele>
        <time>2012-04-22T10:49:17Z</time>
      </trkpt>
      <trkpt lat="43.83983" lon="7.27056">
        <ele>853</ele>
        <time>2012-04-22T10:49:22Z</time>
      </trkpt>
      <trkpt lat="43.83976" lon="7.27068">
        <ele>853</ele>
        <time>2012-04-22T10:49:27Z</time>
      </trkpt>
      <trkpt lat="43.83972" lon="7.27071">
        <ele>853</ele>
        <time>2012-04-22T10:49:32Z</time>
      </trkpt>
      <trkpt lat="43.83966" lon="7.27075">
        <ele>853</ele>
        <time>2012-04-22T10:49:37Z</time>
      </trkpt>
      <trkpt lat="43.83961" lon="7.27079">
        <ele>853</ele>
        <time>2012-04-22T10:49:42Z</time>
      </trkpt>
      <trkpt lat="43.83953" lon="7.27084">
        <ele>853</ele>
        <time>2012-04-22T10:49:47Z</time>
      </trkpt>
      <trkpt lat="43.83948" lon="7.27089">
        <ele>853</ele>
        <time>2012-04-22T10:49:53Z</time>
      </trkpt>
      <trkpt lat="43.83944" lon="7.27091">
        <ele>854</ele>
        <time>2012-04-22T10:49:59Z</time>
      </trkpt>
      <trkpt lat="43.83941" lon="7.27091">
        <ele>854</ele>
        <time>2012-04-22T10:50:05Z</time>
      </trkpt>
      <trkpt lat="43.83943" lon="7.27089">
        <ele>855</ele>
        <time>2012-04-22T10:50:10Z</time>
      </trkpt>
      <trkpt lat="43.83945" lon="7.2709">
        <ele>856</ele>
        <time>2012-04-22T10:50:15Z</time>
      </trkpt>
      <trkpt lat="43.83943" lon="7.27088">
        <ele>857</ele>
        <time>2012-04-22T10:50:30Z</time>
      </trkpt>
      <trkpt lat="43.83944" lon="7.2709">
        <ele>862</ele>
        <time>2012-04-22T10:51:02Z</time>
      </trkpt>
      <trkpt lat="43.83944" lon="7.27091">
        <ele>862</ele>
        <time>2012-04-22T10:51:10Z</time>
      </trkpt>
      <trkpt lat="43.83943" lon="7.27093">
        <ele>860</ele>
        <time>2012-04-22T10:51:18Z</time>
      </trkpt>
      <trkpt lat="43.83943" lon="7.27094">
        <ele>858</ele>
        <time>2012-04-22T10:51:49Z</time>
      </trkpt>
      <trkpt lat="43.83942" lon="7.27092">
        <ele>858</ele>
        <time>2012-04-22T10:52:12Z</time>
      </trkpt>
      <trkpt lat="43.83942" lon="7.2709">
        <ele>859</ele>
        <time>2012-04-22T10:52:30Z</time>
      </trkpt>
      <trkpt lat="43.83944" lon="7.2709">
        <ele>861</ele>
        <time>2012-04-22T10:52:42Z</time>
      </trkpt>
      <trkpt lat="43.83943" lon="7.27086">
        <ele>861</ele>
        <time>2012-04-22T10:52:47Z</time>
      </trkpt>
      <trkpt lat="43.83943" lon="7.27087">
        <ele>864</ele>
        <time>2012-04-22T10:53:11Z</time>
      </trkpt>
      <trkpt lat="43.83945" lon="7.27087">
        <ele>864</ele>
        <time>2012-04-22T10:53:18Z</time>
      </trkpt>
      <trkpt lat="43.83944" lon="7.27089">
        <ele>864</ele>
        <time>2012-04-22T10:53:32Z</time>
      </trkpt>
      <trkpt lat="43.83944" lon="7.27091">
        <ele>864</ele>
        <time>2012-04-22T10:53:41Z</time>
      </trkpt>
      <trkpt lat="43.83943" lon="7.27091">
        <ele>864</ele>
        <time>2012-04-22T10:53:48Z</time>
      </trkpt>
      <trkpt lat="43.83943" lon="7.27092">
        <ele>862</ele>
        <time>2012-04-22T10:54:02Z</time>
      </trkpt>
      <trkpt lat="43.83943" lon="7.27094">
        <ele>860</ele>
        <time>2012-04-22T10:54:17Z</time>
      </trkpt>
      <trkpt lat="43.83943" lon="7.27092">
        <ele>859</ele>
        <time>2012-04-22T10:54:48Z</time>
      </trkpt>
      <trkpt lat="43.83943" lon="7.27091">
        <ele>859</ele>
        <time>2012-04-22T10:54:56Z</time>
      </trkpt>
      <trkpt lat="43.83943" lon="7.27089">
        <ele>862</ele>
        <time>2012-04-22T10:55:07Z</time>
      </trkpt>
      <trkpt lat="43.83941" lon="7.27088">
        <ele>866</ele>
        <time>2012-04-22T10:55:13Z</time>
      </trkpt>
      <trkpt lat="43.8394" lon="7.27087">
        <ele>866</ele>
        <time>2012-04-22T10:55:35Z</time>
      </trkpt>
      <trkpt lat="43.83941" lon="7.27085">
        <ele>868</ele>
        <time>2012-04-22T10:55:43Z</time>
      </trkpt>
      <trkpt lat="43.83941" lon="7.27087">
        <ele>873</ele>
        <time>2012-04-22T10:56:25Z</time>
      </trkpt>
      <trkpt lat="43.83942" lon="7.27089">
        <ele>867</ele>
        <time>2012-04-22T10:57:14Z</time>
      </trkpt>
      <trkpt lat="43.83942" lon="7.2709">
        <ele>864</ele>
        <time>2012-04-22T10:57:22Z</time>
      </trkpt>
      <trkpt lat="43.83942" lon="7.27094">
        <ele>856</ele>
        <time>2012-04-22T10:57:32Z</time>
      </trkpt>
      <trkpt lat="43.83943" lon="7.27092">
        <ele>854</ele>
        <time>2012-04-22T10:57:46Z</time>
      </trkpt>
      <trkpt lat="43.83944" lon="7.27091">
        <ele>857</ele>
        <time>2012-04-22T10:58:03Z</time>
      </trkpt>
      <trkpt lat="43.83943" lon="7.27089">
        <ele>862</ele>
        <time>2012-04-22T10:58:22Z</time>
      </trkpt>
      <trkpt lat="43.83942" lon="7.27087">
        <ele>864</ele>
        <time>2012-04-22T10:58:36Z</time>
      </trkpt>
      <trkpt lat="43.83941" lon="7.27087">
        <ele>865</ele>
        <time>2012-04-22T10:59:01Z</time>
      </trkpt>
      <trkpt lat="43.83938" lon="7.27089">
        <ele>865</ele>
        <time>2012-04-22T10:59:13Z</time>
      </trkpt>
      <trkpt lat="43.83931" lon="7.27092">
        <ele>865</ele>
        <time>2012-04-22T10:59:18Z</time>
      </trkpt>
      <trkpt lat="43.83923" lon="7.27095">
        <ele>865</ele>
        <time>2012-04-22T10:59:23Z</time>
      </trkpt>
      <trkpt lat="43.83915" lon="7.27101">
        <ele>865</ele>
        <time>2012-04-22T10:59:28Z</time>
      </trkpt>
      <trkpt lat="43.83912" lon="7.27101">
        <ele>865</ele>
        <time>2012-04-22T10:59:38Z</time>
      </trkpt>
      <trkpt lat="43.83921" lon="7.27097">
        <ele>864</ele>
        <time>2012-04-22T10:59:44Z</time>
      </trkpt>
      <trkpt lat="43.83932" lon="7.27093">
        <ele>864</ele>
        <time>2012-04-22T10:59:49Z</time>
      </trkpt>
      <trkpt lat="43.83942" lon="7.27089">
        <ele>863</ele>
        <time>2012-04-22T10:59:55Z</time>
      </trkpt>
      <trkpt lat="43.8394" lon="7.27091">
        <ele>862</ele>
        <time>2012-04-22T11:00:06Z</time>
      </trkpt>
      <trkpt lat="43.83931" lon="7.27096">
        <ele>860</ele>
        <time>2012-04-22T11:00:11Z</time>
      </trkpt>
      <trkpt lat="43.83918" lon="7.27103">
        <ele>859</ele>
        <time>2012-04-22T11:00:16Z</time>
      </trkpt>
      <trkpt lat="43.83905" lon="7.27111">
        <ele>858</ele>
        <time>2012-04-22T11:00:21Z</time>
      </trkpt>
      <trkpt lat="43.8389" lon="7.27118">
        <ele>858</ele>
        <time>2012-04-22T11:00:26Z</time>
      </trkpt>
      <trkpt lat="43.83873" lon="7.27123">
        <ele>858</ele>
        <time>2012-04-22T11:00:31Z</time>
      </trkpt>
      <trkpt lat="43.8385" lon="7.27134">
        <ele>858</ele>
        <time>2012-04-22T11:00:36Z</time>
      </trkpt>
      <trkpt lat="43.83831" lon="7.2713">
        <ele>858</ele>
        <time>2012-04-22T11:00:41Z</time>
      </trkpt>
      <trkpt lat="43.83819" lon="7.27122">
        <ele>858</ele>
        <time>2012-04-22T11:00:46Z</time>
      </trkpt>
      <trkpt lat="43.83817" lon="7.27118">
        <ele>858</ele>
        <time>2012-04-22T11:00:52Z</time>
      </trkpt>
      <trkpt lat="43.83815" lon="7.27117">
        <ele>858</ele>
        <time>2012-04-22T11:00:59Z</time>
      </trkpt>
      <trkpt lat="43.83813" lon="7.27109">
        <ele>858</ele>
        <time>2012-04-22T11:01:05Z</time>
      </trkpt>
      <trkpt lat="43.83812" lon="7.27105">
        <ele>858</ele>
        <time>2012-04-22T11:01:10Z</time>
      </trkpt>
      <trkpt lat="43.83804" lon="7.27097">
        <ele>858</ele>
        <time>2012-04-22T11:01:15Z</time>
      </trkpt>
      <trkpt lat="43.83793" lon="7.27091">
        <ele>859</ele>
        <time>2012-04-22T11:01:20Z</time>
      </trkpt>
      <trkpt lat="43.83782" lon="7.27085">
        <ele>859</ele>
        <time>2012-04-22T11:01:25Z</time>
      </trkpt>
      <trkpt lat="43.83772" lon="7.27084">
        <ele>860</ele>
        <time>2012-04-22T11:01:30Z</time>
      </trkpt>
      <trkpt lat="43.83763" lon="7.27083">
        <ele>861</ele>
        <time>2012-04-22T11:01:35Z</time>
      </trkpt>
      <trkpt lat="43.83757" lon="7.27084">
        <ele>862</ele>
        <time>2012-04-22T11:01:42Z</time>
      </trkpt>
      <trkpt lat="43.83752" lon="7.27086">
        <ele>862</ele>
        <time>2012-04-22T11:01:48Z</time>
      </trkpt>
      <trkpt lat="43.83747" lon="7.27085">
        <ele>863</ele>
        <time>2012-04-22T11:01:54Z</time>
      </trkpt>
      <trkpt lat="43.83741" lon="7.27086">
        <ele>863</ele>
        <time>2012-04-22T11:02:00Z</time>
      </trkpt>
      <trkpt lat="43.83736" lon="7.27089">
        <ele>864</ele>
        <time>2012-04-22T11:02:06Z</time>
      </trkpt>
      <trkpt lat="43.83729" lon="7.2709">
        <ele>865</ele>
        <time>2012-04-22T11:02:12Z</time>
      </trkpt>
      <trkpt lat="43.83723" lon="7.27089">
        <ele>866</ele>
        <time>2012-04-22T11:02:18Z</time>
      </trkpt>
      <trkpt lat="43.8372" lon="7.2709">
        <ele>867</ele>
        <time>2012-04-22T11:02:23Z</time>
      </trkpt>
      <trkpt lat="43.83715" lon="7.27093">
        <ele>868</ele>
        <time>2012-04-22T11:02:29Z</time>
      </trkpt>
      <trkpt lat="43.83711" lon="7.27097">
        <ele>869</ele>
        <time>2012-04-22T11:02:35Z</time>
      </trkpt>
      <trkpt lat="43.83707" lon="7.27102">
        <ele>869</ele>
        <time>2012-04-22T11:02:40Z</time>
      </trkpt>
      <trkpt lat="43.83702" lon="7.27106">
        <ele>869</ele>
        <time>2012-04-22T11:02:45Z</time>
      </trkpt>
      <trkpt lat="43.83698" lon="7.27107">
        <ele>870</ele>
        <time>2012-04-22T11:02:51Z</time>
      </trkpt>
      <trkpt lat="43.83695" lon="7.27106">
        <ele>871</ele>
        <time>2012-04-22T11:02:56Z</time>
      </trkpt>
      <trkpt lat="43.8369" lon="7.27107">
        <ele>871</ele>
        <time>2012-04-22T11:03:01Z</time>
      </trkpt>
      <trkpt lat="43.83681" lon="7.27109">
        <ele>872</ele>
        <time>2012-04-22T11:03:06Z</time>
      </trkpt>
      <trkpt lat="43.8367" lon="7.27111">
        <ele>872</ele>
        <time>2012-04-22T11:03:11Z</time>
      </trkpt>
      <trkpt lat="43.83661" lon="7.27116">
        <ele>874</ele>
        <time>2012-04-22T11:03:17Z</time>
      </trkpt>
      <trkpt lat="43.83657" lon="7.27119">
        <ele>875</ele>
        <time>2012-04-22T11:03:22Z</time>
      </trkpt>
      <trkpt lat="43.83645" lon="7.27124">
        <ele>875</ele>
        <time>2012-04-22T11:03:28Z</time>
      </trkpt>
      <trkpt lat="43.83638" lon="7.27131">
        <ele>875</ele>
        <time>2012-04-22T11:03:33Z</time>
      </trkpt>
      <trkpt lat="43.83635" lon="7.27135">
        <ele>877</ele>
        <time>2012-04-22T11:03:38Z</time>
      </trkpt>
      <trkpt lat="43.83633" lon="7.27136">
        <ele>878</ele>
        <time>2012-04-22T11:03:43Z</time>
      </trkpt>
      <trkpt lat="43.83629" lon="7.27143">
        <ele>878</ele>
        <time>2012-04-22T11:03:48Z</time>
      </trkpt>
      <trkpt lat="43.83622" lon="7.27144">
        <ele>878</ele>
        <time>2012-04-22T11:03:53Z</time>
      </trkpt>
      <trkpt lat="43.83611" lon="7.27151">
        <ele>878</ele>
        <time>2012-04-22T11:03:58Z</time>
      </trkpt>
      <trkpt lat="43.83597" lon="7.27158">
        <ele>878</ele>
        <time>2012-04-22T11:04:04Z</time>
      </trkpt>
      <trkpt lat="43.83581" lon="7.2716">
        <ele>878</ele>
        <time>2012-04-22T11:04:09Z</time>
      </trkpt>
      <trkpt lat="43.83563" lon="7.27158">
        <ele>878</ele>
        <time>2012-04-22T11:04:14Z</time>
      </trkpt>
      <trkpt lat="43.83546" lon="7.27161">
        <ele>878</ele>
        <time>2012-04-22T11:04:20Z</time>
      </trkpt>
      <trkpt lat="43.83533" lon="7.27161">
        <ele>878</ele>
        <time>2012-04-22T11:04:25Z</time>
      </trkpt>
      <trkpt lat="43.83524" lon="7.2716">
        <ele>878</ele>
        <time>2012-04-22T11:04:30Z</time>
      </trkpt>
      <trkpt lat="43.83516" lon="7.27163">
        <ele>880</ele>
        <time>2012-04-22T11:04:35Z</time>
      </trkpt>
      <trkpt lat="43.83511" lon="7.27166">
        <ele>882</ele>
        <time>2012-04-22T11:04:41Z</time>
      </trkpt>
      <trkpt lat="43.83505" lon="7.27167">
        <ele>883</ele>
        <time>2012-04-22T11:04:46Z</time>
      </trkpt>
      <trkpt lat="43.835" lon="7.2717">
        <ele>884</ele>
        <time>2012-04-22T11:04:52Z</time>
      </trkpt>
      <trkpt lat="43.83495" lon="7.27172">
        <ele>885</ele>
        <time>2012-04-22T11:04:57Z</time>
      </trkpt>
      <trkpt lat="43.83489" lon="7.27174">
        <ele>885</ele>
        <time>2012-04-22T11:05:03Z</time>
      </trkpt>
      <trkpt lat="43.83485" lon="7.27176">
        <ele>886</ele>
        <time>2012-04-22T11:05:08Z</time>
      </trkpt>
      <trkpt lat="43.83478" lon="7.27179">
        <ele>886</ele>
        <time>2012-04-22T11:05:13Z</time>
      </trkpt>
      <trkpt lat="43.83472" lon="7.27183">
        <ele>886</ele>
        <time>2012-04-22T11:05:18Z</time>
      </trkpt>
      <trkpt lat="43.83464" lon="7.27187">
        <ele>886</ele>
        <time>2012-04-22T11:05:23Z</time>
      </trkpt>
      <trkpt lat="43.83454" lon="7.27191">
        <ele>886</ele>
        <time>2012-04-22T11:05:29Z</time>
      </trkpt>
      <trkpt lat="43.83447" lon="7.27198">
        <ele>886</ele>
        <time>2012-04-22T11:05:34Z</time>
      </trkpt>
      <trkpt lat="43.83438" lon="7.27203">
        <ele>887</ele>
        <time>2012-04-22T11:05:39Z</time>
      </trkpt>
      <trkpt lat="43.83429" lon="7.27211">
        <ele>887</ele>
        <time>2012-04-22T11:05:45Z</time>
      </trkpt>
      <trkpt lat="43.83423" lon="7.2722">
        <ele>888</ele>
        <time>2012-04-22T11:05:50Z</time>
      </trkpt>
      <trkpt lat="43.83412" lon="7.27241">
        <ele>888</ele>
        <time>2012-04-22T11:05:55Z</time>
      </trkpt>
      <trkpt lat="43.834" lon="7.2726">
        <ele>888</ele>
        <time>2012-04-22T11:06:01Z</time>
      </trkpt>
      <trkpt lat="43.83384" lon="7.2728">
        <ele>887</ele>
        <time>2012-04-22T11:06:07Z</time>
      </trkpt>
      <trkpt lat="43.83368" lon="7.27305">
        <ele>885</ele>
        <time>2012-04-22T11:06:12Z</time>
      </trkpt>
      <trkpt lat="43.8336" lon="7.27321">
        <ele>884</ele>
        <time>2012-04-22T11:06:17Z</time>
      </trkpt>
      <trkpt lat="43.83352" lon="7.27332">
        <ele>884</ele>
        <time>2012-04-22T11:06:22Z</time>
      </trkpt>
      <trkpt lat="43.83342" lon="7.27349">
        <ele>883</ele>
        <time>2012-04-22T11:06:28Z</time>
      </trkpt>
      <trkpt lat="43.83338" lon="7.27372">
        <ele>883</ele>
        <time>2012-04-22T11:06:33Z</time>
      </trkpt>
      <trkpt lat="43.83334" lon="7.2739">
        <ele>882</ele>
        <time>2012-04-22T11:06:41Z</time>
      </trkpt>
      <trkpt lat="43.83334" lon="7.27391">
        <ele>882</ele>
        <time>2012-04-22T11:06:51Z</time>
      </trkpt>
      <trkpt lat="43.83333" lon="7.27391">
        <ele>882</ele>
        <time>2012-04-22T11:06:56Z</time>
      </trkpt>
      <trkpt lat="43.83329" lon="7.27391">
        <ele>882</ele>
        <time>2012-04-22T11:07:05Z</time>
      </trkpt>
      <trkpt lat="43.83328" lon="7.27395">
        <ele>882</ele>
        <time>2012-04-22T11:07:18Z</time>
      </trkpt>
      <trkpt lat="43.83328" lon="7.27396">
        <ele>882</ele>
        <time>2012-04-22T11:08:10Z</time>
      </trkpt>
      <trkpt lat="43.83327" lon="7.27395">
        <ele>882</ele>
        <time>2012-04-22T11:08:35Z</time>
      </trkpt>
      <trkpt lat="43.83328" lon="7.27389">
        <ele>882</ele>
        <time>2012-04-22T11:08:41Z</time>
      </trkpt>
      <trkpt lat="43.83329" lon="7.27391">
        <ele>882</ele>
        <time>2012-04-22T11:08:55Z</time>
      </trkpt>
      <trkpt lat="43.83332" lon="7.27393">
        <ele>882</ele>
        <time>2012-04-22T11:09:02Z</time>
      </trkpt>
      <trkpt lat="43.83332" lon="7.27394">
        <ele>882</ele>
        <time>2012-04-22T11:09:19Z</time>
      </trkpt>
      <trkpt lat="43.83331" lon="7.27393">
        <ele>882</ele>
        <time>2012-04-22T11:09:36Z</time>
      </trkpt>
      <trkpt lat="43.83334" lon="7.27392">
        <ele>882</ele>
        <time>2012-04-22T11:09:53Z</time>
      </trkpt>
      <trkpt lat="43.83335" lon="7.27392">
        <ele>882</ele>
        <time>2012-04-22T11:10:00Z</time>
      </trkpt>
      <trkpt lat="43.83336" lon="7.27391">
        <ele>882</ele>
        <time>2012-04-22T11:10:18Z</time>
      </trkpt>
      <trkpt lat="43.83334" lon="7.27391">
        <ele>882</ele>
        <time>2012-04-22T11:10:34Z</time>
      </trkpt>
      <trkpt lat="43.83333" lon="7.2739">
        <ele>882</ele>
        <time>2012-04-22T11:10:44Z</time>
      </trkpt>
      <trkpt lat="43.83332" lon="7.27389">
        <ele>882</ele>
        <time>2012-04-22T11:10:56Z</time>
      </trkpt>
      <trkpt lat="43.83333" lon="7.27389">
        <ele>882</ele>
        <time>2012-04-22T11:11:17Z</time>
      </trkpt>
      <trkpt lat="43.83332" lon="7.2739">
        <ele>882</ele>
        <time>2012-04-22T11:11:33Z</time>
      </trkpt>
      <trkpt lat="43.83324" lon="7.27392">
        <ele>882</ele>
        <time>2012-04-22T11:11:38Z</time>
      </trkpt>
      <trkpt lat="43.83316" lon="7.27395">
        <ele>882</ele>
        <time>2012-04-22T11:11:46Z</time>
      </trkpt>
      <trkpt lat="43.83315" lon="7.27396">
        <ele>882</ele>
        <time>2012-04-22T11:11:58Z</time>
      </trkpt>
      <trkpt lat="43.8331" lon="7.27393">
        <ele>881</ele>
        <time>2012-04-22T11:12:05Z</time>
      </trkpt>
      <trkpt lat="43.83311" lon="7.27396">
        <ele>880</ele>
        <time>2012-04-22T11:12:17Z</time>
      </trkpt>
      <trkpt lat="43.8331" lon="7.27394">
        <ele>880</ele>
        <time>2012-04-22T11:12:33Z</time>
      </trkpt>
      <trkpt lat="43.83308" lon="7.27395">
        <ele>880</ele>
        <time>2012-04-22T11:12:49Z</time>
      </trkpt>
      <trkpt lat="43.83307" lon="7.27395">
        <ele>878</ele>
        <time>2012-04-22T11:13:50Z</time>
      </trkpt>
      <trkpt lat="43.83308" lon="7.27395">
        <ele>878</ele>
        <time>2012-04-22T11:14:24Z</time>
      </trkpt>
      <trkpt lat="43.83309" lon="7.27394">
        <ele>878</ele>
        <time>2012-04-22T11:14:41Z</time>
      </trkpt>
      <trkpt lat="43.83312" lon="7.27394">
        <ele>878</ele>
        <time>2012-04-22T11:14:47Z</time>
      </trkpt>
      <trkpt lat="43.83317" lon="7.27393">
        <ele>878</ele>
        <time>2012-04-22T11:14:52Z</time>
      </trkpt>
      <trkpt lat="43.83323" lon="7.27393">
        <ele>878</ele>
        <time>2012-04-22T11:14:57Z</time>
      </trkpt>
      <trkpt lat="43.83328" lon="7.27392">
        <ele>878</ele>
        <time>2012-04-22T11:15:03Z</time>
      </trkpt>
      <trkpt lat="43.83329" lon="7.27391">
        <ele>878</ele>
        <time>2012-04-22T11:15:15Z</time>
      </trkpt>
      <trkpt lat="43.83333" lon="7.27391">
        <ele>878</ele>
        <time>2012-04-22T11:15:22Z</time>
      </trkpt>
      <trkpt lat="43.83334" lon="7.27391">
        <ele>879</ele>
        <time>2012-04-22T11:15:57Z</time>
      </trkpt>
      <trkpt lat="43.83334" lon="7.2739">
        <ele>879</ele>
        <time>2012-04-22T11:16:09Z</time>
      </trkpt>
      <trkpt lat="43.83335" lon="7.27391">
        <ele>879</ele>
        <time>2012-04-22T11:16:16Z</time>
      </trkpt>
      <trkpt lat="43.83334" lon="7.27391">
        <ele>879</ele>
        <time>2012-04-22T11:16:36Z</time>
      </trkpt>
      <trkpt lat="43.83331" lon="7.27391">
        <ele>879</ele>
        <time>2012-04-22T11:16:43Z</time>
      </trkpt>
      <trkpt lat="43.83329" lon="7.2739">
        <ele>880</ele>
        <time>2012-04-22T11:17:02Z</time>
      </trkpt>
      <trkpt lat="43.83328" lon="7.27388">
        <ele>880</ele>
        <time>2012-04-22T11:17:24Z</time>
      </trkpt>
      <trkpt lat="43.83329" lon="7.2739">
        <ele>881</ele>
        <time>2012-04-22T11:18:01Z</time>
      </trkpt>
      <trkpt lat="43.8333" lon="7.27391">
        <ele>881</ele>
        <time>2012-04-22T11:18:18Z</time>
      </trkpt>
      <trkpt lat="43.83329" lon="7.27393">
        <ele>881</ele>
        <time>2012-04-22T11:18:33Z</time>
      </trkpt>
      <trkpt lat="43.83328" lon="7.27391">
        <ele>880</ele>
        <time>2012-04-22T11:19:39Z</time>
      </trkpt>
      <trkpt lat="43.83329" lon="7.27389">
        <ele>879</ele>
        <time>2012-04-22T11:21:10Z</time>
      </trkpt>
      <trkpt lat="43.8333" lon="7.27389">
        <ele>879</ele>
        <time>2012-04-22T11:21:34Z</time>
      </trkpt>
      <trkpt lat="43.83329" lon="7.27389">
        <ele>879</ele>
        <time>2012-04-22T11:21:44Z</time>
      </trkpt>
      <trkpt lat="43.83327" lon="7.27388">
        <ele>879</ele>
        <time>2012-04-22T11:21:52Z</time>
      </trkpt>
      <trkpt lat="43.83324" lon="7.2739">
        <ele>879</ele>
        <time>2012-04-22T11:21:58Z</time>
      </trkpt>
      <trkpt lat="43.83319" lon="7.27391">
        <ele>879</ele>
        <time>2012-04-22T11:22:04Z</time>
      </trkpt>
      <trkpt lat="43.83315" lon="7.27392">
        <ele>879</ele>
        <time>2012-04-22T11:22:10Z</time>
      </trkpt>
      <trkpt lat="43.83311" lon="7.27392">
        <ele>879</ele>
        <time>2012-04-22T11:22:16Z</time>
      </trkpt>
      <trkpt lat="43.8331" lon="7.27394">
        <ele>879</ele>
        <time>2012-04-22T11:22:46Z</time>
      </trkpt>
      <trkpt lat="43.83311" lon="7.27392">
        <ele>879</ele>
        <time>2012-04-22T11:22:55Z</time>
      </trkpt>
      <trkpt lat="43.8331" lon="7.27391">
        <ele>879</ele>
        <time>2012-04-22T11:23:11Z</time>
      </trkpt>
      <trkpt lat="43.8331" lon="7.27392">
        <ele>879</ele>
        <time>2012-04-22T11:23:26Z</time>
      </trkpt>
      <trkpt lat="43.83313" lon="7.27394">
        <ele>879</ele>
        <time>2012-04-22T11:23:31Z</time>
      </trkpt>
      <trkpt lat="43.8331" lon="7.27393">
        <ele>879</ele>
        <time>2012-04-22T11:23:38Z</time>
      </trkpt>
      <trkpt lat="43.83309" lon="7.27394">
        <ele>879</ele>
        <time>2012-04-22T11:23:53Z</time>
      </trkpt>
      <trkpt lat="43.8331" lon="7.27395">
        <ele>879</ele>
        <time>2012-04-22T11:24:15Z</time>
      </trkpt>
      <trkpt lat="43.83313" lon="7.27397">
        <ele>879</ele>
        <time>2012-04-22T11:24:22Z</time>
      </trkpt>
      <trkpt lat="43.83312" lon="7.27396">
        <ele>879</ele>
        <time>2012-04-22T11:24:46Z</time>
      </trkpt>
      <trkpt lat="43.8331" lon="7.27395">
        <ele>879</ele>
        <time>2012-04-22T11:25:03Z</time>
      </trkpt>
      <trkpt lat="43.83306" lon="7.27387">
        <ele>879</ele>
        <time>2012-04-22T11:25:08Z</time>
      </trkpt>
      <trkpt lat="43.83307" lon="7.27373">
        <ele>879</ele>
        <time>2012-04-22T11:25:13Z</time>
      </trkpt>
      <trkpt lat="43.83308" lon="7.27369">
        <ele>876</ele>
        <time>2012-04-22T11:25:21Z</time>
      </trkpt>
      <trkpt lat="43.83309" lon="7.27368">
        <ele>875</ele>
        <time>2012-04-22T11:25:30Z</time>
      </trkpt>
      <trkpt lat="43.83309" lon="7.27367">
        <ele>874</ele>
        <time>2012-04-22T11:25:53Z</time>
      </trkpt>
      <trkpt lat="43.83309" lon="7.27368">
        <ele>874</ele>
        <time>2012-04-22T11:26:38Z</time>
      </trkpt>
      <trkpt lat="43.83309" lon="7.2737">
        <ele>874</ele>
        <time>2012-04-22T11:26:48Z</time>
      </trkpt>
      <trkpt lat="43.83308" lon="7.27376">
        <ele>874</ele>
        <time>2012-04-22T11:26:54Z</time>
      </trkpt>
      <trkpt lat="43.83307" lon="7.27383">
        <ele>874</ele>
        <time>2012-04-22T11:26:59Z</time>
      </trkpt>
      <trkpt lat="43.83307" lon="7.27391">
        <ele>874</ele>
        <time>2012-04-22T11:27:05Z</time>
      </trkpt>
      <trkpt lat="43.8331" lon="7.27396">
        <ele>874</ele>
        <time>2012-04-22T11:27:11Z</time>
      </trkpt>
      <trkpt lat="43.83316" lon="7.27396">
        <ele>874</ele>
        <time>2012-04-22T11:27:17Z</time>
      </trkpt>
      <trkpt lat="43.83321" lon="7.27395">
        <ele>874</ele>
        <time>2012-04-22T11:27:23Z</time>
      </trkpt>
      <trkpt lat="43.83323" lon="7.27395">
        <ele>875</ele>
        <time>2012-04-22T11:27:39Z</time>
      </trkpt>
      <trkpt lat="43.83327" lon="7.27393">
        <ele>875</ele>
        <time>2012-04-22T11:27:45Z</time>
      </trkpt>
      <trkpt lat="43.8333" lon="7.27393">
        <ele>875</ele>
        <time>2012-04-22T11:28:00Z</time>
      </trkpt>
      <trkpt lat="43.83331" lon="7.27392">
        <ele>877</ele>
        <time>2012-04-22T11:28:42Z</time>
      </trkpt>
      <trkpt lat="43.83331" lon="7.27391">
        <ele>877</ele>
        <time>2012-04-22T11:28:50Z</time>
      </trkpt>
      <trkpt lat="43.83331" lon="7.27389">
        <ele>877</ele>
        <time>2012-04-22T11:29:01Z</time>
      </trkpt>
      <trkpt lat="43.83331" lon="7.27391">
        <ele>877</ele>
        <time>2012-04-22T11:29:07Z</time>
      </trkpt>
      <trkpt lat="43.83329" lon="7.27391">
        <ele>879</ele>
        <time>2012-04-22T11:29:32Z</time>
      </trkpt>
      <trkpt lat="43.8333" lon="7.27393">
        <ele>882</ele>
        <time>2012-04-22T11:30:22Z</time>
      </trkpt>
      <trkpt lat="43.83331" lon="7.27394">
        <ele>882</ele>
        <time>2012-04-22T11:30:46Z</time>
      </trkpt>
      <trkpt lat="43.8333" lon="7.27393">
        <ele>882</ele>
        <time>2012-04-22T11:31:15Z</time>
      </trkpt>
      <trkpt lat="43.8333" lon="7.27391">
        <ele>882</ele>
        <time>2012-04-22T11:31:32Z</time>
      </trkpt>
      <trkpt lat="43.83333" lon="7.27392">
        <ele>882</ele>
        <time>2012-04-22T11:31:38Z</time>
      </trkpt>
      <trkpt lat="43.83333" lon="7.27393">
        <ele>882</ele>
        <time>2012-04-22T11:31:52Z</time>
      </trkpt>
      <trkpt lat="43.83331" lon="7.27393">
        <ele>882</ele>
        <time>2012-04-22T11:32:08Z</time>
      </trkpt>
      <trkpt lat="43.8333" lon="7.27392">
        <ele>882</ele>
        <time>2012-04-22T11:32:22Z</time>
      </trkpt>
      <trkpt lat="43.83329" lon="7.27392">
        <ele>882</ele>
        <time>2012-04-22T11:32:37Z</time>
      </trkpt>
      <trkpt lat="43.83327" lon="7.27393">
        <ele>882</ele>
        <time>2012-04-22T11:32:47Z</time>
      </trkpt>
      <trkpt lat="43.83329" lon="7.27391">
        <ele>882</ele>
        <time>2012-04-22T11:32:54Z</time>
      </trkpt>
      <trkpt lat="43.83333" lon="7.27391">
        <ele>882</ele>
        <time>2012-04-22T11:33:05Z</time>
      </trkpt>
      <trkpt lat="43.83332" lon="7.27392">
        <ele>882</ele>
        <time>2012-04-22T11:33:15Z</time>
      </trkpt>
      <trkpt lat="43.83331" lon="7.27391">
        <ele>882</ele>
        <time>2012-04-22T11:33:49Z</time>
      </trkpt>
      <trkpt lat="43.83334" lon="7.27389">
        <ele>882</ele>
        <time>2012-04-22T11:33:55Z</time>
      </trkpt>
      <trkpt lat="43.83337" lon="7.27392">
        <ele>882</ele>
        <time>2012-04-22T11:34:16Z</time>
      </trkpt>
      <trkpt lat="43.83337" lon="7.27394">
        <ele>882</ele>
        <time>2012-04-22T11:34:27Z</time>
      </trkpt>
      <trkpt lat="43.83339" lon="7.27394">
        <ele>882</ele>
        <time>2012-04-22T11:34:48Z</time>
      </trkpt>
      <trkpt lat="43.8334" lon="7.27395">
        <ele>882</ele>
        <time>2012-04-22T11:35:04Z</time>
      </trkpt>
      <trkpt lat="43.83348" lon="7.27392">
        <ele>882</ele>
        <time>2012-04-22T11:35:12Z</time>
      </trkpt>
      <trkpt lat="43.83373" lon="7.27388">
        <ele>880</ele>
        <time>2012-04-22T11:35:18Z</time>
      </trkpt>
      <trkpt lat="43.83388" lon="7.27389">
        <ele>876</ele>
        <time>2012-04-22T11:35:27Z</time>
      </trkpt>
      <trkpt lat="43.83397" lon="7.27388">
        <ele>872</ele>
        <time>2012-04-22T11:35:36Z</time>
      </trkpt>
      <trkpt lat="43.83419" lon="7.27396">
        <ele>868</ele>
        <time>2012-04-22T11:35:45Z</time>
      </trkpt>
      <trkpt lat="43.83422" lon="7.27402">
        <ele>862</ele>
        <time>2012-04-22T11:35:56Z</time>
      </trkpt>
      <trkpt lat="43.8342" lon="7.27404">
        <ele>862</ele>
        <time>2012-04-22T11:36:04Z</time>
      </trkpt>
      <trkpt lat="43.8342" lon="7.27404">
        <ele>862</ele>
        <time>2012-04-22T11:36:13Z</time>
      </trkpt>
      <trkpt lat="43.83416" lon="7.27408">
        <ele>862</ele>
        <time>2012-04-22T11:36:22Z</time>
      </trkpt>
      <trkpt lat="43.83408" lon="7.27424">
        <ele>862</ele>
        <time>2012-04-22T11:36:31Z</time>
      </trkpt>
      <trkpt lat="43.83421" lon="7.27439">
        <ele>860</ele>
        <time>2012-04-22T11:36:38Z</time>
      </trkpt>
      <trkpt lat="43.83424" lon="7.27449">
        <ele>856</ele>
        <time>2012-04-22T11:36:48Z</time>
      </trkpt>
      <trkpt lat="43.83421" lon="7.27456">
        <ele>854</ele>
        <time>2012-04-22T11:36:56Z</time>
      </trkpt>
      <trkpt lat="43.83424" lon="7.27484">
        <ele>851</ele>
        <time>2012-04-22T11:37:05Z</time>
      </trkpt>
      <trkpt lat="43.83449" lon="7.27503">
        <ele>848</ele>
        <time>2012-04-22T11:37:13Z</time>
      </trkpt>
      <trkpt lat="43.83449" lon="7.2751">
        <ele>843</ele>
        <time>2012-04-22T11:37:24Z</time>
      </trkpt>
      <trkpt lat="43.83449" lon="7.27513">
        <ele>843</ele>
        <time>2012-04-22T11:37:30Z</time>
      </trkpt>
      <trkpt lat="43.83447" lon="7.27516">
        <ele>843</ele>
        <time>2012-04-22T11:37:40Z</time>
      </trkpt>
      <trkpt lat="43.83446" lon="7.27519">
        <ele>843</ele>
        <time>2012-04-22T11:37:50Z</time>
      </trkpt>
      <trkpt lat="43.83443" lon="7.27523">
        <ele>843</ele>
        <time>2012-04-22T11:38:25Z</time>
      </trkpt>
      <trkpt lat="43.83422" lon="7.27525">
        <ele>843</ele>
        <time>2012-04-22T11:38:33Z</time>
      </trkpt>
      <trkpt lat="43.83406" lon="7.27516">
        <ele>843</ele>
        <time>2012-04-22T11:38:42Z</time>
      </trkpt>
      <trkpt lat="43.83385" lon="7.27516">
        <ele>841</ele>
        <time>2012-04-22T11:38:48Z</time>
      </trkpt>
      <trkpt lat="43.8336" lon="7.27509">
        <ele>838</ele>
        <time>2012-04-22T11:38:56Z</time>
      </trkpt>
      <trkpt lat="43.83358" lon="7.2751">
        <ele>834</ele>
        <time>2012-04-22T11:39:04Z</time>
      </trkpt>
      <trkpt lat="43.83351" lon="7.27519">
        <ele>830</ele>
        <time>2012-04-22T11:39:14Z</time>
      </trkpt>
      <trkpt lat="43.83333" lon="7.27529">
        <ele>827</ele>
        <time>2012-04-22T11:39:22Z</time>
      </trkpt>
      <trkpt lat="43.83292" lon="7.27543">
        <ele>824</ele>
        <time>2012-04-22T11:39:30Z</time>
      </trkpt>
      <trkpt lat="43.83286" lon="7.27562">
        <ele>823</ele>
        <time>2012-04-22T11:39:38Z</time>
      </trkpt>
      <trkpt lat="43.83268" lon="7.27596">
        <ele>820</ele>
        <time>2012-04-22T11:39:45Z</time>
      </trkpt>
      <trkpt lat="43.83269" lon="7.27595">
        <ele>818</ele>
        <time>2012-04-22T11:39:56Z</time>
      </trkpt>
      <trkpt lat="43.83261" lon="7.27606">
        <ele>816</ele>
        <time>2012-04-22T11:40:04Z</time>
      </trkpt>
      <trkpt lat="43.83256" lon="7.27607">
        <ele>812</ele>
        <time>2012-04-22T11:40:39Z</time>
      </trkpt>
      <trkpt lat="43.83245" lon="7.27606">
        <ele>812</ele>
        <time>2012-04-22T11:40:48Z</time>
      </trkpt>
      <trkpt lat="43.83228" lon="7.27606">
        <ele>812</ele>
        <time>2012-04-22T11:40:55Z</time>
      </trkpt>
      <trkpt lat="43.83215" lon="7.27601">
        <ele>812</ele>
        <time>2012-04-22T11:41:03Z</time>
      </trkpt>
      <trkpt lat="43.83212" lon="7.27601">
        <ele>812</ele>
        <time>2012-04-22T11:41:11Z</time>
      </trkpt>
      <trkpt lat="43.83206" lon="7.27601">
        <ele>815</ele>
        <time>2012-04-22T11:41:19Z</time>
      </trkpt>
      <trkpt lat="43.83201" lon="7.27603">
        <ele>818</ele>
        <time>2012-04-22T11:41:27Z</time>
      </trkpt>
      <trkpt lat="43.83196" lon="7.27605">
        <ele>820</ele>
        <time>2012-04-22T11:41:37Z</time>
      </trkpt>
      <trkpt lat="43.83192" lon="7.27609">
        <ele>820</ele>
        <time>2012-04-22T11:41:45Z</time>
      </trkpt>
      <trkpt lat="43.83187" lon="7.2762">
        <ele>821</ele>
        <time>2012-04-22T11:41:53Z</time>
      </trkpt>
      <trkpt lat="43.83184" lon="7.27626">
        <ele>821</ele>
        <time>2012-04-22T11:42:02Z</time>
      </trkpt>
      <trkpt lat="43.83182" lon="7.27639">
        <ele>822</ele>
        <time>2012-04-22T11:42:12Z</time>
      </trkpt>
      <trkpt lat="43.83182" lon="7.27655">
        <ele>824</ele>
        <time>2012-04-22T11:42:19Z</time>
      </trkpt>
      <trkpt lat="43.83182" lon="7.27657">
        <ele>824</ele>
        <time>2012-04-22T11:42:27Z</time>
      </trkpt>
      <trkpt lat="43.83181" lon="7.27665">
        <ele>824</ele>
        <time>2012-04-22T11:42:37Z</time>
      </trkpt>
      <trkpt lat="43.83176" lon="7.27672">
        <ele>824</ele>
        <time>2012-04-22T11:42:45Z</time>
      </trkpt>
      <trkpt lat="43.83172" lon="7.27675">
        <ele>827</ele>
        <time>2012-04-22T11:42:55Z</time>
      </trkpt>
      <trkpt lat="43.83169" lon="7.2768">
        <ele>830</ele>
        <time>2012-04-22T11:43:04Z</time>
      </trkpt>
      <trkpt lat="43.83165" lon="7.27687">
        <ele>833</ele>
        <time>2012-04-22T11:43:13Z</time>
      </trkpt>
      <trkpt lat="43.83158" lon="7.27696">
        <ele>836</ele>
        <time>2012-04-22T11:43:21Z</time>
      </trkpt>
      <trkpt lat="43.83157" lon="7.27699">
        <ele>838</ele>
        <time>2012-04-22T11:43:28Z</time>
      </trkpt>
      <trkpt lat="43.83147" lon="7.27707">
        <ele>840</ele>
        <time>2012-04-22T11:43:38Z</time>
      </trkpt>
      <trkpt lat="43.83132" lon="7.27721">
        <ele>840</ele>
        <time>2012-04-22T11:43:45Z</time>
      </trkpt>
      <trkpt lat="43.8309" lon="7.27759">
        <ele>840</ele>
        <time>2012-04-22T11:43:52Z</time>
      </trkpt>
      <trkpt lat="43.83072" lon="7.27758">
        <ele>840</ele>
        <time>2012-04-22T11:44:00Z</time>
      </trkpt>
      <trkpt lat="43.83039" lon="7.2776">
        <ele>840</ele>
        <time>2012-04-22T11:44:09Z</time>
      </trkpt>
      <trkpt lat="43.83018" lon="7.27768">
        <ele>840</ele>
        <time>2012-04-22T11:44:19Z</time>
      </trkpt>
      <trkpt lat="43.83011" lon="7.27773">
        <ele>840</ele>
        <time>2012-04-22T11:44:26Z</time>
      </trkpt>
      <trkpt lat="43.83004" lon="7.27777">
        <ele>840</ele>
        <time>2012-04-22T11:44:34Z</time>
      </trkpt>
      <trkpt lat="43.82994" lon="7.27781">
        <ele>841</ele>
        <time>2012-04-22T11:44:41Z</time>
      </trkpt>
      <trkpt lat="43.8299" lon="7.27783">
        <ele>844</ele>
        <time>2012-04-22T11:44:49Z</time>
      </trkpt>
      <trkpt lat="43.8298" lon="7.27793">
        <ele>845</ele>
        <time>2012-04-22T11:44:55Z</time>
      </trkpt>
      <trkpt lat="43.82968" lon="7.27804">
        <ele>846</ele>
        <time>2012-04-22T11:45:01Z</time>
      </trkpt>
      <trkpt lat="43.82953" lon="7.2781">
        <ele>847</ele>
        <time>2012-04-22T11:45:08Z</time>
      </trkpt>
      <trkpt lat="43.82943" lon="7.27818">
        <ele>848</ele>
        <time>2012-04-22T11:45:15Z</time>
      </trkpt>
      <trkpt lat="43.82933" lon="7.27827">
        <ele>849</ele>
        <time>2012-04-22T11:45:21Z</time>
      </trkpt>
      <trkpt lat="43.82922" lon="7.27831">
        <ele>849</ele>
        <time>2012-04-22T11:45:28Z</time>
      </trkpt>
      <trkpt lat="43.8291" lon="7.27833">
        <ele>849</ele>
        <time>2012-04-22T11:45:34Z</time>
      </trkpt>
      <trkpt lat="43.82893" lon="7.27839">
        <ele>849</ele>
        <time>2012-04-22T11:45:40Z</time>
      </trkpt>
      <trkpt lat="43.8287" lon="7.2784">
        <ele>849</ele>
        <time>2012-04-22T11:45:47Z</time>
      </trkpt>
      <trkpt lat="43.82851" lon="7.27843">
        <ele>849</ele>
        <time>2012-04-22T11:45:53Z</time>
      </trkpt>
      <trkpt lat="43.82831" lon="7.27847">
        <ele>849</ele>
        <time>2012-04-22T11:45:59Z</time>
      </trkpt>
      <trkpt lat="43.82812" lon="7.27847">
        <ele>849</ele>
        <time>2012-04-22T11:46:05Z</time>
      </trkpt>
      <trkpt lat="43.82787" lon="7.27847">
        <ele>849</ele>
        <time>2012-04-22T11:46:11Z</time>
      </trkpt>
      <trkpt lat="43.82744" lon="7.27857">
        <ele>849</ele>
        <time>2012-04-22T11:46:17Z</time>
      </trkpt>
      <trkpt lat="43.82709" lon="7.2786">
        <ele>847</ele>
        <time>2012-04-22T11:46:23Z</time>
      </trkpt>
      <trkpt lat="43.82686" lon="7.27869">
        <ele>846</ele>
        <time>2012-04-22T11:46:29Z</time>
      </trkpt>
      <trkpt lat="43.8266" lon="7.27874">
        <ele>846</ele>
        <time>2012-04-22T11:46:36Z</time>
      </trkpt>
      <trkpt lat="43.82632" lon="7.27882">
        <ele>846</ele>
        <time>2012-04-22T11:46:42Z</time>
      </trkpt>
      <trkpt lat="43.82616" lon="7.27891">
        <ele>844</ele>
        <time>2012-04-22T11:46:48Z</time>
      </trkpt>
      <trkpt lat="43.82589" lon="7.27912">
        <ele>841</ele>
        <time>2012-04-22T11:46:54Z</time>
      </trkpt>
      <trkpt lat="43.82575" lon="7.27921">
        <ele>838</ele>
        <time>2012-04-22T11:47:00Z</time>
      </trkpt>
      <trkpt lat="43.82575" lon="7.27919">
        <ele>836</ele>
        <time>2012-04-22T11:47:10Z</time>
      </trkpt>
      <trkpt lat="43.82578" lon="7.27918">
        <ele>836</ele>
        <time>2012-04-22T11:47:16Z</time>
      </trkpt>
      <trkpt lat="43.82584" lon="7.27915">
        <ele>836</ele>
        <time>2012-04-22T11:47:24Z</time>
      </trkpt>
      <trkpt lat="43.8259" lon="7.2791">
        <ele>836</ele>
        <time>2012-04-22T11:47:30Z</time>
      </trkpt>
      <trkpt lat="43.82594" lon="7.27905">
        <ele>836</ele>
        <time>2012-04-22T11:47:39Z</time>
      </trkpt>
      <trkpt lat="43.82592" lon="7.27908">
        <ele>836</ele>
        <time>2012-04-22T11:48:26Z</time>
      </trkpt>
      <trkpt lat="43.82585" lon="7.27915">
        <ele>836</ele>
        <time>2012-04-22T11:48:33Z</time>
      </trkpt>
      <trkpt lat="43.82578" lon="7.2792">
        <ele>836</ele>
        <time>2012-04-22T11:48:40Z</time>
      </trkpt>
      <trkpt lat="43.82576" lon="7.27921">
        <ele>835</ele>
        <time>2012-04-22T11:48:50Z</time>
      </trkpt>
      <trkpt lat="43.82573" lon="7.27923">
        <ele>835</ele>
        <time>2012-04-22T11:49:03Z</time>
      </trkpt>
      <trkpt lat="43.82563" lon="7.27931">
        <ele>835</ele>
        <time>2012-04-22T11:49:11Z</time>
      </trkpt>
      <trkpt lat="43.8253" lon="7.27939">
        <ele>835</ele>
        <time>2012-04-22T11:49:18Z</time>
      </trkpt>
      <trkpt lat="43.82522" lon="7.27941">
        <ele>835</ele>
        <time>2012-04-22T11:49:24Z</time>
      </trkpt>
      <trkpt lat="43.82501" lon="7.27938">
        <ele>835</ele>
        <time>2012-04-22T11:49:31Z</time>
      </trkpt>
      <trkpt lat="43.82481" lon="7.27947">
        <ele>835</ele>
        <time>2012-04-22T11:49:38Z</time>
      </trkpt>
      <trkpt lat="43.82474" lon="7.2795">
        <ele>835</ele>
        <time>2012-04-22T11:49:45Z</time>
      </trkpt>
      <trkpt lat="43.82463" lon="7.27955">
        <ele>835</ele>
        <time>2012-04-22T11:49:51Z</time>
      </trkpt>
      <trkpt lat="43.8246" lon="7.27958">
        <ele>836</ele>
        <time>2012-04-22T11:50:09Z</time>
      </trkpt>
      <trkpt lat="43.82454" lon="7.27964">
        <ele>836</ele>
        <time>2012-04-22T11:50:14Z</time>
      </trkpt>
      <trkpt lat="43.82447" lon="7.27971">
        <ele>836</ele>
        <time>2012-04-22T11:50:20Z</time>
      </trkpt>
      <trkpt lat="43.82431" lon="7.27982">
        <ele>836</ele>
        <time>2012-04-22T11:50:26Z</time>
      </trkpt>
      <trkpt lat="43.82415" lon="7.27992">
        <ele>836</ele>
        <time>2012-04-22T11:50:32Z</time>
      </trkpt>
      <trkpt lat="43.82401" lon="7.28005">
        <ele>836</ele>
        <time>2012-04-22T11:50:38Z</time>
      </trkpt>
      <trkpt lat="43.82387" lon="7.28015">
        <ele>836</ele>
        <time>2012-04-22T11:50:44Z</time>
      </trkpt>
      <trkpt lat="43.8237" lon="7.28029">
        <ele>836</ele>
        <time>2012-04-22T11:50:50Z</time>
      </trkpt>
      <trkpt lat="43.8235" lon="7.28046">
        <ele>836</ele>
        <time>2012-04-22T11:50:56Z</time>
      </trkpt>
      <trkpt lat="43.8233" lon="7.28063">
        <ele>836</ele>
        <time>2012-04-22T11:51:02Z</time>
      </trkpt>
      <trkpt lat="43.82308" lon="7.28082">
        <ele>836</ele>
        <time>2012-04-22T11:51:08Z</time>
      </trkpt>
      <trkpt lat="43.82289" lon="7.28097">
        <ele>836</ele>
        <time>2012-04-22T11:51:14Z</time>
      </trkpt>
      <trkpt lat="43.82267" lon="7.28108">
        <ele>836</ele>
        <time>2012-04-22T11:51:21Z</time>
      </trkpt>
      <trkpt lat="43.82248" lon="7.28125">
        <ele>836</ele>
        <time>2012-04-22T11:51:28Z</time>
      </trkpt>
      <trkpt lat="43.8223" lon="7.28139">
        <ele>836</ele>
        <time>2012-04-22T11:51:34Z</time>
      </trkpt>
      <trkpt lat="43.82209" lon="7.2817">
        <ele>836</ele>
        <time>2012-04-22T11:51:41Z</time>
      </trkpt>
      <trkpt lat="43.82207" lon="7.28171">
        <ele>836</ele>
        <time>2012-04-22T11:51:53Z</time>
      </trkpt>
      <trkpt lat="43.82207" lon="7.28169">
        <ele>836</ele>
        <time>2012-04-22T11:52:08Z</time>
      </trkpt>
      <trkpt lat="43.8221" lon="7.28167">
        <ele>836</ele>
        <time>2012-04-22T11:52:15Z</time>
      </trkpt>
      <trkpt lat="43.82219" lon="7.28157">
        <ele>836</ele>
        <time>2012-04-22T11:52:20Z</time>
      </trkpt>
      <trkpt lat="43.82224" lon="7.28149">
        <ele>835</ele>
        <time>2012-04-22T11:52:27Z</time>
      </trkpt>
      <trkpt lat="43.82229" lon="7.28141">
        <ele>833</ele>
        <time>2012-04-22T11:52:36Z</time>
      </trkpt>
      <trkpt lat="43.82238" lon="7.28131">
        <ele>832</ele>
        <time>2012-04-22T11:52:45Z</time>
      </trkpt>
      <trkpt lat="43.82256" lon="7.28118">
        <ele>832</ele>
        <time>2012-04-22T11:52:51Z</time>
      </trkpt>
      <trkpt lat="43.82277" lon="7.28101">
        <ele>832</ele>
        <time>2012-04-22T11:52:58Z</time>
      </trkpt>
      <trkpt lat="43.82303" lon="7.28083">
        <ele>832</ele>
        <time>2012-04-22T11:53:06Z</time>
      </trkpt>
      <trkpt lat="43.82332" lon="7.28059">
        <ele>832</ele>
        <time>2012-04-22T11:53:11Z</time>
      </trkpt>
      <trkpt lat="43.82347" lon="7.28044">
        <ele>832</ele>
        <time>2012-04-22T11:53:17Z</time>
      </trkpt>
      <trkpt lat="43.82363" lon="7.28029">
        <ele>832</ele>
        <time>2012-04-22T11:53:23Z</time>
      </trkpt>
      <trkpt lat="43.82375" lon="7.28019">
        <ele>832</ele>
        <time>2012-04-22T11:53:30Z</time>
      </trkpt>
      <trkpt lat="43.82391" lon="7.28007">
        <ele>832</ele>
        <time>2012-04-22T11:53:36Z</time>
      </trkpt>
      <trkpt lat="43.82408" lon="7.27995">
        <ele>832</ele>
        <time>2012-04-22T11:53:42Z</time>
      </trkpt>
      <trkpt lat="43.82423" lon="7.2798">
        <ele>832</ele>
        <time>2012-04-22T11:53:48Z</time>
      </trkpt>
      <trkpt lat="43.8244" lon="7.2797">
        <ele>832</ele>
        <time>2012-04-22T11:53:54Z</time>
      </trkpt>
      <trkpt lat="43.82455" lon="7.27959">
        <ele>832</ele>
        <time>2012-04-22T11:54:00Z</time>
      </trkpt>
      <trkpt lat="43.8247" lon="7.27948">
        <ele>832</ele>
        <time>2012-04-22T11:54:06Z</time>
      </trkpt>
      <trkpt lat="43.82489" lon="7.27942">
        <ele>832</ele>
        <time>2012-04-22T11:54:13Z</time>
      </trkpt>
      <trkpt lat="43.82514" lon="7.27938">
        <ele>832</ele>
        <time>2012-04-22T11:54:20Z</time>
      </trkpt>
      <trkpt lat="43.8253" lon="7.27939">
        <ele>832</ele>
        <time>2012-04-22T11:54:26Z</time>
      </trkpt>
      <trkpt lat="43.82547" lon="7.27935">
        <ele>832</ele>
        <time>2012-04-22T11:54:32Z</time>
      </trkpt>
      <trkpt lat="43.8256" lon="7.27931">
        <ele>832</ele>
        <time>2012-04-22T11:54:40Z</time>
      </trkpt>
      <trkpt lat="43.82577" lon="7.27919">
        <ele>832</ele>
        <time>2012-04-22T11:54:47Z</time>
      </trkpt>
      <trkpt lat="43.82589" lon="7.27909">
        <ele>832</ele>
        <time>2012-04-22T11:54:54Z</time>
      </trkpt>
      <trkpt lat="43.82603" lon="7.27898">
        <ele>832</ele>
        <time>2012-04-22T11:55:01Z</time>
      </trkpt>
      <trkpt lat="43.82616" lon="7.2789">
        <ele>832</ele>
        <time>2012-04-22T11:55:07Z</time>
      </trkpt>
      <trkpt lat="43.82627" lon="7.27885">
        <ele>832</ele>
        <time>2012-04-22T11:55:13Z</time>
      </trkpt>
      <trkpt lat="43.82632" lon="7.27882">
        <ele>832</ele>
        <time>2012-04-22T11:55:19Z</time>
      </trkpt>
      <trkpt lat="43.82637" lon="7.27878">
        <ele>834</ele>
        <time>2012-04-22T11:55:27Z</time>
      </trkpt>
      <trkpt lat="43.82642" lon="7.27876">
        <ele>836</ele>
        <time>2012-04-22T11:55:35Z</time>
      </trkpt>
      <trkpt lat="43.82645" lon="7.27876">
        <ele>836</ele>
        <time>2012-04-22T11:55:40Z</time>
      </trkpt>
      <trkpt lat="43.82651" lon="7.27877">
        <ele>836</ele>
        <time>2012-04-22T11:55:47Z</time>
      </trkpt>
      <trkpt lat="43.82658" lon="7.27876">
        <ele>836</ele>
        <time>2012-04-22T11:55:54Z</time>
      </trkpt>
      <trkpt lat="43.82666" lon="7.27874">
        <ele>836</ele>
        <time>2012-04-22T11:56:00Z</time>
      </trkpt>
      <trkpt lat="43.82669" lon="7.27873">
        <ele>836</ele>
        <time>2012-04-22T11:56:07Z</time>
      </trkpt>
      <trkpt lat="43.82676" lon="7.27872">
        <ele>837</ele>
        <time>2012-04-22T11:56:15Z</time>
      </trkpt>
      <trkpt lat="43.8268" lon="7.2787">
        <ele>837</ele>
        <time>2012-04-22T11:56:23Z</time>
      </trkpt>
      <trkpt lat="43.82677" lon="7.27868">
        <ele>838</ele>
        <time>2012-04-22T11:56:31Z</time>
      </trkpt>
      <trkpt lat="43.82679" lon="7.27863">
        <ele>840</ele>
        <time>2012-04-22T11:56:39Z</time>
      </trkpt>
      <trkpt lat="43.82685" lon="7.27858">
        <ele>840</ele>
        <time>2012-04-22T11:56:47Z</time>
      </trkpt>
      <trkpt lat="43.82693" lon="7.27856">
        <ele>840</ele>
        <time>2012-04-22T11:56:55Z</time>
      </trkpt>
      <trkpt lat="43.82696" lon="7.27855">
        <ele>840</ele>
        <time>2012-04-22T11:57:04Z</time>
      </trkpt>
      <trkpt lat="43.82702" lon="7.27849">
        <ele>840</ele>
        <time>2012-04-22T11:57:12Z</time>
      </trkpt>
      <trkpt lat="43.82708" lon="7.27845">
        <ele>840</ele>
        <time>2012-04-22T11:57:21Z</time>
      </trkpt>
      <trkpt lat="43.82713" lon="7.2784">
        <ele>840</ele>
        <time>2012-04-22T11:57:27Z</time>
      </trkpt>
      <trkpt lat="43.82715" lon="7.27834">
        <ele>840</ele>
        <time>2012-04-22T11:57:36Z</time>
      </trkpt>
      <trkpt lat="43.82716" lon="7.27825">
        <ele>840</ele>
        <time>2012-04-22T11:57:43Z</time>
      </trkpt>
      <trkpt lat="43.82719" lon="7.27825">
        <ele>841</ele>
        <time>2012-04-22T11:57:50Z</time>
      </trkpt>
      <trkpt lat="43.82729" lon="7.27822">
        <ele>842</ele>
        <time>2012-04-22T11:57:55Z</time>
      </trkpt>
      <trkpt lat="43.82731" lon="7.27819">
        <ele>845</ele>
        <time>2012-04-22T11:58:13Z</time>
      </trkpt>
      <trkpt lat="43.82729" lon="7.27818">
        <ele>846</ele>
        <time>2012-04-22T11:58:31Z</time>
      </trkpt>
      <trkpt lat="43.82728" lon="7.27816">
        <ele>848</ele>
        <time>2012-04-22T11:58:39Z</time>
      </trkpt>
      <trkpt lat="43.82729" lon="7.27818">
        <ele>850</ele>
        <time>2012-04-22T11:58:55Z</time>
      </trkpt>
      <trkpt lat="43.82727" lon="7.27822">
        <ele>852</ele>
        <time>2012-04-22T11:59:02Z</time>
      </trkpt>
      <trkpt lat="43.82729" lon="7.27824">
        <ele>856</ele>
        <time>2012-04-22T11:59:11Z</time>
      </trkpt>
      <trkpt lat="43.8273" lon="7.27821">
        <ele>856</ele>
        <time>2012-04-22T11:59:50Z</time>
      </trkpt>
      <trkpt lat="43.82729" lon="7.27813">
        <ele>856</ele>
        <time>2012-04-22T11:59:58Z</time>
      </trkpt>
      <trkpt lat="43.82723" lon="7.27794">
        <ele>854</ele>
        <time>2012-04-22T12:00:05Z</time>
      </trkpt>
      <trkpt lat="43.82719" lon="7.27776">
        <ele>853</ele>
        <time>2012-04-22T12:00:10Z</time>
      </trkpt>
      <trkpt lat="43.82716" lon="7.27751">
        <ele>853</ele>
        <time>2012-04-22T12:00:18Z</time>
      </trkpt>
      <trkpt lat="43.82712" lon="7.27731">
        <ele>853</ele>
        <time>2012-04-22T12:00:27Z</time>
      </trkpt>
      <trkpt lat="43.82714" lon="7.27711">
        <ele>853</ele>
        <time>2012-04-22T12:00:35Z</time>
      </trkpt>
      <trkpt lat="43.82703" lon="7.277">
        <ele>853</ele>
        <time>2012-04-22T12:00:42Z</time>
      </trkpt>
      <trkpt lat="43.82684" lon="7.27702">
        <ele>853</ele>
        <time>2012-04-22T12:00:49Z</time>
      </trkpt>
      <trkpt lat="43.82671" lon="7.27706">
        <ele>852</ele>
        <time>2012-04-22T12:00:55Z</time>
      </trkpt>
      <trkpt lat="43.82658" lon="7.27711">
        <ele>852</ele>
        <time>2012-04-22T12:01:02Z</time>
      </trkpt>
      <trkpt lat="43.82655" lon="7.27712">
        <ele>852</ele>
        <time>2012-04-22T12:01:11Z</time>
      </trkpt>
      <trkpt lat="43.8265" lon="7.27711">
        <ele>852</ele>
        <time>2012-04-22T12:01:19Z</time>
      </trkpt>
      <trkpt lat="43.82645" lon="7.27707">
        <ele>852</ele>
        <time>2012-04-22T12:01:26Z</time>
      </trkpt>
      <trkpt lat="43.82639" lon="7.2771">
        <ele>855</ele>
        <time>2012-04-22T12:01:32Z</time>
      </trkpt>
      <trkpt lat="43.82632" lon="7.27715">
        <ele>857</ele>
        <time>2012-04-22T12:01:39Z</time>
      </trkpt>
      <trkpt lat="43.82627" lon="7.2771">
        <ele>857</ele>
        <time>2012-04-22T12:01:47Z</time>
      </trkpt>
      <trkpt lat="43.82618" lon="7.27708">
        <ele>857</ele>
        <time>2012-04-22T12:01:55Z</time>
      </trkpt>
      <trkpt lat="43.82613" lon="7.27704">
        <ele>858</ele>
        <time>2012-04-22T12:02:06Z</time>
      </trkpt>
      <trkpt lat="43.8261" lon="7.27704">
        <ele>859</ele>
        <time>2012-04-22T12:02:12Z</time>
      </trkpt>
      <trkpt lat="43.82601" lon="7.27698">
        <ele>860</ele>
        <time>2012-04-22T12:02:20Z</time>
      </trkpt>
      <trkpt lat="43.82592" lon="7.27695">
        <ele>860</ele>
        <time>2012-04-22T12:02:27Z</time>
      </trkpt>
      <trkpt lat="43.82585" lon="7.27692">
        <ele>860</ele>
        <time>2012-04-22T12:02:35Z</time>
      </trkpt>
      <trkpt lat="43.82582" lon="7.27689">
        <ele>861</ele>
        <time>2012-04-22T12:02:42Z</time>
      </trkpt>
      <trkpt lat="43.82575" lon="7.27689">
        <ele>862</ele>
        <time>2012-04-22T12:02:50Z</time>
      </trkpt>
      <trkpt lat="43.82568" lon="7.27687">
        <ele>862</ele>
        <time>2012-04-22T12:02:58Z</time>
      </trkpt>
      <trkpt lat="43.82561" lon="7.27687">
        <ele>862</ele>
        <time>2012-04-22T12:03:06Z</time>
      </trkpt>
      <trkpt lat="43.82557" lon="7.27687">
        <ele>864</ele>
        <time>2012-04-22T12:03:15Z</time>
      </trkpt>
      <trkpt lat="43.82556" lon="7.27688">
        <ele>868</ele>
        <time>2012-04-22T12:03:25Z</time>
      </trkpt>
      <trkpt lat="43.82555" lon="7.2769">
        <ele>870</ele>
        <time>2012-04-22T12:03:31Z</time>
      </trkpt>
      <trkpt lat="43.8255" lon="7.27702">
        <ele>875</ele>
        <time>2012-04-22T12:03:40Z</time>
      </trkpt>
      <trkpt lat="43.82545" lon="7.27705">
        <ele>877</ele>
        <time>2012-04-22T12:03:47Z</time>
      </trkpt>
      <trkpt lat="43.82538" lon="7.27708">
        <ele>879</ele>
        <time>2012-04-22T12:03:52Z</time>
      </trkpt>
      <trkpt lat="43.82533" lon="7.27713">
        <ele>882</ele>
        <time>2012-04-22T12:04:01Z</time>
      </trkpt>
      <trkpt lat="43.82529" lon="7.27718">
        <ele>883</ele>
        <time>2012-04-22T12:04:10Z</time>
      </trkpt>
      <trkpt lat="43.82525" lon="7.27724">
        <ele>884</ele>
        <time>2012-04-22T12:04:20Z</time>
      </trkpt>
      <trkpt lat="43.82523" lon="7.27727">
        <ele>884</ele>
        <time>2012-04-22T12:04:26Z</time>
      </trkpt>
      <trkpt lat="43.82517" lon="7.27732">
        <ele>884</ele>
        <time>2012-04-22T12:04:35Z</time>
      </trkpt>
      <trkpt lat="43.82513" lon="7.27737">
        <ele>884</ele>
        <time>2012-04-22T12:04:44Z</time>
      </trkpt>
      <trkpt lat="43.82509" lon="7.2774">
        <ele>884</ele>
        <time>2012-04-22T12:04:50Z</time>
      </trkpt>
      <trkpt lat="43.82495" lon="7.27746">
        <ele>884</ele>
        <time>2012-04-22T12:04:58Z</time>
      </trkpt>
      <trkpt lat="43.82488" lon="7.27753">
        <ele>884</ele>
        <time>2012-04-22T12:05:05Z</time>
      </trkpt>
      <trkpt lat="43.82476" lon="7.27764">
        <ele>884</ele>
        <time>2012-04-22T12:05:11Z</time>
      </trkpt>
      <trkpt lat="43.82453" lon="7.27776">
        <ele>884</ele>
        <time>2012-04-22T12:05:18Z</time>
      </trkpt>
      <trkpt lat="43.8244" lon="7.27784">
        <ele>884</ele>
        <time>2012-04-22T12:05:24Z</time>
      </trkpt>
      <trkpt lat="43.82429" lon="7.27778">
        <ele>884</ele>
        <time>2012-04-22T12:05:33Z</time>
      </trkpt>
      <trkpt lat="43.82412" lon="7.2778">
        <ele>884</ele>
        <time>2012-04-22T12:05:42Z</time>
      </trkpt>
      <trkpt lat="43.82395" lon="7.27784">
        <ele>884</ele>
        <time>2012-04-22T12:05:47Z</time>
      </trkpt>
      <trkpt lat="43.82378" lon="7.27775">
        <ele>884</ele>
        <time>2012-04-22T12:05:56Z</time>
      </trkpt>
      <trkpt lat="43.82358" lon="7.27767">
        <ele>884</ele>
        <time>2012-04-22T12:06:03Z</time>
      </trkpt>
      <trkpt lat="43.82351" lon="7.27775">
        <ele>882</ele>
        <time>2012-04-22T12:06:10Z</time>
      </trkpt>
      <trkpt lat="43.82323" lon="7.27778">
        <ele>881</ele>
        <time>2012-04-22T12:06:17Z</time>
      </trkpt>
      <trkpt lat="43.82315" lon="7.27779">
        <ele>881</ele>
        <time>2012-04-22T12:06:23Z</time>
      </trkpt>
      <trkpt lat="43.82295" lon="7.27777">
        <ele>880</ele>
        <time>2012-04-22T12:06:31Z</time>
      </trkpt>
      <trkpt lat="43.82273" lon="7.27775">
        <ele>878</ele>
        <time>2012-04-22T12:06:39Z</time>
      </trkpt>
      <trkpt lat="43.82242" lon="7.27782">
        <ele>875</ele>
        <time>2012-04-22T12:06:45Z</time>
      </trkpt>
      <trkpt lat="43.82227" lon="7.27789">
        <ele>872</ele>
        <time>2012-04-22T12:06:51Z</time>
      </trkpt>
      <trkpt lat="43.8221" lon="7.27796">
        <ele>869</ele>
        <time>2012-04-22T12:06:57Z</time>
      </trkpt>
      <trkpt lat="43.82178" lon="7.27806">
        <ele>867</ele>
        <time>2012-04-22T12:07:05Z</time>
      </trkpt>
      <trkpt lat="43.8216" lon="7.27807">
        <ele>865</ele>
        <time>2012-04-22T12:07:13Z</time>
      </trkpt>
      <trkpt lat="43.8214" lon="7.2783">
        <ele>865</ele>
        <time>2012-04-22T12:07:20Z</time>
      </trkpt>
      <trkpt lat="43.82123" lon="7.27849">
        <ele>865</ele>
        <time>2012-04-22T12:07:26Z</time>
      </trkpt>
      <trkpt lat="43.82108" lon="7.27869">
        <ele>865</ele>
        <time>2012-04-22T12:07:32Z</time>
      </trkpt>
      <trkpt lat="43.82087" lon="7.2788">
        <ele>865</ele>
        <time>2012-04-22T12:07:39Z</time>
      </trkpt>
      <trkpt lat="43.82071" lon="7.27897">
        <ele>865</ele>
        <time>2012-04-22T12:07:47Z</time>
      </trkpt>
      <trkpt lat="43.82071" lon="7.27901">
        <ele>868</ele>
        <time>2012-04-22T12:07:58Z</time>
      </trkpt>
      <trkpt lat="43.82069" lon="7.27902">
        <ele>868</ele>
        <time>2012-04-22T12:08:05Z</time>
      </trkpt>
      <trkpt lat="43.82066" lon="7.27906">
        <ele>868</ele>
        <time>2012-04-22T12:08:12Z</time>
      </trkpt>
      <trkpt lat="43.82058" lon="7.27921">
        <ele>868</ele>
        <time>2012-04-22T12:08:20Z</time>
      </trkpt>
      <trkpt lat="43.82051" lon="7.27925">
        <ele>868</ele>
        <time>2012-04-22T12:08:27Z</time>
      </trkpt>
      <trkpt lat="43.8205" lon="7.27924">
        <ele>868</ele>
        <time>2012-04-22T12:08:35Z</time>
      </trkpt>
      <trkpt lat="43.82049" lon="7.27921">
        <ele>868</ele>
        <time>2012-04-22T12:08:43Z</time>
      </trkpt>
      <trkpt lat="43.82048" lon="7.27918">
        <ele>873</ele>
        <time>2012-04-22T12:09:01Z</time>
      </trkpt>
      <trkpt lat="43.8205" lon="7.2792">
        <ele>873</ele>
        <time>2012-04-22T12:09:09Z</time>
      </trkpt>
      <trkpt lat="43.82052" lon="7.27922">
        <ele>873</ele>
        <time>2012-04-22T12:09:18Z</time>
      </trkpt>
      <trkpt lat="43.82053" lon="7.27924">
        <ele>871</ele>
        <time>2012-04-22T12:09:36Z</time>
      </trkpt>
      <trkpt lat="43.82052" lon="7.27923">
        <ele>871</ele>
        <time>2012-04-22T12:09:42Z</time>
      </trkpt>
      <trkpt lat="43.82049" lon="7.27924">
        <ele>871</ele>
        <time>2012-04-22T12:10:08Z</time>
      </trkpt>
      <trkpt lat="43.82048" lon="7.27924">
        <ele>871</ele>
        <time>2012-04-22T12:10:14Z</time>
      </trkpt>
      <trkpt lat="43.82038" lon="7.2793">
        <ele>871</ele>
        <time>2012-04-22T12:10:20Z</time>
      </trkpt>
      <trkpt lat="43.82025" lon="7.27942">
        <ele>870</ele>
        <time>2012-04-22T12:10:26Z</time>
      </trkpt>
      <trkpt lat="43.82019" lon="7.27943">
        <ele>870</ele>
        <time>2012-04-22T12:10:35Z</time>
      </trkpt>
      <trkpt lat="43.82008" lon="7.27954">
        <ele>870</ele>
        <time>2012-04-22T12:10:43Z</time>
      </trkpt>
      <trkpt lat="43.82002" lon="7.27968">
        <ele>870</ele>
        <time>2012-04-22T12:10:48Z</time>
      </trkpt>
      <trkpt lat="43.81995" lon="7.27984">
        <ele>870</ele>
        <time>2012-04-22T12:10:55Z</time>
      </trkpt>
      <trkpt lat="43.81986" lon="7.27995">
        <ele>870</ele>
        <time>2012-04-22T12:11:03Z</time>
      </trkpt>
      <trkpt lat="43.81983" lon="7.28001">
        <ele>870</ele>
        <time>2012-04-22T12:11:11Z</time>
      </trkpt>
      <trkpt lat="43.81981" lon="7.28012">
        <ele>871</ele>
        <time>2012-04-22T12:11:18Z</time>
      </trkpt>
      <trkpt lat="43.81978" lon="7.28018">
        <ele>872</ele>
        <time>2012-04-22T12:11:27Z</time>
      </trkpt>
      <trkpt lat="43.81974" lon="7.28026">
        <ele>872</ele>
        <time>2012-04-22T12:11:34Z</time>
      </trkpt>
      <trkpt lat="43.81971" lon="7.28028">
        <ele>874</ele>
        <time>2012-04-22T12:11:42Z</time>
      </trkpt>
      <trkpt lat="43.81969" lon="7.28036">
        <ele>876</ele>
        <time>2012-04-22T12:11:51Z</time>
      </trkpt>
      <trkpt lat="43.81965" lon="7.2804">
        <ele>877</ele>
        <time>2012-04-22T12:12:00Z</time>
      </trkpt>
      <trkpt lat="43.81957" lon="7.28046">
        <ele>877</ele>
        <time>2012-04-22T12:12:08Z</time>
      </trkpt>
      <trkpt lat="43.81947" lon="7.28057">
        <ele>878</ele>
        <time>2012-04-22T12:12:15Z</time>
      </trkpt>
      <trkpt lat="43.81938" lon="7.2807">
        <ele>879</ele>
        <time>2012-04-22T12:12:22Z</time>
      </trkpt>
      <trkpt lat="43.81924" lon="7.28081">
        <ele>880</ele>
        <time>2012-04-22T12:12:30Z</time>
      </trkpt>
      <trkpt lat="43.81911" lon="7.28094">
        <ele>882</ele>
        <time>2012-04-22T12:12:36Z</time>
      </trkpt>
      <trkpt lat="43.81898" lon="7.28108">
        <ele>882</ele>
        <time>2012-04-22T12:12:42Z</time>
      </trkpt>
      <trkpt lat="43.81875" lon="7.28124">
        <ele>882</ele>
        <time>2012-04-22T12:12:49Z</time>
      </trkpt>
      <trkpt lat="43.81863" lon="7.28136">
        <ele>883</ele>
        <time>2012-04-22T12:12:58Z</time>
      </trkpt>
      <trkpt lat="43.81829" lon="7.28143">
        <ele>883</ele>
        <time>2012-04-22T12:13:04Z</time>
      </trkpt>
      <trkpt lat="43.81814" lon="7.2815">
        <ele>883</ele>
        <time>2012-04-22T12:13:11Z</time>
      </trkpt>
      <trkpt lat="43.81798" lon="7.2815">
        <ele>883</ele>
        <time>2012-04-22T12:13:18Z</time>
      </trkpt>
      <trkpt lat="43.8179" lon="7.28152">
        <ele>883</ele>
        <time>2012-04-22T12:13:24Z</time>
      </trkpt>
      <trkpt lat="43.81774" lon="7.28148">
        <ele>883</ele>
        <time>2012-04-22T12:13:33Z</time>
      </trkpt>
      <trkpt lat="43.81763" lon="7.2815">
        <ele>884</ele>
        <time>2012-04-22T12:13:42Z</time>
      </trkpt>
      <trkpt lat="43.8175" lon="7.28154">
        <ele>885</ele>
        <time>2012-04-22T12:13:49Z</time>
      </trkpt>
      <trkpt lat="43.81734" lon="7.28157">
        <ele>886</ele>
        <time>2012-04-22T12:13:55Z</time>
      </trkpt>
      <trkpt lat="43.81726" lon="7.28154">
        <ele>887</ele>
        <time>2012-04-22T12:14:02Z</time>
      </trkpt>
      <trkpt lat="43.81709" lon="7.28155">
        <ele>888</ele>
        <time>2012-04-22T12:14:09Z</time>
      </trkpt>
      <trkpt lat="43.81693" lon="7.28158">
        <ele>888</ele>
        <time>2012-04-22T12:14:15Z</time>
      </trkpt>
      <trkpt lat="43.81673" lon="7.28172">
        <ele>888</ele>
        <time>2012-04-22T12:14:25Z</time>
      </trkpt>
      <trkpt lat="43.81652" lon="7.2818">
        <ele>888</ele>
        <time>2012-04-22T12:14:32Z</time>
      </trkpt>
      <trkpt lat="43.81638" lon="7.28186">
        <ele>886</ele>
        <time>2012-04-22T12:14:40Z</time>
      </trkpt>
      <trkpt lat="43.81628" lon="7.28184">
        <ele>884</ele>
        <time>2012-04-22T12:14:46Z</time>
      </trkpt>
      <trkpt lat="43.81592" lon="7.28196">
        <ele>879</ele>
        <time>2012-04-22T12:14:56Z</time>
      </trkpt>
      <trkpt lat="43.81569" lon="7.28216">
        <ele>875</ele>
        <time>2012-04-22T12:15:03Z</time>
      </trkpt>
      <trkpt lat="43.81546" lon="7.28231">
        <ele>873</ele>
        <time>2012-04-22T12:15:09Z</time>
      </trkpt>
      <trkpt lat="43.81517" lon="7.28254">
        <ele>873</ele>
        <time>2012-04-22T12:15:15Z</time>
      </trkpt>
      <trkpt lat="43.81503" lon="7.28256">
        <ele>872</ele>
        <time>2012-04-22T12:15:23Z</time>
      </trkpt>
      <trkpt lat="43.81464" lon="7.28255">
        <ele>872</ele>
        <time>2012-04-22T12:15:30Z</time>
      </trkpt>
      <trkpt lat="43.81448" lon="7.28254">
        <ele>871</ele>
        <time>2012-04-22T12:15:37Z</time>
      </trkpt>
      <trkpt lat="43.81424" lon="7.2826">
        <ele>869</ele>
        <time>2012-04-22T12:15:43Z</time>
      </trkpt>
      <trkpt lat="43.81424" lon="7.28262">
        <ele>868</ele>
        <time>2012-04-22T12:15:53Z</time>
      </trkpt>
      <trkpt lat="43.81419" lon="7.28263">
        <ele>868</ele>
        <time>2012-04-22T12:16:01Z</time>
      </trkpt>
      <trkpt lat="43.81415" lon="7.28264">
        <ele>868</ele>
        <time>2012-04-22T12:16:09Z</time>
      </trkpt>
      <trkpt lat="43.81408" lon="7.28265">
        <ele>868</ele>
        <time>2012-04-22T12:16:16Z</time>
      </trkpt>
      <trkpt lat="43.81401" lon="7.28264">
        <ele>868</ele>
        <time>2012-04-22T12:16:25Z</time>
      </trkpt>
      <trkpt lat="43.81397" lon="7.28258">
        <ele>868</ele>
        <time>2012-04-22T12:16:34Z</time>
      </trkpt>
      <trkpt lat="43.81396" lon="7.2825">
        <ele>868</ele>
        <time>2012-04-22T12:16:41Z</time>
      </trkpt>
      <trkpt lat="43.8139" lon="7.28245">
        <ele>868</ele>
        <time>2012-04-22T12:16:49Z</time>
      </trkpt>
      <trkpt lat="43.81389" lon="7.28243">
        <ele>869</ele>
        <time>2012-04-22T12:16:58Z</time>
      </trkpt>
      <trkpt lat="43.8139" lon="7.28236">
        <ele>869</ele>
        <time>2012-04-22T12:17:06Z</time>
      </trkpt>
      <trkpt lat="43.8139" lon="7.28231">
        <ele>869</ele>
        <time>2012-04-22T12:17:16Z</time>
      </trkpt>
      <trkpt lat="43.81388" lon="7.28231">
        <ele>869</ele>
        <time>2012-04-22T12:17:24Z</time>
      </trkpt>
      <trkpt lat="43.81387" lon="7.28229">
        <ele>869</ele>
        <time>2012-04-22T12:17:31Z</time>
      </trkpt>
      <trkpt lat="43.81386" lon="7.28228">
        <ele>869</ele>
        <time>2012-04-22T12:17:39Z</time>
      </trkpt>
      <trkpt lat="43.81386" lon="7.28229">
        <ele>869</ele>
        <time>2012-04-22T12:17:55Z</time>
      </trkpt>
      <trkpt lat="43.81387" lon="7.28229">
        <ele>869</ele>
        <time>2012-04-22T12:18:12Z</time>
      </trkpt>
      <trkpt lat="43.81388" lon="7.28231">
        <ele>866</ele>
        <time>2012-04-22T12:18:27Z</time>
      </trkpt>
      <trkpt lat="43.81387" lon="7.2823">
        <ele>866</ele>
        <time>2012-04-22T12:18:38Z</time>
      </trkpt>
      <trkpt lat="43.81385" lon="7.2823">
        <ele>866</ele>
        <time>2012-04-22T12:19:43Z</time>
      </trkpt>
      <trkpt lat="43.81381" lon="7.28228">
        <ele>866</ele>
        <time>2012-04-22T12:19:50Z</time>
      </trkpt>
      <trkpt lat="43.81361" lon="7.28211">
        <ele>865</ele>
        <time>2012-04-22T12:19:58Z</time>
      </trkpt>
      <trkpt lat="43.81343" lon="7.28202">
        <ele>862</ele>
        <time>2012-04-22T12:20:05Z</time>
      </trkpt>
      <trkpt lat="43.81335" lon="7.28173">
        <ele>859</ele>
        <time>2012-04-22T12:20:13Z</time>
      </trkpt>
      <trkpt lat="43.81331" lon="7.28162">
        <ele>857</ele>
        <time>2012-04-22T12:20:19Z</time>
      </trkpt>
      <trkpt lat="43.81328" lon="7.28149">
        <ele>855</ele>
        <time>2012-04-22T12:20:28Z</time>
      </trkpt>
      <trkpt lat="43.81324" lon="7.28147">
        <ele>855</ele>
        <time>2012-04-22T12:20:35Z</time>
      </trkpt>
      <trkpt lat="43.81319" lon="7.28144">
        <ele>854</ele>
        <time>2012-04-22T12:20:43Z</time>
      </trkpt>
      <trkpt lat="43.81312" lon="7.28144">
        <ele>853</ele>
        <time>2012-04-22T12:20:51Z</time>
      </trkpt>
      <trkpt lat="43.81309" lon="7.28123">
        <ele>852</ele>
        <time>2012-04-22T12:20:58Z</time>
      </trkpt>
      <trkpt lat="43.8131" lon="7.28104">
        <ele>850</ele>
        <time>2012-04-22T12:21:04Z</time>
      </trkpt>
      <trkpt lat="43.81316" lon="7.28084">
        <ele>848</ele>
        <time>2012-04-22T12:21:11Z</time>
      </trkpt>
      <trkpt lat="43.81327" lon="7.28051">
        <ele>847</ele>
        <time>2012-04-22T12:21:19Z</time>
      </trkpt>
      <trkpt lat="43.81338" lon="7.28027">
        <ele>847</ele>
        <time>2012-04-22T12:21:26Z</time>
      </trkpt>
      <trkpt lat="43.81339" lon="7.28011">
        <ele>847</ele>
        <time>2012-04-22T12:21:34Z</time>
      </trkpt>
      <trkpt lat="43.81334" lon="7.28">
        <ele>847</ele>
        <time>2012-04-22T12:21:39Z</time>
      </trkpt>
      <trkpt lat="43.81331" lon="7.27994">
        <ele>847</ele>
        <time>2012-04-22T12:21:46Z</time>
      </trkpt>
      <trkpt lat="43.8133" lon="7.27985">
        <ele>847</ele>
        <time>2012-04-22T12:21:53Z</time>
      </trkpt>
      <trkpt lat="43.81329" lon="7.27973">
        <ele>847</ele>
        <time>2012-04-22T12:21:59Z</time>
      </trkpt>
      <trkpt lat="43.8133" lon="7.27968">
        <ele>847</ele>
        <time>2012-04-22T12:22:06Z</time>
      </trkpt>
      <trkpt lat="43.81332" lon="7.27958">
        <ele>850</ele>
        <time>2012-04-22T12:22:15Z</time>
      </trkpt>
      <trkpt lat="43.81335" lon="7.27951">
        <ele>851</ele>
        <time>2012-04-22T12:22:21Z</time>
      </trkpt>
      <trkpt lat="43.81337" lon="7.27945">
        <ele>853</ele>
        <time>2012-04-22T12:22:29Z</time>
      </trkpt>
      <trkpt lat="43.8134" lon="7.27937">
        <ele>854</ele>
        <time>2012-04-22T12:22:35Z</time>
      </trkpt>
      <trkpt lat="43.8134" lon="7.2793">
        <ele>854</ele>
        <time>2012-04-22T12:22:43Z</time>
      </trkpt>
      <trkpt lat="43.81344" lon="7.27928">
        <ele>855</ele>
        <time>2012-04-22T12:22:51Z</time>
      </trkpt>
      <trkpt lat="43.81351" lon="7.27912">
        <ele>855</ele>
        <time>2012-04-22T12:22:58Z</time>
      </trkpt>
      <trkpt lat="43.81365" lon="7.27891">
        <ele>853</ele>
        <time>2012-04-22T12:23:06Z</time>
      </trkpt>
      <trkpt lat="43.81384" lon="7.27869">
        <ele>850</ele>
        <time>2012-04-22T12:23:12Z</time>
      </trkpt>
      <trkpt lat="43.81401" lon="7.27848">
        <ele>843</ele>
        <time>2012-04-22T12:23:20Z</time>
      </trkpt>
      <trkpt lat="43.8141" lon="7.27833">
        <ele>837</ele>
        <time>2012-04-22T12:23:26Z</time>
      </trkpt>
      <trkpt lat="43.81411" lon="7.27813">
        <ele>829</ele>
        <time>2012-04-22T12:23:35Z</time>
      </trkpt>
      <trkpt lat="43.81413" lon="7.27808">
        <ele>815</ele>
        <time>2012-04-22T12:24:15Z</time>
      </trkpt>
      <trkpt lat="43.81413" lon="7.27806">
        <ele>815</ele>
        <time>2012-04-22T12:24:38Z</time>
      </trkpt>
      <trkpt lat="43.81413" lon="7.27804">
        <ele>815</ele>
        <time>2012-04-22T12:24:54Z</time>
      </trkpt>
      <trkpt lat="43.81411" lon="7.27805">
        <ele>815</ele>
        <time>2012-04-22T12:25:04Z</time>
      </trkpt>
      <trkpt lat="43.8141" lon="7.27799">
        <ele>815</ele>
        <time>2012-04-22T12:25:09Z</time>
      </trkpt>
      <trkpt lat="43.81415" lon="7.27787">
        <ele>815</ele>
        <time>2012-04-22T12:25:17Z</time>
      </trkpt>
      <trkpt lat="43.8143" lon="7.27764">
        <ele>815</ele>
        <time>2012-04-22T12:25:23Z</time>
      </trkpt>
      <trkpt lat="43.81462" lon="7.27714">
        <ele>811</ele>
        <time>2012-04-22T12:25:32Z</time>
      </trkpt>
      <trkpt lat="43.81471" lon="7.27689">
        <ele>807</ele>
        <time>2012-04-22T12:25:41Z</time>
      </trkpt>
      <trkpt lat="43.81482" lon="7.27664">
        <ele>805</ele>
        <time>2012-04-22T12:25:46Z</time>
      </trkpt>
      <trkpt lat="43.8149" lon="7.27642">
        <ele>803</ele>
        <time>2012-04-22T12:25:53Z</time>
      </trkpt>
      <trkpt lat="43.8149" lon="7.27636">
        <ele>803</ele>
        <time>2012-04-22T12:26:01Z</time>
      </trkpt>
      <trkpt lat="43.81491" lon="7.27633">
        <ele>803</ele>
        <time>2012-04-22T12:26:21Z</time>
      </trkpt>
      <trkpt lat="43.81494" lon="7.27628">
        <ele>803</ele>
        <time>2012-04-22T12:26:29Z</time>
      </trkpt>
      <trkpt lat="43.81499" lon="7.27612">
        <ele>803</ele>
        <time>2012-04-22T12:26:37Z</time>
      </trkpt>
      <trkpt lat="43.81514" lon="7.27592">
        <ele>802</ele>
        <time>2012-04-22T12:26:45Z</time>
      </trkpt>
      <trkpt lat="43.81532" lon="7.27572">
        <ele>800</ele>
        <time>2012-04-22T12:26:50Z</time>
      </trkpt>
      <trkpt lat="43.81537" lon="7.27565">
        <ele>798</ele>
        <time>2012-04-22T12:26:57Z</time>
      </trkpt>
      <trkpt lat="43.81561" lon="7.27554">
        <ele>790</ele>
        <time>2012-04-22T12:27:06Z</time>
      </trkpt>
      <trkpt lat="43.81573" lon="7.2754">
        <ele>787</ele>
        <time>2012-04-22T12:27:11Z</time>
      </trkpt>
      <trkpt lat="43.81586" lon="7.27523">
        <ele>779</ele>
        <time>2012-04-22T12:27:19Z</time>
      </trkpt>
      <trkpt lat="43.81599" lon="7.27514">
        <ele>774</ele>
        <time>2012-04-22T12:27:27Z</time>
      </trkpt>
      <trkpt lat="43.81623" lon="7.27486">
        <ele>768</ele>
        <time>2012-04-22T12:27:34Z</time>
      </trkpt>
      <trkpt lat="43.81666" lon="7.27442">
        <ele>762</ele>
        <time>2012-04-22T12:27:41Z</time>
      </trkpt>
      <trkpt lat="43.81679" lon="7.27427">
        <ele>758</ele>
        <time>2012-04-22T12:27:47Z</time>
      </trkpt>
      <trkpt lat="43.81698" lon="7.274">
        <ele>752</ele>
        <time>2012-04-22T12:27:54Z</time>
      </trkpt>
      <trkpt lat="43.81716" lon="7.27373">
        <ele>749</ele>
        <time>2012-04-22T12:28:00Z</time>
      </trkpt>
      <trkpt lat="43.81722" lon="7.27359">
        <ele>747</ele>
        <time>2012-04-22T12:28:06Z</time>
      </trkpt>
      <trkpt lat="43.81744" lon="7.27312">
        <ele>745</ele>
        <time>2012-04-22T12:28:16Z</time>
      </trkpt>
      <trkpt lat="43.81761" lon="7.27281">
        <ele>745</ele>
        <time>2012-04-22T12:28:21Z</time>
      </trkpt>
      <trkpt lat="43.81779" lon="7.27253">
        <ele>745</ele>
        <time>2012-04-22T12:28:27Z</time>
      </trkpt>
      <trkpt lat="43.81792" lon="7.27229">
        <ele>742</ele>
        <time>2012-04-22T12:28:34Z</time>
      </trkpt>
      <trkpt lat="43.81811" lon="7.27201">
        <ele>739</ele>
        <time>2012-04-22T12:28:40Z</time>
      </trkpt>
      <trkpt lat="43.81819" lon="7.27191">
        <ele>736</ele>
        <time>2012-04-22T12:28:46Z</time>
      </trkpt>
      <trkpt lat="43.81837" lon="7.27166">
        <ele>730</ele>
        <time>2012-04-22T12:28:53Z</time>
      </trkpt>
      <trkpt lat="43.8186" lon="7.27138">
        <ele>722</ele>
        <time>2012-04-22T12:29:00Z</time>
      </trkpt>
      <trkpt lat="43.81878" lon="7.27109">
        <ele>716</ele>
        <time>2012-04-22T12:29:07Z</time>
      </trkpt>
      <trkpt lat="43.81918" lon="7.27057">
        <ele>710</ele>
        <time>2012-04-22T12:29:13Z</time>
      </trkpt>
      <trkpt lat="43.81939" lon="7.27035">
        <ele>704</ele>
        <time>2012-04-22T12:29:20Z</time>
      </trkpt>
      <trkpt lat="43.81958" lon="7.27013">
        <ele>699</ele>
        <time>2012-04-22T12:29:29Z</time>
      </trkpt>
      <trkpt lat="43.81972" lon="7.26997">
        <ele>695</ele>
        <time>2012-04-22T12:29:36Z</time>
      </trkpt>
      <trkpt lat="43.81977" lon="7.26995">
        <ele>689</ele>
        <time>2012-04-22T12:29:45Z</time>
      </trkpt>
      <trkpt lat="43.81984" lon="7.26981">
        <ele>686</ele>
        <time>2012-04-22T12:29:55Z</time>
      </trkpt>
      <trkpt lat="43.81997" lon="7.26965">
        <ele>683</ele>
        <time>2012-04-22T12:30:02Z</time>
      </trkpt>
      <trkpt lat="43.82013" lon="7.26952">
        <ele>679</ele>
        <time>2012-04-22T12:30:12Z</time>
      </trkpt>
      <trkpt lat="43.82024" lon="7.26954">
        <ele>676</ele>
        <time>2012-04-22T12:30:19Z</time>
      </trkpt>
      <trkpt lat="43.82037" lon="7.26942">
        <ele>672</ele>
        <time>2012-04-22T12:30:27Z</time>
      </trkpt>
      <trkpt lat="43.82048" lon="7.26932">
        <ele>669</ele>
        <time>2012-04-22T12:30:36Z</time>
      </trkpt>
      <trkpt lat="43.82056" lon="7.26919">
        <ele>663</ele>
        <time>2012-04-22T12:30:44Z</time>
      </trkpt>
      <trkpt lat="43.82053" lon="7.26883">
        <ele>657</ele>
        <time>2012-04-22T12:30:51Z</time>
      </trkpt>
      <trkpt lat="43.82048" lon="7.26861">
        <ele>649</ele>
        <time>2012-04-22T12:31:01Z</time>
      </trkpt>
      <trkpt lat="43.8203" lon="7.26825">
        <ele>643</ele>
        <time>2012-04-22T12:31:09Z</time>
      </trkpt>
      <trkpt lat="43.82033" lon="7.2682">
        <ele>637</ele>
        <time>2012-04-22T12:31:17Z</time>
      </trkpt>
      <trkpt lat="43.82059" lon="7.26812">
        <ele>632</ele>
        <time>2012-04-22T12:31:25Z</time>
      </trkpt>
      <trkpt lat="43.82042" lon="7.26788">
        <ele>624</ele>
        <time>2012-04-22T12:31:34Z</time>
      </trkpt>
      <trkpt lat="43.82054" lon="7.26776">
        <ele>620</ele>
        <time>2012-04-22T12:31:41Z</time>
      </trkpt>
      <trkpt lat="43.82078" lon="7.26762">
        <ele>615</ele>
        <time>2012-04-22T12:31:49Z</time>
      </trkpt>
      <trkpt lat="43.82077" lon="7.26742">
        <ele>610</ele>
        <time>2012-04-22T12:31:58Z</time>
      </trkpt>
      <trkpt lat="43.82064" lon="7.26719">
        <ele>603</ele>
        <time>2012-04-22T12:32:07Z</time>
      </trkpt>
      <trkpt lat="43.82067" lon="7.26705">
        <ele>598</ele>
        <time>2012-04-22T12:32:15Z</time>
      </trkpt>
      <trkpt lat="43.8209" lon="7.26691">
        <ele>594</ele>
        <time>2012-04-22T12:32:23Z</time>
      </trkpt>
      <trkpt lat="43.82111" lon="7.26688">
        <ele>590</ele>
        <time>2012-04-22T12:32:30Z</time>
      </trkpt>
      <trkpt lat="43.82113" lon="7.26689">
        <ele>584</ele>
        <time>2012-04-22T12:32:39Z</time>
      </trkpt>
      <trkpt lat="43.82112" lon="7.26682">
        <ele>581</ele>
        <time>2012-04-22T12:32:47Z</time>
      </trkpt>
      <trkpt lat="43.82111" lon="7.26681">
        <ele>578</ele>
        <time>2012-04-22T12:33:22Z</time>
      </trkpt>
      <trkpt lat="43.82112" lon="7.26682">
        <ele>578</ele>
        <time>2012-04-22T12:33:40Z</time>
      </trkpt>
      <trkpt lat="43.82114" lon="7.26687">
        <ele>578</ele>
        <time>2012-04-22T12:34:18Z</time>
      </trkpt>
      <trkpt lat="43.82112" lon="7.2669">
        <ele>578</ele>
        <time>2012-04-22T12:34:27Z</time>
      </trkpt>
      <trkpt lat="43.82112" lon="7.26694">
        <ele>578</ele>
        <time>2012-04-22T12:34:36Z</time>
      </trkpt>
      <trkpt lat="43.82114" lon="7.26693">
        <ele>578</ele>
        <time>2012-04-22T12:34:44Z</time>
      </trkpt>
      <trkpt lat="43.82116" lon="7.26693">
        <ele>578</ele>
        <time>2012-04-22T12:34:53Z</time>
      </trkpt>
      <trkpt lat="43.82116" lon="7.26695">
        <ele>580</ele>
        <time>2012-04-22T12:35:46Z</time>
      </trkpt>
      <trkpt lat="43.82115" lon="7.26693">
        <ele>580</ele>
        <time>2012-04-22T12:36:19Z</time>
      </trkpt>
      <trkpt lat="43.82116" lon="7.26693">
        <ele>580</ele>
        <time>2012-04-22T12:36:47Z</time>
      </trkpt>
      <trkpt lat="43.82116" lon="7.26692">
        <ele>580</ele>
        <time>2012-04-22T12:37:04Z</time>
      </trkpt>
      <trkpt lat="43.82114" lon="7.26687">
        <ele>580</ele>
        <time>2012-04-22T12:37:09Z</time>
      </trkpt>
      <trkpt lat="43.82112" lon="7.26682">
        <ele>580</ele>
        <time>2012-04-22T12:37:18Z</time>
      </trkpt>
      <trkpt lat="43.82116" lon="7.26681">
        <ele>580</ele>
        <time>2012-04-22T12:37:25Z</time>
      </trkpt>
      <trkpt lat="43.82124" lon="7.26682">
        <ele>577</ele>
        <time>2012-04-22T12:37:34Z</time>
      </trkpt>
      <trkpt lat="43.82123" lon="7.26676">
        <ele>575</ele>
        <time>2012-04-22T12:37:53Z</time>
      </trkpt>
      <trkpt lat="43.82117" lon="7.26671">
        <ele>575</ele>
        <time>2012-04-22T12:38:01Z</time>
      </trkpt>
      <trkpt lat="43.82088" lon="7.26651">
        <ele>574</ele>
        <time>2012-04-22T12:38:06Z</time>
      </trkpt>
      <trkpt lat="43.82062" lon="7.26637">
        <ele>571</ele>
        <time>2012-04-22T12:38:13Z</time>
      </trkpt>
      <trkpt lat="43.82032" lon="7.26629">
        <ele>568</ele>
        <time>2012-04-22T12:38:20Z</time>
      </trkpt>
      <trkpt lat="43.82008" lon="7.26625">
        <ele>565</ele>
        <time>2012-04-22T12:38:26Z</time>
      </trkpt>
      <trkpt lat="43.81984" lon="7.26627">
        <ele>560</ele>
        <time>2012-04-22T12:38:33Z</time>
      </trkpt>
      <trkpt lat="43.8196" lon="7.26634">
        <ele>555</ele>
        <time>2012-04-22T12:38:39Z</time>
      </trkpt>
      <trkpt lat="43.81954" lon="7.26636">
        <ele>549</ele>
        <time>2012-04-22T12:38:50Z</time>
      </trkpt>
      <trkpt lat="43.81955" lon="7.26635">
        <ele>547</ele>
        <time>2012-04-22T12:39:16Z</time>
      </trkpt>
      <trkpt lat="43.81955" lon="7.26637">
        <ele>547</ele>
        <time>2012-04-22T12:39:39Z</time>
      </trkpt>
      <trkpt lat="43.81953" lon="7.26638">
        <ele>546</ele>
        <time>2012-04-22T12:39:55Z</time>
      </trkpt>
      <trkpt lat="43.8193" lon="7.26643">
        <ele>545</ele>
        <time>2012-04-22T12:40:03Z</time>
      </trkpt>
      <trkpt lat="43.81906" lon="7.26648">
        <ele>541</ele>
        <time>2012-04-22T12:40:10Z</time>
      </trkpt>
      <trkpt lat="43.81897" lon="7.26648">
        <ele>537</ele>
        <time>2012-04-22T12:40:19Z</time>
      </trkpt>
      <trkpt lat="43.81888" lon="7.26652">
        <ele>536</ele>
        <time>2012-04-22T12:40:25Z</time>
      </trkpt>
      <trkpt lat="43.81861" lon="7.26671">
        <ele>534</ele>
        <time>2012-04-22T12:40:31Z</time>
      </trkpt>
      <trkpt lat="43.81834" lon="7.26694">
        <ele>531</ele>
        <time>2012-04-22T12:40:38Z</time>
      </trkpt>
      <trkpt lat="43.81798" lon="7.26729">
        <ele>528</ele>
        <time>2012-04-22T12:40:44Z</time>
      </trkpt>
      <trkpt lat="43.81781" lon="7.26741">
        <ele>524</ele>
        <time>2012-04-22T12:40:51Z</time>
      </trkpt>
      <trkpt lat="43.81743" lon="7.26771">
        <ele>520</ele>
        <time>2012-04-22T12:40:57Z</time>
      </trkpt>
      <trkpt lat="43.81712" lon="7.26772">
        <ele>515</ele>
        <time>2012-04-22T12:41:05Z</time>
      </trkpt>
      <trkpt lat="43.81683" lon="7.26776">
        <ele>512</ele>
        <time>2012-04-22T12:41:12Z</time>
      </trkpt>
      <trkpt lat="43.8167" lon="7.26783">
        <ele>509</ele>
        <time>2012-04-22T12:41:19Z</time>
      </trkpt>
      <trkpt lat="43.81623" lon="7.26808">
        <ele>504</ele>
        <time>2012-04-22T12:41:26Z</time>
      </trkpt>
      <trkpt lat="43.81611" lon="7.26806">
        <ele>500</ele>
        <time>2012-04-22T12:41:33Z</time>
      </trkpt>
      <trkpt lat="43.81587" lon="7.268">
        <ele>495</ele>
        <time>2012-04-22T12:41:40Z</time>
      </trkpt>
      <trkpt lat="43.81559" lon="7.26791">
        <ele>489</ele>
        <time>2012-04-22T12:41:46Z</time>
      </trkpt>
      <trkpt lat="43.81544" lon="7.26801">
        <ele>482</ele>
        <time>2012-04-22T12:41:55Z</time>
      </trkpt>
      <trkpt lat="43.81533" lon="7.26804">
        <ele>479</ele>
        <time>2012-04-22T12:42:01Z</time>
      </trkpt>
      <trkpt lat="43.81516" lon="7.26808">
        <ele>477</ele>
        <time>2012-04-22T12:42:07Z</time>
      </trkpt>
      <trkpt lat="43.81503" lon="7.26774">
        <ele>477</ele>
        <time>2012-04-22T12:42:15Z</time>
      </trkpt>
      <trkpt lat="43.8149" lon="7.26755">
        <ele>479</ele>
        <time>2012-04-22T12:42:21Z</time>
      </trkpt>
      <trkpt lat="43.81489" lon="7.26756">
        <ele>479</ele>
        <time>2012-04-22T12:42:47Z</time>
      </trkpt>
      <trkpt lat="43.81489" lon="7.26758">
        <ele>479</ele>
        <time>2012-04-22T12:43:03Z</time>
      </trkpt>
      <trkpt lat="43.8149" lon="7.2676">
        <ele>479</ele>
        <time>2012-04-22T12:43:18Z</time>
      </trkpt>
      <trkpt lat="43.8149" lon="7.26766">
        <ele>479</ele>
        <time>2012-04-22T12:43:27Z</time>
      </trkpt>
      <trkpt lat="43.81482" lon="7.26767">
        <ele>478</ele>
        <time>2012-04-22T12:43:33Z</time>
      </trkpt>
      <trkpt lat="43.81454" lon="7.26771">
        <ele>478</ele>
        <time>2012-04-22T12:43:39Z</time>
      </trkpt>
      <trkpt lat="43.8139" lon="7.26757">
        <ele>476</ele>
        <time>2012-04-22T12:43:46Z</time>
      </trkpt>
      <trkpt lat="43.81357" lon="7.2674">
        <ele>473</ele>
        <time>2012-04-22T12:43:53Z</time>
      </trkpt>
      <trkpt lat="43.81287" lon="7.26758">
        <ele>469</ele>
        <time>2012-04-22T12:44:01Z</time>
      </trkpt>
      <trkpt lat="43.81198" lon="7.26772">
        <ele>465</ele>
        <time>2012-04-22T12:44:08Z</time>
      </trkpt>
      <trkpt lat="43.81115" lon="7.26779">
        <ele>462</ele>
        <time>2012-04-22T12:44:16Z</time>
      </trkpt>
      <trkpt lat="43.80984" lon="7.26787">
        <ele>458</ele>
        <time>2012-04-22T12:44:23Z</time>
      </trkpt>
      <trkpt lat="43.809" lon="7.26813">
        <ele>452</ele>
        <time>2012-04-22T12:44:30Z</time>
      </trkpt>
      <trkpt lat="43.80864" lon="7.26818">
        <ele>448</ele>
        <time>2012-04-22T12:44:37Z</time>
      </trkpt>
      <trkpt lat="43.80779" lon="7.26802">
        <ele>442</ele>
        <time>2012-04-22T12:44:43Z</time>
      </trkpt>
      <trkpt lat="43.80662" lon="7.26874">
        <ele>435</ele>
        <time>2012-04-22T12:44:51Z</time>
      </trkpt>
      <trkpt lat="43.80629" lon="7.26888">
        <ele>432</ele>
        <time>2012-04-22T12:44:58Z</time>
      </trkpt>
      <trkpt lat="43.80515" lon="7.26921">
        <ele>426</ele>
        <time>2012-04-22T12:45:04Z</time>
      </trkpt>
      <trkpt lat="43.80473" lon="7.26919">
        <ele>421</ele>
        <time>2012-04-22T12:45:11Z</time>
      </trkpt>
      <trkpt lat="43.80435" lon="7.26918">
        <ele>418</ele>
        <time>2012-04-22T12:45:17Z</time>
      </trkpt>
      <trkpt lat="43.80425" lon="7.26913">
        <ele>414</ele>
        <time>2012-04-22T12:45:26Z</time>
      </trkpt>
      <trkpt lat="43.80433" lon="7.26873">
        <ele>410</ele>
        <time>2012-04-22T12:45:34Z</time>
      </trkpt>
      <trkpt lat="43.80449" lon="7.26859">
        <ele>407</ele>
        <time>2012-04-22T12:45:41Z</time>
      </trkpt>
      <trkpt lat="43.80442" lon="7.26837">
        <ele>404</ele>
        <time>2012-04-22T12:45:49Z</time>
      </trkpt>
      <trkpt lat="43.80441" lon="7.26821">
        <ele>398</ele>
        <time>2012-04-22T12:46:08Z</time>
      </trkpt>
      <trkpt lat="43.8044" lon="7.2682">
        <ele>398</ele>
        <time>2012-04-22T12:46:19Z</time>
      </trkpt>
      <trkpt lat="43.8044" lon="7.26821">
        <ele>398</ele>
        <time>2012-04-22T12:46:24Z</time>
      </trkpt>
      <trkpt lat="43.80439" lon="7.26824">
        <ele>396</ele>
        <time>2012-04-22T12:46:32Z</time>
      </trkpt>
      <trkpt lat="43.80436" lon="7.26824">
        <ele>395</ele>
        <time>2012-04-22T12:46:41Z</time>
      </trkpt>
      <trkpt lat="43.80427" lon="7.26826">
        <ele>395</ele>
        <time>2012-04-22T12:46:49Z</time>
      </trkpt>
      <trkpt lat="43.80402" lon="7.26828">
        <ele>394</ele>
        <time>2012-04-22T12:46:55Z</time>
      </trkpt>
      <trkpt lat="43.80377" lon="7.26833">
        <ele>393</ele>
        <time>2012-04-22T12:47:02Z</time>
      </trkpt>
      <trkpt lat="43.80351" lon="7.26847">
        <ele>392</ele>
        <time>2012-04-22T12:47:09Z</time>
      </trkpt>
      <trkpt lat="43.80351" lon="7.26848">
        <ele>392</ele>
        <time>2012-04-22T12:47:20Z</time>
      </trkpt>
      <trkpt lat="43.80352" lon="7.2685">
        <ele>392</ele>
        <time>2012-04-22T12:47:27Z</time>
      </trkpt>
      <trkpt lat="43.80367" lon="7.26841">
        <ele>392</ele>
        <time>2012-04-22T12:47:34Z</time>
      </trkpt>
      <trkpt lat="43.80386" lon="7.26837">
        <ele>392</ele>
        <time>2012-04-22T12:47:41Z</time>
      </trkpt>
      <trkpt lat="43.80394" lon="7.26835">
        <ele>392</ele>
        <time>2012-04-22T12:47:48Z</time>
      </trkpt>
      <trkpt lat="43.80415" lon="7.26831">
        <ele>392</ele>
        <time>2012-04-22T12:47:54Z</time>
      </trkpt>
      <trkpt lat="43.80435" lon="7.26828">
        <ele>392</ele>
        <time>2012-04-22T12:48:01Z</time>
      </trkpt>
      <trkpt lat="43.80442" lon="7.2681">
        <ele>392</ele>
        <time>2012-04-22T12:48:08Z</time>
      </trkpt>
      <trkpt lat="43.80446" lon="7.26793">
        <ele>392</ele>
        <time>2012-04-22T12:48:15Z</time>
      </trkpt>
      <trkpt lat="43.80454" lon="7.26778">
        <ele>392</ele>
        <time>2012-04-22T12:48:23Z</time>
      </trkpt>
      <trkpt lat="43.80457" lon="7.26773">
        <ele>392</ele>
        <time>2012-04-22T12:48:30Z</time>
      </trkpt>
      <trkpt lat="43.80462" lon="7.26755">
        <ele>392</ele>
        <time>2012-04-22T12:48:37Z</time>
      </trkpt>
      <trkpt lat="43.80463" lon="7.26738">
        <ele>392</ele>
        <time>2012-04-22T12:48:44Z</time>
      </trkpt>
      <trkpt lat="43.8046" lon="7.26721">
        <ele>393</ele>
        <time>2012-04-22T12:48:52Z</time>
      </trkpt>
      <trkpt lat="43.80453" lon="7.26701">
        <ele>394</ele>
        <time>2012-04-22T12:48:58Z</time>
      </trkpt>
      <trkpt lat="43.80448" lon="7.26705">
        <ele>397</ele>
        <time>2012-04-22T12:49:07Z</time>
      </trkpt>
      <trkpt lat="43.8045" lon="7.26723">
        <ele>397</ele>
        <time>2012-04-22T12:49:15Z</time>
      </trkpt>
      <trkpt lat="43.80448" lon="7.26741">
        <ele>397</ele>
        <time>2012-04-22T12:49:22Z</time>
      </trkpt>
      <trkpt lat="43.80435" lon="7.26751">
        <ele>398</ele>
        <time>2012-04-22T12:49:30Z</time>
      </trkpt>
      <trkpt lat="43.80421" lon="7.26748">
        <ele>399</ele>
        <time>2012-04-22T12:49:38Z</time>
      </trkpt>
      <trkpt lat="43.8041" lon="7.26735">
        <ele>402</ele>
        <time>2012-04-22T12:49:46Z</time>
      </trkpt>
      <trkpt lat="43.80402" lon="7.26719">
        <ele>406</ele>
        <time>2012-04-22T12:49:54Z</time>
      </trkpt>
      <trkpt lat="43.80397" lon="7.26693">
        <ele>406</ele>
        <time>2012-04-22T12:50:01Z</time>
      </trkpt>
      <trkpt lat="43.80391" lon="7.26652">
        <ele>406</ele>
        <time>2012-04-22T12:50:08Z</time>
      </trkpt>
      <trkpt lat="43.80389" lon="7.26616">
        <ele>406</ele>
        <time>2012-04-22T12:50:16Z</time>
      </trkpt>
      <trkpt lat="43.80394" lon="7.26591">
        <ele>406</ele>
        <time>2012-04-22T12:50:23Z</time>
      </trkpt>
      <trkpt lat="43.80403" lon="7.26558">
        <ele>406</ele>
        <time>2012-04-22T12:50:29Z</time>
      </trkpt>
      <trkpt lat="43.80404" lon="7.26549">
        <ele>406</ele>
        <time>2012-04-22T12:50:36Z</time>
      </trkpt>
      <trkpt lat="43.80408" lon="7.26527">
        <ele>406</ele>
        <time>2012-04-22T12:50:42Z</time>
      </trkpt>
      <trkpt lat="43.8041" lon="7.26505">
        <ele>406</ele>
        <time>2012-04-22T12:50:49Z</time>
      </trkpt>
      <trkpt lat="43.80411" lon="7.26488">
        <ele>406</ele>
        <time>2012-04-22T12:50:56Z</time>
      </trkpt>
      <trkpt lat="43.80411" lon="7.2646">
        <ele>408</ele>
        <time>2012-04-22T12:51:02Z</time>
      </trkpt>
      <trkpt lat="43.80412" lon="7.26452">
        <ele>409</ele>
        <time>2012-04-22T12:51:09Z</time>
      </trkpt>
      <trkpt lat="43.80417" lon="7.26433">
        <ele>410</ele>
        <time>2012-04-22T12:51:15Z</time>
      </trkpt>
      <trkpt lat="43.80422" lon="7.26416">
        <ele>411</ele>
        <time>2012-04-22T12:51:22Z</time>
      </trkpt>
      <trkpt lat="43.80427" lon="7.264">
        <ele>412</ele>
        <time>2012-04-22T12:51:29Z</time>
      </trkpt>
      <trkpt lat="43.80432" lon="7.26376">
        <ele>413</ele>
        <time>2012-04-22T12:51:35Z</time>
      </trkpt>
      <trkpt lat="43.80434" lon="7.26369">
        <ele>414</ele>
        <time>2012-04-22T12:51:42Z</time>
      </trkpt>
      <trkpt lat="43.80438" lon="7.26353">
        <ele>416</ele>
        <time>2012-04-22T12:51:48Z</time>
      </trkpt>
      <trkpt lat="43.80441" lon="7.26338">
        <ele>418</ele>
        <time>2012-04-22T12:51:55Z</time>
      </trkpt>
      <trkpt lat="43.80445" lon="7.26324">
        <ele>420</ele>
        <time>2012-04-22T12:52:02Z</time>
      </trkpt>
      <trkpt lat="43.80441" lon="7.26305">
        <ele>422</ele>
        <time>2012-04-22T12:52:10Z</time>
      </trkpt>
      <trkpt lat="43.80444" lon="7.26287">
        <ele>423</ele>
        <time>2012-04-22T12:52:18Z</time>
      </trkpt>
      <trkpt lat="43.80458" lon="7.26268">
        <ele>425</ele>
        <time>2012-04-22T12:52:26Z</time>
      </trkpt>
      <trkpt lat="43.80459" lon="7.26257">
        <ele>426</ele>
        <time>2012-04-22T12:52:33Z</time>
      </trkpt>
      <trkpt lat="43.80463" lon="7.26239">
        <ele>427</ele>
        <time>2012-04-22T12:52:40Z</time>
      </trkpt>
      <trkpt lat="43.80463" lon="7.26206">
        <ele>427</ele>
        <time>2012-04-22T12:52:49Z</time>
      </trkpt>
      <trkpt lat="43.80465" lon="7.26172">
        <ele>427</ele>
        <time>2012-04-22T12:52:55Z</time>
      </trkpt>
      <trkpt lat="43.80456" lon="7.26165">
        <ele>427</ele>
        <time>2012-04-22T12:53:03Z</time>
      </trkpt>
      <trkpt lat="43.80445" lon="7.26171">
        <ele>427</ele>
        <time>2012-04-22T12:53:10Z</time>
      </trkpt>
      <trkpt lat="43.80428" lon="7.26171">
        <ele>427</ele>
        <time>2012-04-22T12:53:17Z</time>
      </trkpt>
      <trkpt lat="43.80421" lon="7.26169">
        <ele>427</ele>
        <time>2012-04-22T12:53:24Z</time>
      </trkpt>
      <trkpt lat="43.80403" lon="7.2616">
        <ele>431</ele>
        <time>2012-04-22T12:53:33Z</time>
      </trkpt>
      <trkpt lat="43.80397" lon="7.26156">
        <ele>432</ele>
        <time>2012-04-22T12:53:40Z</time>
      </trkpt>
      <trkpt lat="43.8039" lon="7.2615">
        <ele>434</ele>
        <time>2012-04-22T12:53:47Z</time>
      </trkpt>
      <trkpt lat="43.80382" lon="7.26141">
        <ele>436</ele>
        <time>2012-04-22T12:53:53Z</time>
      </trkpt>
      <trkpt lat="43.80375" lon="7.2613">
        <ele>436</ele>
        <time>2012-04-22T12:54:00Z</time>
      </trkpt>
      <trkpt lat="43.8037" lon="7.26122">
        <ele>436</ele>
        <time>2012-04-22T12:54:07Z</time>
      </trkpt>
      <trkpt lat="43.80363" lon="7.2611">
        <ele>436</ele>
        <time>2012-04-22T12:54:15Z</time>
      </trkpt>
      <trkpt lat="43.80358" lon="7.26111">
        <ele>436</ele>
        <time>2012-04-22T12:54:22Z</time>
      </trkpt>
      <trkpt lat="43.80352" lon="7.26109">
        <ele>436</ele>
        <time>2012-04-22T12:54:31Z</time>
      </trkpt>
      <trkpt lat="43.80339" lon="7.26103">
        <ele>436</ele>
        <time>2012-04-22T12:54:38Z</time>
      </trkpt>
      <trkpt lat="43.80326" lon="7.26092">
        <ele>436</ele>
        <time>2012-04-22T12:54:46Z</time>
      </trkpt>
      <trkpt lat="43.80317" lon="7.26079">
        <ele>438</ele>
        <time>2012-04-22T12:54:55Z</time>
      </trkpt>
      <trkpt lat="43.80315" lon="7.2607">
        <ele>442</ele>
        <time>2012-04-22T12:55:04Z</time>
      </trkpt>
      <trkpt lat="43.80309" lon="7.26061">
        <ele>442</ele>
        <time>2012-04-22T12:55:12Z</time>
      </trkpt>
      <trkpt lat="43.80301" lon="7.26055">
        <ele>444</ele>
        <time>2012-04-22T12:55:19Z</time>
      </trkpt>
      <trkpt lat="43.80291" lon="7.26052">
        <ele>445</ele>
        <time>2012-04-22T12:55:26Z</time>
      </trkpt>
      <trkpt lat="43.80284" lon="7.26049">
        <ele>445</ele>
        <time>2012-04-22T12:55:33Z</time>
      </trkpt>
      <trkpt lat="43.80271" lon="7.26045">
        <ele>447</ele>
        <time>2012-04-22T12:55:41Z</time>
      </trkpt>
      <trkpt lat="43.80268" lon="7.26044">
        <ele>448</ele>
        <time>2012-04-22T12:55:47Z</time>
      </trkpt>
      <trkpt lat="43.8026" lon="7.26034">
        <ele>449</ele>
        <time>2012-04-22T12:55:54Z</time>
      </trkpt>
      <trkpt lat="43.80253" lon="7.26026">
        <ele>450</ele>
        <time>2012-04-22T12:56:02Z</time>
      </trkpt>
      <trkpt lat="43.80251" lon="7.26023">
        <ele>451</ele>
        <time>2012-04-22T12:56:08Z</time>
      </trkpt>
      <trkpt lat="43.80242" lon="7.26017">
        <ele>452</ele>
        <time>2012-04-22T12:56:15Z</time>
      </trkpt>
      <trkpt lat="43.80241" lon="7.26016">
        <ele>456</ele>
        <time>2012-04-22T12:56:24Z</time>
      </trkpt>
      <trkpt lat="43.80235" lon="7.26013">
        <ele>457</ele>
        <time>2012-04-22T12:56:33Z</time>
      </trkpt>
      <trkpt lat="43.80228" lon="7.26008">
        <ele>457</ele>
        <time>2012-04-22T12:56:41Z</time>
      </trkpt>
      <trkpt lat="43.80222" lon="7.26002">
        <ele>457</ele>
        <time>2012-04-22T12:56:48Z</time>
      </trkpt>
      <trkpt lat="43.8022" lon="7.25997">
        <ele>457</ele>
        <time>2012-04-22T12:56:56Z</time>
      </trkpt>
      <trkpt lat="43.80213" lon="7.25988">
        <ele>457</ele>
        <time>2012-04-22T12:57:06Z</time>
      </trkpt>
      <trkpt lat="43.80209" lon="7.25987">
        <ele>457</ele>
        <time>2012-04-22T12:57:13Z</time>
      </trkpt>
      <trkpt lat="43.80204" lon="7.25981">
        <ele>458</ele>
        <time>2012-04-22T12:57:22Z</time>
      </trkpt>
      <trkpt lat="43.80198" lon="7.25978">
        <ele>459</ele>
        <time>2012-04-22T12:57:30Z</time>
      </trkpt>
      <trkpt lat="43.8019" lon="7.25969">
        <ele>460</ele>
        <time>2012-04-22T12:57:37Z</time>
      </trkpt>
      <trkpt lat="43.80187" lon="7.25963">
        <ele>462</ele>
        <time>2012-04-22T12:57:44Z</time>
      </trkpt>
      <trkpt lat="43.80178" lon="7.25951">
        <ele>464</ele>
        <time>2012-04-22T12:57:53Z</time>
      </trkpt>
      <trkpt lat="43.8016" lon="7.25944">
        <ele>466</ele>
        <time>2012-04-22T12:58:00Z</time>
      </trkpt>
      <trkpt lat="43.80153" lon="7.25938">
        <ele>468</ele>
        <time>2012-04-22T12:58:07Z</time>
      </trkpt>
      <trkpt lat="43.80143" lon="7.25928">
        <ele>471</ele>
        <time>2012-04-22T12:58:14Z</time>
      </trkpt>
      <trkpt lat="43.80133" lon="7.25913">
        <ele>472</ele>
        <time>2012-04-22T12:58:20Z</time>
      </trkpt>
      <trkpt lat="43.80124" lon="7.25899">
        <ele>474</ele>
        <time>2012-04-22T12:58:27Z</time>
      </trkpt>
      <trkpt lat="43.80121" lon="7.25889">
        <ele>477</ele>
        <time>2012-04-22T12:58:36Z</time>
      </trkpt>
      <trkpt lat="43.80117" lon="7.25882">
        <ele>480</ele>
        <time>2012-04-22T12:58:45Z</time>
      </trkpt>
      <trkpt lat="43.80112" lon="7.25871">
        <ele>482</ele>
        <time>2012-04-22T12:58:52Z</time>
      </trkpt>
      <trkpt lat="43.80111" lon="7.25864">
        <ele>485</ele>
        <time>2012-04-22T12:59:00Z</time>
      </trkpt>
      <trkpt lat="43.80112" lon="7.25857">
        <ele>488</ele>
        <time>2012-04-22T12:59:06Z</time>
      </trkpt>
      <trkpt lat="43.801" lon="7.25845">
        <ele>489</ele>
        <time>2012-04-22T12:59:15Z</time>
      </trkpt>
      <trkpt lat="43.80092" lon="7.25837">
        <ele>491</ele>
        <time>2012-04-22T12:59:21Z</time>
      </trkpt>
      <trkpt lat="43.80087" lon="7.25838">
        <ele>496</ele>
        <time>2012-04-22T12:59:30Z</time>
      </trkpt>
      <trkpt lat="43.80083" lon="7.25844">
        <ele>497</ele>
        <time>2012-04-22T12:59:37Z</time>
      </trkpt>
      <trkpt lat="43.80078" lon="7.2585">
        <ele>497</ele>
        <time>2012-04-22T12:59:43Z</time>
      </trkpt>
      <trkpt lat="43.8007" lon="7.25862">
        <ele>497</ele>
        <time>2012-04-22T12:59:50Z</time>
      </trkpt>
      <trkpt lat="43.80061" lon="7.25878">
        <ele>494</ele>
        <time>2012-04-22T12:59:57Z</time>
      </trkpt>
      <trkpt lat="43.80014" lon="7.25888">
        <ele>489</ele>
        <time>2012-04-22T13:00:05Z</time>
      </trkpt>
      <trkpt lat="43.79998" lon="7.25878">
        <ele>486</ele>
        <time>2012-04-22T13:00:12Z</time>
      </trkpt>
      <trkpt lat="43.79976" lon="7.25855">
        <ele>479</ele>
        <time>2012-04-22T13:00:20Z</time>
      </trkpt>
      <trkpt lat="43.79969" lon="7.25865">
        <ele>473</ele>
        <time>2012-04-22T13:00:30Z</time>
      </trkpt>
      <trkpt lat="43.79966" lon="7.25874">
        <ele>471</ele>
        <time>2012-04-22T13:00:37Z</time>
      </trkpt>
      <trkpt lat="43.79966" lon="7.25879">
        <ele>471</ele>
        <time>2012-04-22T13:00:45Z</time>
      </trkpt>
      <trkpt lat="43.79963" lon="7.25889">
        <ele>471</ele>
        <time>2012-04-22T13:00:51Z</time>
      </trkpt>
      <trkpt lat="43.79962" lon="7.25901">
        <ele>471</ele>
        <time>2012-04-22T13:00:58Z</time>
      </trkpt>
      <trkpt lat="43.79961" lon="7.25906">
        <ele>471</ele>
        <time>2012-04-22T13:01:05Z</time>
      </trkpt>
      <trkpt lat="43.79959" lon="7.25916">
        <ele>472</ele>
        <time>2012-04-22T13:01:12Z</time>
      </trkpt>
      <trkpt lat="43.79959" lon="7.25921">
        <ele>475</ele>
        <time>2012-04-22T13:01:21Z</time>
      </trkpt>
      <trkpt lat="43.79959" lon="7.25929">
        <ele>478</ele>
        <time>2012-04-22T13:01:28Z</time>
      </trkpt>
      <trkpt lat="43.79961" lon="7.25947">
        <ele>479</ele>
        <time>2012-04-22T13:01:36Z</time>
      </trkpt>
      <trkpt lat="43.79962" lon="7.25955">
        <ele>479</ele>
        <time>2012-04-22T13:01:42Z</time>
      </trkpt>
      <trkpt lat="43.79951" lon="7.25988">
        <ele>480</ele>
        <time>2012-04-22T13:01:51Z</time>
      </trkpt>
      <trkpt lat="43.79933" lon="7.26013">
        <ele>481</ele>
        <time>2012-04-22T13:02:00Z</time>
      </trkpt>
      <trkpt lat="43.79928" lon="7.26019">
        <ele>482</ele>
        <time>2012-04-22T13:02:07Z</time>
      </trkpt>
      <trkpt lat="43.79916" lon="7.26029">
        <ele>484</ele>
        <time>2012-04-22T13:02:13Z</time>
      </trkpt>
      <trkpt lat="43.79888" lon="7.26055">
        <ele>485</ele>
        <time>2012-04-22T13:02:20Z</time>
      </trkpt>
      <trkpt lat="43.79878" lon="7.26067">
        <ele>485</ele>
        <time>2012-04-22T13:02:27Z</time>
      </trkpt>
      <trkpt lat="43.79859" lon="7.26098">
        <ele>483</ele>
        <time>2012-04-22T13:02:35Z</time>
      </trkpt>
      <trkpt lat="43.79837" lon="7.26129">
        <ele>480</ele>
        <time>2012-04-22T13:02:41Z</time>
      </trkpt>
      <trkpt lat="43.79816" lon="7.26143">
        <ele>472</ele>
        <time>2012-04-22T13:02:50Z</time>
      </trkpt>
      <trkpt lat="43.79787" lon="7.2612">
        <ele>465</ele>
        <time>2012-04-22T13:02:59Z</time>
      </trkpt>
      <trkpt lat="43.7979" lon="7.2612">
        <ele>461</ele>
        <time>2012-04-22T13:03:08Z</time>
      </trkpt>
      <trkpt lat="43.7979" lon="7.26122">
        <ele>461</ele>
        <time>2012-04-22T13:03:16Z</time>
      </trkpt>
      <trkpt lat="43.7979" lon="7.26124">
        <ele>461</ele>
        <time>2012-04-22T13:03:44Z</time>
      </trkpt>
      <trkpt lat="43.79789" lon="7.26124">
        <ele>461</ele>
        <time>2012-04-22T13:04:24Z</time>
      </trkpt>
      <trkpt lat="43.79788" lon="7.26125">
        <ele>461</ele>
        <time>2012-04-22T13:04:31Z</time>
      </trkpt>
      <trkpt lat="43.79787" lon="7.26125">
        <ele>461</ele>
        <time>2012-04-22T13:04:40Z</time>
      </trkpt>
      <trkpt lat="43.79788" lon="7.26125">
        <ele>461</ele>
        <time>2012-04-22T13:05:26Z</time>
      </trkpt>
      <trkpt lat="43.79789" lon="7.26124">
        <ele>461</ele>
        <time>2012-04-22T13:05:53Z</time>
      </trkpt>
      <trkpt lat="43.79788" lon="7.26123">
        <ele>462</ele>
        <time>2012-04-22T13:06:12Z</time>
      </trkpt>
      <trkpt lat="43.79787" lon="7.26122">
        <ele>462</ele>
        <time>2012-04-22T13:06:22Z</time>
      </trkpt>
      <trkpt lat="43.79786" lon="7.26121">
        <ele>462</ele>
        <time>2012-04-22T13:06:29Z</time>
      </trkpt>
      <trkpt lat="43.79783" lon="7.26116">
        <ele>462</ele>
        <time>2012-04-22T13:07:04Z</time>
      </trkpt>
      <trkpt lat="43.79784" lon="7.26114">
        <ele>462</ele>
        <time>2012-04-22T13:07:32Z</time>
      </trkpt>
      <trkpt lat="43.79783" lon="7.26115">
        <ele>462</ele>
        <time>2012-04-22T13:07:38Z</time>
      </trkpt>
      <trkpt lat="43.7978" lon="7.26112">
        <ele>462</ele>
        <time>2012-04-22T13:07:46Z</time>
      </trkpt>
      <trkpt lat="43.79779" lon="7.2611">
        <ele>462</ele>
        <time>2012-04-22T13:07:57Z</time>
      </trkpt>
      <trkpt lat="43.79778" lon="7.26106">
        <ele>462</ele>
        <time>2012-04-22T13:08:03Z</time>
      </trkpt>
      <trkpt lat="43.7977" lon="7.26088">
        <ele>462</ele>
        <time>2012-04-22T13:08:09Z</time>
      </trkpt>
      <trkpt lat="43.79757" lon="7.26054">
        <ele>462</ele>
        <time>2012-04-22T13:08:16Z</time>
      </trkpt>
      <trkpt lat="43.79752" lon="7.26043">
        <ele>462</ele>
        <time>2012-04-22T13:08:23Z</time>
      </trkpt>
      <trkpt lat="43.79743" lon="7.2602">
        <ele>462</ele>
        <time>2012-04-22T13:08:29Z</time>
      </trkpt>
      <trkpt lat="43.7973" lon="7.25987">
        <ele>462</ele>
        <time>2012-04-22T13:08:36Z</time>
      </trkpt>
      <trkpt lat="43.79726" lon="7.25977">
        <ele>462</ele>
        <time>2012-04-22T13:08:43Z</time>
      </trkpt>
      <trkpt lat="43.79716" lon="7.25953">
        <ele>462</ele>
        <time>2012-04-22T13:08:49Z</time>
      </trkpt>
      <trkpt lat="43.79708" lon="7.25929">
        <ele>462</ele>
        <time>2012-04-22T13:08:56Z</time>
      </trkpt>
      <trkpt lat="43.79703" lon="7.25889">
        <ele>462</ele>
        <time>2012-04-22T13:09:03Z</time>
      </trkpt>
      <trkpt lat="43.79702" lon="7.25877">
        <ele>462</ele>
        <time>2012-04-22T13:09:10Z</time>
      </trkpt>
      <trkpt lat="43.79705" lon="7.2585">
        <ele>463</ele>
        <time>2012-04-22T13:09:16Z</time>
      </trkpt>
      <trkpt lat="43.79713" lon="7.25813">
        <ele>464</ele>
        <time>2012-04-22T13:09:23Z</time>
      </trkpt>
      <trkpt lat="43.79719" lon="7.25786">
        <ele>464</ele>
        <time>2012-04-22T13:09:30Z</time>
      </trkpt>
      <trkpt lat="43.79721" lon="7.25773">
        <ele>466</ele>
        <time>2012-04-22T13:09:37Z</time>
      </trkpt>
      <trkpt lat="43.7973" lon="7.25747">
        <ele>467</ele>
        <time>2012-04-22T13:09:43Z</time>
      </trkpt>
      <trkpt lat="43.7974" lon="7.25706">
        <ele>467</ele>
        <time>2012-04-22T13:09:50Z</time>
      </trkpt>
      <trkpt lat="43.79746" lon="7.25679">
        <ele>468</ele>
        <time>2012-04-22T13:09:57Z</time>
      </trkpt>
      <trkpt lat="43.79747" lon="7.25667">
        <ele>468</ele>
        <time>2012-04-22T13:10:04Z</time>
      </trkpt>
      <trkpt lat="43.79739" lon="7.25634">
        <ele>468</ele>
        <time>2012-04-22T13:10:12Z</time>
      </trkpt>
      <trkpt lat="43.79725" lon="7.25611">
        <ele>469</ele>
        <time>2012-04-22T13:10:18Z</time>
      </trkpt>
      <trkpt lat="43.79703" lon="7.25601">
        <ele>472</ele>
        <time>2012-04-22T13:10:26Z</time>
      </trkpt>
      <trkpt lat="43.79682" lon="7.2561">
        <ele>473</ele>
        <time>2012-04-22T13:10:34Z</time>
      </trkpt>
      <trkpt lat="43.79654" lon="7.25636">
        <ele>473</ele>
        <time>2012-04-22T13:10:42Z</time>
      </trkpt>
      <trkpt lat="43.79646" lon="7.25643">
        <ele>473</ele>
        <time>2012-04-22T13:10:48Z</time>
      </trkpt>
      <trkpt lat="43.79619" lon="7.25667">
        <ele>473</ele>
        <time>2012-04-22T13:10:55Z</time>
      </trkpt>
      <trkpt lat="43.79597" lon="7.25672">
        <ele>473</ele>
        <time>2012-04-22T13:11:02Z</time>
      </trkpt>
      <trkpt lat="43.79584" lon="7.25669">
        <ele>474</ele>
        <time>2012-04-22T13:11:09Z</time>
      </trkpt>
      <trkpt lat="43.79563" lon="7.2565">
        <ele>474</ele>
        <time>2012-04-22T13:11:17Z</time>
      </trkpt>
      <trkpt lat="43.79554" lon="7.25622">
        <ele>474</ele>
        <time>2012-04-22T13:11:25Z</time>
      </trkpt>
      <trkpt lat="43.79546" lon="7.25591">
        <ele>474</ele>
        <time>2012-04-22T13:11:31Z</time>
      </trkpt>
      <trkpt lat="43.79534" lon="7.2555">
        <ele>476</ele>
        <time>2012-04-22T13:11:38Z</time>
      </trkpt>
      <trkpt lat="43.79519" lon="7.25528">
        <ele>478</ele>
        <time>2012-04-22T13:11:45Z</time>
      </trkpt>
      <trkpt lat="43.79506" lon="7.25522">
        <ele>480</ele>
        <time>2012-04-22T13:11:52Z</time>
      </trkpt>
      <trkpt lat="43.79482" lon="7.25531">
        <ele>480</ele>
        <time>2012-04-22T13:12:00Z</time>
      </trkpt>
      <trkpt lat="43.79464" lon="7.25548">
        <ele>480</ele>
        <time>2012-04-22T13:12:07Z</time>
      </trkpt>
      <trkpt lat="43.79432" lon="7.25559">
        <ele>480</ele>
        <time>2012-04-22T13:12:14Z</time>
      </trkpt>
      <trkpt lat="43.79418" lon="7.25557">
        <ele>480</ele>
        <time>2012-04-22T13:12:21Z</time>
      </trkpt>
      <trkpt lat="43.79396" lon="7.25544">
        <ele>482</ele>
        <time>2012-04-22T13:12:28Z</time>
      </trkpt>
      <trkpt lat="43.79375" lon="7.25529">
        <ele>483</ele>
        <time>2012-04-22T13:12:35Z</time>
      </trkpt>
      <trkpt lat="43.79344" lon="7.25506">
        <ele>483</ele>
        <time>2012-04-22T13:12:42Z</time>
      </trkpt>
      <trkpt lat="43.79336" lon="7.25497">
        <ele>484</ele>
        <time>2012-04-22T13:12:49Z</time>
      </trkpt>
      <trkpt lat="43.79319" lon="7.25475">
        <ele>485</ele>
        <time>2012-04-22T13:12:56Z</time>
      </trkpt>
      <trkpt lat="43.79308" lon="7.25441">
        <ele>486</ele>
        <time>2012-04-22T13:13:03Z</time>
      </trkpt>
      <trkpt lat="43.79306" lon="7.25408">
        <ele>487</ele>
        <time>2012-04-22T13:13:10Z</time>
      </trkpt>
      <trkpt lat="43.79303" lon="7.2536">
        <ele>490</ele>
        <time>2012-04-22T13:13:17Z</time>
      </trkpt>
      <trkpt lat="43.79298" lon="7.25328">
        <ele>492</ele>
        <time>2012-04-22T13:13:24Z</time>
      </trkpt>
      <trkpt lat="43.7929" lon="7.25314">
        <ele>494</ele>
        <time>2012-04-22T13:13:32Z</time>
      </trkpt>
      <trkpt lat="43.79267" lon="7.25301">
        <ele>494</ele>
        <time>2012-04-22T13:13:40Z</time>
      </trkpt>
      <trkpt lat="43.79241" lon="7.25309">
        <ele>494</ele>
        <time>2012-04-22T13:13:47Z</time>
      </trkpt>
      <trkpt lat="43.79211" lon="7.25326">
        <ele>494</ele>
        <time>2012-04-22T13:13:54Z</time>
      </trkpt>
      <trkpt lat="43.79202" lon="7.25331">
        <ele>494</ele>
        <time>2012-04-22T13:14:01Z</time>
      </trkpt>
      <trkpt lat="43.79179" lon="7.25345">
        <ele>494</ele>
        <time>2012-04-22T13:14:08Z</time>
      </trkpt>
      <trkpt lat="43.79155" lon="7.25357">
        <ele>495</ele>
        <time>2012-04-22T13:14:14Z</time>
      </trkpt>
      <trkpt lat="43.79132" lon="7.25366">
        <ele>496</ele>
        <time>2012-04-22T13:14:21Z</time>
      </trkpt>
      <trkpt lat="43.79098" lon="7.25373">
        <ele>497</ele>
        <time>2012-04-22T13:14:28Z</time>
      </trkpt>
      <trkpt lat="43.79087" lon="7.25374">
        <ele>499</ele>
        <time>2012-04-22T13:14:35Z</time>
      </trkpt>
      <trkpt lat="43.79058" lon="7.25374">
        <ele>501</ele>
        <time>2012-04-22T13:14:42Z</time>
      </trkpt>
      <trkpt lat="43.79031" lon="7.2537">
        <ele>501</ele>
        <time>2012-04-22T13:14:48Z</time>
      </trkpt>
      <trkpt lat="43.79004" lon="7.25363">
        <ele>501</ele>
        <time>2012-04-22T13:14:55Z</time>
      </trkpt>
      <trkpt lat="43.78962" lon="7.25349">
        <ele>501</ele>
        <time>2012-04-22T13:15:02Z</time>
      </trkpt>
      <trkpt lat="43.78949" lon="7.25336">
        <ele>501</ele>
        <time>2012-04-22T13:15:09Z</time>
      </trkpt>
      <trkpt lat="43.7893" lon="7.25299">
        <ele>501</ele>
        <time>2012-04-22T13:15:17Z</time>
      </trkpt>
      <trkpt lat="43.78916" lon="7.25268">
        <ele>502</ele>
        <time>2012-04-22T13:15:24Z</time>
      </trkpt>
      <trkpt lat="43.78879" lon="7.25239">
        <ele>505</ele>
        <time>2012-04-22T13:15:32Z</time>
      </trkpt>
      <trkpt lat="43.78863" lon="7.25239">
        <ele>506</ele>
        <time>2012-04-22T13:15:40Z</time>
      </trkpt>
      <trkpt lat="43.78835" lon="7.25236">
        <ele>507</ele>
        <time>2012-04-22T13:15:46Z</time>
      </trkpt>
      <trkpt lat="43.78807" lon="7.25217">
        <ele>508</ele>
        <time>2012-04-22T13:15:54Z</time>
      </trkpt>
      <trkpt lat="43.78768" lon="7.25207">
        <ele>508</ele>
        <time>2012-04-22T13:16:01Z</time>
      </trkpt>
      <trkpt lat="43.78754" lon="7.25216">
        <ele>510</ele>
        <time>2012-04-22T13:16:08Z</time>
      </trkpt>
      <trkpt lat="43.78729" lon="7.25239">
        <ele>510</ele>
        <time>2012-04-22T13:16:15Z</time>
      </trkpt>
      <trkpt lat="43.78693" lon="7.25263">
        <ele>510</ele>
        <time>2012-04-22T13:16:22Z</time>
      </trkpt>
      <trkpt lat="43.78676" lon="7.25264">
        <ele>511</ele>
        <time>2012-04-22T13:16:30Z</time>
      </trkpt>
      <trkpt lat="43.78647" lon="7.25257">
        <ele>511</ele>
        <time>2012-04-22T13:16:37Z</time>
      </trkpt>
      <trkpt lat="43.78619" lon="7.25254">
        <ele>511</ele>
        <time>2012-04-22T13:16:43Z</time>
      </trkpt>
      <trkpt lat="43.7859" lon="7.25256">
        <ele>511</ele>
        <time>2012-04-22T13:16:50Z</time>
      </trkpt>
      <trkpt lat="43.78552" lon="7.25258">
        <ele>511</ele>
        <time>2012-04-22T13:16:57Z</time>
      </trkpt>
      <trkpt lat="43.78523" lon="7.25259">
        <ele>511</ele>
        <time>2012-04-22T13:17:04Z</time>
      </trkpt>
      <trkpt lat="43.78507" lon="7.25262">
        <ele>511</ele>
        <time>2012-04-22T13:17:11Z</time>
      </trkpt>
      <trkpt lat="43.78479" lon="7.2527">
        <ele>511</ele>
        <time>2012-04-22T13:17:18Z</time>
      </trkpt>
      <trkpt lat="43.78453" lon="7.25279">
        <ele>511</ele>
        <time>2012-04-22T13:17:25Z</time>
      </trkpt>
      <trkpt lat="43.78428" lon="7.25289">
        <ele>511</ele>
        <time>2012-04-22T13:17:32Z</time>
      </trkpt>
      <trkpt lat="43.78402" lon="7.25303">
        <ele>511</ele>
        <time>2012-04-22T13:17:39Z</time>
      </trkpt>
      <trkpt lat="43.78376" lon="7.25317">
        <ele>511</ele>
        <time>2012-04-22T13:17:46Z</time>
      </trkpt>
      <trkpt lat="43.7835" lon="7.25332">
        <ele>513</ele>
        <time>2012-04-22T13:17:53Z</time>
      </trkpt>
      <trkpt lat="43.78314" lon="7.2536">
        <ele>515</ele>
        <time>2012-04-22T13:18:00Z</time>
      </trkpt>
      <trkpt lat="43.783" lon="7.25371">
        <ele>515</ele>
        <time>2012-04-22T13:18:07Z</time>
      </trkpt>
      <trkpt lat="43.78268" lon="7.25396">
        <ele>516</ele>
        <time>2012-04-22T13:18:14Z</time>
      </trkpt>
      <trkpt lat="43.78257" lon="7.25402">
        <ele>516</ele>
        <time>2012-04-22T13:18:21Z</time>
      </trkpt>
      <trkpt lat="43.78224" lon="7.25392">
        <ele>516</ele>
        <time>2012-04-22T13:18:29Z</time>
      </trkpt>
      <trkpt lat="43.7821" lon="7.25354">
        <ele>518</ele>
        <time>2012-04-22T13:18:37Z</time>
      </trkpt>
      <trkpt lat="43.78202" lon="7.25322">
        <ele>521</ele>
        <time>2012-04-22T13:18:44Z</time>
      </trkpt>
      <trkpt lat="43.78199" lon="7.25295">
        <ele>523</ele>
        <time>2012-04-22T13:18:51Z</time>
      </trkpt>
      <trkpt lat="43.782" lon="7.25277">
        <ele>524</ele>
        <time>2012-04-22T13:18:58Z</time>
      </trkpt>
      <trkpt lat="43.78206" lon="7.25262">
        <ele>524</ele>
        <time>2012-04-22T13:19:06Z</time>
      </trkpt>
      <trkpt lat="43.78208" lon="7.25261">
        <ele>524</ele>
        <time>2012-04-22T13:19:16Z</time>
      </trkpt>
      <trkpt lat="43.78209" lon="7.25256">
        <ele>530</ele>
        <time>2012-04-22T13:20:57Z</time>
      </trkpt>
      <trkpt lat="43.78215" lon="7.25245">
        <ele>530</ele>
        <time>2012-04-22T13:21:06Z</time>
      </trkpt>
      <trkpt lat="43.78233" lon="7.25216">
        <ele>530</ele>
        <time>2012-04-22T13:21:12Z</time>
      </trkpt>
      <trkpt lat="43.78256" lon="7.25177">
        <ele>530</ele>
        <time>2012-04-22T13:21:19Z</time>
      </trkpt>
      <trkpt lat="43.78285" lon="7.2513">
        <ele>530</ele>
        <time>2012-04-22T13:21:25Z</time>
      </trkpt>
      <trkpt lat="43.78318" lon="7.25073">
        <ele>530</ele>
        <time>2012-04-22T13:21:32Z</time>
      </trkpt>
      <trkpt lat="43.78348" lon="7.2499">
        <ele>526</ele>
        <time>2012-04-22T13:21:40Z</time>
      </trkpt>
      <trkpt lat="43.78363" lon="7.24909">
        <ele>523</ele>
        <time>2012-04-22T13:21:47Z</time>
      </trkpt>
      <trkpt lat="43.78371" lon="7.2483">
        <ele>520</ele>
        <time>2012-04-22T13:21:54Z</time>
      </trkpt>
      <trkpt lat="43.78387" lon="7.24755">
        <ele>518</ele>
        <time>2012-04-22T13:22:01Z</time>
      </trkpt>
      <trkpt lat="43.78406" lon="7.24679">
        <ele>516</ele>
        <time>2012-04-22T13:22:08Z</time>
      </trkpt>
      <trkpt lat="43.78449" lon="7.24599">
        <ele>512</ele>
        <time>2012-04-22T13:22:16Z</time>
      </trkpt>
      <trkpt lat="43.7846" lon="7.24536">
        <ele>509</ele>
        <time>2012-04-22T13:22:23Z</time>
      </trkpt>
      <trkpt lat="43.78489" lon="7.24482">
        <ele>505</ele>
        <time>2012-04-22T13:22:32Z</time>
      </trkpt>
      <trkpt lat="43.78486" lon="7.24453">
        <ele>501</ele>
        <time>2012-04-22T13:22:39Z</time>
      </trkpt>
      <trkpt lat="43.78478" lon="7.24421">
        <ele>501</ele>
        <time>2012-04-22T13:22:46Z</time>
      </trkpt>
      <trkpt lat="43.78468" lon="7.24389">
        <ele>501</ele>
        <time>2012-04-22T13:22:53Z</time>
      </trkpt>
      <trkpt lat="43.78451" lon="7.24383">
        <ele>501</ele>
        <time>2012-04-22T13:23:04Z</time>
      </trkpt>
      <trkpt lat="43.78449" lon="7.24382">
        <ele>501</ele>
        <time>2012-04-22T13:23:14Z</time>
      </trkpt>
      <trkpt lat="43.78449" lon="7.24378">
        <ele>503</ele>
        <time>2012-04-22T13:23:23Z</time>
      </trkpt>
      <trkpt lat="43.78445" lon="7.24375">
        <ele>503</ele>
        <time>2012-04-22T13:23:32Z</time>
      </trkpt>
      <trkpt lat="43.78437" lon="7.24373">
        <ele>503</ele>
        <time>2012-04-22T13:23:40Z</time>
      </trkpt>
      <trkpt lat="43.78436" lon="7.24376">
        <ele>503</ele>
        <time>2012-04-22T13:23:48Z</time>
      </trkpt>
      <trkpt lat="43.78437" lon="7.24378">
        <ele>503</ele>
        <time>2012-04-22T13:23:56Z</time>
      </trkpt>
      <trkpt lat="43.78438" lon="7.24379">
        <ele>503</ele>
        <time>2012-04-22T13:24:05Z</time>
      </trkpt>
      <trkpt lat="43.78443" lon="7.24384">
        <ele>503</ele>
        <time>2012-04-22T13:24:17Z</time>
      </trkpt>
      <trkpt lat="43.78443" lon="7.24388">
        <ele>503</ele>
        <time>2012-04-22T13:24:24Z</time>
      </trkpt>
      <trkpt lat="43.78442" lon="7.24387">
        <ele>504</ele>
        <time>2012-04-22T13:24:32Z</time>
      </trkpt>
      <trkpt lat="43.78441" lon="7.24384">
        <ele>504</ele>
        <time>2012-04-22T13:24:51Z</time>
      </trkpt>
      <trkpt lat="43.7844" lon="7.24387">
        <ele>504</ele>
        <time>2012-04-22T13:25:01Z</time>
      </trkpt>
      <trkpt lat="43.78441" lon="7.24385">
        <ele>504</ele>
        <time>2012-04-22T13:25:16Z</time>
      </trkpt>
      <trkpt lat="43.78442" lon="7.24382">
        <ele>504</ele>
        <time>2012-04-22T13:25:27Z</time>
      </trkpt>
      <trkpt lat="43.7844" lon="7.24383">
        <ele>504</ele>
        <time>2012-04-22T13:25:35Z</time>
      </trkpt>
      <trkpt lat="43.78442" lon="7.24382">
        <ele>504</ele>
        <time>2012-04-22T13:25:44Z</time>
      </trkpt>
      <trkpt lat="43.78443" lon="7.2438">
        <ele>503</ele>
        <time>2012-04-22T13:25:51Z</time>
      </trkpt>
      <trkpt lat="43.78445" lon="7.24384">
        <ele>504</ele>
        <time>2012-04-22T13:26:01Z</time>
      </trkpt>
      <trkpt lat="43.78446" lon="7.24382">
        <ele>506</ele>
        <time>2012-04-22T13:26:09Z</time>
      </trkpt>
      <trkpt lat="43.78447" lon="7.24381">
        <ele>506</ele>
        <time>2012-04-22T13:26:20Z</time>
      </trkpt>
      <trkpt lat="43.78447" lon="7.24382">
        <ele>506</ele>
        <time>2012-04-22T13:26:28Z</time>
      </trkpt>
      <trkpt lat="43.78445" lon="7.24383">
        <ele>506</ele>
        <time>2012-04-22T13:26:41Z</time>
      </trkpt>
      <trkpt lat="43.78444" lon="7.24384">
        <ele>506</ele>
        <time>2012-04-22T13:27:04Z</time>
      </trkpt>
      <trkpt lat="43.78444" lon="7.24385">
        <ele>507</ele>
        <time>2012-04-22T13:27:53Z</time>
      </trkpt>
      <trkpt lat="43.78445" lon="7.24387">
        <ele>501</ele>
        <time>2012-04-22T13:28:34Z</time>
      </trkpt>
      <trkpt lat="43.78445" lon="7.24385">
        <ele>500</ele>
        <time>2012-04-22T13:28:41Z</time>
      </trkpt>
      <trkpt lat="43.78445" lon="7.24384">
        <ele>498</ele>
        <time>2012-04-22T13:28:49Z</time>
      </trkpt>
      <trkpt lat="43.78445" lon="7.24382">
        <ele>496</ele>
        <time>2012-04-22T13:29:06Z</time>
      </trkpt>
      <trkpt lat="43.78444" lon="7.24384">
        <ele>496</ele>
        <time>2012-04-22T13:29:25Z</time>
      </trkpt>
      <trkpt lat="43.78444" lon="7.24383">
        <ele>500</ele>
        <time>2012-04-22T13:29:49Z</time>
      </trkpt>
      <trkpt lat="43.78444" lon="7.24381">
        <ele>500</ele>
        <time>2012-04-22T13:30:09Z</time>
      </trkpt>
      <trkpt lat="43.78443" lon="7.24383">
        <ele>500</ele>
        <time>2012-04-22T13:30:50Z</time>
      </trkpt>
      <trkpt lat="43.78444" lon="7.24381">
        <ele>499</ele>
        <time>2012-04-22T13:31:06Z</time>
      </trkpt>
      <trkpt lat="43.78445" lon="7.2438">
        <ele>497</ele>
        <time>2012-04-22T13:31:12Z</time>
      </trkpt>
      <trkpt lat="43.78444" lon="7.24381">
        <ele>496</ele>
        <time>2012-04-22T13:31:25Z</time>
      </trkpt>
      <trkpt lat="43.78442" lon="7.24385">
        <ele>496</ele>
        <time>2012-04-22T13:31:32Z</time>
      </trkpt>
      <trkpt lat="43.7844" lon="7.24388">
        <ele>498</ele>
        <time>2012-04-22T13:31:38Z</time>
      </trkpt>
      <trkpt lat="43.78439" lon="7.2439">
        <ele>499</ele>
        <time>2012-04-22T13:31:45Z</time>
      </trkpt>
      <trkpt lat="43.7844" lon="7.24389">
        <ele>504</ele>
        <time>2012-04-22T13:31:58Z</time>
      </trkpt>
      <trkpt lat="43.78442" lon="7.24386">
        <ele>504</ele>
        <time>2012-04-22T13:32:05Z</time>
      </trkpt>
      <trkpt lat="43.78443" lon="7.24385">
        <ele>504</ele>
        <time>2012-04-22T13:32:13Z</time>
      </trkpt>
      <trkpt lat="43.78444" lon="7.24383">
        <ele>504</ele>
        <time>2012-04-22T13:32:45Z</time>
      </trkpt>
      <trkpt lat="43.78443" lon="7.24385">
        <ele>498</ele>
        <time>2012-04-22T13:33:28Z</time>
      </trkpt>
      <trkpt lat="43.78443" lon="7.24386">
        <ele>497</ele>
        <time>2012-04-22T13:33:40Z</time>
      </trkpt>
      <trkpt lat="43.78442" lon="7.24388">
        <ele>497</ele>
        <time>2012-04-22T13:33:45Z</time>
      </trkpt>
      <trkpt lat="43.78444" lon="7.24387">
        <ele>496</ele>
        <time>2012-04-22T13:34:00Z</time>
      </trkpt>
      <trkpt lat="43.78444" lon="7.24386">
        <ele>495</ele>
        <time>2012-04-22T13:34:06Z</time>
      </trkpt>
      <trkpt lat="43.78445" lon="7.24384">
        <ele>495</ele>
        <time>2012-04-22T13:34:11Z</time>
      </trkpt>
      <trkpt lat="43.78446" lon="7.24385">
        <ele>495</ele>
        <time>2012-04-22T13:34:31Z</time>
      </trkpt>
      <trkpt lat="43.78447" lon="7.24383">
        <ele>500</ele>
        <time>2012-04-22T13:34:41Z</time>
      </trkpt>
      <trkpt lat="43.78446" lon="7.24383">
        <ele>503</ele>
        <time>2012-04-22T13:34:52Z</time>
      </trkpt>
      <trkpt lat="43.78445" lon="7.24385">
        <ele>503</ele>
        <time>2012-04-22T13:35:06Z</time>
      </trkpt>
      <trkpt lat="43.78444" lon="7.24384">
        <ele>500</ele>
        <time>2012-04-22T13:35:42Z</time>
      </trkpt>
      <trkpt lat="43.78445" lon="7.24382">
        <ele>500</ele>
        <time>2012-04-22T13:35:54Z</time>
      </trkpt>
      <trkpt lat="43.78444" lon="7.24381">
        <ele>500</ele>
        <time>2012-04-22T13:36:00Z</time>
      </trkpt>
      <trkpt lat="43.78444" lon="7.24382">
        <ele>498</ele>
        <time>2012-04-22T13:36:34Z</time>
      </trkpt>
      <trkpt lat="43.78442" lon="7.24385">
        <ele>501</ele>
        <time>2012-04-22T13:36:42Z</time>
      </trkpt>
      <trkpt lat="43.78443" lon="7.24384">
        <ele>506</ele>
        <time>2012-04-22T13:37:02Z</time>
      </trkpt>
      <trkpt lat="43.78442" lon="7.24385">
        <ele>507</ele>
        <time>2012-04-22T13:37:30Z</time>
      </trkpt>
      <trkpt lat="43.78443" lon="7.24384">
        <ele>507</ele>
        <time>2012-04-22T13:38:10Z</time>
      </trkpt>
      <trkpt lat="43.78442" lon="7.24385">
        <ele>507</ele>
        <time>2012-04-22T13:38:16Z</time>
      </trkpt>
      <trkpt lat="43.78441" lon="7.24387">
        <ele>507</ele>
        <time>2012-04-22T13:38:23Z</time>
      </trkpt>
      <trkpt lat="43.7844" lon="7.24385">
        <ele>508</ele>
        <time>2012-04-22T13:38:36Z</time>
      </trkpt>
      <trkpt lat="43.78441" lon="7.24382">
        <ele>508</ele>
        <time>2012-04-22T13:38:42Z</time>
      </trkpt>
      <trkpt lat="43.78442" lon="7.24379">
        <ele>508</ele>
        <time>2012-04-22T13:38:49Z</time>
      </trkpt>
      <trkpt lat="43.78445" lon="7.24377">
        <ele>508</ele>
        <time>2012-04-22T13:38:55Z</time>
      </trkpt>
      <trkpt lat="43.78451" lon="7.24375">
        <ele>511</ele>
        <time>2012-04-22T13:39:00Z</time>
      </trkpt>
      <trkpt lat="43.78451" lon="7.24374">
        <ele>514</ele>
        <time>2012-04-22T13:39:16Z</time>
      </trkpt>
      <trkpt lat="43.78455" lon="7.24374">
        <ele>514</ele>
        <time>2012-04-22T13:39:21Z</time>
      </trkpt>
      <trkpt lat="43.78454" lon="7.24374">
        <ele>515</ele>
        <time>2012-04-22T13:39:37Z</time>
      </trkpt>
      <trkpt lat="43.7845" lon="7.24375">
        <ele>515</ele>
        <time>2012-04-22T13:39:43Z</time>
      </trkpt>
      <trkpt lat="43.78448" lon="7.24374">
        <ele>513</ele>
        <time>2012-04-22T13:39:56Z</time>
      </trkpt>
      <trkpt lat="43.78447" lon="7.24377">
        <ele>512</ele>
        <time>2012-04-22T13:40:05Z</time>
      </trkpt>
      <trkpt lat="43.78445" lon="7.24378">
        <ele>512</ele>
        <time>2012-04-22T13:40:12Z</time>
      </trkpt>
      <trkpt lat="43.78447" lon="7.24379">
        <ele>510</ele>
        <time>2012-04-22T13:40:19Z</time>
      </trkpt>
      <trkpt lat="43.78451" lon="7.24383">
        <ele>510</ele>
        <time>2012-04-22T13:40:26Z</time>
      </trkpt>
      <trkpt lat="43.78452" lon="7.24384">
        <ele>510</ele>
        <time>2012-04-22T13:40:34Z</time>
      </trkpt>
      <trkpt lat="43.78452" lon="7.24383">
        <ele>509</ele>
        <time>2012-04-22T13:40:47Z</time>
      </trkpt>
      <trkpt lat="43.78451" lon="7.24378">
        <ele>509</ele>
        <time>2012-04-22T13:40:53Z</time>
      </trkpt>
      <trkpt lat="43.7845" lon="7.24373">
        <ele>511</ele>
        <time>2012-04-22T13:41:09Z</time>
      </trkpt>
      <trkpt lat="43.7845" lon="7.24369">
        <ele>516</ele>
        <time>2012-04-22T13:41:19Z</time>
      </trkpt>
      <trkpt lat="43.7845" lon="7.24372">
        <ele>518</ele>
        <time>2012-04-22T13:41:25Z</time>
      </trkpt>
      <trkpt lat="43.78447" lon="7.24372">
        <ele>518</ele>
        <time>2012-04-22T13:41:31Z</time>
      </trkpt>
      <trkpt lat="43.78446" lon="7.2437">
        <ele>518</ele>
        <time>2012-04-22T13:41:37Z</time>
      </trkpt>
      <trkpt lat="43.78448" lon="7.2437">
        <ele>518</ele>
        <time>2012-04-22T13:41:45Z</time>
      </trkpt>
      <trkpt lat="43.78448" lon="7.24375">
        <ele>517</ele>
        <time>2012-04-22T13:41:52Z</time>
      </trkpt>
      <trkpt lat="43.78446" lon="7.24376">
        <ele>512</ele>
        <time>2012-04-22T13:42:02Z</time>
      </trkpt>
      <trkpt lat="43.78444" lon="7.24377">
        <ele>508</ele>
        <time>2012-04-22T13:42:07Z</time>
      </trkpt>
      <trkpt lat="43.78441" lon="7.24378">
        <ele>505</ele>
        <time>2012-04-22T13:42:12Z</time>
      </trkpt>
      <trkpt lat="43.78438" lon="7.24377">
        <ele>503</ele>
        <time>2012-04-22T13:42:18Z</time>
      </trkpt>
      <trkpt lat="43.7844" lon="7.24379">
        <ele>501</ele>
        <time>2012-04-22T13:42:24Z</time>
      </trkpt>
      <trkpt lat="43.78441" lon="7.24379">
        <ele>500</ele>
        <time>2012-04-22T13:42:29Z</time>
      </trkpt>
      <trkpt lat="43.7844" lon="7.24377">
        <ele>500</ele>
        <time>2012-04-22T13:42:37Z</time>
      </trkpt>
      <trkpt lat="43.78438" lon="7.24378">
        <ele>500</ele>
        <time>2012-04-22T13:42:43Z</time>
      </trkpt>
      <trkpt lat="43.78436" lon="7.24379">
        <ele>500</ele>
        <time>2012-04-22T13:42:49Z</time>
      </trkpt>
      <trkpt lat="43.7844" lon="7.24379">
        <ele>500</ele>
        <time>2012-04-22T13:42:56Z</time>
      </trkpt>
      <trkpt lat="43.78442" lon="7.24378">
        <ele>500</ele>
        <time>2012-04-22T13:43:08Z</time>
      </trkpt>
      <trkpt lat="43.7844" lon="7.24377">
        <ele>500</ele>
        <time>2012-04-22T13:43:17Z</time>
      </trkpt>
      <trkpt lat="43.78439" lon="7.24377">
        <ele>500</ele>
        <time>2012-04-22T13:43:23Z</time>
      </trkpt>
      <trkpt lat="43.78439" lon="7.24378">
        <ele>504</ele>
        <time>2012-04-22T13:43:36Z</time>
      </trkpt>
      <trkpt lat="43.78439" lon="7.24376">
        <ele>505</ele>
        <time>2012-04-22T13:43:47Z</time>
      </trkpt>
      <trkpt lat="43.78438" lon="7.24372">
        <ele>505</ele>
        <time>2012-04-22T13:44:19Z</time>
      </trkpt>
      <trkpt lat="43.78439" lon="7.24371">
        <ele>505</ele>
        <time>2012-04-22T13:44:35Z</time>
      </trkpt>
      <trkpt lat="43.7844" lon="7.24371">
        <ele>505</ele>
        <time>2012-04-22T13:44:41Z</time>
      </trkpt>
      <trkpt lat="43.78442" lon="7.24371">
        <ele>505</ele>
        <time>2012-04-22T13:44:46Z</time>
      </trkpt>
      <trkpt lat="43.78447" lon="7.24376">
        <ele>505</ele>
        <time>2012-04-22T13:44:52Z</time>
      </trkpt>
      <trkpt lat="43.78459" lon="7.24381">
        <ele>505</ele>
        <time>2012-04-22T13:44:57Z</time>
      </trkpt>
      <trkpt lat="43.78479" lon="7.24398">
        <ele>505</ele>
        <time>2012-04-22T13:45:02Z</time>
      </trkpt>
      <trkpt lat="43.78485" lon="7.24428">
        <ele>505</ele>
        <time>2012-04-22T13:45:07Z</time>
      </trkpt>
      <trkpt lat="43.7849" lon="7.24465">
        <ele>504</ele>
        <time>2012-04-22T13:45:12Z</time>
      </trkpt>
      <trkpt lat="43.78488" lon="7.24495">
        <ele>501</ele>
        <time>2012-04-22T13:45:17Z</time>
      </trkpt>
      <trkpt lat="43.78479" lon="7.24505">
        <ele>499</ele>
        <time>2012-04-22T13:45:22Z</time>
      </trkpt>
      <trkpt lat="43.78471" lon="7.24514">
        <ele>498</ele>
        <time>2012-04-22T13:45:28Z</time>
      </trkpt>
      <trkpt lat="43.78466" lon="7.24526">
        <ele>498</ele>
        <time>2012-04-22T13:45:33Z</time>
      </trkpt>
      <trkpt lat="43.78461" lon="7.24537">
        <ele>498</ele>
        <time>2012-04-22T13:45:38Z</time>
      </trkpt>
      <trkpt lat="43.78455" lon="7.24551">
        <ele>498</ele>
        <time>2012-04-22T13:45:44Z</time>
      </trkpt>
      <trkpt lat="43.7845" lon="7.24565">
        <ele>498</ele>
        <time>2012-04-22T13:45:49Z</time>
      </trkpt>
      <trkpt lat="43.78446" lon="7.24581">
        <ele>500</ele>
        <time>2012-04-22T13:45:54Z</time>
      </trkpt>
      <trkpt lat="43.78446" lon="7.24597">
        <ele>500</ele>
        <time>2012-04-22T13:45:59Z</time>
      </trkpt>
      <trkpt lat="43.78444" lon="7.24614">
        <ele>500</ele>
        <time>2012-04-22T13:46:04Z</time>
      </trkpt>
      <trkpt lat="43.78438" lon="7.24627">
        <ele>500</ele>
        <time>2012-04-22T13:46:09Z</time>
      </trkpt>
      <trkpt lat="43.78431" lon="7.24637">
        <ele>501</ele>
        <time>2012-04-22T13:46:14Z</time>
      </trkpt>
      <trkpt lat="43.78422" lon="7.24651">
        <ele>502</ele>
        <time>2012-04-22T13:46:20Z</time>
      </trkpt>
      <trkpt lat="43.78415" lon="7.2466">
        <ele>503</ele>
        <time>2012-04-22T13:46:25Z</time>
      </trkpt>
      <trkpt lat="43.78407" lon="7.24672">
        <ele>506</ele>
        <time>2012-04-22T13:46:31Z</time>
      </trkpt>
      <trkpt lat="43.78402" lon="7.24684">
        <ele>507</ele>
        <time>2012-04-22T13:46:36Z</time>
      </trkpt>
      <trkpt lat="43.78398" lon="7.24696">
        <ele>508</ele>
        <time>2012-04-22T13:46:41Z</time>
      </trkpt>
      <trkpt lat="43.78395" lon="7.24709">
        <ele>509</ele>
        <time>2012-04-22T13:46:46Z</time>
      </trkpt>
      <trkpt lat="43.78391" lon="7.24722">
        <ele>511</ele>
        <time>2012-04-22T13:46:51Z</time>
      </trkpt>
      <trkpt lat="43.78389" lon="7.24736">
        <ele>512</ele>
        <time>2012-04-22T13:46:56Z</time>
      </trkpt>
      <trkpt lat="43.78387" lon="7.24749">
        <ele>512</ele>
        <time>2012-04-22T13:47:01Z</time>
      </trkpt>
      <trkpt lat="43.78383" lon="7.24765">
        <ele>512</ele>
        <time>2012-04-22T13:47:07Z</time>
      </trkpt>
      <trkpt lat="43.7838" lon="7.2478">
        <ele>512</ele>
        <time>2012-04-22T13:47:12Z</time>
      </trkpt>
      <trkpt lat="43.78376" lon="7.24795">
        <ele>512</ele>
        <time>2012-04-22T13:47:17Z</time>
      </trkpt>
      <trkpt lat="43.78373" lon="7.2481">
        <ele>512</ele>
        <time>2012-04-22T13:47:22Z</time>
      </trkpt>
      <trkpt lat="43.78369" lon="7.24826">
        <ele>512</ele>
        <time>2012-04-22T13:47:27Z</time>
      </trkpt>
      <trkpt lat="43.78366" lon="7.24843">
        <ele>512</ele>
        <time>2012-04-22T13:47:32Z</time>
      </trkpt>
      <trkpt lat="43.78364" lon="7.24865">
        <ele>513</ele>
        <time>2012-04-22T13:47:38Z</time>
      </trkpt>
      <trkpt lat="43.78362" lon="7.24883">
        <ele>513</ele>
        <time>2012-04-22T13:47:43Z</time>
      </trkpt>
      <trkpt lat="43.7836" lon="7.24903">
        <ele>514</ele>
        <time>2012-04-22T13:47:48Z</time>
      </trkpt>
      <trkpt lat="43.78359" lon="7.24922">
        <ele>514</ele>
        <time>2012-04-22T13:47:53Z</time>
      </trkpt>
      <trkpt lat="43.78356" lon="7.24945">
        <ele>514</ele>
        <time>2012-04-22T13:47:59Z</time>
      </trkpt>
      <trkpt lat="43.78353" lon="7.24965">
        <ele>514</ele>
        <time>2012-04-22T13:48:04Z</time>
      </trkpt>
      <trkpt lat="43.78347" lon="7.24984">
        <ele>514</ele>
        <time>2012-04-22T13:48:09Z</time>
      </trkpt>
      <trkpt lat="43.7834" lon="7.25007">
        <ele>515</ele>
        <time>2012-04-22T13:48:15Z</time>
      </trkpt>
      <trkpt lat="43.78335" lon="7.25025">
        <ele>515</ele>
        <time>2012-04-22T13:48:20Z</time>
      </trkpt>
      <trkpt lat="43.78329" lon="7.25048">
        <ele>515</ele>
        <time>2012-04-22T13:48:26Z</time>
      </trkpt>
      <trkpt lat="43.78321" lon="7.25065">
        <ele>516</ele>
        <time>2012-04-22T13:48:31Z</time>
      </trkpt>
      <trkpt lat="43.78311" lon="7.25083">
        <ele>517</ele>
        <time>2012-04-22T13:48:37Z</time>
      </trkpt>
      <trkpt lat="43.78302" lon="7.25098">
        <ele>519</ele>
        <time>2012-04-22T13:48:42Z</time>
      </trkpt>
      <trkpt lat="43.78293" lon="7.25113">
        <ele>519</ele>
        <time>2012-04-22T13:48:47Z</time>
      </trkpt>
      <trkpt lat="43.78285" lon="7.25127">
        <ele>519</ele>
        <time>2012-04-22T13:48:52Z</time>
      </trkpt>
      <trkpt lat="43.78276" lon="7.25142">
        <ele>520</ele>
        <time>2012-04-22T13:48:57Z</time>
      </trkpt>
      <trkpt lat="43.78267" lon="7.25158">
        <ele>521</ele>
        <time>2012-04-22T13:49:02Z</time>
      </trkpt>
      <trkpt lat="43.78256" lon="7.25178">
        <ele>522</ele>
        <time>2012-04-22T13:49:08Z</time>
      </trkpt>
      <trkpt lat="43.78244" lon="7.25197">
        <ele>522</ele>
        <time>2012-04-22T13:49:14Z</time>
      </trkpt>
      <trkpt lat="43.78235" lon="7.25214">
        <ele>522</ele>
        <time>2012-04-22T13:49:19Z</time>
      </trkpt>
      <trkpt lat="43.78225" lon="7.25229">
        <ele>522</ele>
        <time>2012-04-22T13:49:24Z</time>
      </trkpt>
      <trkpt lat="43.78215" lon="7.25244">
        <ele>522</ele>
        <time>2012-04-22T13:49:29Z</time>
      </trkpt>
      <trkpt lat="43.78206" lon="7.25259">
        <ele>523</ele>
        <time>2012-04-22T13:49:34Z</time>
      </trkpt>
      <trkpt lat="43.78203" lon="7.25271">
        <ele>523</ele>
        <time>2012-04-22T13:49:39Z</time>
      </trkpt>
      <trkpt lat="43.78199" lon="7.25282">
        <ele>523</ele>
        <time>2012-04-22T13:49:44Z</time>
      </trkpt>
      <trkpt lat="43.78194" lon="7.2529">
        <ele>523</ele>
        <time>2012-04-22T13:49:51Z</time>
      </trkpt>
      <trkpt lat="43.78192" lon="7.25288">
        <ele>525</ele>
        <time>2012-04-22T13:49:59Z</time>
      </trkpt>
      <trkpt lat="43.78185" lon="7.25281">
        <ele>525</ele>
        <time>2012-04-22T13:50:04Z</time>
      </trkpt>
      <trkpt lat="43.78172" lon="7.25269">
        <ele>525</ele>
        <time>2012-04-22T13:50:10Z</time>
      </trkpt>
      <trkpt lat="43.78164" lon="7.2526">
        <ele>525</ele>
        <time>2012-04-22T13:50:15Z</time>
      </trkpt>
      <trkpt lat="43.78158" lon="7.2525">
        <ele>525</ele>
        <time>2012-04-22T13:50:20Z</time>
      </trkpt>
      <trkpt lat="43.78156" lon="7.25238">
        <ele>527</ele>
        <time>2012-04-22T13:50:26Z</time>
      </trkpt>
      <trkpt lat="43.78159" lon="7.25226">
        <ele>528</ele>
        <time>2012-04-22T13:50:31Z</time>
      </trkpt>
      <trkpt lat="43.78171" lon="7.25204">
        <ele>530</ele>
        <time>2012-04-22T13:50:36Z</time>
      </trkpt>
      <trkpt lat="43.78194" lon="7.25162">
        <ele>530</ele>
        <time>2012-04-22T13:50:41Z</time>
      </trkpt>
      <trkpt lat="43.78221" lon="7.25107">
        <ele>530</ele>
        <time>2012-04-22T13:50:47Z</time>
      </trkpt>
      <trkpt lat="43.78222" lon="7.25102">
        <ele>530</ele>
        <time>2012-04-22T13:51:00Z</time>
      </trkpt>
      <trkpt lat="43.78221" lon="7.25102">
        <ele>530</ele>
        <time>2012-04-22T13:51:17Z</time>
      </trkpt>
      <trkpt lat="43.78219" lon="7.25102">
        <ele>530</ele>
        <time>2012-04-22T13:51:27Z</time>
      </trkpt>
      <trkpt lat="43.78221" lon="7.25095">
        <ele>530</ele>
        <time>2012-04-22T13:51:32Z</time>
      </trkpt>
      <trkpt lat="43.78223" lon="7.25088">
        <ele>530</ele>
        <time>2012-04-22T13:51:37Z</time>
      </trkpt>
      <trkpt lat="43.78222" lon="7.2508">
        <ele>530</ele>
        <time>2012-04-22T13:51:43Z</time>
      </trkpt>
      <trkpt lat="43.78222" lon="7.25073">
        <ele>531</ele>
        <time>2012-04-22T13:51:49Z</time>
      </trkpt>
      <trkpt lat="43.7822" lon="7.25067">
        <ele>532</ele>
        <time>2012-04-22T13:51:55Z</time>
      </trkpt>
      <trkpt lat="43.78219" lon="7.25062">
        <ele>532</ele>
        <time>2012-04-22T13:52:01Z</time>
      </trkpt>
      <trkpt lat="43.7822" lon="7.25055">
        <ele>533</ele>
        <time>2012-04-22T13:52:07Z</time>
      </trkpt>
      <trkpt lat="43.7822" lon="7.25048">
        <ele>534</ele>
        <time>2012-04-22T13:52:13Z</time>
      </trkpt>
      <trkpt lat="43.7822" lon="7.25038">
        <ele>534</ele>
        <time>2012-04-22T13:52:20Z</time>
      </trkpt>
      <trkpt lat="43.78219" lon="7.25031">
        <ele>536</ele>
        <time>2012-04-22T13:52:26Z</time>
      </trkpt>
      <trkpt lat="43.78217" lon="7.25026">
        <ele>537</ele>
        <time>2012-04-22T13:52:31Z</time>
      </trkpt>
      <trkpt lat="43.78218" lon="7.25018">
        <ele>538</ele>
        <time>2012-04-22T13:52:37Z</time>
      </trkpt>
      <trkpt lat="43.78218" lon="7.25011">
        <ele>540</ele>
        <time>2012-04-22T13:52:43Z</time>
      </trkpt>
      <trkpt lat="43.78216" lon="7.25004">
        <ele>541</ele>
        <time>2012-04-22T13:52:49Z</time>
      </trkpt>
      <trkpt lat="43.78215" lon="7.24997">
        <ele>541</ele>
        <time>2012-04-22T13:52:55Z</time>
      </trkpt>
      <trkpt lat="43.78212" lon="7.24992">
        <ele>543</ele>
        <time>2012-04-22T13:53:01Z</time>
      </trkpt>
      <trkpt lat="43.7821" lon="7.24986">
        <ele>544</ele>
        <time>2012-04-22T13:53:07Z</time>
      </trkpt>
      <trkpt lat="43.78208" lon="7.24979">
        <ele>544</ele>
        <time>2012-04-22T13:53:13Z</time>
      </trkpt>
      <trkpt lat="43.78205" lon="7.24972">
        <ele>545</ele>
        <time>2012-04-22T13:53:19Z</time>
      </trkpt>
      <trkpt lat="43.78204" lon="7.24965">
        <ele>545</ele>
        <time>2012-04-22T13:53:25Z</time>
      </trkpt>
      <trkpt lat="43.78203" lon="7.24958">
        <ele>546</ele>
        <time>2012-04-22T13:53:31Z</time>
      </trkpt>
      <trkpt lat="43.78202" lon="7.24952">
        <ele>547</ele>
        <time>2012-04-22T13:53:37Z</time>
      </trkpt>
      <trkpt lat="43.78198" lon="7.24946">
        <ele>547</ele>
        <time>2012-04-22T13:53:43Z</time>
      </trkpt>
      <trkpt lat="43.78196" lon="7.24941">
        <ele>547</ele>
        <time>2012-04-22T13:53:49Z</time>
      </trkpt>
      <trkpt lat="43.78192" lon="7.24938">
        <ele>547</ele>
        <time>2012-04-22T13:53:55Z</time>
      </trkpt>
      <trkpt lat="43.78188" lon="7.24935">
        <ele>547</ele>
        <time>2012-04-22T13:54:01Z</time>
      </trkpt>
      <trkpt lat="43.78183" lon="7.24929">
        <ele>548</ele>
        <time>2012-04-22T13:54:07Z</time>
      </trkpt>
      <trkpt lat="43.7818" lon="7.24923">
        <ele>548</ele>
        <time>2012-04-22T13:54:12Z</time>
      </trkpt>
      <trkpt lat="43.78176" lon="7.24917">
        <ele>549</ele>
        <time>2012-04-22T13:54:18Z</time>
      </trkpt>
      <trkpt lat="43.7817" lon="7.24912">
        <ele>551</ele>
        <time>2012-04-22T13:54:24Z</time>
      </trkpt>
      <trkpt lat="43.78164" lon="7.24906">
        <ele>553</ele>
        <time>2012-04-22T13:54:30Z</time>
      </trkpt>
      <trkpt lat="43.78158" lon="7.24902">
        <ele>553</ele>
        <time>2012-04-22T13:54:36Z</time>
      </trkpt>
      <trkpt lat="43.78152" lon="7.24899">
        <ele>553</ele>
        <time>2012-04-22T13:54:42Z</time>
      </trkpt>
      <trkpt lat="43.78147" lon="7.24895">
        <ele>553</ele>
        <time>2012-04-22T13:54:48Z</time>
      </trkpt>
      <trkpt lat="43.78141" lon="7.24892">
        <ele>554</ele>
        <time>2012-04-22T13:54:54Z</time>
      </trkpt>
      <trkpt lat="43.78136" lon="7.24887">
        <ele>555</ele>
        <time>2012-04-22T13:55:00Z</time>
      </trkpt>
      <trkpt lat="43.78131" lon="7.24884">
        <ele>556</ele>
        <time>2012-04-22T13:55:06Z</time>
      </trkpt>
      <trkpt lat="43.78125" lon="7.24882">
        <ele>558</ele>
        <time>2012-04-22T13:55:12Z</time>
      </trkpt>
      <trkpt lat="43.7812" lon="7.24881">
        <ele>559</ele>
        <time>2012-04-22T13:55:18Z</time>
      </trkpt>
      <trkpt lat="43.78115" lon="7.24881">
        <ele>561</ele>
        <time>2012-04-22T13:55:25Z</time>
      </trkpt>
      <trkpt lat="43.78109" lon="7.24879">
        <ele>562</ele>
        <time>2012-04-22T13:55:31Z</time>
      </trkpt>
      <trkpt lat="43.78104" lon="7.24879">
        <ele>562</ele>
        <time>2012-04-22T13:55:37Z</time>
      </trkpt>
      <trkpt lat="43.78099" lon="7.24879">
        <ele>563</ele>
        <time>2012-04-22T13:55:43Z</time>
      </trkpt>
      <trkpt lat="43.78095" lon="7.2488">
        <ele>564</ele>
        <time>2012-04-22T13:55:49Z</time>
      </trkpt>
      <trkpt lat="43.7809" lon="7.24882">
        <ele>564</ele>
        <time>2012-04-22T13:55:55Z</time>
      </trkpt>
      <trkpt lat="43.78085" lon="7.24884">
        <ele>565</ele>
        <time>2012-04-22T13:56:01Z</time>
      </trkpt>
      <trkpt lat="43.78079" lon="7.24883">
        <ele>565</ele>
        <time>2012-04-22T13:56:07Z</time>
      </trkpt>
      <trkpt lat="43.78074" lon="7.24882">
        <ele>567</ele>
        <time>2012-04-22T13:56:13Z</time>
      </trkpt>
      <trkpt lat="43.7807" lon="7.24884">
        <ele>567</ele>
        <time>2012-04-22T13:56:19Z</time>
      </trkpt>
      <trkpt lat="43.78066" lon="7.24884">
        <ele>568</ele>
        <time>2012-04-22T13:56:25Z</time>
      </trkpt>
      <trkpt lat="43.78061" lon="7.24884">
        <ele>568</ele>
        <time>2012-04-22T13:56:31Z</time>
      </trkpt>
      <trkpt lat="43.78056" lon="7.24884">
        <ele>570</ele>
        <time>2012-04-22T13:56:37Z</time>
      </trkpt>
      <trkpt lat="43.78052" lon="7.24882">
        <ele>570</ele>
        <time>2012-04-22T13:56:43Z</time>
      </trkpt>
      <trkpt lat="43.78047" lon="7.24883">
        <ele>572</ele>
        <time>2012-04-22T13:56:49Z</time>
      </trkpt>
      <trkpt lat="43.78043" lon="7.24883">
        <ele>573</ele>
        <time>2012-04-22T13:56:55Z</time>
      </trkpt>
      <trkpt lat="43.78039" lon="7.24882">
        <ele>574</ele>
        <time>2012-04-22T13:57:01Z</time>
      </trkpt>
      <trkpt lat="43.78035" lon="7.24881">
        <ele>576</ele>
        <time>2012-04-22T13:57:07Z</time>
      </trkpt>
      <trkpt lat="43.78031" lon="7.24883">
        <ele>578</ele>
        <time>2012-04-22T13:57:12Z</time>
      </trkpt>
      <trkpt lat="43.78027" lon="7.2488">
        <ele>581</ele>
        <time>2012-04-22T13:57:18Z</time>
      </trkpt>
      <trkpt lat="43.78022" lon="7.2488">
        <ele>583</ele>
        <time>2012-04-22T13:57:24Z</time>
      </trkpt>
      <trkpt lat="43.78017" lon="7.2488">
        <ele>584</ele>
        <time>2012-04-22T13:57:30Z</time>
      </trkpt>
      <trkpt lat="43.78013" lon="7.24879">
        <ele>586</ele>
        <time>2012-04-22T13:57:36Z</time>
      </trkpt>
      <trkpt lat="43.78008" lon="7.24879">
        <ele>586</ele>
        <time>2012-04-22T13:57:42Z</time>
      </trkpt>
      <trkpt lat="43.78003" lon="7.24877">
        <ele>587</ele>
        <time>2012-04-22T13:57:47Z</time>
      </trkpt>
      <trkpt lat="43.77997" lon="7.24876">
        <ele>587</ele>
        <time>2012-04-22T13:57:52Z</time>
      </trkpt>
      <trkpt lat="43.77992" lon="7.24874">
        <ele>587</ele>
        <time>2012-04-22T13:57:57Z</time>
      </trkpt>
      <trkpt lat="43.77992" lon="7.24877">
        <ele>587</ele>
        <time>2012-04-22T13:58:08Z</time>
      </trkpt>
      <trkpt lat="43.77985" lon="7.24872">
        <ele>587</ele>
        <time>2012-04-22T13:58:16Z</time>
      </trkpt>
      <trkpt lat="43.77984" lon="7.2487">
        <ele>587</ele>
        <time>2012-04-22T13:58:23Z</time>
      </trkpt>
      <trkpt lat="43.77982" lon="7.24858">
        <ele>587</ele>
        <time>2012-04-22T13:58:32Z</time>
      </trkpt>
      <trkpt lat="43.7798" lon="7.24846">
        <ele>587</ele>
        <time>2012-04-22T13:58:39Z</time>
      </trkpt>
      <trkpt lat="43.77979" lon="7.24836">
        <ele>588</ele>
        <time>2012-04-22T13:58:46Z</time>
      </trkpt>
      <trkpt lat="43.77976" lon="7.24825">
        <ele>588</ele>
        <time>2012-04-22T13:58:53Z</time>
      </trkpt>
      <trkpt lat="43.77976" lon="7.24816">
        <ele>590</ele>
        <time>2012-04-22T13:59:02Z</time>
      </trkpt>
      <trkpt lat="43.77974" lon="7.24807">
        <ele>592</ele>
        <time>2012-04-22T13:59:10Z</time>
      </trkpt>
      <trkpt lat="43.77972" lon="7.24799">
        <ele>594</ele>
        <time>2012-04-22T13:59:17Z</time>
      </trkpt>
      <trkpt lat="43.77969" lon="7.24791">
        <ele>595</ele>
        <time>2012-04-22T13:59:24Z</time>
      </trkpt>
      <trkpt lat="43.77966" lon="7.24795">
        <ele>596</ele>
        <time>2012-04-22T13:59:33Z</time>
      </trkpt>
      <trkpt lat="43.77958" lon="7.24804">
        <ele>599</ele>
        <time>2012-04-22T13:59:42Z</time>
      </trkpt>
      <trkpt lat="43.77954" lon="7.24812">
        <ele>601</ele>
        <time>2012-04-22T13:59:52Z</time>
      </trkpt>
      <trkpt lat="43.77953" lon="7.24815">
        <ele>602</ele>
        <time>2012-04-22T13:59:58Z</time>
      </trkpt>
      <trkpt lat="43.77946" lon="7.2482">
        <ele>603</ele>
        <time>2012-04-22T14:00:06Z</time>
      </trkpt>
      <trkpt lat="43.77943" lon="7.2482">
        <ele>604</ele>
        <time>2012-04-22T14:00:14Z</time>
      </trkpt>
      <trkpt lat="43.7794" lon="7.24823">
        <ele>606</ele>
        <time>2012-04-22T14:00:23Z</time>
      </trkpt>
      <trkpt lat="43.77935" lon="7.24815">
        <ele>606</ele>
        <time>2012-04-22T14:00:31Z</time>
      </trkpt>
      <trkpt lat="43.7793" lon="7.24808">
        <ele>606</ele>
        <time>2012-04-22T14:00:39Z</time>
      </trkpt>
      <trkpt lat="43.77924" lon="7.24812">
        <ele>608</ele>
        <time>2012-04-22T14:00:49Z</time>
      </trkpt>
      <trkpt lat="43.77918" lon="7.24806">
        <ele>610</ele>
        <time>2012-04-22T14:00:57Z</time>
      </trkpt>
      <trkpt lat="43.77916" lon="7.24804">
        <ele>611</ele>
        <time>2012-04-22T14:01:04Z</time>
      </trkpt>
      <trkpt lat="43.77911" lon="7.24799">
        <ele>611</ele>
        <time>2012-04-22T14:01:13Z</time>
      </trkpt>
      <trkpt lat="43.77906" lon="7.24805">
        <ele>611</ele>
        <time>2012-04-22T14:01:21Z</time>
      </trkpt>
      <trkpt lat="43.77903" lon="7.2481">
        <ele>614</ele>
        <time>2012-04-22T14:01:28Z</time>
      </trkpt>
      <trkpt lat="43.77899" lon="7.24814">
        <ele>616</ele>
        <time>2012-04-22T14:01:36Z</time>
      </trkpt>
      <trkpt lat="43.77894" lon="7.24818">
        <ele>620</ele>
        <time>2012-04-22T14:01:44Z</time>
      </trkpt>
      <trkpt lat="43.77889" lon="7.24823">
        <ele>622</ele>
        <time>2012-04-22T14:01:53Z</time>
      </trkpt>
      <trkpt lat="43.77883" lon="7.24828">
        <ele>624</ele>
        <time>2012-04-22T14:02:02Z</time>
      </trkpt>
      <trkpt lat="43.77878" lon="7.24834">
        <ele>626</ele>
        <time>2012-04-22T14:02:11Z</time>
      </trkpt>
      <trkpt lat="43.77873" lon="7.24837">
        <ele>628</ele>
        <time>2012-04-22T14:02:18Z</time>
      </trkpt>
      <trkpt lat="43.77868" lon="7.24841">
        <ele>630</ele>
        <time>2012-04-22T14:02:27Z</time>
      </trkpt>
      <trkpt lat="43.77858" lon="7.24847">
        <ele>631</ele>
        <time>2012-04-22T14:02:36Z</time>
      </trkpt>
      <trkpt lat="43.77852" lon="7.24855">
        <ele>631</ele>
        <time>2012-04-22T14:02:45Z</time>
      </trkpt>
      <trkpt lat="43.7785" lon="7.24857">
        <ele>632</ele>
        <time>2012-04-22T14:02:54Z</time>
      </trkpt>
      <trkpt lat="43.77845" lon="7.24861">
        <ele>635</ele>
        <time>2012-04-22T14:03:01Z</time>
      </trkpt>
      <trkpt lat="43.77839" lon="7.24862">
        <ele>637</ele>
        <time>2012-04-22T14:03:10Z</time>
      </trkpt>
      <trkpt lat="43.77832" lon="7.24865">
        <ele>638</ele>
        <time>2012-04-22T14:03:19Z</time>
      </trkpt>
      <trkpt lat="43.77822" lon="7.2487">
        <ele>638</ele>
        <time>2012-04-22T14:03:27Z</time>
      </trkpt>
      <trkpt lat="43.7782" lon="7.24873">
        <ele>640</ele>
        <time>2012-04-22T14:03:36Z</time>
      </trkpt>
      <trkpt lat="43.77814" lon="7.24876">
        <ele>641</ele>
        <time>2012-04-22T14:03:42Z</time>
      </trkpt>
      <trkpt lat="43.77805" lon="7.24874">
        <ele>641</ele>
        <time>2012-04-22T14:03:53Z</time>
      </trkpt>
      <trkpt lat="43.77798" lon="7.24873">
        <ele>642</ele>
        <time>2012-04-22T14:04:02Z</time>
      </trkpt>
      <trkpt lat="43.77793" lon="7.24874">
        <ele>642</ele>
        <time>2012-04-22T14:04:09Z</time>
      </trkpt>
      <trkpt lat="43.7779" lon="7.24876">
        <ele>643</ele>
        <time>2012-04-22T14:04:17Z</time>
      </trkpt>
      <trkpt lat="43.77788" lon="7.24875">
        <ele>644</ele>
        <time>2012-04-22T14:04:29Z</time>
      </trkpt>
      <trkpt lat="43.77787" lon="7.24876">
        <ele>646</ele>
        <time>2012-04-22T14:04:45Z</time>
      </trkpt>
      <trkpt lat="43.77788" lon="7.24876">
        <ele>646</ele>
        <time>2012-04-22T14:04:54Z</time>
      </trkpt>
      <trkpt lat="43.77787" lon="7.24878">
        <ele>647</ele>
        <time>2012-04-22T14:05:11Z</time>
      </trkpt>
      <trkpt lat="43.77788" lon="7.24879">
        <ele>647</ele>
        <time>2012-04-22T14:05:20Z</time>
      </trkpt>
      <trkpt lat="43.77785" lon="7.24879">
        <ele>647</ele>
        <time>2012-04-22T14:05:28Z</time>
      </trkpt>
      <trkpt lat="43.77786" lon="7.24878">
        <ele>647</ele>
        <time>2012-04-22T14:05:53Z</time>
      </trkpt>
      <trkpt lat="43.77787" lon="7.24877">
        <ele>647</ele>
        <time>2012-04-22T14:06:19Z</time>
      </trkpt>
      <trkpt lat="43.77789" lon="7.24878">
        <ele>647</ele>
        <time>2012-04-22T14:06:27Z</time>
      </trkpt>
      <trkpt lat="43.77789" lon="7.24877">
        <ele>647</ele>
        <time>2012-04-22T14:06:36Z</time>
      </trkpt>
      <trkpt lat="43.7779" lon="7.24874">
        <ele>647</ele>
        <time>2012-04-22T14:06:44Z</time>
      </trkpt>
      <trkpt lat="43.77789" lon="7.24877">
        <ele>647</ele>
        <time>2012-04-22T14:07:03Z</time>
      </trkpt>
      <trkpt lat="43.77788" lon="7.24878">
        <ele>647</ele>
        <time>2012-04-22T14:07:11Z</time>
      </trkpt>
      <trkpt lat="43.77789" lon="7.24878">
        <ele>647</ele>
        <time>2012-04-22T14:07:29Z</time>
      </trkpt>
      <trkpt lat="43.7779" lon="7.24872">
        <ele>647</ele>
        <time>2012-04-22T14:07:47Z</time>
      </trkpt>
      <trkpt lat="43.77792" lon="7.24874">
        <ele>647</ele>
        <time>2012-04-22T14:08:13Z</time>
      </trkpt>
      <trkpt lat="43.77791" lon="7.24875">
        <ele>647</ele>
        <time>2012-04-22T14:08:22Z</time>
      </trkpt>
      <trkpt lat="43.77788" lon="7.24878">
        <ele>647</ele>
        <time>2012-04-22T14:09:15Z</time>
      </trkpt>
      <trkpt lat="43.77785" lon="7.24881">
        <ele>647</ele>
        <time>2012-04-22T14:09:23Z</time>
      </trkpt>
      <trkpt lat="43.77781" lon="7.24885">
        <ele>647</ele>
        <time>2012-04-22T14:09:29Z</time>
      </trkpt>
      <trkpt lat="43.77775" lon="7.24893">
        <ele>647</ele>
        <time>2012-04-22T14:09:37Z</time>
      </trkpt>
      <trkpt lat="43.77769" lon="7.24897">
        <ele>648</ele>
        <time>2012-04-22T14:09:47Z</time>
      </trkpt>
      <trkpt lat="43.77753" lon="7.24903">
        <ele>648</ele>
        <time>2012-04-22T14:09:54Z</time>
      </trkpt>
      <trkpt lat="43.77731" lon="7.24909">
        <ele>648</ele>
        <time>2012-04-22T14:10:01Z</time>
      </trkpt>
      <trkpt lat="43.77708" lon="7.24922">
        <ele>648</ele>
        <time>2012-04-22T14:10:08Z</time>
      </trkpt>
      <trkpt lat="43.77677" lon="7.24917">
        <ele>648</ele>
        <time>2012-04-22T14:10:17Z</time>
      </trkpt>
      <trkpt lat="43.77649" lon="7.2491">
        <ele>650</ele>
        <time>2012-04-22T14:10:26Z</time>
      </trkpt>
      <trkpt lat="43.77644" lon="7.2491">
        <ele>652</ele>
        <time>2012-04-22T14:10:33Z</time>
      </trkpt>
      <trkpt lat="43.77624" lon="7.24912">
        <ele>655</ele>
        <time>2012-04-22T14:10:42Z</time>
      </trkpt>
      <trkpt lat="43.77614" lon="7.24911">
        <ele>656</ele>
        <time>2012-04-22T14:10:49Z</time>
      </trkpt>
      <trkpt lat="43.77602" lon="7.24913">
        <ele>656</ele>
        <time>2012-04-22T14:10:56Z</time>
      </trkpt>
      <trkpt lat="43.77596" lon="7.24914">
        <ele>657</ele>
        <time>2012-04-22T14:11:03Z</time>
      </trkpt>
      <trkpt lat="43.77573" lon="7.24922">
        <ele>657</ele>
        <time>2012-04-22T14:11:10Z</time>
      </trkpt>
      <trkpt lat="43.77554" lon="7.24929">
        <ele>657</ele>
        <time>2012-04-22T14:11:17Z</time>
      </trkpt>
      <trkpt lat="43.77522" lon="7.24938">
        <ele>657</ele>
        <time>2012-04-22T14:11:27Z</time>
      </trkpt>
      <trkpt lat="43.77514" lon="7.24941">
        <ele>657</ele>
        <time>2012-04-22T14:11:33Z</time>
      </trkpt>
      <trkpt lat="43.77497" lon="7.24944">
        <ele>657</ele>
        <time>2012-04-22T14:11:40Z</time>
      </trkpt>
      <trkpt lat="43.77479" lon="7.24946">
        <ele>657</ele>
        <time>2012-04-22T14:11:47Z</time>
      </trkpt>
      <trkpt lat="43.7746" lon="7.24949">
        <ele>657</ele>
        <time>2012-04-22T14:11:55Z</time>
      </trkpt>
      <trkpt lat="43.77431" lon="7.24945">
        <ele>658</ele>
        <time>2012-04-22T14:12:03Z</time>
      </trkpt>
      <trkpt lat="43.77415" lon="7.2495">
        <ele>659</ele>
        <time>2012-04-22T14:12:11Z</time>
      </trkpt>
      <trkpt lat="43.77407" lon="7.24952">
        <ele>660</ele>
        <time>2012-04-22T14:12:18Z</time>
      </trkpt>
      <trkpt lat="43.77404" lon="7.24952">
        <ele>661</ele>
        <time>2012-04-22T14:12:25Z</time>
      </trkpt>
      <trkpt lat="43.77396" lon="7.24951">
        <ele>663</ele>
        <time>2012-04-22T14:12:32Z</time>
      </trkpt>
      <trkpt lat="43.77382" lon="7.24951">
        <ele>663</ele>
        <time>2012-04-22T14:12:40Z</time>
      </trkpt>
      <trkpt lat="43.77375" lon="7.24952">
        <ele>665</ele>
        <time>2012-04-22T14:12:49Z</time>
      </trkpt>
      <trkpt lat="43.77365" lon="7.24953">
        <ele>667</ele>
        <time>2012-04-22T14:12:57Z</time>
      </trkpt>
      <trkpt lat="43.77359" lon="7.24954">
        <ele>669</ele>
        <time>2012-04-22T14:13:05Z</time>
      </trkpt>
      <trkpt lat="43.77348" lon="7.24957">
        <ele>670</ele>
        <time>2012-04-22T14:13:12Z</time>
      </trkpt>
      <trkpt lat="43.77346" lon="7.24957">
        <ele>671</ele>
        <time>2012-04-22T14:13:19Z</time>
      </trkpt>
      <trkpt lat="43.77336" lon="7.2496">
        <ele>673</ele>
        <time>2012-04-22T14:13:28Z</time>
      </trkpt>
      <trkpt lat="43.77328" lon="7.2496">
        <ele>674</ele>
        <time>2012-04-22T14:13:37Z</time>
      </trkpt>
      <trkpt lat="43.77321" lon="7.24962">
        <ele>675</ele>
        <time>2012-04-22T14:13:43Z</time>
      </trkpt>
      <trkpt lat="43.77313" lon="7.24964">
        <ele>676</ele>
        <time>2012-04-22T14:13:50Z</time>
      </trkpt>
      <trkpt lat="43.773" lon="7.24967">
        <ele>677</ele>
        <time>2012-04-22T14:13:59Z</time>
      </trkpt>
      <trkpt lat="43.77293" lon="7.24967">
        <ele>677</ele>
        <time>2012-04-22T14:14:08Z</time>
      </trkpt>
      <trkpt lat="43.77287" lon="7.24969">
        <ele>678</ele>
        <time>2012-04-22T14:14:19Z</time>
      </trkpt>
      <trkpt lat="43.77282" lon="7.24969">
        <ele>678</ele>
        <time>2012-04-22T14:14:26Z</time>
      </trkpt>
      <trkpt lat="43.77258" lon="7.24974">
        <ele>678</ele>
        <time>2012-04-22T14:14:33Z</time>
      </trkpt>
      <trkpt lat="43.77248" lon="7.24975">
        <ele>678</ele>
        <time>2012-04-22T14:14:40Z</time>
      </trkpt>
      <trkpt lat="43.77232" lon="7.2498">
        <ele>678</ele>
        <time>2012-04-22T14:14:47Z</time>
      </trkpt>
      <trkpt lat="43.77218" lon="7.24986">
        <ele>678</ele>
        <time>2012-04-22T14:14:54Z</time>
      </trkpt>
      <trkpt lat="43.77199" lon="7.24989">
        <ele>679</ele>
        <time>2012-04-22T14:15:02Z</time>
      </trkpt>
      <trkpt lat="43.77156" lon="7.24993">
        <ele>679</ele>
        <time>2012-04-22T14:15:09Z</time>
      </trkpt>
      <trkpt lat="43.77145" lon="7.24993">
        <ele>679</ele>
        <time>2012-04-22T14:15:16Z</time>
      </trkpt>
      <trkpt lat="43.77113" lon="7.24994">
        <ele>680</ele>
        <time>2012-04-22T14:15:23Z</time>
      </trkpt>
      <trkpt lat="43.77085" lon="7.24996">
        <ele>680</ele>
        <time>2012-04-22T14:15:30Z</time>
      </trkpt>
      <trkpt lat="43.7706" lon="7.24982">
        <ele>680</ele>
        <time>2012-04-22T14:15:39Z</time>
      </trkpt>
      <trkpt lat="43.77025" lon="7.24967">
        <ele>680</ele>
        <time>2012-04-22T14:15:46Z</time>
      </trkpt>
      <trkpt lat="43.77021" lon="7.2497">
        <ele>681</ele>
        <time>2012-04-22T14:15:55Z</time>
      </trkpt>
      <trkpt lat="43.77014" lon="7.24976">
        <ele>681</ele>
        <time>2012-04-22T14:16:04Z</time>
      </trkpt>
      <trkpt lat="43.77005" lon="7.24982">
        <ele>681</ele>
        <time>2012-04-22T14:16:11Z</time>
      </trkpt>
      <trkpt lat="43.76999" lon="7.24987">
        <ele>681</ele>
        <time>2012-04-22T14:16:29Z</time>
      </trkpt>
      <trkpt lat="43.77" lon="7.24987">
        <ele>681</ele>
        <time>2012-04-22T14:16:41Z</time>
      </trkpt>
      <trkpt lat="43.77" lon="7.24985">
        <ele>681</ele>
        <time>2012-04-22T14:16:57Z</time>
      </trkpt>
      <trkpt lat="43.77" lon="7.24986">
        <ele>681</ele>
        <time>2012-04-22T14:17:08Z</time>
      </trkpt>
      <trkpt lat="43.77001" lon="7.24987">
        <ele>681</ele>
        <time>2012-04-22T14:17:51Z</time>
      </trkpt>
      <trkpt lat="43.77" lon="7.24986">
        <ele>681</ele>
        <time>2012-04-22T14:19:21Z</time>
      </trkpt>
      <trkpt lat="43.77001" lon="7.24985">
        <ele>681</ele>
        <time>2012-04-22T14:19:30Z</time>
      </trkpt>
      <trkpt lat="43.76999" lon="7.24986">
        <ele>681</ele>
        <time>2012-04-22T14:19:37Z</time>
      </trkpt>
      <trkpt lat="43.76977" lon="7.24996">
        <ele>681</ele>
        <time>2012-04-22T14:19:45Z</time>
      </trkpt>
      <trkpt lat="43.76954" lon="7.25004">
        <ele>681</ele>
        <time>2012-04-22T14:19:53Z</time>
      </trkpt>
      <trkpt lat="43.76937" lon="7.2501">
        <ele>681</ele>
        <time>2012-04-22T14:20:02Z</time>
      </trkpt>
      <trkpt lat="43.76935" lon="7.25009">
        <ele>681</ele>
        <time>2012-04-22T14:20:11Z</time>
      </trkpt>
      <trkpt lat="43.76934" lon="7.2501">
        <ele>681</ele>
        <time>2012-04-22T14:20:20Z</time>
      </trkpt>
      <trkpt lat="43.76934" lon="7.25008">
        <ele>681</ele>
        <time>2012-04-22T14:20:46Z</time>
      </trkpt>
      <trkpt lat="43.76934" lon="7.2501">
        <ele>681</ele>
        <time>2012-04-22T14:23:08Z</time>
      </trkpt>
      <trkpt lat="43.76935" lon="7.25007">
        <ele>680</ele>
        <time>2012-04-22T14:23:54Z</time>
      </trkpt>
      <trkpt lat="43.76934" lon="7.25007">
        <ele>680</ele>
        <time>2012-04-22T14:24:03Z</time>
      </trkpt>
      <trkpt lat="43.76933" lon="7.25008">
        <ele>680</ele>
        <time>2012-04-22T14:24:29Z</time>
      </trkpt>
      <trkpt lat="43.76936" lon="7.25007">
        <ele>680</ele>
        <time>2012-04-22T14:24:36Z</time>
      </trkpt>
      <trkpt lat="43.76935" lon="7.25007">
        <ele>680</ele>
        <time>2012-04-22T14:24:44Z</time>
      </trkpt>
      <trkpt lat="43.76926" lon="7.25013">
        <ele>680</ele>
        <time>2012-04-22T14:24:53Z</time>
      </trkpt>
      <trkpt lat="43.76897" lon="7.25031">
        <ele>679</ele>
        <time>2012-04-22T14:25:00Z</time>
      </trkpt>
      <trkpt lat="43.76852" lon="7.25034">
        <ele>675</ele>
        <time>2012-04-22T14:25:08Z</time>
      </trkpt>
      <trkpt lat="43.76818" lon="7.2505">
        <ele>671</ele>
        <time>2012-04-22T14:25:16Z</time>
      </trkpt>
      <trkpt lat="43.76811" lon="7.25045">
        <ele>669</ele>
        <time>2012-04-22T14:25:35Z</time>
      </trkpt>
      <trkpt lat="43.76812" lon="7.25041">
        <ele>669</ele>
        <time>2012-04-22T14:25:44Z</time>
      </trkpt>
      <trkpt lat="43.76813" lon="7.25041">
        <ele>669</ele>
        <time>2012-04-22T14:26:01Z</time>
      </trkpt>
      <trkpt lat="43.76811" lon="7.25044">
        <ele>669</ele>
        <time>2012-04-22T14:26:12Z</time>
      </trkpt>
      <trkpt lat="43.76812" lon="7.25043">
        <ele>668</ele>
        <time>2012-04-22T14:27:03Z</time>
      </trkpt>
      <trkpt lat="43.76817" lon="7.2504">
        <ele>667</ele>
        <time>2012-04-22T14:27:11Z</time>
      </trkpt>
      <trkpt lat="43.76816" lon="7.25041">
        <ele>666</ele>
        <time>2012-04-22T14:27:21Z</time>
      </trkpt>
      <trkpt lat="43.76814" lon="7.25042">
        <ele>666</ele>
        <time>2012-04-22T14:27:28Z</time>
      </trkpt>
      <trkpt lat="43.76813" lon="7.25042">
        <ele>666</ele>
        <time>2012-04-22T14:28:23Z</time>
      </trkpt>
      <trkpt lat="43.76815" lon="7.25042">
        <ele>666</ele>
        <time>2012-04-22T14:28:32Z</time>
      </trkpt>
      <trkpt lat="43.76813" lon="7.25041">
        <ele>666</ele>
        <time>2012-04-22T14:28:41Z</time>
      </trkpt>
      <trkpt lat="43.76812" lon="7.25041">
        <ele>666</ele>
        <time>2012-04-22T14:28:49Z</time>
      </trkpt>
      <trkpt lat="43.76812" lon="7.25041">
        <ele>665</ele>
        <time>2012-04-22T14:29:43Z</time>
      </trkpt>
      <trkpt lat="43.7681" lon="7.25041">
        <ele>665</ele>
        <time>2012-04-22T14:30:09Z</time>
      </trkpt>
      <trkpt lat="43.7681" lon="7.25039">
        <ele>665</ele>
        <time>2012-04-22T14:30:38Z</time>
      </trkpt>
      <trkpt lat="43.76812" lon="7.2504">
        <ele>665</ele>
        <time>2012-04-22T14:31:21Z</time>
      </trkpt>
      <trkpt lat="43.76813" lon="7.2504">
        <ele>665</ele>
        <time>2012-04-22T14:31:30Z</time>
      </trkpt>
      <trkpt lat="43.76811" lon="7.25039">
        <ele>665</ele>
        <time>2012-04-22T14:31:37Z</time>
      </trkpt>
      <trkpt lat="43.76804" lon="7.25032">
        <ele>665</ele>
        <time>2012-04-22T14:31:45Z</time>
      </trkpt>
      <trkpt lat="43.76802" lon="7.25029">
        <ele>665</ele>
        <time>2012-04-22T14:31:54Z</time>
      </trkpt>
      <trkpt lat="43.76801" lon="7.25032">
        <ele>665</ele>
        <time>2012-04-22T14:32:39Z</time>
      </trkpt>
      <trkpt lat="43.7681" lon="7.2504">
        <ele>665</ele>
        <time>2012-04-22T14:32:47Z</time>
      </trkpt>
      <trkpt lat="43.76809" lon="7.2504">
        <ele>665</ele>
        <time>2012-04-22T14:32:58Z</time>
      </trkpt>
      <trkpt lat="43.76803" lon="7.25035">
        <ele>665</ele>
        <time>2012-04-22T14:33:05Z</time>
      </trkpt>
      <trkpt lat="43.76774" lon="7.25039">
        <ele>665</ele>
        <time>2012-04-22T14:33:13Z</time>
      </trkpt>
      <trkpt lat="43.76745" lon="7.25051">
        <ele>664</ele>
        <time>2012-04-22T14:33:20Z</time>
      </trkpt>
      <trkpt lat="43.76725" lon="7.25057">
        <ele>661</ele>
        <time>2012-04-22T14:33:27Z</time>
      </trkpt>
      <trkpt lat="43.76699" lon="7.25052">
        <ele>658</ele>
        <time>2012-04-22T14:33:35Z</time>
      </trkpt>
      <trkpt lat="43.76676" lon="7.25069">
        <ele>655</ele>
        <time>2012-04-22T14:33:43Z</time>
      </trkpt>
      <trkpt lat="43.76662" lon="7.25091">
        <ele>652</ele>
        <time>2012-04-22T14:33:51Z</time>
      </trkpt>
      <trkpt lat="43.7663" lon="7.25095">
        <ele>649</ele>
        <time>2012-04-22T14:34:00Z</time>
      </trkpt>
      <trkpt lat="43.76601" lon="7.25101">
        <ele>647</ele>
        <time>2012-04-22T14:34:06Z</time>
      </trkpt>
      <trkpt lat="43.7658" lon="7.25107">
        <ele>645</ele>
        <time>2012-04-22T14:34:12Z</time>
      </trkpt>
      <trkpt lat="43.76558" lon="7.25118">
        <ele>643</ele>
        <time>2012-04-22T14:34:18Z</time>
      </trkpt>
      <trkpt lat="43.76536" lon="7.25131">
        <ele>641</ele>
        <time>2012-04-22T14:34:24Z</time>
      </trkpt>
      <trkpt lat="43.7651" lon="7.25122">
        <ele>637</ele>
        <time>2012-04-22T14:34:31Z</time>
      </trkpt>
      <trkpt lat="43.76493" lon="7.25114">
        <ele>635</ele>
        <time>2012-04-22T14:34:37Z</time>
      </trkpt>
      <trkpt lat="43.76473" lon="7.25113">
        <ele>631</ele>
        <time>2012-04-22T14:34:44Z</time>
      </trkpt>
      <trkpt lat="43.76451" lon="7.25118">
        <ele>628</ele>
        <time>2012-04-22T14:34:51Z</time>
      </trkpt>
      <trkpt lat="43.76431" lon="7.25128">
        <ele>625</ele>
        <time>2012-04-22T14:34:58Z</time>
      </trkpt>
      <trkpt lat="43.76416" lon="7.25134">
        <ele>622</ele>
        <time>2012-04-22T14:35:04Z</time>
      </trkpt>
      <trkpt lat="43.76403" lon="7.2514">
        <ele>620</ele>
        <time>2012-04-22T14:35:10Z</time>
      </trkpt>
      <trkpt lat="43.76395" lon="7.25145">
        <ele>619</ele>
        <time>2012-04-22T14:35:16Z</time>
      </trkpt>
      <trkpt lat="43.76378" lon="7.25161">
        <ele>618</ele>
        <time>2012-04-22T14:35:22Z</time>
      </trkpt>
      <trkpt lat="43.76359" lon="7.2518">
        <ele>617</ele>
        <time>2012-04-22T14:35:30Z</time>
      </trkpt>
      <trkpt lat="43.76356" lon="7.25187">
        <ele>617</ele>
        <time>2012-04-22T14:35:40Z</time>
      </trkpt>
      <trkpt lat="43.76343" lon="7.25202">
        <ele>617</ele>
        <time>2012-04-22T14:35:46Z</time>
      </trkpt>
      <trkpt lat="43.76329" lon="7.25203">
        <ele>617</ele>
        <time>2012-04-22T14:35:52Z</time>
      </trkpt>
      <trkpt lat="43.76306" lon="7.252">
        <ele>615</ele>
        <time>2012-04-22T14:35:58Z</time>
      </trkpt>
      <trkpt lat="43.76274" lon="7.25206">
        <ele>613</ele>
        <time>2012-04-22T14:36:05Z</time>
      </trkpt>
      <trkpt lat="43.7626" lon="7.25207">
        <ele>611</ele>
        <time>2012-04-22T14:36:11Z</time>
      </trkpt>
      <trkpt lat="43.76246" lon="7.2521">
        <ele>608</ele>
        <time>2012-04-22T14:36:17Z</time>
      </trkpt>
      <trkpt lat="43.76235" lon="7.25214">
        <ele>605</ele>
        <time>2012-04-22T14:36:23Z</time>
      </trkpt>
      <trkpt lat="43.76222" lon="7.25213">
        <ele>604</ele>
        <time>2012-04-22T14:36:30Z</time>
      </trkpt>
      <trkpt lat="43.76198" lon="7.25222">
        <ele>603</ele>
        <time>2012-04-22T14:36:36Z</time>
      </trkpt>
      <trkpt lat="43.76193" lon="7.25224">
        <ele>601</ele>
        <time>2012-04-22T14:36:44Z</time>
      </trkpt>
      <trkpt lat="43.76183" lon="7.25228">
        <ele>599</ele>
        <time>2012-04-22T14:36:52Z</time>
      </trkpt>
      <trkpt lat="43.76172" lon="7.25235">
        <ele>598</ele>
        <time>2012-04-22T14:36:59Z</time>
      </trkpt>
      <trkpt lat="43.76157" lon="7.25243">
        <ele>598</ele>
        <time>2012-04-22T14:37:05Z</time>
      </trkpt>
      <trkpt lat="43.76146" lon="7.2525">
        <ele>596</ele>
        <time>2012-04-22T14:37:11Z</time>
      </trkpt>
      <trkpt lat="43.76137" lon="7.25254">
        <ele>595</ele>
        <time>2012-04-22T14:37:17Z</time>
      </trkpt>
      <trkpt lat="43.76113" lon="7.25271">
        <ele>592</ele>
        <time>2012-04-22T14:37:25Z</time>
      </trkpt>
      <trkpt lat="43.761" lon="7.25279">
        <ele>590</ele>
        <time>2012-04-22T14:37:31Z</time>
      </trkpt>
      <trkpt lat="43.76091" lon="7.25288">
        <ele>588</ele>
        <time>2012-04-22T14:37:37Z</time>
      </trkpt>
      <trkpt lat="43.76086" lon="7.25285">
        <ele>585</ele>
        <time>2012-04-22T14:37:45Z</time>
      </trkpt>
      <trkpt lat="43.76072" lon="7.2529">
        <ele>583</ele>
        <time>2012-04-22T14:37:52Z</time>
      </trkpt>
      <trkpt lat="43.76046" lon="7.25305">
        <ele>582</ele>
        <time>2012-04-22T14:37:58Z</time>
      </trkpt>
      <trkpt lat="43.76036" lon="7.2531">
        <ele>578</ele>
        <time>2012-04-22T14:38:07Z</time>
      </trkpt>
      <trkpt lat="43.76024" lon="7.25312">
        <ele>575</ele>
        <time>2012-04-22T14:38:14Z</time>
      </trkpt>
      <trkpt lat="43.76004" lon="7.25326">
        <ele>573</ele>
        <time>2012-04-22T14:38:20Z</time>
      </trkpt>
      <trkpt lat="43.7599" lon="7.25336">
        <ele>571</ele>
        <time>2012-04-22T14:38:26Z</time>
      </trkpt>
      <trkpt lat="43.75977" lon="7.25344">
        <ele>569</ele>
        <time>2012-04-22T14:38:34Z</time>
      </trkpt>
      <trkpt lat="43.75975" lon="7.25344">
        <ele>569</ele>
        <time>2012-04-22T14:38:43Z</time>
      </trkpt>
      <trkpt lat="43.75976" lon="7.25343">
        <ele>569</ele>
        <time>2012-04-22T14:38:50Z</time>
      </trkpt>
      <trkpt lat="43.75977" lon="7.25341">
        <ele>569</ele>
        <time>2012-04-22T14:39:42Z</time>
      </trkpt>
      <trkpt lat="43.75974" lon="7.25343">
        <ele>568</ele>
        <time>2012-04-22T14:40:20Z</time>
      </trkpt>
      <trkpt lat="43.75951" lon="7.25357">
        <ele>567</ele>
        <time>2012-04-22T14:40:26Z</time>
      </trkpt>
      <trkpt lat="43.75928" lon="7.25372">
        <ele>566</ele>
        <time>2012-04-22T14:40:32Z</time>
      </trkpt>
      <trkpt lat="43.75909" lon="7.25386">
        <ele>564</ele>
        <time>2012-04-22T14:40:39Z</time>
      </trkpt>
      <trkpt lat="43.75892" lon="7.25392">
        <ele>561</ele>
        <time>2012-04-22T14:40:46Z</time>
      </trkpt>
      <trkpt lat="43.7586" lon="7.2541">
        <ele>557</ele>
        <time>2012-04-22T14:40:54Z</time>
      </trkpt>
      <trkpt lat="43.75847" lon="7.25418">
        <ele>554</ele>
        <time>2012-04-22T14:41:00Z</time>
      </trkpt>
      <trkpt lat="43.75818" lon="7.25423">
        <ele>550</ele>
        <time>2012-04-22T14:41:09Z</time>
      </trkpt>
      <trkpt lat="43.75814" lon="7.25412">
        <ele>547</ele>
        <time>2012-04-22T14:41:16Z</time>
      </trkpt>
      <trkpt lat="43.75795" lon="7.25397">
        <ele>543</ele>
        <time>2012-04-22T14:41:24Z</time>
      </trkpt>
      <trkpt lat="43.75784" lon="7.25399">
        <ele>540</ele>
        <time>2012-04-22T14:41:31Z</time>
      </trkpt>
      <trkpt lat="43.75775" lon="7.25402">
        <ele>536</ele>
        <time>2012-04-22T14:41:39Z</time>
      </trkpt>
      <trkpt lat="43.75766" lon="7.25408">
        <ele>532</ele>
        <time>2012-04-22T14:41:47Z</time>
      </trkpt>
      <trkpt lat="43.75744" lon="7.25421">
        <ele>529</ele>
        <time>2012-04-22T14:41:53Z</time>
      </trkpt>
      <trkpt lat="43.75734" lon="7.25419">
        <ele>525</ele>
        <time>2012-04-22T14:42:01Z</time>
      </trkpt>
      <trkpt lat="43.75753" lon="7.25393">
        <ele>521</ele>
        <time>2012-04-22T14:42:08Z</time>
      </trkpt>
      <trkpt lat="43.75751" lon="7.25383">
        <ele>517</ele>
        <time>2012-04-22T14:42:17Z</time>
      </trkpt>
      <trkpt lat="43.75748" lon="7.25375">
        <ele>514</ele>
        <time>2012-04-22T14:42:24Z</time>
      </trkpt>
      <trkpt lat="43.75758" lon="7.25353">
        <ele>511</ele>
        <time>2012-04-22T14:42:31Z</time>
      </trkpt>
      <trkpt lat="43.75762" lon="7.25338">
        <ele>508</ele>
        <time>2012-04-22T14:42:38Z</time>
      </trkpt>
      <trkpt lat="43.75756" lon="7.25336">
        <ele>504</ele>
        <time>2012-04-22T14:42:46Z</time>
      </trkpt>
      <trkpt lat="43.75755" lon="7.25333">
        <ele>501</ele>
        <time>2012-04-22T14:42:53Z</time>
      </trkpt>
      <trkpt lat="43.75755" lon="7.25332">
        <ele>497</ele>
        <time>2012-04-22T14:43:03Z</time>
      </trkpt>
      <trkpt lat="43.75755" lon="7.2533">
        <ele>497</ele>
        <time>2012-04-22T14:43:15Z</time>
      </trkpt>
      <trkpt lat="43.75755" lon="7.25327">
        <ele>497</ele>
        <time>2012-04-22T14:43:41Z</time>
      </trkpt>
      <trkpt lat="43.75755" lon="7.25328">
        <ele>497</ele>
        <time>2012-04-22T14:44:47Z</time>
      </trkpt>
      <trkpt lat="43.75754" lon="7.2533">
        <ele>497</ele>
        <time>2012-04-22T14:45:01Z</time>
      </trkpt>
      <trkpt lat="43.75756" lon="7.25327">
        <ele>497</ele>
        <time>2012-04-22T14:45:09Z</time>
      </trkpt>
      <trkpt lat="43.7576" lon="7.25319">
        <ele>497</ele>
        <time>2012-04-22T14:45:16Z</time>
      </trkpt>
      <trkpt lat="43.75768" lon="7.25302">
        <ele>497</ele>
        <time>2012-04-22T14:45:21Z</time>
      </trkpt>
      <trkpt lat="43.75759" lon="7.25301">
        <ele>493</ele>
        <time>2012-04-22T14:45:29Z</time>
      </trkpt>
      <trkpt lat="43.75754" lon="7.25288">
        <ele>490</ele>
        <time>2012-04-22T14:45:36Z</time>
      </trkpt>
      <trkpt lat="43.75766" lon="7.25268">
        <ele>487</ele>
        <time>2012-04-22T14:45:44Z</time>
      </trkpt>
      <trkpt lat="43.75781" lon="7.25245">
        <ele>487</ele>
        <time>2012-04-22T14:45:51Z</time>
      </trkpt>
      <trkpt lat="43.75786" lon="7.25241">
        <ele>485</ele>
        <time>2012-04-22T14:46:00Z</time>
      </trkpt>
      <trkpt lat="43.75788" lon="7.25236">
        <ele>483</ele>
        <time>2012-04-22T14:46:07Z</time>
      </trkpt>
      <trkpt lat="43.75788" lon="7.25238">
        <ele>482</ele>
        <time>2012-04-22T14:46:37Z</time>
      </trkpt>
      <trkpt lat="43.75787" lon="7.25238">
        <ele>482</ele>
        <time>2012-04-22T14:47:00Z</time>
      </trkpt>
      <trkpt lat="43.75784" lon="7.25236">
        <ele>482</ele>
        <time>2012-04-22T14:47:08Z</time>
      </trkpt>
      <trkpt lat="43.75782" lon="7.25234">
        <ele>482</ele>
        <time>2012-04-22T14:47:15Z</time>
      </trkpt>
      <trkpt lat="43.75782" lon="7.25235">
        <ele>481</ele>
        <time>2012-04-22T14:47:30Z</time>
      </trkpt>
      <trkpt lat="43.75786" lon="7.25239">
        <ele>481</ele>
        <time>2012-04-22T14:47:36Z</time>
      </trkpt>
      <trkpt lat="43.75784" lon="7.25247">
        <ele>481</ele>
        <time>2012-04-22T14:47:45Z</time>
      </trkpt>
      <trkpt lat="43.75785" lon="7.25245">
        <ele>481</ele>
        <time>2012-04-22T14:47:53Z</time>
      </trkpt>
      <trkpt lat="43.75787" lon="7.25241">
        <ele>481</ele>
        <time>2012-04-22T14:48:01Z</time>
      </trkpt>
      <trkpt lat="43.75785" lon="7.25236">
        <ele>481</ele>
        <time>2012-04-22T14:48:08Z</time>
      </trkpt>
      <trkpt lat="43.75781" lon="7.25233">
        <ele>479</ele>
        <time>2012-04-22T14:48:14Z</time>
      </trkpt>
      <trkpt lat="43.75777" lon="7.25228">
        <ele>478</ele>
        <time>2012-04-22T14:48:22Z</time>
      </trkpt>
      <trkpt lat="43.75772" lon="7.25226">
        <ele>476</ele>
        <time>2012-04-22T14:48:30Z</time>
      </trkpt>
      <trkpt lat="43.7577" lon="7.25227">
        <ele>474</ele>
        <time>2012-04-22T14:48:54Z</time>
      </trkpt>
      <trkpt lat="43.75769" lon="7.25227">
        <ele>473</ele>
        <time>2012-04-22T14:49:44Z</time>
      </trkpt>
      <trkpt lat="43.75767" lon="7.25228">
        <ele>473</ele>
        <time>2012-04-22T14:49:56Z</time>
      </trkpt>
      <trkpt lat="43.75768" lon="7.25227">
        <ele>473</ele>
        <time>2012-04-22T14:50:12Z</time>
      </trkpt>
      <trkpt lat="43.75769" lon="7.25227">
        <ele>473</ele>
        <time>2012-04-22T14:50:19Z</time>
      </trkpt>
      <trkpt lat="43.7577" lon="7.25225">
        <ele>473</ele>
        <time>2012-04-22T14:50:27Z</time>
      </trkpt>
      <trkpt lat="43.75769" lon="7.25224">
        <ele>473</ele>
        <time>2012-04-22T14:51:03Z</time>
      </trkpt>
      <trkpt lat="43.7577" lon="7.25224">
        <ele>473</ele>
        <time>2012-04-22T14:51:23Z</time>
      </trkpt>
      <trkpt lat="43.75768" lon="7.25224">
        <ele>470</ele>
        <time>2012-04-22T14:52:31Z</time>
      </trkpt>
      <trkpt lat="43.75768" lon="7.25224">
        <ele>470</ele>
        <time>2012-04-22T14:52:57Z</time>
      </trkpt>
      <trkpt lat="43.75768" lon="7.25226">
        <ele>470</ele>
        <time>2012-04-22T14:53:18Z</time>
      </trkpt>
      <trkpt lat="43.75769" lon="7.25226">
        <ele>470</ele>
        <time>2012-04-22T14:53:41Z</time>
      </trkpt>
      <trkpt lat="43.75766" lon="7.25226">
        <ele>470</ele>
        <time>2012-04-22T14:53:48Z</time>
      </trkpt>
      <trkpt lat="43.75765" lon="7.25225">
        <ele>470</ele>
        <time>2012-04-22T14:54:05Z</time>
      </trkpt>
      <trkpt lat="43.75766" lon="7.25224">
        <ele>470</ele>
        <time>2012-04-22T14:54:15Z</time>
      </trkpt>
      <trkpt lat="43.75764" lon="7.25225">
        <ele>470</ele>
        <time>2012-04-22T14:56:05Z</time>
      </trkpt>
      <trkpt lat="43.75766" lon="7.25227">
        <ele>467</ele>
        <time>2012-04-22T14:57:11Z</time>
      </trkpt>
      <trkpt lat="43.75765" lon="7.25225">
        <ele>467</ele>
        <time>2012-04-22T14:57:33Z</time>
      </trkpt>
      <trkpt lat="43.75764" lon="7.25226">
        <ele>467</ele>
        <time>2012-04-22T14:57:59Z</time>
      </trkpt>
      <trkpt lat="43.75763" lon="7.25227">
        <ele>467</ele>
        <time>2012-04-22T14:58:26Z</time>
      </trkpt>
      <trkpt lat="43.75764" lon="7.25226">
        <ele>469</ele>
        <time>2012-04-22T14:58:42Z</time>
      </trkpt>
      <trkpt lat="43.75766" lon="7.25224">
        <ele>470</ele>
        <time>2012-04-22T14:59:28Z</time>
      </trkpt>
      <trkpt lat="43.75765" lon="7.25225">
        <ele>470</ele>
        <time>2012-04-22T14:59:52Z</time>
      </trkpt>
      <trkpt lat="43.75765" lon="7.25224">
        <ele>470</ele>
        <time>2012-04-22T15:00:07Z</time>
      </trkpt>
      <trkpt lat="43.75765" lon="7.25225">
        <ele>470</ele>
        <time>2012-04-22T15:00:22Z</time>
      </trkpt>
      <trkpt lat="43.75766" lon="7.25224">
        <ele>470</ele>
        <time>2012-04-22T15:00:53Z</time>
      </trkpt>
      <trkpt lat="43.75767" lon="7.25224">
        <ele>470</ele>
        <time>2012-04-22T15:01:47Z</time>
      </trkpt>
      <trkpt lat="43.75766" lon="7.25225">
        <ele>470</ele>
        <time>2012-04-22T15:02:32Z</time>
      </trkpt>
      <trkpt lat="43.75765" lon="7.25225">
        <ele>470</ele>
        <time>2012-04-22T15:02:53Z</time>
      </trkpt>
      <trkpt lat="43.75762" lon="7.25226">
        <ele>470</ele>
        <time>2012-04-22T15:03:00Z</time>
      </trkpt>
      <trkpt lat="43.75745" lon="7.2522">
        <ele>469</ele>
        <time>2012-04-22T15:03:07Z</time>
      </trkpt>
      <trkpt lat="43.75724" lon="7.25222">
        <ele>465</ele>
        <time>2012-04-22T15:03:15Z</time>
      </trkpt>
      <trkpt lat="43.75699" lon="7.25237">
        <ele>462</ele>
        <time>2012-04-22T15:03:22Z</time>
      </trkpt>
      <trkpt lat="43.75683" lon="7.25237">
        <ele>457</ele>
        <time>2012-04-22T15:03:30Z</time>
      </trkpt>
      <trkpt lat="43.75676" lon="7.25229">
        <ele>454</ele>
        <time>2012-04-22T15:03:36Z</time>
      </trkpt>
      <trkpt lat="43.75662" lon="7.25228">
        <ele>450</ele>
        <time>2012-04-22T15:03:44Z</time>
      </trkpt>
      <trkpt lat="43.75661" lon="7.25208">
        <ele>446</ele>
        <time>2012-04-22T15:03:51Z</time>
      </trkpt>
      <trkpt lat="43.75661" lon="7.25202">
        <ele>441</ele>
        <time>2012-04-22T15:04:00Z</time>
      </trkpt>
      <trkpt lat="43.75671" lon="7.25183">
        <ele>440</ele>
        <time>2012-04-22T15:04:07Z</time>
      </trkpt>
      <trkpt lat="43.75658" lon="7.25167">
        <ele>438</ele>
        <time>2012-04-22T15:04:15Z</time>
      </trkpt>
      <trkpt lat="43.75642" lon="7.25154">
        <ele>435</ele>
        <time>2012-04-22T15:04:22Z</time>
      </trkpt>
      <trkpt lat="43.75621" lon="7.25154">
        <ele>432</ele>
        <time>2012-04-22T15:04:29Z</time>
      </trkpt>
      <trkpt lat="43.75608" lon="7.25164">
        <ele>429</ele>
        <time>2012-04-22T15:04:36Z</time>
      </trkpt>
      <trkpt lat="43.75595" lon="7.25177">
        <ele>427</ele>
        <time>2012-04-22T15:04:43Z</time>
      </trkpt>
      <trkpt lat="43.75579" lon="7.25182">
        <ele>426</ele>
        <time>2012-04-22T15:04:50Z</time>
      </trkpt>
      <trkpt lat="43.75561" lon="7.25189">
        <ele>426</ele>
        <time>2012-04-22T15:04:57Z</time>
      </trkpt>
      <trkpt lat="43.75553" lon="7.25186">
        <ele>426</ele>
        <time>2012-04-22T15:05:03Z</time>
      </trkpt>
      <trkpt lat="43.75551" lon="7.2518">
        <ele>425</ele>
        <time>2012-04-22T15:05:09Z</time>
      </trkpt>
      <trkpt lat="43.75549" lon="7.25179">
        <ele>424</ele>
        <time>2012-04-22T15:05:18Z</time>
      </trkpt>
      <trkpt lat="43.75548" lon="7.25178">
        <ele>424</ele>
        <time>2012-04-22T15:05:27Z</time>
      </trkpt>
      <trkpt lat="43.75538" lon="7.25177">
        <ele>424</ele>
        <time>2012-04-22T15:05:41Z</time>
      </trkpt>
      <trkpt lat="43.75527" lon="7.25176">
        <ele>424</ele>
        <time>2012-04-22T15:05:47Z</time>
      </trkpt>
      <trkpt lat="43.75512" lon="7.25174">
        <ele>424</ele>
        <time>2012-04-22T15:05:55Z</time>
      </trkpt>
      <trkpt lat="43.75499" lon="7.25184">
        <ele>424</ele>
        <time>2012-04-22T15:06:02Z</time>
      </trkpt>
      <trkpt lat="43.75479" lon="7.2519">
        <ele>424</ele>
        <time>2012-04-22T15:06:09Z</time>
      </trkpt>
      <trkpt lat="43.75475" lon="7.25194">
        <ele>424</ele>
        <time>2012-04-22T15:06:17Z</time>
      </trkpt>
      <trkpt lat="43.75467" lon="7.25202">
        <ele>424</ele>
        <time>2012-04-22T15:06:26Z</time>
      </trkpt>
      <trkpt lat="43.75456" lon="7.25224">
        <ele>424</ele>
        <time>2012-04-22T15:06:32Z</time>
      </trkpt>
      <trkpt lat="43.75435" lon="7.25229">
        <ele>424</ele>
        <time>2012-04-22T15:06:39Z</time>
      </trkpt>
      <trkpt lat="43.75409" lon="7.25238">
        <ele>424</ele>
        <time>2012-04-22T15:06:46Z</time>
      </trkpt>
      <trkpt lat="43.75381" lon="7.25267">
        <ele>424</ele>
        <time>2012-04-22T15:06:53Z</time>
      </trkpt>
      <trkpt lat="43.75373" lon="7.25285">
        <ele>424</ele>
        <time>2012-04-22T15:06:59Z</time>
      </trkpt>
      <trkpt lat="43.7535" lon="7.25302">
        <ele>424</ele>
        <time>2012-04-22T15:07:07Z</time>
      </trkpt>
      <trkpt lat="43.75324" lon="7.25307">
        <ele>424</ele>
        <time>2012-04-22T15:07:13Z</time>
      </trkpt>
      <trkpt lat="43.75286" lon="7.25309">
        <ele>424</ele>
        <time>2012-04-22T15:07:20Z</time>
      </trkpt>
      <trkpt lat="43.75273" lon="7.25305">
        <ele>424</ele>
        <time>2012-04-22T15:07:27Z</time>
      </trkpt>
      <trkpt lat="43.75257" lon="7.253">
        <ele>424</ele>
        <time>2012-04-22T15:07:35Z</time>
      </trkpt>
      <trkpt lat="43.75238" lon="7.25308">
        <ele>424</ele>
        <time>2012-04-22T15:07:41Z</time>
      </trkpt>
      <trkpt lat="43.75232" lon="7.25327">
        <ele>424</ele>
        <time>2012-04-22T15:07:48Z</time>
      </trkpt>
      <trkpt lat="43.7522" lon="7.25349">
        <ele>422</ele>
        <time>2012-04-22T15:07:56Z</time>
      </trkpt>
      <trkpt lat="43.75197" lon="7.25359">
        <ele>422</ele>
        <time>2012-04-22T15:08:02Z</time>
      </trkpt>
      <trkpt lat="43.75171" lon="7.25381">
        <ele>419</ele>
        <time>2012-04-22T15:08:09Z</time>
      </trkpt>
      <trkpt lat="43.7515" lon="7.25415">
        <ele>416</ele>
        <time>2012-04-22T15:08:16Z</time>
      </trkpt>
      <trkpt lat="43.75133" lon="7.25446">
        <ele>414</ele>
        <time>2012-04-22T15:08:22Z</time>
      </trkpt>
      <trkpt lat="43.7512" lon="7.25484">
        <ele>412</ele>
        <time>2012-04-22T15:08:28Z</time>
      </trkpt>
      <trkpt lat="43.75107" lon="7.25519">
        <ele>410</ele>
        <time>2012-04-22T15:08:34Z</time>
      </trkpt>
      <trkpt lat="43.75074" lon="7.25532">
        <ele>408</ele>
        <time>2012-04-22T15:08:43Z</time>
      </trkpt>
      <trkpt lat="43.75072" lon="7.25531">
        <ele>408</ele>
        <time>2012-04-22T15:08:50Z</time>
      </trkpt>
      <trkpt lat="43.75064" lon="7.25531">
        <ele>408</ele>
        <time>2012-04-22T15:08:56Z</time>
      </trkpt>
      <trkpt lat="43.75048" lon="7.25535">
        <ele>408</ele>
        <time>2012-04-22T15:09:05Z</time>
      </trkpt>
      <trkpt lat="43.75019" lon="7.2554">
        <ele>408</ele>
        <time>2012-04-22T15:09:12Z</time>
      </trkpt>
      <trkpt lat="43.74982" lon="7.25547">
        <ele>408</ele>
        <time>2012-04-22T15:09:19Z</time>
      </trkpt>
      <trkpt lat="43.74966" lon="7.25548">
        <ele>408</ele>
        <time>2012-04-22T15:09:25Z</time>
      </trkpt>
      <trkpt lat="43.74936" lon="7.25553">
        <ele>406</ele>
        <time>2012-04-22T15:09:34Z</time>
      </trkpt>
      <trkpt lat="43.74925" lon="7.25558">
        <ele>406</ele>
        <time>2012-04-22T15:09:40Z</time>
      </trkpt>
      <trkpt lat="43.74905" lon="7.25561">
        <ele>406</ele>
        <time>2012-04-22T15:09:46Z</time>
      </trkpt>
      <trkpt lat="43.74885" lon="7.25565">
        <ele>406</ele>
        <time>2012-04-22T15:09:54Z</time>
      </trkpt>
      <trkpt lat="43.74861" lon="7.25564">
        <ele>406</ele>
        <time>2012-04-22T15:10:00Z</time>
      </trkpt>
      <trkpt lat="43.74825" lon="7.25568">
        <ele>406</ele>
        <time>2012-04-22T15:10:07Z</time>
      </trkpt>
      <trkpt lat="43.74812" lon="7.2557">
        <ele>406</ele>
        <time>2012-04-22T15:10:15Z</time>
      </trkpt>
      <trkpt lat="43.74801" lon="7.25566">
        <ele>406</ele>
        <time>2012-04-22T15:10:22Z</time>
      </trkpt>
      <trkpt lat="43.74805" lon="7.25564">
        <ele>406</ele>
        <time>2012-04-22T15:10:51Z</time>
      </trkpt>
      <trkpt lat="43.74807" lon="7.25568">
        <ele>406</ele>
        <time>2012-04-22T15:10:58Z</time>
      </trkpt>
      <trkpt lat="43.74801" lon="7.25572">
        <ele>406</ele>
        <time>2012-04-22T15:11:06Z</time>
      </trkpt>
      <trkpt lat="43.74778" lon="7.25575">
        <ele>406</ele>
        <time>2012-04-22T15:11:14Z</time>
      </trkpt>
      <trkpt lat="43.74752" lon="7.25578">
        <ele>405</ele>
        <time>2012-04-22T15:11:20Z</time>
      </trkpt>
      <trkpt lat="43.74723" lon="7.25581">
        <ele>403</ele>
        <time>2012-04-22T15:11:27Z</time>
      </trkpt>
      <trkpt lat="43.7469" lon="7.25604">
        <ele>403</ele>
        <time>2012-04-22T15:11:36Z</time>
      </trkpt>
      <trkpt lat="43.74679" lon="7.25605">
        <ele>403</ele>
        <time>2012-04-22T15:11:42Z</time>
      </trkpt>
      <trkpt lat="43.74657" lon="7.25616">
        <ele>401</ele>
        <time>2012-04-22T15:11:49Z</time>
      </trkpt>
      <trkpt lat="43.74639" lon="7.25613">
        <ele>400</ele>
        <time>2012-04-22T15:11:55Z</time>
      </trkpt>
      <trkpt lat="43.74615" lon="7.25623">
        <ele>400</ele>
        <time>2012-04-22T15:12:02Z</time>
      </trkpt>
      <trkpt lat="43.74589" lon="7.25624">
        <ele>399</ele>
        <time>2012-04-22T15:12:10Z</time>
      </trkpt>
      <trkpt lat="43.74568" lon="7.25625">
        <ele>398</ele>
        <time>2012-04-22T15:12:17Z</time>
      </trkpt>
      <trkpt lat="43.74561" lon="7.25621">
        <ele>396</ele>
        <time>2012-04-22T15:12:41Z</time>
      </trkpt>
      <trkpt lat="43.74559" lon="7.25622">
        <ele>396</ele>
        <time>2012-04-22T15:12:48Z</time>
      </trkpt>
      <trkpt lat="43.74559" lon="7.25624">
        <ele>396</ele>
        <time>2012-04-22T15:13:04Z</time>
      </trkpt>
      <trkpt lat="43.74555" lon="7.25634">
        <ele>396</ele>
        <time>2012-04-22T15:13:10Z</time>
      </trkpt>
      <trkpt lat="43.7454" lon="7.25672">
        <ele>396</ele>
        <time>2012-04-22T15:13:17Z</time>
      </trkpt>
      <trkpt lat="43.74535" lon="7.25691">
        <ele>396</ele>
        <time>2012-04-22T15:13:23Z</time>
      </trkpt>
      <trkpt lat="43.74531" lon="7.25708">
        <ele>396</ele>
        <time>2012-04-22T15:13:29Z</time>
      </trkpt>
      <trkpt lat="43.7453" lon="7.25712">
        <ele>396</ele>
        <time>2012-04-22T15:13:36Z</time>
      </trkpt>
      <trkpt lat="43.74523" lon="7.25719">
        <ele>396</ele>
        <time>2012-04-22T15:13:44Z</time>
      </trkpt>
      <trkpt lat="43.74514" lon="7.25726">
        <ele>397</ele>
        <time>2012-04-22T15:14:37Z</time>
      </trkpt>
      <trkpt lat="43.74503" lon="7.25733">
        <ele>397</ele>
        <time>2012-04-22T15:14:43Z</time>
      </trkpt>
      <trkpt lat="43.74489" lon="7.25745">
        <ele>397</ele>
        <time>2012-04-22T15:14:49Z</time>
      </trkpt>
      <trkpt lat="43.74478" lon="7.25759">
        <ele>397</ele>
        <time>2012-04-22T15:14:55Z</time>
      </trkpt>
      <trkpt lat="43.74464" lon="7.25776">
        <ele>393</ele>
        <time>2012-04-22T15:15:03Z</time>
      </trkpt>
      <trkpt lat="43.74451" lon="7.25798">
        <ele>392</ele>
        <time>2012-04-22T15:15:09Z</time>
      </trkpt>
      <trkpt lat="43.74448" lon="7.25806">
        <ele>391</ele>
        <time>2012-04-22T15:15:15Z</time>
      </trkpt>
      <trkpt lat="43.74443" lon="7.25808">
        <ele>391</ele>
        <time>2012-04-22T15:15:24Z</time>
      </trkpt>
      <trkpt lat="43.74439" lon="7.25814">
        <ele>391</ele>
        <time>2012-04-22T15:15:29Z</time>
      </trkpt>
      <trkpt lat="43.74432" lon="7.25826">
        <ele>391</ele>
        <time>2012-04-22T15:15:36Z</time>
      </trkpt>
      <trkpt lat="43.74425" lon="7.25849">
        <ele>391</ele>
        <time>2012-04-22T15:15:44Z</time>
      </trkpt>
      <trkpt lat="43.74426" lon="7.25872">
        <ele>390</ele>
        <time>2012-04-22T15:15:52Z</time>
      </trkpt>
      <trkpt lat="43.74425" lon="7.25881">
        <ele>389</ele>
        <time>2012-04-22T15:15:59Z</time>
      </trkpt>
      <trkpt lat="43.74428" lon="7.25897">
        <ele>388</ele>
        <time>2012-04-22T15:16:06Z</time>
      </trkpt>
      <trkpt lat="43.74433" lon="7.25905">
        <ele>387</ele>
        <time>2012-04-22T15:16:12Z</time>
      </trkpt>
      <trkpt lat="43.74436" lon="7.25914">
        <ele>385</ele>
        <time>2012-04-22T15:16:19Z</time>
      </trkpt>
      <trkpt lat="43.7444" lon="7.25928">
        <ele>384</ele>
        <time>2012-04-22T15:16:25Z</time>
      </trkpt>
      <trkpt lat="43.74435" lon="7.25932">
        <ele>381</ele>
        <time>2012-04-22T15:16:34Z</time>
      </trkpt>
      <trkpt lat="43.74439" lon="7.25953">
        <ele>378</ele>
        <time>2012-04-22T15:16:41Z</time>
      </trkpt>
      <trkpt lat="43.74449" lon="7.25974">
        <ele>375</ele>
        <time>2012-04-22T15:16:49Z</time>
      </trkpt>
      <trkpt lat="43.74453" lon="7.25977">
        <ele>373</ele>
        <time>2012-04-22T15:17:04Z</time>
      </trkpt>
      <trkpt lat="43.74464" lon="7.25999">
        <ele>373</ele>
        <time>2012-04-22T15:17:11Z</time>
      </trkpt>
      <trkpt lat="43.74478" lon="7.26041">
        <ele>372</ele>
        <time>2012-04-22T15:17:18Z</time>
      </trkpt>
      <trkpt lat="43.74493" lon="7.26077">
        <ele>370</ele>
        <time>2012-04-22T15:17:24Z</time>
      </trkpt>
      <trkpt lat="43.74507" lon="7.26096">
        <ele>369</ele>
        <time>2012-04-22T15:17:30Z</time>
      </trkpt>
      <trkpt lat="43.74541" lon="7.26133">
        <ele>366</ele>
        <time>2012-04-22T15:17:36Z</time>
      </trkpt>
      <trkpt lat="43.74561" lon="7.26161">
        <ele>362</ele>
        <time>2012-04-22T15:17:43Z</time>
      </trkpt>
      <trkpt lat="43.74567" lon="7.26182">
        <ele>356</ele>
        <time>2012-04-22T15:17:53Z</time>
      </trkpt>
      <trkpt lat="43.74563" lon="7.26186">
        <ele>352</ele>
        <time>2012-04-22T15:18:00Z</time>
      </trkpt>
      <trkpt lat="43.74556" lon="7.26195">
        <ele>344</ele>
        <time>2012-04-22T15:18:08Z</time>
      </trkpt>
      <trkpt lat="43.74552" lon="7.26202">
        <ele>337</ele>
        <time>2012-04-22T15:18:16Z</time>
      </trkpt>
      <trkpt lat="43.74546" lon="7.26209">
        <ele>334</ele>
        <time>2012-04-22T15:18:22Z</time>
      </trkpt>
      <trkpt lat="43.7455" lon="7.26228">
        <ele>330</ele>
        <time>2012-04-22T15:18:30Z</time>
      </trkpt>
      <trkpt lat="43.7456" lon="7.26236">
        <ele>328</ele>
        <time>2012-04-22T15:18:37Z</time>
      </trkpt>
      <trkpt lat="43.74561" lon="7.26237">
        <ele>328</ele>
        <time>2012-04-22T15:18:45Z</time>
      </trkpt>
      <trkpt lat="43.74561" lon="7.26236">
        <ele>328</ele>
        <time>2012-04-22T15:18:53Z</time>
      </trkpt>
      <trkpt lat="43.74563" lon="7.26234">
        <ele>328</ele>
        <time>2012-04-22T15:19:00Z</time>
      </trkpt>
      <trkpt lat="43.74563" lon="7.26232">
        <ele>328</ele>
        <time>2012-04-22T15:19:09Z</time>
      </trkpt>
      <trkpt lat="43.74561" lon="7.26233">
        <ele>328</ele>
        <time>2012-04-22T15:19:15Z</time>
      </trkpt>
      <trkpt lat="43.74557" lon="7.26233">
        <ele>330</ele>
        <time>2012-04-22T15:19:24Z</time>
      </trkpt>
      <trkpt lat="43.74556" lon="7.26233">
        <ele>332</ele>
        <time>2012-04-22T15:19:30Z</time>
      </trkpt>
      <trkpt lat="43.74559" lon="7.26234">
        <ele>336</ele>
        <time>2012-04-22T15:19:39Z</time>
      </trkpt>
      <trkpt lat="43.74562" lon="7.26234">
        <ele>336</ele>
        <time>2012-04-22T15:19:47Z</time>
      </trkpt>
      <trkpt lat="43.74573" lon="7.26247">
        <ele>336</ele>
        <time>2012-04-22T15:19:54Z</time>
      </trkpt>
      <trkpt lat="43.74586" lon="7.2628">
        <ele>332</ele>
        <time>2012-04-22T15:20:02Z</time>
      </trkpt>
      <trkpt lat="43.74628" lon="7.26288">
        <ele>328</ele>
        <time>2012-04-22T15:20:09Z</time>
      </trkpt>
      <trkpt lat="43.74639" lon="7.26301">
        <ele>323</ele>
        <time>2012-04-22T15:20:17Z</time>
      </trkpt>
      <trkpt lat="43.74644" lon="7.26323">
        <ele>318</ele>
        <time>2012-04-22T15:20:26Z</time>
      </trkpt>
      <trkpt lat="43.74638" lon="7.26357">
        <ele>311</ele>
        <time>2012-04-22T15:20:34Z</time>
      </trkpt>
      <trkpt lat="43.74645" lon="7.26365">
        <ele>305</ele>
        <time>2012-04-22T15:20:41Z</time>
      </trkpt>
      <trkpt lat="43.74669" lon="7.26373">
        <ele>301</ele>
        <time>2012-04-22T15:20:51Z</time>
      </trkpt>
      <trkpt lat="43.7469" lon="7.2638">
        <ele>301</ele>
        <time>2012-04-22T15:20:58Z</time>
      </trkpt>
      <trkpt lat="43.74705" lon="7.26381">
        <ele>301</ele>
        <time>2012-04-22T15:21:04Z</time>
      </trkpt>
      <trkpt lat="43.7473" lon="7.26377">
        <ele>301</ele>
        <time>2012-04-22T15:21:10Z</time>
      </trkpt>
      <trkpt lat="43.74759" lon="7.26378">
        <ele>301</ele>
        <time>2012-04-22T15:21:16Z</time>
      </trkpt>
      <trkpt lat="43.74786" lon="7.26386">
        <ele>301</ele>
        <time>2012-04-22T15:21:22Z</time>
      </trkpt>
      <trkpt lat="43.74811" lon="7.26396">
        <ele>301</ele>
        <time>2012-04-22T15:21:28Z</time>
      </trkpt>
      <trkpt lat="43.74851" lon="7.26412">
        <ele>301</ele>
        <time>2012-04-22T15:21:35Z</time>
      </trkpt>
      <trkpt lat="43.74881" lon="7.26417">
        <ele>300</ele>
        <time>2012-04-22T15:21:41Z</time>
      </trkpt>
      <trkpt lat="43.74902" lon="7.26422">
        <ele>298</ele>
        <time>2012-04-22T15:21:47Z</time>
      </trkpt>
      <trkpt lat="43.74931" lon="7.26468">
        <ele>298</ele>
        <time>2012-04-22T15:21:55Z</time>
      </trkpt>
      <trkpt lat="43.74952" lon="7.26501">
        <ele>298</ele>
        <time>2012-04-22T15:22:02Z</time>
      </trkpt>
      <trkpt lat="43.74975" lon="7.26519">
        <ele>298</ele>
        <time>2012-04-22T15:22:08Z</time>
      </trkpt>
      <trkpt lat="43.75006" lon="7.26538">
        <ele>298</ele>
        <time>2012-04-22T15:22:14Z</time>
      </trkpt>
      <trkpt lat="43.75036" lon="7.26541">
        <ele>298</ele>
        <time>2012-04-22T15:22:21Z</time>
      </trkpt>
      <trkpt lat="43.75051" lon="7.26539">
        <ele>296</ele>
        <time>2012-04-22T15:22:28Z</time>
      </trkpt>
      <trkpt lat="43.75049" lon="7.26543">
        <ele>296</ele>
        <time>2012-04-22T15:22:36Z</time>
      </trkpt>
      <trkpt lat="43.75047" lon="7.26548">
        <ele>296</ele>
        <time>2012-04-22T15:22:44Z</time>
      </trkpt>
      <trkpt lat="43.75045" lon="7.26555">
        <ele>293</ele>
        <time>2012-04-22T15:22:52Z</time>
      </trkpt>
      <trkpt lat="43.75037" lon="7.2657">
        <ele>291</ele>
        <time>2012-04-22T15:23:00Z</time>
      </trkpt>
      <trkpt lat="43.75024" lon="7.26583">
        <ele>287</ele>
        <time>2012-04-22T15:23:07Z</time>
      </trkpt>
      <trkpt lat="43.74998" lon="7.26622">
        <ele>283</ele>
        <time>2012-04-22T15:23:15Z</time>
      </trkpt>
      <trkpt lat="43.74984" lon="7.26637">
        <ele>280</ele>
        <time>2012-04-22T15:23:21Z</time>
      </trkpt>
      <trkpt lat="43.74965" lon="7.26657">
        <ele>275</ele>
        <time>2012-04-22T15:23:27Z</time>
      </trkpt>
      <trkpt lat="43.74956" lon="7.26677">
        <ele>266</ele>
        <time>2012-04-22T15:23:36Z</time>
      </trkpt>
      <trkpt lat="43.74949" lon="7.26695">
        <ele>261</ele>
        <time>2012-04-22T15:23:43Z</time>
      </trkpt>
      <trkpt lat="43.74945" lon="7.26708">
        <ele>253</ele>
        <time>2012-04-22T15:23:52Z</time>
      </trkpt>
      <trkpt lat="43.74944" lon="7.26711">
        <ele>251</ele>
        <time>2012-04-22T15:23:57Z</time>
      </trkpt>
      <trkpt lat="43.74941" lon="7.26717">
        <ele>247</ele>
        <time>2012-04-22T15:24:05Z</time>
      </trkpt>
      <trkpt lat="43.74936" lon="7.26731">
        <ele>243</ele>
        <time>2012-04-22T15:24:13Z</time>
      </trkpt>
      <trkpt lat="43.74928" lon="7.26753">
        <ele>239</ele>
        <time>2012-04-22T15:24:22Z</time>
      </trkpt>
      <trkpt lat="43.74921" lon="7.26768">
        <ele>236</ele>
        <time>2012-04-22T15:24:29Z</time>
      </trkpt>
      <trkpt lat="43.74914" lon="7.2678">
        <ele>231</ele>
        <time>2012-04-22T15:24:35Z</time>
      </trkpt>
      <trkpt lat="43.74905" lon="7.26788">
        <ele>224</ele>
        <time>2012-04-22T15:24:45Z</time>
      </trkpt>
      <trkpt lat="43.74904" lon="7.26791">
        <ele>222</ele>
        <time>2012-04-22T15:24:52Z</time>
      </trkpt>
      <trkpt lat="43.74898" lon="7.26799">
        <ele>221</ele>
        <time>2012-04-22T15:24:58Z</time>
      </trkpt>
      <trkpt lat="43.74894" lon="7.26804">
        <ele>219</ele>
        <time>2012-04-22T15:25:04Z</time>
      </trkpt>
      <trkpt lat="43.74891" lon="7.26807">
        <ele>216</ele>
        <time>2012-04-22T15:25:10Z</time>
      </trkpt>
      <trkpt lat="43.74884" lon="7.26814">
        <ele>206</ele>
        <time>2012-04-22T15:25:18Z</time>
      </trkpt>
      <trkpt lat="43.74879" lon="7.26822">
        <ele>199</ele>
        <time>2012-04-22T15:25:27Z</time>
      </trkpt>
      <trkpt lat="43.74873" lon="7.26829">
        <ele>195</ele>
        <time>2012-04-22T15:25:34Z</time>
      </trkpt>
      <trkpt lat="43.7487" lon="7.26831">
        <ele>190</ele>
        <time>2012-04-22T15:25:45Z</time>
      </trkpt>
      <trkpt lat="43.74868" lon="7.26833">
        <ele>190</ele>
        <time>2012-04-22T15:26:00Z</time>
      </trkpt>
      <trkpt lat="43.74867" lon="7.26833">
        <ele>190</ele>
        <time>2012-04-22T15:26:24Z</time>
      </trkpt>
      <trkpt lat="43.74868" lon="7.26832">
        <ele>190</ele>
        <time>2012-04-22T15:26:43Z</time>
      </trkpt>
      <trkpt lat="43.74866" lon="7.26832">
        <ele>190</ele>
        <time>2012-04-22T15:26:57Z</time>
      </trkpt>
      <trkpt lat="43.74865" lon="7.26833">
        <ele>190</ele>
        <time>2012-04-22T15:27:06Z</time>
      </trkpt>
      <trkpt lat="43.7486" lon="7.26835">
        <ele>190</ele>
        <time>2012-04-22T15:27:14Z</time>
      </trkpt>
      <trkpt lat="43.74859" lon="7.26837">
        <ele>187</ele>
        <time>2012-04-22T15:27:31Z</time>
      </trkpt>
      <trkpt lat="43.74857" lon="7.26839">
        <ele>185</ele>
        <time>2012-04-22T15:27:39Z</time>
      </trkpt>
      <trkpt lat="43.74859" lon="7.26838">
        <ele>184</ele>
        <time>2012-04-22T15:27:46Z</time>
      </trkpt>
      <trkpt lat="43.74861" lon="7.26855">
        <ele>184</ele>
        <time>2012-04-22T15:27:54Z</time>
      </trkpt>
      <trkpt lat="43.74861" lon="7.26886">
        <ele>184</ele>
        <time>2012-04-22T15:28:00Z</time>
      </trkpt>
      <trkpt lat="43.74861" lon="7.2691">
        <ele>181</ele>
        <time>2012-04-22T15:28:06Z</time>
      </trkpt>
      <trkpt lat="43.74855" lon="7.26963">
        <ele>178</ele>
        <time>2012-04-22T15:28:13Z</time>
      </trkpt>
      <trkpt lat="43.74854" lon="7.26974">
        <ele>176</ele>
        <time>2012-04-22T15:28:19Z</time>
      </trkpt>
      <trkpt lat="43.74851" lon="7.27004">
        <ele>172</ele>
        <time>2012-04-22T15:28:25Z</time>
      </trkpt>
      <trkpt lat="43.74846" lon="7.27038">
        <ele>168</ele>
        <time>2012-04-22T15:28:31Z</time>
      </trkpt>
      <trkpt lat="43.7484" lon="7.27081">
        <ele>165</ele>
        <time>2012-04-22T15:28:37Z</time>
      </trkpt>
      <trkpt lat="43.74836" lon="7.27098">
        <ele>162</ele>
        <time>2012-04-22T15:28:47Z</time>
      </trkpt>
      <trkpt lat="43.74834" lon="7.27114">
        <ele>162</ele>
        <time>2012-04-22T15:28:52Z</time>
      </trkpt>
      <trkpt lat="43.74834" lon="7.27124">
        <ele>162</ele>
        <time>2012-04-22T15:28:58Z</time>
      </trkpt>
      <trkpt lat="43.74826" lon="7.27149">
        <ele>162</ele>
        <time>2012-04-22T15:29:05Z</time>
      </trkpt>
      <trkpt lat="43.74815" lon="7.27183">
        <ele>161</ele>
        <time>2012-04-22T15:29:11Z</time>
      </trkpt>
      <trkpt lat="43.74801" lon="7.27211">
        <ele>160</ele>
        <time>2012-04-22T15:29:18Z</time>
      </trkpt>
      <trkpt lat="43.74795" lon="7.27211">
        <ele>158</ele>
        <time>2012-04-22T15:29:26Z</time>
      </trkpt>
      <trkpt lat="43.74793" lon="7.27214">
        <ele>157</ele>
        <time>2012-04-22T15:29:34Z</time>
      </trkpt>
      <trkpt lat="43.7479" lon="7.27216">
        <ele>158</ele>
        <time>2012-04-22T15:29:43Z</time>
      </trkpt>
      <trkpt lat="43.74786" lon="7.27218">
        <ele>162</ele>
        <time>2012-04-22T15:29:50Z</time>
      </trkpt>
      <trkpt lat="43.7478" lon="7.2722">
        <ele>165</ele>
        <time>2012-04-22T15:29:56Z</time>
      </trkpt>
      <trkpt lat="43.74775" lon="7.27226">
        <ele>170</ele>
        <time>2012-04-22T15:30:05Z</time>
      </trkpt>
      <trkpt lat="43.74768" lon="7.2723">
        <ele>175</ele>
        <time>2012-04-22T15:30:14Z</time>
      </trkpt>
      <trkpt lat="43.74768" lon="7.27238">
        <ele>175</ele>
        <time>2012-04-22T15:30:23Z</time>
      </trkpt>
      <trkpt lat="43.74762" lon="7.27246">
        <ele>175</ele>
        <time>2012-04-22T15:30:31Z</time>
      </trkpt>
      <trkpt lat="43.74756" lon="7.27251">
        <ele>173</ele>
        <time>2012-04-22T15:30:37Z</time>
      </trkpt>
      <trkpt lat="43.74752" lon="7.27256">
        <ele>171</ele>
        <time>2012-04-22T15:30:46Z</time>
      </trkpt>
      <trkpt lat="43.74746" lon="7.27261">
        <ele>169</ele>
        <time>2012-04-22T15:30:53Z</time>
      </trkpt>
      <trkpt lat="43.74738" lon="7.2727">
        <ele>165</ele>
        <time>2012-04-22T15:31:01Z</time>
      </trkpt>
      <trkpt lat="43.74731" lon="7.27282">
        <ele>162</ele>
        <time>2012-04-22T15:31:08Z</time>
      </trkpt>
      <trkpt lat="43.74712" lon="7.27288">
        <ele>161</ele>
        <time>2012-04-22T15:31:16Z</time>
      </trkpt>
      <trkpt lat="43.74703" lon="7.27291">
        <ele>161</ele>
        <time>2012-04-22T15:31:22Z</time>
      </trkpt>
      <trkpt lat="43.74698" lon="7.27295">
        <ele>161</ele>
        <time>2012-04-22T15:31:33Z</time>
      </trkpt>
      <trkpt lat="43.74695" lon="7.273">
        <ele>164</ele>
        <time>2012-04-22T15:31:41Z</time>
      </trkpt>
      <trkpt lat="43.74691" lon="7.27308">
        <ele>166</ele>
        <time>2012-04-22T15:31:47Z</time>
      </trkpt>
      <trkpt lat="43.74685" lon="7.2731">
        <ele>170</ele>
        <time>2012-04-22T15:31:56Z</time>
      </trkpt>
      <trkpt lat="43.74676" lon="7.27312">
        <ele>174</ele>
        <time>2012-04-22T15:32:04Z</time>
      </trkpt>
      <trkpt lat="43.74673" lon="7.27314">
        <ele>177</ele>
        <time>2012-04-22T15:32:10Z</time>
      </trkpt>
      <trkpt lat="43.74666" lon="7.27317">
        <ele>182</ele>
        <time>2012-04-22T15:32:19Z</time>
      </trkpt>
      <trkpt lat="43.74662" lon="7.27321">
        <ele>186</ele>
        <time>2012-04-22T15:32:27Z</time>
      </trkpt>
      <trkpt lat="43.74665" lon="7.27325">
        <ele>189</ele>
        <time>2012-04-22T15:32:34Z</time>
      </trkpt>
      <trkpt lat="43.7467" lon="7.27324">
        <ele>192</ele>
        <time>2012-04-22T15:32:43Z</time>
      </trkpt>
      <trkpt lat="43.74674" lon="7.27325">
        <ele>192</ele>
        <time>2012-04-22T15:32:50Z</time>
      </trkpt>
      <trkpt lat="43.74683" lon="7.27328">
        <ele>192</ele>
        <time>2012-04-22T15:32:56Z</time>
      </trkpt>
      <trkpt lat="43.74678" lon="7.27321">
        <ele>192</ele>
        <time>2012-04-22T15:33:04Z</time>
      </trkpt>
      <trkpt lat="43.74675" lon="7.2732">
        <ele>189</ele>
        <time>2012-04-22T15:33:14Z</time>
      </trkpt>
      <trkpt lat="43.74673" lon="7.27321">
        <ele>188</ele>
        <time>2012-04-22T15:33:21Z</time>
      </trkpt>
      <trkpt lat="43.74676" lon="7.27324">
        <ele>184</ele>
        <time>2012-04-22T15:33:29Z</time>
      </trkpt>
      <trkpt lat="43.74678" lon="7.27326">
        <ele>184</ele>
        <time>2012-04-22T15:33:36Z</time>
      </trkpt>
      <trkpt lat="43.7468" lon="7.27326">
        <ele>184</ele>
        <time>2012-04-22T15:33:44Z</time>
      </trkpt>
      <trkpt lat="43.74686" lon="7.27331">
        <ele>189</ele>
        <time>2012-04-22T15:33:53Z</time>
      </trkpt>
      <trkpt lat="43.74692" lon="7.27341">
        <ele>197</ele>
        <time>2012-04-22T15:34:03Z</time>
      </trkpt>
      <trkpt lat="43.74701" lon="7.2735">
        <ele>198</ele>
        <time>2012-04-22T15:34:14Z</time>
      </trkpt>
      <trkpt lat="43.74704" lon="7.27351">
        <ele>190</ele>
        <time>2012-04-22T15:34:23Z</time>
      </trkpt>
      <trkpt lat="43.74706" lon="7.27352">
        <ele>185</ele>
        <time>2012-04-22T15:34:31Z</time>
      </trkpt>
      <trkpt lat="43.74705" lon="7.27363">
        <ele>181</ele>
        <time>2012-04-22T15:34:38Z</time>
      </trkpt>
      <trkpt lat="43.747" lon="7.27377">
        <ele>177</ele>
        <time>2012-04-22T15:34:46Z</time>
      </trkpt>
      <trkpt lat="43.74694" lon="7.27383">
        <ele>174</ele>
        <time>2012-04-22T15:34:54Z</time>
      </trkpt>
      <trkpt lat="43.74686" lon="7.27395">
        <ele>174</ele>
        <time>2012-04-22T15:35:00Z</time>
      </trkpt>
      <trkpt lat="43.74683" lon="7.27398">
        <ele>174</ele>
        <time>2012-04-22T15:35:06Z</time>
      </trkpt>
      <trkpt lat="43.74683" lon="7.27409">
        <ele>174</ele>
        <time>2012-04-22T15:35:15Z</time>
      </trkpt>
      <trkpt lat="43.74678" lon="7.27417">
        <ele>174</ele>
        <time>2012-04-22T15:35:22Z</time>
      </trkpt>
      <trkpt lat="43.74673" lon="7.27423">
        <ele>174</ele>
        <time>2012-04-22T15:35:28Z</time>
      </trkpt>
      <trkpt lat="43.74665" lon="7.27434">
        <ele>174</ele>
        <time>2012-04-22T15:35:34Z</time>
      </trkpt>
      <trkpt lat="43.74653" lon="7.27483">
        <ele>174</ele>
        <time>2012-04-22T15:35:41Z</time>
      </trkpt>
      <trkpt lat="43.74649" lon="7.27495">
        <ele>173</ele>
        <time>2012-04-22T15:35:48Z</time>
      </trkpt>
      <trkpt lat="43.7463" lon="7.27521">
        <ele>169</ele>
        <time>2012-04-22T15:35:56Z</time>
      </trkpt>
      <trkpt lat="43.74614" lon="7.27541">
        <ele>168</ele>
        <time>2012-04-22T15:36:02Z</time>
      </trkpt>
      <trkpt lat="43.74601" lon="7.27561">
        <ele>167</ele>
        <time>2012-04-22T15:36:08Z</time>
      </trkpt>
      <trkpt lat="43.74586" lon="7.27605">
        <ele>168</ele>
        <time>2012-04-22T15:36:18Z</time>
      </trkpt>
      <trkpt lat="43.74573" lon="7.27624">
        <ele>170</ele>
        <time>2012-04-22T15:36:23Z</time>
      </trkpt>
      <trkpt lat="43.74558" lon="7.2764">
        <ele>171</ele>
        <time>2012-04-22T15:36:29Z</time>
      </trkpt>
      <trkpt lat="43.74537" lon="7.27636">
        <ele>175</ele>
        <time>2012-04-22T15:36:37Z</time>
      </trkpt>
      <trkpt lat="43.74528" lon="7.27629">
        <ele>178</ele>
        <time>2012-04-22T15:36:45Z</time>
      </trkpt>
      <trkpt lat="43.74506" lon="7.27634">
        <ele>181</ele>
        <time>2012-04-22T15:36:54Z</time>
      </trkpt>
      <trkpt lat="43.74498" lon="7.27639">
        <ele>181</ele>
        <time>2012-04-22T15:37:00Z</time>
      </trkpt>
      <trkpt lat="43.74485" lon="7.2764">
        <ele>181</ele>
        <time>2012-04-22T15:37:07Z</time>
      </trkpt>
      <trkpt lat="43.74477" lon="7.27649">
        <ele>182</ele>
        <time>2012-04-22T15:37:17Z</time>
      </trkpt>
      <trkpt lat="43.74475" lon="7.27656">
        <ele>185</ele>
        <time>2012-04-22T15:37:23Z</time>
      </trkpt>
      <trkpt lat="43.74473" lon="7.27668">
        <ele>186</ele>
        <time>2012-04-22T15:37:32Z</time>
      </trkpt>
      <trkpt lat="43.74473" lon="7.27686">
        <ele>188</ele>
        <time>2012-04-22T15:37:38Z</time>
      </trkpt>
      <trkpt lat="43.74471" lon="7.27694">
        <ele>190</ele>
        <time>2012-04-22T15:37:45Z</time>
      </trkpt>
      <trkpt lat="43.74466" lon="7.27708">
        <ele>190</ele>
        <time>2012-04-22T15:37:52Z</time>
      </trkpt>
      <trkpt lat="43.74456" lon="7.27719">
        <ele>191</ele>
        <time>2012-04-22T15:37:59Z</time>
      </trkpt>
      <trkpt lat="43.74448" lon="7.27728">
        <ele>191</ele>
        <time>2012-04-22T15:38:05Z</time>
      </trkpt>
      <trkpt lat="43.74445" lon="7.27733">
        <ele>193</ele>
        <time>2012-04-22T15:38:16Z</time>
      </trkpt>
      <trkpt lat="43.74444" lon="7.27734">
        <ele>193</ele>
        <time>2012-04-22T15:38:27Z</time>
      </trkpt>
      <trkpt lat="43.74443" lon="7.27736">
        <ele>196</ele>
        <time>2012-04-22T15:38:35Z</time>
      </trkpt>
      <trkpt lat="43.74442" lon="7.27738">
        <ele>197</ele>
        <time>2012-04-22T15:38:40Z</time>
      </trkpt>
      <trkpt lat="43.74443" lon="7.27738">
        <ele>202</ele>
        <time>2012-04-22T15:38:50Z</time>
      </trkpt>
      <trkpt lat="43.74444" lon="7.27736">
        <ele>202</ele>
        <time>2012-04-22T15:38:59Z</time>
      </trkpt>
      <trkpt lat="43.74444" lon="7.27738">
        <ele>202</ele>
        <time>2012-04-22T15:39:09Z</time>
      </trkpt>
      <trkpt lat="43.74442" lon="7.27742">
        <ele>202</ele>
        <time>2012-04-22T15:39:14Z</time>
      </trkpt>
      <trkpt lat="43.74438" lon="7.2776">
        <ele>199</ele>
        <time>2012-04-22T15:39:20Z</time>
      </trkpt>
      <trkpt lat="43.74439" lon="7.27759">
        <ele>194</ele>
        <time>2012-04-22T15:39:30Z</time>
      </trkpt>
      <trkpt lat="43.74445" lon="7.27774">
        <ele>193</ele>
        <time>2012-04-22T15:39:39Z</time>
      </trkpt>
      <trkpt lat="43.74451" lon="7.2779">
        <ele>189</ele>
        <time>2012-04-22T15:39:47Z</time>
      </trkpt>
      <trkpt lat="43.74454" lon="7.27808">
        <ele>186</ele>
        <time>2012-04-22T15:39:54Z</time>
      </trkpt>
      <trkpt lat="43.74459" lon="7.27822">
        <ele>181</ele>
        <time>2012-04-22T15:40:02Z</time>
      </trkpt>
      <trkpt lat="43.74468" lon="7.27841">
        <ele>173</ele>
        <time>2012-04-22T15:40:09Z</time>
      </trkpt>
      <trkpt lat="43.74468" lon="7.27845">
        <ele>168</ele>
        <time>2012-04-22T15:40:18Z</time>
      </trkpt>
      <trkpt lat="43.74464" lon="7.27853">
        <ele>167</ele>
        <time>2012-04-22T15:40:25Z</time>
      </trkpt>
      <trkpt lat="43.74454" lon="7.2787">
        <ele>167</ele>
        <time>2012-04-22T15:40:34Z</time>
      </trkpt>
      <trkpt lat="43.74437" lon="7.27873">
        <ele>167</ele>
        <time>2012-04-22T15:40:42Z</time>
      </trkpt>
      <trkpt lat="43.74419" lon="7.27867">
        <ele>167</ele>
        <time>2012-04-22T15:40:50Z</time>
      </trkpt>
      <trkpt lat="43.74406" lon="7.27864">
        <ele>167</ele>
        <time>2012-04-22T15:40:57Z</time>
      </trkpt>
      <trkpt lat="43.74396" lon="7.27866">
        <ele>167</ele>
        <time>2012-04-22T15:41:08Z</time>
      </trkpt>
      <trkpt lat="43.74394" lon="7.27867">
        <ele>167</ele>
        <time>2012-04-22T15:41:17Z</time>
      </trkpt>
      <trkpt lat="43.74393" lon="7.27869">
        <ele>167</ele>
        <time>2012-04-22T15:41:23Z</time>
      </trkpt>
      <trkpt lat="43.74388" lon="7.27873">
        <ele>167</ele>
        <time>2012-04-22T15:41:31Z</time>
      </trkpt>
      <trkpt lat="43.74376" lon="7.27883">
        <ele>165</ele>
        <time>2012-04-22T15:41:38Z</time>
      </trkpt>
      <trkpt lat="43.7437" lon="7.27898">
        <ele>160</ele>
        <time>2012-04-22T15:41:47Z</time>
      </trkpt>
      <trkpt lat="43.74366" lon="7.27899">
        <ele>158</ele>
        <time>2012-04-22T15:41:55Z</time>
      </trkpt>
      <trkpt lat="43.74364" lon="7.27907">
        <ele>158</ele>
        <time>2012-04-22T15:42:03Z</time>
      </trkpt>
      <trkpt lat="43.74355" lon="7.27923">
        <ele>157</ele>
        <time>2012-04-22T15:42:11Z</time>
      </trkpt>
      <trkpt lat="43.74348" lon="7.27935">
        <ele>157</ele>
        <time>2012-04-22T15:42:16Z</time>
      </trkpt>
      <trkpt lat="43.74339" lon="7.27958">
        <ele>157</ele>
        <time>2012-04-22T15:42:23Z</time>
      </trkpt>
      <trkpt lat="43.74337" lon="7.2796">
        <ele>157</ele>
        <time>2012-04-22T15:42:32Z</time>
      </trkpt>
      <trkpt lat="43.74338" lon="7.27965">
        <ele>160</ele>
        <time>2012-04-22T15:42:42Z</time>
      </trkpt>
      <trkpt lat="43.7434" lon="7.27968">
        <ele>160</ele>
        <time>2012-04-22T15:42:49Z</time>
      </trkpt>
      <trkpt lat="43.74343" lon="7.27974">
        <ele>160</ele>
        <time>2012-04-22T15:42:56Z</time>
      </trkpt>
      <trkpt lat="43.74346" lon="7.2798">
        <ele>155</ele>
        <time>2012-04-22T15:43:05Z</time>
      </trkpt>
      <trkpt lat="43.74347" lon="7.27987">
        <ele>152</ele>
        <time>2012-04-22T15:43:12Z</time>
      </trkpt>
      <trkpt lat="43.74344" lon="7.28006">
        <ele>150</ele>
        <time>2012-04-22T15:43:19Z</time>
      </trkpt>
      <trkpt lat="43.74331" lon="7.28028">
        <ele>149</ele>
        <time>2012-04-22T15:43:26Z</time>
      </trkpt>
      <trkpt lat="43.74329" lon="7.28031">
        <ele>148</ele>
        <time>2012-04-22T15:43:36Z</time>
      </trkpt>
      <trkpt lat="43.74325" lon="7.28038">
        <ele>148</ele>
        <time>2012-04-22T15:43:42Z</time>
      </trkpt>
      <trkpt lat="43.74318" lon="7.28049">
        <ele>148</ele>
        <time>2012-04-22T15:43:48Z</time>
      </trkpt>
      <trkpt lat="43.7431" lon="7.28067">
        <ele>148</ele>
        <time>2012-04-22T15:43:55Z</time>
      </trkpt>
      <trkpt lat="43.74307" lon="7.28072">
        <ele>148</ele>
        <time>2012-04-22T15:44:02Z</time>
      </trkpt>
      <trkpt lat="43.74305" lon="7.28078">
        <ele>148</ele>
        <time>2012-04-22T15:44:08Z</time>
      </trkpt>
      <trkpt lat="43.74302" lon="7.28083">
        <ele>148</ele>
        <time>2012-04-22T15:44:14Z</time>
      </trkpt>
      <trkpt lat="43.743" lon="7.28089">
        <ele>150</ele>
        <time>2012-04-22T15:44:24Z</time>
      </trkpt>
      <trkpt lat="43.74301" lon="7.28092">
        <ele>151</ele>
        <time>2012-04-22T15:44:32Z</time>
      </trkpt>
      <trkpt lat="43.74301" lon="7.28104">
        <ele>151</ele>
        <time>2012-04-22T15:44:38Z</time>
      </trkpt>
      <trkpt lat="43.74301" lon="7.28121">
        <ele>151</ele>
        <time>2012-04-22T15:44:44Z</time>
      </trkpt>
      <trkpt lat="43.74276" lon="7.28169">
        <ele>151</ele>
        <time>2012-04-22T15:44:51Z</time>
      </trkpt>
      <trkpt lat="43.7427" lon="7.28184">
        <ele>151</ele>
        <time>2012-04-22T15:44:58Z</time>
      </trkpt>
      <trkpt lat="43.74258" lon="7.28214">
        <ele>148</ele>
        <time>2012-04-22T15:45:04Z</time>
      </trkpt>
      <trkpt lat="43.74249" lon="7.28235">
        <ele>144</ele>
        <time>2012-04-22T15:45:10Z</time>
      </trkpt>
      <trkpt lat="43.74242" lon="7.28257">
        <ele>140</ele>
        <time>2012-04-22T15:45:16Z</time>
      </trkpt>
      <trkpt lat="43.74218" lon="7.28296">
        <ele>137</ele>
        <time>2012-04-22T15:45:22Z</time>
      </trkpt>
      <trkpt lat="43.74218" lon="7.28314">
        <ele>133</ele>
        <time>2012-04-22T15:45:31Z</time>
      </trkpt>
      <trkpt lat="43.74182" lon="7.28355">
        <ele>132</ele>
        <time>2012-04-22T15:45:38Z</time>
      </trkpt>
      <trkpt lat="43.74168" lon="7.28389">
        <ele>127</ele>
        <time>2012-04-22T15:45:47Z</time>
      </trkpt>
      <trkpt lat="43.74171" lon="7.28408">
        <ele>123</ele>
        <time>2012-04-22T15:45:55Z</time>
      </trkpt>
      <trkpt lat="43.74162" lon="7.28428">
        <ele>120</ele>
        <time>2012-04-22T15:46:01Z</time>
      </trkpt>
      <trkpt lat="43.74149" lon="7.2846">
        <ele>117</ele>
        <time>2012-04-22T15:46:07Z</time>
      </trkpt>
      <trkpt lat="43.74129" lon="7.28494">
        <ele>112</ele>
        <time>2012-04-22T15:46:14Z</time>
      </trkpt>
      <trkpt lat="43.74123" lon="7.28526">
        <ele>108</ele>
        <time>2012-04-22T15:46:21Z</time>
      </trkpt>
      <trkpt lat="43.74102" lon="7.28534">
        <ele>104</ele>
        <time>2012-04-22T15:46:29Z</time>
      </trkpt>
      <trkpt lat="43.74083" lon="7.28538">
        <ele>101</ele>
        <time>2012-04-22T15:46:35Z</time>
      </trkpt>
      <trkpt lat="43.74073" lon="7.28538">
        <ele>95</ele>
        <time>2012-04-22T15:46:44Z</time>
      </trkpt>
      <trkpt lat="43.74067" lon="7.28557">
        <ele>90</ele>
        <time>2012-04-22T15:46:52Z</time>
      </trkpt>
      <trkpt lat="43.7407" lon="7.28568">
        <ele>84</ele>
        <time>2012-04-22T15:47:01Z</time>
      </trkpt>
      <trkpt lat="43.74072" lon="7.28572">
        <ele>81</ele>
        <time>2012-04-22T15:47:09Z</time>
      </trkpt>
      <trkpt lat="43.74063" lon="7.28579">
        <ele>80</ele>
        <time>2012-04-22T15:47:16Z</time>
      </trkpt>
      <trkpt lat="43.74059" lon="7.28581">
        <ele>78</ele>
        <time>2012-04-22T15:47:22Z</time>
      </trkpt>
      <trkpt lat="43.74063" lon="7.28585">
        <ele>77</ele>
        <time>2012-04-22T15:47:27Z</time>
      </trkpt>
      <trkpt lat="43.74069" lon="7.28589">
        <ele>76</ele>
        <time>2012-04-22T15:47:33Z</time>
      </trkpt>
      <trkpt lat="43.74072" lon="7.28596">
        <ele>73</ele>
        <time>2012-04-22T15:47:41Z</time>
      </trkpt>
      <trkpt lat="43.74049" lon="7.28617">
        <ele>69</ele>
        <time>2012-04-22T15:47:48Z</time>
      </trkpt>
      <trkpt lat="43.7405" lon="7.28616">
        <ele>62</ele>
        <time>2012-04-22T15:48:15Z</time>
      </trkpt>
      <trkpt lat="43.74049" lon="7.28617">
        <ele>62</ele>
        <time>2012-04-22T15:48:40Z</time>
      </trkpt>
      <trkpt lat="43.74049" lon="7.28619">
        <ele>62</ele>
        <time>2012-04-22T15:48:59Z</time>
      </trkpt>
      <trkpt lat="43.74043" lon="7.28635">
        <ele>62</ele>
        <time>2012-04-22T15:49:05Z</time>
      </trkpt>
      <trkpt lat="43.74005" lon="7.28697">
        <ele>60</ele>
        <time>2012-04-22T15:49:10Z</time>
      </trkpt>
      <trkpt lat="43.7399" lon="7.28729">
        <ele>58</ele>
        <time>2012-04-22T15:49:15Z</time>
      </trkpt>
      <trkpt lat="43.73982" lon="7.28752">
        <ele>57</ele>
        <time>2012-04-22T15:49:20Z</time>
      </trkpt>
      <trkpt lat="43.73985" lon="7.28759">
        <ele>57</ele>
        <time>2012-04-22T15:49:26Z</time>
      </trkpt>
      <trkpt lat="43.73981" lon="7.28759">
        <ele>57</ele>
        <time>2012-04-22T15:49:32Z</time>
      </trkpt>
      <trkpt lat="43.7397" lon="7.28757">
        <ele>57</ele>
        <time>2012-04-22T15:49:37Z</time>
      </trkpt>
      <trkpt lat="43.73956" lon="7.28743">
        <ele>56</ele>
        <time>2012-04-22T15:49:43Z</time>
      </trkpt>
      <trkpt lat="43.73944" lon="7.28733">
        <ele>54</ele>
        <time>2012-04-22T15:49:48Z</time>
      </trkpt>
      <trkpt lat="43.73934" lon="7.28728">
        <ele>54</ele>
        <time>2012-04-22T15:49:53Z</time>
      </trkpt>
      <trkpt lat="43.73921" lon="7.28723">
        <ele>54</ele>
        <time>2012-04-22T15:49:58Z</time>
      </trkpt>
      <trkpt lat="43.73906" lon="7.28717">
        <ele>54</ele>
        <time>2012-04-22T15:50:03Z</time>
      </trkpt>
      <trkpt lat="43.73889" lon="7.28711">
        <ele>54</ele>
        <time>2012-04-22T15:50:08Z</time>
      </trkpt>
      <trkpt lat="43.73872" lon="7.28702">
        <ele>54</ele>
        <time>2012-04-22T15:50:13Z</time>
      </trkpt>
      <trkpt lat="43.73856" lon="7.28695">
        <ele>54</ele>
        <time>2012-04-22T15:50:18Z</time>
      </trkpt>
      <trkpt lat="43.73837" lon="7.28691">
        <ele>54</ele>
        <time>2012-04-22T15:50:23Z</time>
      </trkpt>
      <trkpt lat="43.73818" lon="7.2869">
        <ele>54</ele>
        <time>2012-04-22T15:50:29Z</time>
      </trkpt>
      <trkpt lat="43.73813" lon="7.2869">
        <ele>53</ele>
        <time>2012-04-22T15:50:35Z</time>
      </trkpt>
      <trkpt lat="43.73803" lon="7.28692">
        <ele>53</ele>
        <time>2012-04-22T15:50:40Z</time>
      </trkpt>
      <trkpt lat="43.73789" lon="7.28695">
        <ele>53</ele>
        <time>2012-04-22T15:50:45Z</time>
      </trkpt>
      <trkpt lat="43.73795" lon="7.28696">
        <ele>52</ele>
        <time>2012-04-22T15:50:51Z</time>
      </trkpt>
      <trkpt lat="43.7381" lon="7.28695">
        <ele>52</ele>
        <time>2012-04-22T15:50:56Z</time>
      </trkpt>
      <trkpt lat="43.73817" lon="7.28691">
        <ele>52</ele>
        <time>2012-04-22T15:51:04Z</time>
      </trkpt>
      <trkpt lat="43.73816" lon="7.28697">
        <ele>52</ele>
        <time>2012-04-22T15:51:13Z</time>
      </trkpt>
      <trkpt lat="43.73814" lon="7.287">
        <ele>56</ele>
        <time>2012-04-22T15:51:20Z</time>
      </trkpt>
      <trkpt lat="43.73814" lon="7.287">
        <ele>57</ele>
        <time>2012-04-22T15:51:23Z</time>
      </trkpt>
    </trkseg>
  </trk>
</gpx>